<?xml version='1.0' encoding='UTF-8'?><gpx version="1.1" creator="JPX - https://github.com/jenetics/jpx" xmlns="http://www.topografix.com/GPX/1/1"><trk><trkseg><trkpt lat="43.80399980851649" lon="7.627934083473864"><ele>15.0</ele><time>2026-03-29T09:06:52.335Z</time></trkpt><trkpt lat="43.80406635939156" lon="7.627939829989801"><ele>15.0</ele><time>2026-03-29T09:06:58.737Z</time></trkpt><trkpt lat="43.80389022757624" lon="7.627936451193315"><ele>15.0</ele><time>2026-03-29T09:07:32.543Z</time></trkpt><trkpt lat="43.804108447574066" lon="7.6282714323669785"><ele>15.0</ele><time>2026-03-29T09:08:23.93Z</time></trkpt><trkpt lat="43.80404263053182" lon="7.628306799666962"><ele>15.0</ele><time>2026-03-29T09:08:26.93Z</time></trkpt><trkpt lat="43.80393274884828" lon="7.628269970467025"><ele>15.0</ele><time>2026-03-29T09:08:27.93Z</time></trkpt><trkpt lat="43.803999126306465" lon="7.628310332853001"><ele>15.0</ele><time>2026-03-29T09:08:45Z</time></trkpt><trkpt lat="43.804060525235656" lon="7.628337349973678"><ele>15.0</ele><time>2026-03-29T09:08:46Z</time></trkpt><trkpt lat="43.8041832680214" lon="7.6283366593277355"><ele>15.0</ele><time>2026-03-29T09:08:48Z</time></trkpt><trkpt lat="43.80431716831115" lon="7.62832416831665"><ele>15.166666666666666</ele><time>2026-03-29T09:08:50Z</time></trkpt><trkpt lat="43.80439833568016" lon="7.628286420702211"><ele>15.333333333333332</ele><time>2026-03-29T09:08:51Z</time></trkpt><trkpt lat="43.804476373747" lon="7.628269521964035"><ele>15.5</ele><time>2026-03-29T09:08:52Z</time></trkpt><trkpt lat="43.804508406013284" lon="7.628126735292357"><ele>15.666666666666666</ele><time>2026-03-29T09:08:53Z</time></trkpt><trkpt lat="43.80453730875862" lon="7.62804232633464"><ele>15.833333333333332</ele><time>2026-03-29T09:08:54Z</time></trkpt><trkpt lat="43.80456604038877" lon="7.627964243075985"><ele>16.0</ele><time>2026-03-29T09:08:55Z</time></trkpt><trkpt lat="43.804628070796326" lon="7.6278619142981245"><ele>16.166666666666664</ele><time>2026-03-29T09:08:57Z</time></trkpt><trkpt lat="43.80466565880944" lon="7.627782303321591"><ele>16.333333333333332</ele><time>2026-03-29T09:08:58Z</time></trkpt><trkpt lat="43.80471021560139" lon="7.627692567480433"><ele>16.5</ele><time>2026-03-29T09:08:59Z</time></trkpt><trkpt lat="43.80473716607248" lon="7.627576613706409"><ele>16.666666666666668</ele><time>2026-03-29T09:09:00Z</time></trkpt><trkpt lat="43.80473475500347" lon="7.627420373593555"><ele>16.833333333333336</ele><time>2026-03-29T09:09:01Z</time></trkpt><trkpt lat="43.804732729611764" lon="7.627302492877771"><ele>17.0</ele><time>2026-03-29T09:09:02Z</time></trkpt><trkpt lat="43.80474995821355" lon="7.627179189939218"><ele>17.0</ele><time>2026-03-29T09:09:03Z</time></trkpt><trkpt lat="43.804771154236036" lon="7.6270662671862866"><ele>17.0</ele><time>2026-03-29T09:09:04Z</time></trkpt><trkpt lat="43.80478508128743" lon="7.6269622524923015"><ele>17.0</ele><time>2026-03-29T09:09:05Z</time></trkpt><trkpt lat="43.804799816183255" lon="7.626875270141792"><ele>17.0</ele><time>2026-03-29T09:09:06.001Z</time></trkpt><trkpt lat="43.80482750897264" lon="7.626702815777788"><ele>17.0</ele><time>2026-03-29T09:09:08.001Z</time></trkpt><trkpt lat="43.80484063516396" lon="7.626608737922148"><ele>17.0</ele><time>2026-03-29T09:09:09.001Z</time></trkpt><trkpt lat="43.80485317783423" lon="7.626506526935638"><ele>16.333333333333336</ele><time>2026-03-29T09:09:10.001Z</time></trkpt><trkpt lat="43.80486626503526" lon="7.626398365342344"><ele>15.666666666666668</ele><time>2026-03-29T09:09:11.001Z</time></trkpt><trkpt lat="43.8048815891987" lon="7.626290162422989"><ele>15.0</ele><time>2026-03-29T09:09:12.001Z</time></trkpt><trkpt lat="43.80489950966938" lon="7.6261782588615095"><ele>14.333333333333332</ele><time>2026-03-29T09:09:13.001Z</time></trkpt><trkpt lat="43.80491734347079" lon="7.626062346048349"><ele>13.666666666666666</ele><time>2026-03-29T09:09:14.001Z</time></trkpt><trkpt lat="43.804930043724376" lon="7.625944094604508"><ele>13.0</ele><time>2026-03-29T09:09:15.001Z</time></trkpt><trkpt lat="43.804942051458085" lon="7.625836110811159"><ele>12.8</ele><time>2026-03-29T09:09:16.001Z</time></trkpt><trkpt lat="43.80495449279664" lon="7.625739747808097"><ele>12.600000000000001</ele><time>2026-03-29T09:09:17.001Z</time></trkpt><trkpt lat="43.804979787009074" lon="7.625591446989382"><ele>12.399999999999999</ele><time>2026-03-29T09:09:19.001Z</time></trkpt><trkpt lat="43.8049972868894" lon="7.625445225254139"><ele>12.2</ele><time>2026-03-29T09:09:21.001Z</time></trkpt><trkpt lat="43.80500973986142" lon="7.6252967878008855"><ele>12.0</ele><time>2026-03-29T09:09:23.001Z</time></trkpt><trkpt lat="43.805024686188176" lon="7.625184944057073"><ele>13.0</ele><time>2026-03-29T09:09:25.001Z</time></trkpt><trkpt lat="43.80507028040358" lon="7.625073800085246"><ele>14.0</ele><time>2026-03-29T09:09:28.001Z</time></trkpt><trkpt lat="43.805158160435234" lon="7.624985774880182"><ele>15.0</ele><time>2026-03-29T09:09:30.001Z</time></trkpt><trkpt lat="43.805218460419795" lon="7.624938668213701"><ele>16.0</ele><time>2026-03-29T09:09:31.001Z</time></trkpt><trkpt lat="43.80528190070229" lon="7.624887840061066"><ele>17.0</ele><time>2026-03-29T09:09:32.001Z</time></trkpt><trkpt lat="43.80535475136416" lon="7.624847277540553"><ele>18.0</ele><time>2026-03-29T09:09:33.001Z</time></trkpt><trkpt lat="43.80543223750646" lon="7.624862550642694"><ele>19.4</ele><time>2026-03-29T09:09:34.001Z</time></trkpt><trkpt lat="43.80550035162544" lon="7.624865667669839"><ele>20.8</ele><time>2026-03-29T09:09:35.001Z</time></trkpt><trkpt lat="43.80558330999243" lon="7.624871648818124"><ele>22.2</ele><time>2026-03-29T09:09:36.001Z</time></trkpt><trkpt lat="43.80567684482392" lon="7.6248797964281"><ele>23.6</ele><time>2026-03-29T09:09:37.001Z</time></trkpt><trkpt lat="43.805781308162324" lon="7.624888589194888"><ele>25.0</ele><time>2026-03-29T09:09:38.001Z</time></trkpt><trkpt lat="43.805889376419834" lon="7.6248976853929795"><ele>25.2</ele><time>2026-03-29T09:09:39.001Z</time></trkpt><trkpt lat="43.80599641379254" lon="7.624906859907805"><ele>25.4</ele><time>2026-03-29T09:09:40.001Z</time></trkpt><trkpt lat="43.806103471700474" lon="7.624893311228555"><ele>25.6</ele><time>2026-03-29T09:09:41.001Z</time></trkpt><trkpt lat="43.80621162257586" lon="7.624917486154623"><ele>25.8</ele><time>2026-03-29T09:09:42.001Z</time></trkpt><trkpt lat="43.806317722971976" lon="7.624929617841373"><ele>26.0</ele><time>2026-03-29T09:09:43.001Z</time></trkpt><trkpt lat="43.80642881676974" lon="7.624935271986643"><ele>26.0</ele><time>2026-03-29T09:09:44.001Z</time></trkpt><trkpt lat="43.80653906789392" lon="7.6249371211512145"><ele>26.0</ele><time>2026-03-29T09:09:45.001Z</time></trkpt><trkpt lat="43.80664076496136" lon="7.624966805683467"><ele>26.0</ele><time>2026-03-29T09:09:46.001Z</time></trkpt><trkpt lat="43.80673615992977" lon="7.624953799517447"><ele>26.0</ele><time>2026-03-29T09:09:47.001Z</time></trkpt><trkpt lat="43.80681555864446" lon="7.6249636201817435"><ele>26.0</ele><time>2026-03-29T09:09:48.001Z</time></trkpt><trkpt lat="43.80690894804821" lon="7.624971056824142"><ele>25.200000000000003</ele><time>2026-03-29T09:09:49.001Z</time></trkpt><trkpt lat="43.80699945256295" lon="7.625000306184348"><ele>24.400000000000002</ele><time>2026-03-29T09:09:50.001Z</time></trkpt><trkpt lat="43.807094008267704" lon="7.6249917581755176"><ele>23.6</ele><time>2026-03-29T09:09:51.001Z</time></trkpt><trkpt lat="43.80718703618254" lon="7.62500463622696"><ele>22.8</ele><time>2026-03-29T09:09:52.001Z</time></trkpt><trkpt lat="43.807285095518544" lon="7.625018234291075"><ele>22.0</ele><time>2026-03-29T09:09:53.001Z</time></trkpt><trkpt lat="43.80737206745731" lon="7.62503261033419"><ele>22.0</ele><time>2026-03-29T09:09:54.001Z</time></trkpt><trkpt lat="43.807458257678604" lon="7.625052140513725"><ele>22.0</ele><time>2026-03-29T09:09:55.001Z</time></trkpt><trkpt lat="43.80752914801725" lon="7.625069391328857"><ele>22.0</ele><time>2026-03-29T09:09:56.002Z</time></trkpt><trkpt lat="43.80759675910517" lon="7.625090170941288"><ele>22.0</ele><time>2026-03-29T09:09:57.002Z</time></trkpt><trkpt lat="43.807666672455674" lon="7.625108093603477"><ele>22.0</ele><time>2026-03-29T09:09:58.002Z</time></trkpt><trkpt lat="43.807729004882525" lon="7.625148786417613"><ele>22.0</ele><time>2026-03-29T09:09:59.002Z</time></trkpt><trkpt lat="43.80779801581888" lon="7.625149242815674"><ele>22.0</ele><time>2026-03-29T09:10:00.002Z</time></trkpt><trkpt lat="43.80785812861029" lon="7.6251793592884365"><ele>21.5</ele><time>2026-03-29T09:10:01.002Z</time></trkpt><trkpt lat="43.80792175735943" lon="7.6252112648289945"><ele>21.0</ele><time>2026-03-29T09:10:02.002Z</time></trkpt><trkpt lat="43.807991872316244" lon="7.625249634089658"><ele>20.5</ele><time>2026-03-29T09:10:03.002Z</time></trkpt><trkpt lat="43.808060835596535" lon="7.625285802840031"><ele>20.0</ele><time>2026-03-29T09:10:04.002Z</time></trkpt><trkpt lat="43.80812247978801" lon="7.625319197471436"><ele>19.5</ele><time>2026-03-29T09:10:05.002Z</time></trkpt><trkpt lat="43.80821414936645" lon="7.625371825696003"><ele>19.0</ele><time>2026-03-29T09:10:07.002Z</time></trkpt><trkpt lat="43.80829191222407" lon="7.625418695447278"><ele>18.8</ele><time>2026-03-29T09:10:09.002Z</time></trkpt><trkpt lat="43.80838046099536" lon="7.625474644896098"><ele>18.599999999999998</ele><time>2026-03-29T09:10:11.002Z</time></trkpt><trkpt lat="43.808461761625125" lon="7.625533514303822"><ele>18.4</ele><time>2026-03-29T09:10:13.002Z</time></trkpt><trkpt lat="43.80856661962021" lon="7.625605720200599"><ele>18.2</ele><time>2026-03-29T09:10:15.002Z</time></trkpt><trkpt lat="43.8086256390951" lon="7.6256535957613085"><ele>18.0</ele><time>2026-03-29T09:10:16.002Z</time></trkpt><trkpt lat="43.808707884255554" lon="7.625747562669696"><ele>18.0</ele><time>2026-03-29T09:10:18.002Z</time></trkpt><trkpt lat="43.80876766490183" lon="7.62578771067777"><ele>18.0</ele><time>2026-03-29T09:10:21.002Z</time></trkpt><trkpt lat="43.80882904751378" lon="7.6258632035184934"><ele>18.0</ele><time>2026-03-29T09:10:31.002Z</time></trkpt><trkpt lat="43.808908986964596" lon="7.625924146181552"><ele>18.0</ele><time>2026-03-29T09:10:33.002Z</time></trkpt><trkpt lat="43.80901134393943" lon="7.626036643838057"><ele>18.0</ele><time>2026-03-29T09:10:35.003Z</time></trkpt><trkpt lat="43.80907780722342" lon="7.626100097724285"><ele>18.0</ele><time>2026-03-29T09:10:36.003Z</time></trkpt><trkpt lat="43.80914144966746" lon="7.626164000117348"><ele>18.0</ele><time>2026-03-29T09:10:37.003Z</time></trkpt><trkpt lat="43.8092028333849" lon="7.626223539831786"><ele>18.0</ele><time>2026-03-29T09:10:38.003Z</time></trkpt><trkpt lat="43.809267549421634" lon="7.626291242964795"><ele>18.0</ele><time>2026-03-29T09:10:39.003Z</time></trkpt><trkpt lat="43.809347726315075" lon="7.62636642228056"><ele>18.0</ele><time>2026-03-29T09:10:40.003Z</time></trkpt><trkpt lat="43.80943680639802" lon="7.626449538214218"><ele>18.0</ele><time>2026-03-29T09:10:41.003Z</time></trkpt><trkpt lat="43.809516634851214" lon="7.626527733227147"><ele>18.2</ele><time>2026-03-29T09:10:42.002Z</time></trkpt><trkpt lat="43.80959773304564" lon="7.626600849841073"><ele>18.4</ele><time>2026-03-29T09:10:43.002Z</time></trkpt><trkpt lat="43.809676519607876" lon="7.626674690351886"><ele>18.599999999999998</ele><time>2026-03-29T09:10:44.002Z</time></trkpt><trkpt lat="43.80975722135088" lon="7.626752716917627"><ele>18.8</ele><time>2026-03-29T09:10:45.002Z</time></trkpt><trkpt lat="43.80984076203825" lon="7.626836972138285"><ele>19.0</ele><time>2026-03-29T09:10:46.002Z</time></trkpt><trkpt lat="43.80992059264447" lon="7.626916626326659"><ele>18.8</ele><time>2026-03-29T09:10:47.002Z</time></trkpt><trkpt lat="43.81000053113268" lon="7.626992688613572"><ele>18.599999999999998</ele><time>2026-03-29T09:10:48.002Z</time></trkpt><trkpt lat="43.81007811849796" lon="7.627065711627426"><ele>18.4</ele><time>2026-03-29T09:10:49.002Z</time></trkpt><trkpt lat="43.81016266033613" lon="7.627144480503553"><ele>18.2</ele><time>2026-03-29T09:10:50.002Z</time></trkpt><trkpt lat="43.81026174293072" lon="7.627240880026032"><ele>18.0</ele><time>2026-03-29T09:10:51.002Z</time></trkpt><trkpt lat="43.81036350174323" lon="7.62733897479013"><ele>18.0</ele><time>2026-03-29T09:10:52.002Z</time></trkpt><trkpt lat="43.81045183909349" lon="7.627450693509511"><ele>18.0</ele><time>2026-03-29T09:10:53.002Z</time></trkpt><trkpt lat="43.81053925323535" lon="7.627535460746007"><ele>18.0</ele><time>2026-03-29T09:10:54.002Z</time></trkpt><trkpt lat="43.81063183116522" lon="7.627623434782588"><ele>18.0</ele><time>2026-03-29T09:10:55.002Z</time></trkpt><trkpt lat="43.81073346803547" lon="7.627712344241278"><ele>18.0</ele><time>2026-03-29T09:10:56.001Z</time></trkpt><trkpt lat="43.81083923442836" lon="7.627794325708053"><ele>18.0</ele><time>2026-03-29T09:10:57.001Z</time></trkpt><trkpt lat="43.81094362382082" lon="7.627863906347222"><ele>18.0</ele><time>2026-03-29T09:10:58.001Z</time></trkpt><trkpt lat="43.811045483292894" lon="7.627919838470465"><ele>18.0</ele><time>2026-03-29T09:10:59.001Z</time></trkpt><trkpt lat="43.81114447131171" lon="7.627971250319194"><ele>18.4</ele><time>2026-03-29T09:11:00.001Z</time></trkpt><trkpt lat="43.81124384561604" lon="7.628020688625287"><ele>18.8</ele><time>2026-03-29T09:11:01.001Z</time></trkpt><trkpt lat="43.81134647202324" lon="7.628070221906456"><ele>19.2</ele><time>2026-03-29T09:11:02.001Z</time></trkpt><trkpt lat="43.8114449817208" lon="7.628116876686232"><ele>19.6</ele><time>2026-03-29T09:11:03.001Z</time></trkpt><trkpt lat="43.8115404652325" lon="7.628162098250466"><ele>20.0</ele><time>2026-03-29T09:11:04.001Z</time></trkpt><trkpt lat="43.811624890769245" lon="7.628202119529121"><ele>20.0</ele><time>2026-03-29T09:11:05.001Z</time></trkpt><trkpt lat="43.811709686420755" lon="7.628242339836149"><ele>20.0</ele><time>2026-03-29T09:11:06.001Z</time></trkpt><trkpt lat="43.81179691941288" lon="7.628283716202951"><ele>20.0</ele><time>2026-03-29T09:11:07.001Z</time></trkpt><trkpt lat="43.81188730880673" lon="7.62832658972201"><ele>20.0</ele><time>2026-03-29T09:11:08.001Z</time></trkpt><trkpt lat="43.8119857597697" lon="7.628372061478874"><ele>20.0</ele><time>2026-03-29T09:11:09.001Z</time></trkpt><trkpt lat="43.81208050636842" lon="7.628415575097097"><ele>21.0</ele><time>2026-03-29T09:11:10.001Z</time></trkpt><trkpt lat="43.81217744756068" lon="7.628460096416488"><ele>22.0</ele><time>2026-03-29T09:11:11.001Z</time></trkpt><trkpt lat="43.81226831112662" lon="7.6285018455397005"><ele>23.0</ele><time>2026-03-29T09:11:12.001Z</time></trkpt><trkpt lat="43.81235826618004" lon="7.628543396410618"><ele>24.0</ele><time>2026-03-29T09:11:13.001Z</time></trkpt><trkpt lat="43.812450211694134" lon="7.628585866675251"><ele>25.0</ele><time>2026-03-29T09:11:14.001Z</time></trkpt><trkpt lat="43.81254207500171" lon="7.628628298972468"><ele>25.0</ele><time>2026-03-29T09:11:15.001Z</time></trkpt><trkpt lat="43.81263639739959" lon="7.628671699790004"><ele>25.0</ele><time>2026-03-29T09:11:16.001Z</time></trkpt><trkpt lat="43.81273288177873" lon="7.628715947248141"><ele>25.0</ele><time>2026-03-29T09:11:17.001Z</time></trkpt><trkpt lat="43.812827559059016" lon="7.62875936597399"><ele>25.0</ele><time>2026-03-29T09:11:18.001Z</time></trkpt><trkpt lat="43.81292226289359" lon="7.628802796882445"><ele>25.0</ele><time>2026-03-29T09:11:19.001Z</time></trkpt><trkpt lat="43.813026052475614" lon="7.628826369045132"><ele>25.0</ele><time>2026-03-29T09:11:20.001Z</time></trkpt><trkpt lat="43.813110904696636" lon="7.6288683478593216"><ele>25.0</ele><time>2026-03-29T09:11:21.001Z</time></trkpt><trkpt lat="43.81320194617144" lon="7.62890001223034"><ele>25.0</ele><time>2026-03-29T09:11:22.001Z</time></trkpt><trkpt lat="43.813296216057466" lon="7.628916746610451"><ele>25.0</ele><time>2026-03-29T09:11:23.001Z</time></trkpt><trkpt lat="43.81338618084469" lon="7.628925691655233"><ele>25.0</ele><time>2026-03-29T09:11:24.001Z</time></trkpt><trkpt lat="43.813491446458414" lon="7.628941397510716"><ele>25.2</ele><time>2026-03-29T09:11:25.001Z</time></trkpt><trkpt lat="43.81357583323229" lon="7.628917852529131"><ele>25.4</ele><time>2026-03-29T09:11:26.001Z</time></trkpt><trkpt lat="43.81367799182651" lon="7.628906074469501"><ele>25.6</ele><time>2026-03-29T09:11:27.001Z</time></trkpt><trkpt lat="43.813775964530066" lon="7.628870388376769"><ele>25.8</ele><time>2026-03-29T09:11:28.001Z</time></trkpt><trkpt lat="43.81387300469765" lon="7.628872504231552"><ele>26.0</ele><time>2026-03-29T09:11:29.001Z</time></trkpt><trkpt lat="43.81394941571062" lon="7.628815726479308"><ele>26.0</ele><time>2026-03-29T09:11:30.001Z</time></trkpt><trkpt lat="43.814038972797206" lon="7.628763610963725"><ele>26.0</ele><time>2026-03-29T09:11:31.001Z</time></trkpt><trkpt lat="43.81412821752056" lon="7.628683089039253"><ele>26.0</ele><time>2026-03-29T09:11:32.001Z</time></trkpt><trkpt lat="43.81420322120601" lon="7.628586218588864"><ele>26.0</ele><time>2026-03-29T09:11:33.001Z</time></trkpt><trkpt lat="43.8142665039623" lon="7.628475353467293"><ele>26.0</ele><time>2026-03-29T09:11:34.001Z</time></trkpt><trkpt lat="43.81433074645985" lon="7.628363928791978"><ele>28.0</ele><time>2026-03-29T09:11:35.001Z</time></trkpt><trkpt lat="43.81439617361314" lon="7.628241765249153"><ele>30.0</ele><time>2026-03-29T09:11:36.001Z</time></trkpt><trkpt lat="43.81450077831136" lon="7.62816259164792"><ele>32.0</ele><time>2026-03-29T09:11:37.001Z</time></trkpt><trkpt lat="43.8146000809833" lon="7.6280726226733"><ele>34.0</ele><time>2026-03-29T09:11:38.001Z</time></trkpt><trkpt lat="43.81468928409514" lon="7.627966737254934"><ele>34.0</ele><time>2026-03-29T09:11:39.001Z</time></trkpt><trkpt lat="43.81478312133336" lon="7.627884785165031"><ele>34.0</ele><time>2026-03-29T09:11:40.001Z</time></trkpt><trkpt lat="43.81487003249605" lon="7.62780676191152"><ele>34.0</ele><time>2026-03-29T09:11:41.001Z</time></trkpt><trkpt lat="43.81496076411944" lon="7.627720145976081"><ele>34.0</ele><time>2026-03-29T09:11:42.001Z</time></trkpt><trkpt lat="43.815062255420216" lon="7.62762366013529"><ele>34.0</ele><time>2026-03-29T09:11:43.001Z</time></trkpt><trkpt lat="43.81517023397358" lon="7.627520152628584"><ele>34.8</ele><time>2026-03-29T09:11:44.001Z</time></trkpt><trkpt lat="43.81527604826582" lon="7.627455126069681"><ele>35.599999999999994</ele><time>2026-03-29T09:11:45.001Z</time></trkpt><trkpt lat="43.81535386883596" lon="7.627379248377793"><ele>36.4</ele><time>2026-03-29T09:11:46.001Z</time></trkpt><trkpt lat="43.815449018541806" lon="7.627386056766195"><ele>37.199999999999996</ele><time>2026-03-29T09:11:47.001Z</time></trkpt><trkpt lat="43.815548607157936" lon="7.627391073842208"><ele>38.0</ele><time>2026-03-29T09:11:48.001Z</time></trkpt><trkpt lat="43.815650517267066" lon="7.627396676025054"><ele>38.0</ele><time>2026-03-29T09:11:49.001Z</time></trkpt><trkpt lat="43.81573671562696" lon="7.62740619093491"><ele>38.0</ele><time>2026-03-29T09:11:50.001Z</time></trkpt><trkpt lat="43.815811952632274" lon="7.627413153070713"><ele>38.0</ele><time>2026-03-29T09:11:51.001Z</time></trkpt><trkpt lat="43.81588688212119" lon="7.627422132515148"><ele>38.0</ele><time>2026-03-29T09:11:52.001Z</time></trkpt><trkpt lat="43.81596177383173" lon="7.627479669350574"><ele>38.0</ele><time>2026-03-29T09:11:53.001Z</time></trkpt><trkpt lat="43.816005095655626" lon="7.627569373772004"><ele>38.0</ele><time>2026-03-29T09:11:54.001Z</time></trkpt><trkpt lat="43.816063372135254" lon="7.627643188320013"><ele>37.8</ele><time>2026-03-29T09:11:55.001Z</time></trkpt><trkpt lat="43.8161447585496" lon="7.627747270623385"><ele>37.599999999999994</ele><time>2026-03-29T09:11:56.001Z</time></trkpt><trkpt lat="43.81621846456088" lon="7.627813956597014"><ele>37.400000000000006</ele><time>2026-03-29T09:11:57.001Z</time></trkpt><trkpt lat="43.81632109458821" lon="7.627843281019396"><ele>37.2</ele><time>2026-03-29T09:11:58.001Z</time></trkpt><trkpt lat="43.8164359213473" lon="7.627847788174545"><ele>37.0</ele><time>2026-03-29T09:11:59.001Z</time></trkpt><trkpt lat="43.81655190400999" lon="7.627849209828694"><ele>37.0</ele><time>2026-03-29T09:12:00.001Z</time></trkpt><trkpt lat="43.81665790947104" lon="7.627838254639494"><ele>37.0</ele><time>2026-03-29T09:12:01.001Z</time></trkpt><trkpt lat="43.81675294118639" lon="7.627819648722512"><ele>37.0</ele><time>2026-03-29T09:12:02.001Z</time></trkpt><trkpt lat="43.81684354742019" lon="7.627800339135426"><ele>37.0</ele><time>2026-03-29T09:12:03.001Z</time></trkpt><trkpt lat="43.816938422095106" lon="7.627785385519122"><ele>37.0</ele><time>2026-03-29T09:12:04.001Z</time></trkpt><trkpt lat="43.81703667414783" lon="7.627775126218315"><ele>38.0</ele><time>2026-03-29T09:12:05.001Z</time></trkpt><trkpt lat="43.817131714881185" lon="7.627765509616998"><ele>39.0</ele><time>2026-03-29T09:12:06.001Z</time></trkpt><trkpt lat="43.8172214427382" lon="7.627757787410494"><ele>40.0</ele><time>2026-03-29T09:12:07.001Z</time></trkpt><trkpt lat="43.81731463044032" lon="7.6277497324393195"><ele>41.0</ele><time>2026-03-29T09:12:08.001Z</time></trkpt><trkpt lat="43.817408375231764" lon="7.627741629386152"><ele>42.0</ele><time>2026-03-29T09:12:09.001Z</time></trkpt><trkpt lat="43.81750635481195" lon="7.62773033963689"><ele>42.0</ele><time>2026-03-29T09:12:10.001Z</time></trkpt><trkpt lat="43.817605962595266" lon="7.627718425383987"><ele>42.0</ele><time>2026-03-29T09:12:11.001Z</time></trkpt><trkpt lat="43.81770317621869" lon="7.627706797501041"><ele>42.0</ele><time>2026-03-29T09:12:12.001Z</time></trkpt><trkpt lat="43.81780236778239" lon="7.627694933110459"><ele>42.0</ele><time>2026-03-29T09:12:13.001Z</time></trkpt><trkpt lat="43.817905439034966" lon="7.627682414152075"><ele>42.0</ele><time>2026-03-29T09:12:14.001Z</time></trkpt><trkpt lat="43.81800574424" lon="7.627670296859596"><ele>42.0</ele><time>2026-03-29T09:12:15.001Z</time></trkpt><trkpt lat="43.81811372575519" lon="7.627657250251354"><ele>42.0</ele><time>2026-03-29T09:12:16.001Z</time></trkpt><trkpt lat="43.818233339282045" lon="7.627643406711039"><ele>42.0</ele><time>2026-03-29T09:12:17.001Z</time></trkpt><trkpt lat="43.818345136554925" lon="7.627630606843973"><ele>42.0</ele><time>2026-03-29T09:12:18.001Z</time></trkpt><trkpt lat="43.818460988149766" lon="7.6275735744585065"><ele>41.5</ele><time>2026-03-29T09:12:19.001Z</time></trkpt><trkpt lat="43.81858420667779" lon="7.627560773027899"><ele>41.0</ele><time>2026-03-29T09:12:20.001Z</time></trkpt><trkpt lat="43.81870286718515" lon="7.627544750408799"><ele>40.5</ele><time>2026-03-29T09:12:21.001Z</time></trkpt><trkpt lat="43.81882047882668" lon="7.627532748938096"><ele>40.0</ele><time>2026-03-29T09:12:22.001Z</time></trkpt><trkpt lat="43.81894297770101" lon="7.627562743625432"><ele>40.0</ele><time>2026-03-29T09:12:23.001Z</time></trkpt><trkpt lat="43.819068502441226" lon="7.627548636613784"><ele>40.0</ele><time>2026-03-29T09:12:24.001Z</time></trkpt><trkpt lat="43.81919964161334" lon="7.627533972395252"><ele>40.0</ele><time>2026-03-29T09:12:25.001Z</time></trkpt><trkpt lat="43.81933325845091" lon="7.62751909758714"><ele>40.0</ele><time>2026-03-29T09:12:26.001Z</time></trkpt><trkpt lat="43.81947412181911" lon="7.627504637006456"><ele>40.5</ele><time>2026-03-29T09:12:27.001Z</time></trkpt><trkpt lat="43.81959937903218" lon="7.627500295343363"><ele>41.0</ele><time>2026-03-29T09:12:28.001Z</time></trkpt><trkpt lat="43.8197047847886" lon="7.627505809696029"><ele>41.5</ele><time>2026-03-29T09:12:29.001Z</time></trkpt><trkpt lat="43.819812049089144" lon="7.627522086273297"><ele>42.0</ele><time>2026-03-29T09:12:30.001Z</time></trkpt><trkpt lat="43.8199208757439" lon="7.627551999107064"><ele>42.0</ele><time>2026-03-29T09:12:31.001Z</time></trkpt><trkpt lat="43.82002918176355" lon="7.627593335175862"><ele>42.0</ele><time>2026-03-29T09:12:32.001Z</time></trkpt><trkpt lat="43.82012886586845" lon="7.627632830360197"><ele>42.0</ele><time>2026-03-29T09:12:33.001Z</time></trkpt><trkpt lat="43.82023652304001" lon="7.627633883436999"><ele>42.0</ele><time>2026-03-29T09:12:34.001Z</time></trkpt><trkpt lat="43.82033168682602" lon="7.627673303492128"><ele>42.0</ele><time>2026-03-29T09:12:35.001Z</time></trkpt><trkpt lat="43.82041717534654" lon="7.627709135278428"><ele>42.0</ele><time>2026-03-29T09:12:36.001Z</time></trkpt><trkpt lat="43.82050002269285" lon="7.627745593583165"><ele>42.0</ele><time>2026-03-29T09:12:37.001Z</time></trkpt><trkpt lat="43.82056364205321" lon="7.627809779727853"><ele>42.0</ele><time>2026-03-29T09:12:38.001Z</time></trkpt><trkpt lat="43.820627665369756" lon="7.62783556457398"><ele>42.0</ele><time>2026-03-29T09:12:39.001Z</time></trkpt><trkpt lat="43.820714564157406" lon="7.627860563099077"><ele>42.0</ele><time>2026-03-29T09:12:41.002Z</time></trkpt><trkpt lat="43.82078264932741" lon="7.627891743393124"><ele>42.0</ele><time>2026-03-29T09:12:43.002Z</time></trkpt><trkpt lat="43.82084610032487" lon="7.627921866101795"><ele>42.0</ele><time>2026-03-29T09:12:45.002Z</time></trkpt><trkpt lat="43.8209090583326" lon="7.627955893396192"><ele>42.0</ele><time>2026-03-29T09:12:48.002Z</time></trkpt><trkpt lat="43.82097461080456" lon="7.627991471443676"><ele>42.0</ele><time>2026-03-29T09:13:09.001Z</time></trkpt><trkpt lat="43.82106814236072" lon="7.628000077031017"><ele>42.0</ele><time>2026-03-29T09:14:15Z</time></trkpt><trkpt lat="43.82118499517277" lon="7.628041494124467"><ele>42.0</ele><time>2026-03-29T09:14:17Z</time></trkpt><trkpt lat="43.82126354068883" lon="7.628075971015748"><ele>42.0</ele><time>2026-03-29T09:14:18Z</time></trkpt><trkpt lat="43.82134221698114" lon="7.6281072977735045"><ele>42.0</ele><time>2026-03-29T09:14:19Z</time></trkpt><trkpt lat="43.821439086626796" lon="7.628146147942236"><ele>42.0</ele><time>2026-03-29T09:14:20Z</time></trkpt><trkpt lat="43.82153939980874" lon="7.628188351092359"><ele>42.0</ele><time>2026-03-29T09:14:21Z</time></trkpt><trkpt lat="43.821640841787136" lon="7.62823190445834"><ele>42.0</ele><time>2026-03-29T09:14:22Z</time></trkpt><trkpt lat="43.82176217464635" lon="7.628275098696936"><ele>42.0</ele><time>2026-03-29T09:14:23Z</time></trkpt><trkpt lat="43.821893399303995" lon="7.628297058650399"><ele>42.0</ele><time>2026-03-29T09:14:24Z</time></trkpt><trkpt lat="43.82203185532677" lon="7.628308757201603"><ele>42.0</ele><time>2026-03-29T09:14:25Z</time></trkpt><trkpt lat="43.822156031987326" lon="7.628311228643233"><ele>42.0</ele><time>2026-03-29T09:14:26Z</time></trkpt><trkpt lat="43.82228953619442" lon="7.628313051194689"><ele>42.0</ele><time>2026-03-29T09:14:27Z</time></trkpt><trkpt lat="43.82243583583624" lon="7.628319000908943"><ele>42.0</ele><time>2026-03-29T09:14:28Z</time></trkpt><trkpt lat="43.82258770937805" lon="7.62832589733668"><ele>42.0</ele><time>2026-03-29T09:14:29Z</time></trkpt><trkpt lat="43.82273630449466" lon="7.628332927101149"><ele>42.0</ele><time>2026-03-29T09:14:30Z</time></trkpt><trkpt lat="43.82287322371856" lon="7.628342754267897"><ele>42.0</ele><time>2026-03-29T09:14:31Z</time></trkpt><trkpt lat="43.823004392402375" lon="7.628347758046717"><ele>42.0</ele><time>2026-03-29T09:14:32Z</time></trkpt><trkpt lat="43.82313261654907" lon="7.628353984768392"><ele>42.0</ele><time>2026-03-29T09:14:33Z</time></trkpt><trkpt lat="43.82325934690552" lon="7.628358807225319"><ele>42.0</ele><time>2026-03-29T09:14:34Z</time></trkpt><trkpt lat="43.82338824204114" lon="7.6283641509075215"><ele>42.0</ele><time>2026-03-29T09:14:35Z</time></trkpt><trkpt lat="43.823516152625714" lon="7.62836701661033"><ele>41.75</ele><time>2026-03-29T09:14:36Z</time></trkpt><trkpt lat="43.82364312557217" lon="7.628371465872444"><ele>41.5</ele><time>2026-03-29T09:14:37Z</time></trkpt><trkpt lat="43.82377626778582" lon="7.6283796108763"><ele>41.25</ele><time>2026-03-29T09:14:38Z</time></trkpt><trkpt lat="43.82391953771419" lon="7.628391048435606"><ele>41.0</ele><time>2026-03-29T09:14:39Z</time></trkpt><trkpt lat="43.82406766201952" lon="7.6283935883340925"><ele>41.0</ele><time>2026-03-29T09:14:40Z</time></trkpt><trkpt lat="43.82421078712756" lon="7.628403240029547"><ele>41.0</ele><time>2026-03-29T09:14:41Z</time></trkpt><trkpt lat="43.824353491569084" lon="7.628408268307257"><ele>41.0</ele><time>2026-03-29T09:14:42Z</time></trkpt><trkpt lat="43.82449229861898" lon="7.628417223522504"><ele>41.0</ele><time>2026-03-29T09:14:43Z</time></trkpt><trkpt lat="43.82462838208272" lon="7.6284232123273625"><ele>41.0</ele><time>2026-03-29T09:14:44Z</time></trkpt><trkpt lat="43.82476419880377" lon="7.62842401527976"><ele>41.0</ele><time>2026-03-29T09:14:45Z</time></trkpt><trkpt lat="43.82491218277866" lon="7.628421241291013"><ele>41.0</ele><time>2026-03-29T09:14:46Z</time></trkpt><trkpt lat="43.82507560021946" lon="7.628411105919428"><ele>41.0</ele><time>2026-03-29T09:14:47.001Z</time></trkpt><trkpt lat="43.8252255914018" lon="7.628385612449114"><ele>41.0</ele><time>2026-03-29T09:14:48.001Z</time></trkpt><trkpt lat="43.82538725005622" lon="7.628342957878635"><ele>41.0</ele><time>2026-03-29T09:14:49.001Z</time></trkpt><trkpt lat="43.8255562055338" lon="7.628281276580206"><ele>41.0</ele><time>2026-03-29T09:14:50.001Z</time></trkpt><trkpt lat="43.82572644931218" lon="7.6282072491200665"><ele>41.0</ele><time>2026-03-29T09:14:51.001Z</time></trkpt><trkpt lat="43.82588398508331" lon="7.628134727658896"><ele>41.0</ele><time>2026-03-29T09:14:52.001Z</time></trkpt><trkpt lat="43.826027351016286" lon="7.628068545232262"><ele>41.0</ele><time>2026-03-29T09:14:53.001Z</time></trkpt><trkpt lat="43.82616694537648" lon="7.628009459947172"><ele>40.0</ele><time>2026-03-29T09:14:54.001Z</time></trkpt><trkpt lat="43.82630706785104" lon="7.627950380212996"><ele>39.0</ele><time>2026-03-29T09:14:55.001Z</time></trkpt><trkpt lat="43.82645057793969" lon="7.627887333714597"><ele>38.0</ele><time>2026-03-29T09:14:56.001Z</time></trkpt><trkpt lat="43.82659218097311" lon="7.627826083315806"><ele>37.0</ele><time>2026-03-29T09:14:57.001Z</time></trkpt><trkpt lat="43.826734250360104" lon="7.627766327491401"><ele>40.5</ele><time>2026-03-29T09:14:58.001Z</time></trkpt><trkpt lat="43.826874889257496" lon="7.627708306010769"><ele>44.0</ele><time>2026-03-29T09:14:59Z</time></trkpt><trkpt lat="43.827014296747286" lon="7.627664310421945"><ele>47.5</ele><time>2026-03-29T09:15:00Z</time></trkpt><trkpt lat="43.827152484226986" lon="7.62764207946432"><ele>51.0</ele><time>2026-03-29T09:15:01Z</time></trkpt><trkpt lat="43.827295125296104" lon="7.627646508038127"><ele>51.0</ele><time>2026-03-29T09:15:02Z</time></trkpt><trkpt lat="43.82745073996781" lon="7.6276688370085965"><ele>51.0</ele><time>2026-03-29T09:15:03Z</time></trkpt><trkpt lat="43.82760628267232" lon="7.627708824616439"><ele>51.0</ele><time>2026-03-29T09:15:04Z</time></trkpt><trkpt lat="43.827754216157615" lon="7.627755016749592"><ele>49.25</ele><time>2026-03-29T09:15:05Z</time></trkpt><trkpt lat="43.82789020919853" lon="7.627790101868213"><ele>47.5</ele><time>2026-03-29T09:15:06Z</time></trkpt><trkpt lat="43.82803198686219" lon="7.627852824920922"><ele>45.75</ele><time>2026-03-29T09:15:07Z</time></trkpt><trkpt lat="43.82817466760347" lon="7.627894520162223"><ele>44.0</ele><time>2026-03-29T09:15:08Z</time></trkpt><trkpt lat="43.828330740626086" lon="7.6279162113896035"><ele>45.666666666666664</ele><time>2026-03-29T09:15:09Z</time></trkpt><trkpt lat="43.82848402222069" lon="7.627946303126133"><ele>47.33333333333333</ele><time>2026-03-29T09:15:10Z</time></trkpt><trkpt lat="43.82863636822943" lon="7.6279630892248"><ele>49.0</ele><time>2026-03-29T09:15:11Z</time></trkpt><trkpt lat="43.82878283618168" lon="7.627970121142567"><ele>49.0</ele><time>2026-03-29T09:15:12Z</time></trkpt><trkpt lat="43.82892206049969" lon="7.6279703450548535"><ele>49.0</ele><time>2026-03-29T09:15:13Z</time></trkpt><trkpt lat="43.8290572200895" lon="7.627972073693567"><ele>49.0</ele><time>2026-03-29T09:15:14Z</time></trkpt><trkpt lat="43.82919233957464" lon="7.62797669519737"><ele>49.0</ele><time>2026-03-29T09:15:15Z</time></trkpt><trkpt lat="43.82932884029724" lon="7.627979123711721"><ele>50.0</ele><time>2026-03-29T09:15:16Z</time></trkpt><trkpt lat="43.82947074838289" lon="7.627979247491284"><ele>51.0</ele><time>2026-03-29T09:15:17Z</time></trkpt><trkpt lat="43.82961394253093" lon="7.627971182260452"><ele>52.0</ele><time>2026-03-29T09:15:18Z</time></trkpt><trkpt lat="43.829745637025525" lon="7.627953530906495"><ele>53.0</ele><time>2026-03-29T09:15:19Z</time></trkpt><trkpt lat="43.829870400050474" lon="7.62791873464067"><ele>53.0</ele><time>2026-03-29T09:15:20Z</time></trkpt><trkpt lat="43.82999619229936" lon="7.627872411226789"><ele>53.0</ele><time>2026-03-29T09:15:21Z</time></trkpt><trkpt lat="43.83012358440125" lon="7.627814026989788"><ele>53.0</ele><time>2026-03-29T09:15:22Z</time></trkpt><trkpt lat="43.830255462839595" lon="7.627751497834495"><ele>53.0</ele><time>2026-03-29T09:15:23Z</time></trkpt><trkpt lat="43.8303950924598" lon="7.627727556347492"><ele>57.0</ele><time>2026-03-29T09:15:24Z</time></trkpt><trkpt lat="43.830531624279004" lon="7.627691247665144"><ele>61.0</ele><time>2026-03-29T09:15:25Z</time></trkpt><trkpt lat="43.83067190631857" lon="7.627702114152006"><ele>65.0</ele><time>2026-03-29T09:15:26Z</time></trkpt><trkpt lat="43.830803594148236" lon="7.627763671370839"><ele>69.0</ele><time>2026-03-29T09:15:27Z</time></trkpt><trkpt lat="43.8309422941413" lon="7.627782254472866"><ele>67.0</ele><time>2026-03-29T09:15:28Z</time></trkpt><trkpt lat="43.831092290982184" lon="7.627763108535487"><ele>65.0</ele><time>2026-03-29T09:15:29Z</time></trkpt><trkpt lat="43.83123753954969" lon="7.627733610140893"><ele>63.0</ele><time>2026-03-29T09:15:30Z</time></trkpt><trkpt lat="43.831367387376154" lon="7.627707927455434"><ele>61.0</ele><time>2026-03-29T09:15:31Z</time></trkpt><trkpt lat="43.83148676009684" lon="7.627645332210999"><ele>61.0</ele><time>2026-03-29T09:15:32Z</time></trkpt><trkpt lat="43.831609929565666" lon="7.627598349442092"><ele>61.0</ele><time>2026-03-29T09:15:33Z</time></trkpt><trkpt lat="43.831741256893835" lon="7.6275339550907475"><ele>61.0</ele><time>2026-03-29T09:15:34Z</time></trkpt><trkpt lat="43.831875551815415" lon="7.627443789714831"><ele>61.0</ele><time>2026-03-29T09:15:35Z</time></trkpt><trkpt lat="43.83199667473045" lon="7.627360879003295"><ele>62.5</ele><time>2026-03-29T09:15:36Z</time></trkpt><trkpt lat="43.83209833623855" lon="7.627262356773008"><ele>64.0</ele><time>2026-03-29T09:15:37Z</time></trkpt><trkpt lat="43.83218877833203" lon="7.627150228498138"><ele>65.5</ele><time>2026-03-29T09:15:38Z</time></trkpt><trkpt lat="43.83229132589081" lon="7.62705415425513"><ele>67.0</ele><time>2026-03-29T09:15:39Z</time></trkpt><trkpt lat="43.83239997938684" lon="7.626969192913886"><ele>67.0</ele><time>2026-03-29T09:15:40Z</time></trkpt><trkpt lat="43.83251400843054" lon="7.626932219739539"><ele>67.0</ele><time>2026-03-29T09:15:41Z</time></trkpt><trkpt lat="43.83261977792921" lon="7.62689001172215"><ele>67.0</ele><time>2026-03-29T09:15:42Z</time></trkpt><trkpt lat="43.83273593169731" lon="7.626873116874007"><ele>67.0</ele><time>2026-03-29T09:15:43Z</time></trkpt><trkpt lat="43.83285993308781" lon="7.626846769694122"><ele>68.25</ele><time>2026-03-29T09:15:44Z</time></trkpt><trkpt lat="43.832985455541746" lon="7.626874652155817"><ele>69.5</ele><time>2026-03-29T09:15:45Z</time></trkpt><trkpt lat="43.83310380037625" lon="7.626900151992131"><ele>70.75</ele><time>2026-03-29T09:15:46Z</time></trkpt><trkpt lat="43.833235579050715" lon="7.626921743615814"><ele>72.0</ele><time>2026-03-29T09:15:47Z</time></trkpt><trkpt lat="43.83337838620099" lon="7.626930535666652"><ele>70.0</ele><time>2026-03-29T09:15:48Z</time></trkpt><trkpt lat="43.833510407265166" lon="7.626925441903511"><ele>68.0</ele><time>2026-03-29T09:15:49Z</time></trkpt><trkpt lat="43.833647583285035" lon="7.626912943269251"><ele>66.0</ele><time>2026-03-29T09:15:50Z</time></trkpt><trkpt lat="43.83378572742492" lon="7.626891395083976"><ele>64.0</ele><time>2026-03-29T09:15:51Z</time></trkpt><trkpt lat="43.833921607217505" lon="7.626863063597647"><ele>64.0</ele><time>2026-03-29T09:15:52Z</time></trkpt><trkpt lat="43.834048497776564" lon="7.626829232709733"><ele>64.0</ele><time>2026-03-29T09:15:53Z</time></trkpt><trkpt lat="43.834172617367386" lon="7.6267929636343865"><ele>64.0</ele><time>2026-03-29T09:15:54Z</time></trkpt><trkpt lat="43.834306194712426" lon="7.626763065813078"><ele>64.0</ele><time>2026-03-29T09:15:55Z</time></trkpt><trkpt lat="43.834436708401746" lon="7.6267345713169625"><ele>62.75</ele><time>2026-03-29T09:15:56Z</time></trkpt><trkpt lat="43.83456382652374" lon="7.626709262624174"><ele>61.5</ele><time>2026-03-29T09:15:57Z</time></trkpt><trkpt lat="43.834696802637055" lon="7.6266874893431105"><ele>60.25</ele><time>2026-03-29T09:15:58Z</time></trkpt><trkpt lat="43.83483102658402" lon="7.626669480742438"><ele>59.0</ele><time>2026-03-29T09:15:59Z</time></trkpt><trkpt lat="43.83496519535347" lon="7.62665317680338"><ele>59.0</ele><time>2026-03-29T09:16:00Z</time></trkpt><trkpt lat="43.8350922929143" lon="7.626631699486227"><ele>59.0</ele><time>2026-03-29T09:16:01Z</time></trkpt><trkpt lat="43.83520227814393" lon="7.626608565472125"><ele>59.0</ele><time>2026-03-29T09:16:02Z</time></trkpt><trkpt lat="43.8353156801637" lon="7.626589339101635"><ele>59.0</ele><time>2026-03-29T09:16:03Z</time></trkpt><trkpt lat="43.83543728241218" lon="7.626570088265263"><ele>58.25</ele><time>2026-03-29T09:16:04Z</time></trkpt><trkpt lat="43.83556641330041" lon="7.626557348291429"><ele>57.5</ele><time>2026-03-29T09:16:05Z</time></trkpt><trkpt lat="43.835707867611326" lon="7.626570749293739"><ele>56.75</ele><time>2026-03-29T09:16:06Z</time></trkpt><trkpt lat="43.83584147632076" lon="7.626630570937367"><ele>56.0</ele><time>2026-03-29T09:16:07Z</time></trkpt><trkpt lat="43.83596214966022" lon="7.626688749087575"><ele>58.0</ele><time>2026-03-29T09:16:08Z</time></trkpt><trkpt lat="43.83608096656835" lon="7.626751604785008"><ele>60.0</ele><time>2026-03-29T09:16:09Z</time></trkpt><trkpt lat="43.83620316119052" lon="7.626812505613319"><ele>62.0</ele><time>2026-03-29T09:16:10Z</time></trkpt><trkpt lat="43.836332176821344" lon="7.626841238059052"><ele>64.0</ele><time>2026-03-29T09:16:11Z</time></trkpt><trkpt lat="43.836464820655685" lon="7.62686616714961"><ele>64.0</ele><time>2026-03-29T09:16:12Z</time></trkpt><trkpt lat="43.836597517045185" lon="7.626865275888924"><ele>64.0</ele><time>2026-03-29T09:16:13Z</time></trkpt><trkpt lat="43.836722999337866" lon="7.626839334727287"><ele>64.0</ele><time>2026-03-29T09:16:14Z</time></trkpt><trkpt lat="43.83683436113647" lon="7.626808628111181"><ele>64.0</ele><time>2026-03-29T09:16:15Z</time></trkpt><trkpt lat="43.83694168259746" lon="7.6267820446131065"><ele>63.6</ele><time>2026-03-29T09:16:16Z</time></trkpt><trkpt lat="43.837047845530144" lon="7.626756366285086"><ele>63.2</ele><time>2026-03-29T09:16:17Z</time></trkpt><trkpt lat="43.83714152301867" lon="7.626734170713801"><ele>62.800000000000004</ele><time>2026-03-29T09:16:18Z</time></trkpt><trkpt lat="43.83722612361735" lon="7.626716543731654"><ele>62.400000000000006</ele><time>2026-03-29T09:16:19Z</time></trkpt><trkpt lat="43.8373162705635" lon="7.626696222772046"><ele>62.0</ele><time>2026-03-29T09:16:20Z</time></trkpt><trkpt lat="43.83740636878293" lon="7.626676830875801"><ele>62.00000000000001</ele><time>2026-03-29T09:16:21Z</time></trkpt><trkpt lat="43.83748199316223" lon="7.626659786384423"><ele>62.0</ele><time>2026-03-29T09:16:22Z</time></trkpt><trkpt lat="43.83758416303746" lon="7.626637702596354"><ele>62.0</ele><time>2026-03-29T09:16:24Z</time></trkpt><trkpt lat="43.83765301217738" lon="7.626640345609047"><ele>62.0</ele><time>2026-03-29T09:16:26Z</time></trkpt><trkpt lat="43.837727574465696" lon="7.6266250005128855"><ele>62.00000000000001</ele><time>2026-03-29T09:16:29Z</time></trkpt><trkpt lat="43.83765534987438" lon="7.626493019617187"><ele>62.0</ele><time>2026-03-29T09:16:35Z</time></trkpt><trkpt lat="43.83759641671734" lon="7.626524124678741"><ele>62.0</ele><time>2026-03-29T09:16:36Z</time></trkpt><trkpt lat="43.83748526965021" lon="7.6265315078347475"><ele>62.0</ele><time>2026-03-29T09:16:38Z</time></trkpt><trkpt lat="43.83739320748118" lon="7.626527723749353"><ele>62.0</ele><time>2026-03-29T09:16:40Z</time></trkpt><trkpt lat="43.8373220884007" lon="7.626432428227242"><ele>62.0</ele><time>2026-03-29T09:16:53Z</time></trkpt><trkpt lat="43.837328519985114" lon="7.62633354905809"><ele>62.0</ele><time>2026-03-29T09:16:54Z</time></trkpt><trkpt lat="43.8372521511686" lon="7.626225011104762"><ele>62.00000000000001</ele><time>2026-03-29T09:16:56Z</time></trkpt><trkpt lat="43.83717977293255" lon="7.626254269815093"><ele>62.0</ele><time>2026-03-29T09:16:57Z</time></trkpt><trkpt lat="43.83711847493222" lon="7.6262313614419055"><ele>62.0</ele><time>2026-03-29T09:16:59Z</time></trkpt><trkpt lat="43.837152267861875" lon="7.626130424359835"><ele>62.0</ele><time>2026-03-29T09:17:01Z</time></trkpt><trkpt lat="43.83729120237056" lon="7.626106738646201"><ele>62.00000000000001</ele><time>2026-03-29T09:17:03Z</time></trkpt><trkpt lat="43.837352074265475" lon="7.626074897418737"><ele>62.0</ele><time>2026-03-29T09:17:04Z</time></trkpt><trkpt lat="43.837411658045944" lon="7.62600052337528"><ele>65.16666666666667</ele><time>2026-03-29T09:17:05Z</time></trkpt><trkpt lat="43.8374724426996" lon="7.625910190364089"><ele>68.33333333333334</ele><time>2026-03-29T09:17:06Z</time></trkpt><trkpt lat="43.83751764739702" lon="7.6258287667904385"><ele>71.5</ele><time>2026-03-29T09:17:07Z</time></trkpt><trkpt lat="43.837600020214296" lon="7.625703216759841"><ele>74.66666666666667</ele><time>2026-03-29T09:17:09Z</time></trkpt><trkpt lat="43.837634745726085" lon="7.6256268453162175"><ele>77.83333333333333</ele><time>2026-03-29T09:17:10Z</time></trkpt><trkpt lat="43.837668390597685" lon="7.625551226284498"><ele>81.0</ele><time>2026-03-29T09:17:11Z</time></trkpt><trkpt lat="43.83771717169833" lon="7.625430608561486"><ele>81.4</ele><time>2026-03-29T09:17:13Z</time></trkpt><trkpt lat="43.837751084143505" lon="7.62534632840692"><ele>81.8</ele><time>2026-03-29T09:17:15Z</time></trkpt><trkpt lat="43.83777993935582" lon="7.625259177904859"><ele>82.2</ele><time>2026-03-29T09:17:17Z</time></trkpt><trkpt lat="43.837857720376704" lon="7.625149451459728"><ele>82.60000000000001</ele><time>2026-03-29T09:17:19Z</time></trkpt><trkpt lat="43.837945566564464" lon="7.625056332100212"><ele>83.0</ele><time>2026-03-29T09:17:21Z</time></trkpt><trkpt lat="43.83806551249361" lon="7.62497012847879"><ele>85.5</ele><time>2026-03-29T09:17:23Z</time></trkpt><trkpt lat="43.83812789632162" lon="7.624938206503649"><ele>88.0</ele><time>2026-03-29T09:17:24Z</time></trkpt><trkpt lat="43.838229540169124" lon="7.624880951928622"><ele>90.5</ele><time>2026-03-29T09:17:26Z</time></trkpt><trkpt lat="43.838328858167074" lon="7.624868042879739"><ele>93.0</ele><time>2026-03-29T09:17:28Z</time></trkpt><trkpt lat="43.83839378467394" lon="7.62483988450151"><ele>95.49999999999999</ele><time>2026-03-29T09:17:30Z</time></trkpt><trkpt lat="43.838469153746885" lon="7.6248146263046985"><ele>98.0</ele><time>2026-03-29T09:17:32Z</time></trkpt><trkpt lat="43.83850435567975" lon="7.62469529684323"><ele>98.60000000000001</ele><time>2026-03-29T09:17:34Z</time></trkpt><trkpt lat="43.83844997913434" lon="7.62457081245397"><ele>99.2</ele><time>2026-03-29T09:17:36Z</time></trkpt><trkpt lat="43.838332215014155" lon="7.6245428333113585"><ele>99.8</ele><time>2026-03-29T09:17:38Z</time></trkpt><trkpt lat="43.83821627626919" lon="7.624575297621713"><ele>100.4</ele><time>2026-03-29T09:17:40Z</time></trkpt><trkpt lat="43.83814422872534" lon="7.62458899329959"><ele>101.0</ele><time>2026-03-29T09:17:41Z</time></trkpt><trkpt lat="43.83807844724632" lon="7.624597352058563"><ele>101.0</ele><time>2026-03-29T09:17:42Z</time></trkpt><trkpt lat="43.83797060376139" lon="7.624599704013416"><ele>101.0</ele><time>2026-03-29T09:17:44Z</time></trkpt><trkpt lat="43.837854120405645" lon="7.624579227871188"><ele>101.0</ele><time>2026-03-29T09:17:46Z</time></trkpt><trkpt lat="43.83776662425749" lon="7.624626446436823"><ele>101.0</ele><time>2026-03-29T09:17:48Z</time></trkpt><trkpt lat="43.83770325540013" lon="7.624665154956596"><ele>101.0</ele><time>2026-03-29T09:17:52Z</time></trkpt><trkpt lat="43.83771658703818" lon="7.624559043185202"><ele>101.0</ele><time>2026-03-29T09:17:55Z</time></trkpt><trkpt lat="43.83777493284952" lon="7.62452618476575"><ele>101.0</ele><time>2026-03-29T09:17:56Z</time></trkpt><trkpt lat="43.83783356969989" lon="7.624472822632503"><ele>101.0</ele><time>2026-03-29T09:17:58Z</time></trkpt><trkpt lat="43.83792599200807" lon="7.624419132665667"><ele>101.0</ele><time>2026-03-29T09:18:01Z</time></trkpt><trkpt lat="43.83795002950303" lon="7.624318644719471"><ele>101.0</ele><time>2026-03-29T09:18:03Z</time></trkpt><trkpt lat="43.83780756566398" lon="7.624294183118941"><ele>105.8</ele><time>2026-03-29T09:18:05Z</time></trkpt><trkpt lat="43.83774215213482" lon="7.624401750215272"><ele>110.6</ele><time>2026-03-29T09:18:06Z</time></trkpt><trkpt lat="43.83767499165608" lon="7.624427341269036"><ele>115.4</ele><time>2026-03-29T09:18:07Z</time></trkpt><trkpt lat="43.8375800839186" lon="7.624443456334453"><ele>120.2</ele><time>2026-03-29T09:18:09Z</time></trkpt><trkpt lat="43.83745847608524" lon="7.624432576675715"><ele>125.0</ele><time>2026-03-29T09:18:11Z</time></trkpt><trkpt lat="43.837390764686326" lon="7.624416796383979"><ele>128.83333333333331</ele><time>2026-03-29T09:18:12Z</time></trkpt><trkpt lat="43.837324067403344" lon="7.624405550438702"><ele>132.66666666666666</ele><time>2026-03-29T09:18:13Z</time></trkpt><trkpt lat="43.837241486547256" lon="7.624387326336304"><ele>136.5</ele><time>2026-03-29T09:18:15Z</time></trkpt><trkpt lat="43.8371694571318" lon="7.624389392698598"><ele>140.33333333333334</ele><time>2026-03-29T09:18:27.999Z</time></trkpt><trkpt lat="43.83706194529506" lon="7.624374218397633"><ele>144.16666666666669</ele><time>2026-03-29T09:18:29.999Z</time></trkpt><trkpt lat="43.83695449449432" lon="7.624392841302428"><ele>148.0</ele><time>2026-03-29T09:18:31.999Z</time></trkpt><trkpt lat="43.836882846736906" lon="7.624411109706663"><ele>148.0</ele><time>2026-03-29T09:18:32.999Z</time></trkpt><trkpt lat="43.83681758967431" lon="7.624454028642548"><ele>148.0</ele><time>2026-03-29T09:18:33.999Z</time></trkpt><trkpt lat="43.8367203897472" lon="7.624482913726684"><ele>148.0</ele><time>2026-03-29T09:18:35.999Z</time></trkpt><trkpt lat="43.83663775713856" lon="7.624520337658281"><ele>148.0</ele><time>2026-03-29T09:18:37.999Z</time></trkpt><trkpt lat="43.83653808897185" lon="7.62446429001639"><ele>148.0</ele><time>2026-03-29T09:18:39.999Z</time></trkpt><trkpt lat="43.83647592823383" lon="7.62440059287157"><ele>148.0</ele><time>2026-03-29T09:18:41.999Z</time></trkpt><trkpt lat="43.83641074602641" lon="7.62432675489956"><ele>148.66666666666669</ele><time>2026-03-29T09:18:43.999Z</time></trkpt><trkpt lat="43.83636432574759" lon="7.624247206478402"><ele>149.33333333333334</ele><time>2026-03-29T09:18:45.999Z</time></trkpt><trkpt lat="43.83631567281897" lon="7.624178429859427"><ele>150.0</ele><time>2026-03-29T09:18:50.999Z</time></trkpt><trkpt lat="43.83621934624169" lon="7.62413989609735"><ele>150.66666666666666</ele><time>2026-03-29T09:19:48Z</time></trkpt><trkpt lat="43.83611193622193" lon="7.624147969261096"><ele>151.33333333333331</ele><time>2026-03-29T09:19:50Z</time></trkpt><trkpt lat="43.83604634729882" lon="7.6241437101703955"><ele>152.0</ele><time>2026-03-29T09:19:51Z</time></trkpt><trkpt lat="43.83597145980103" lon="7.624143706444652"><ele>151.0</ele><time>2026-03-29T09:19:52Z</time></trkpt><trkpt lat="43.83589510034795" lon="7.624164262685595"><ele>150.0</ele><time>2026-03-29T09:19:53Z</time></trkpt><trkpt lat="43.83581890290678" lon="7.624218577809975"><ele>149.0</ele><time>2026-03-29T09:19:54Z</time></trkpt><trkpt lat="43.83574995053015" lon="7.624274380588081"><ele>148.0</ele><time>2026-03-29T09:19:55Z</time></trkpt><trkpt lat="43.835664242361695" lon="7.62433271801923"><ele>147.0</ele><time>2026-03-29T09:19:56Z</time></trkpt><trkpt lat="43.835573507900264" lon="7.624385157502702"><ele>146.0</ele><time>2026-03-29T09:19:57Z</time></trkpt><trkpt lat="43.83548508476937" lon="7.624420544814182"><ele>146.0</ele><time>2026-03-29T09:19:58Z</time></trkpt><trkpt lat="43.83539291321495" lon="7.624460732858504"><ele>146.0</ele><time>2026-03-29T09:19:59Z</time></trkpt><trkpt lat="43.83531849958885" lon="7.6244881600396"><ele>146.0</ele><time>2026-03-29T09:20:00Z</time></trkpt><trkpt lat="43.83524925216211" lon="7.624510210042712"><ele>146.0</ele><time>2026-03-29T09:20:01Z</time></trkpt><trkpt lat="43.83516923048677" lon="7.624538047711668"><ele>146.0</ele><time>2026-03-29T09:20:03Z</time></trkpt><trkpt lat="43.8351042157937" lon="7.62452646438746"><ele>146.0</ele><time>2026-03-29T09:20:06Z</time></trkpt><trkpt lat="43.83510163000873" lon="7.624424578395255"><ele>146.0</ele><time>2026-03-29T09:20:10Z</time></trkpt><trkpt lat="43.835169626976594" lon="7.624389332344458"><ele>146.0</ele><time>2026-03-29T09:20:11Z</time></trkpt><trkpt lat="43.835251778820535" lon="7.624355148655484"><ele>146.0</ele><time>2026-03-29T09:20:12Z</time></trkpt><trkpt lat="43.83532162557709" lon="7.624308790720431"><ele>146.0</ele><time>2026-03-29T09:20:13Z</time></trkpt><trkpt lat="43.83537692497393" lon="7.62423902685284"><ele>146.0</ele><time>2026-03-29T09:20:14Z</time></trkpt><trkpt lat="43.83543610212471" lon="7.624191182472352"><ele>146.0</ele><time>2026-03-29T09:20:15Z</time></trkpt><trkpt lat="43.83549633569972" lon="7.624127122460542"><ele>146.0</ele><time>2026-03-29T09:20:16Z</time></trkpt><trkpt lat="43.83557153435397" lon="7.624000475575563"><ele>146.0</ele><time>2026-03-29T09:20:18Z</time></trkpt><trkpt lat="43.83565118164603" lon="7.623910750658071"><ele>146.0</ele><time>2026-03-29T09:20:20Z</time></trkpt><trkpt lat="43.83568602035588" lon="7.623830694694827"><ele>146.0</ele><time>2026-03-29T09:20:24Z</time></trkpt><trkpt lat="43.83573885440781" lon="7.623725346059442"><ele>146.0</ele><time>2026-03-29T09:20:38Z</time></trkpt><trkpt lat="43.835790494410254" lon="7.6236126279912355"><ele>150.83333333333331</ele><time>2026-03-29T09:20:40Z</time></trkpt><trkpt lat="43.83581585332391" lon="7.623513390183598"><ele>155.66666666666666</ele><time>2026-03-29T09:20:42Z</time></trkpt><trkpt lat="43.83587018638551" lon="7.62339868166024"><ele>160.5</ele><time>2026-03-29T09:20:44Z</time></trkpt><trkpt lat="43.835927681900664" lon="7.623313238299073"><ele>165.33333333333334</ele><time>2026-03-29T09:20:46Z</time></trkpt><trkpt lat="43.83591193394301" lon="7.623213398035665"><ele>170.16666666666669</ele><time>2026-03-29T09:20:49Z</time></trkpt><trkpt lat="43.83581722700563" lon="7.623251202698119"><ele>175.0</ele><time>2026-03-29T09:20:51Z</time></trkpt><trkpt lat="43.83577159862783" lon="7.623319095053617"><ele>175.0</ele><time>2026-03-29T09:20:52Z</time></trkpt><trkpt lat="43.835708389567664" lon="7.623397103527301"><ele>175.0</ele><time>2026-03-29T09:20:53Z</time></trkpt><trkpt lat="43.83563141225794" lon="7.623451098191537"><ele>175.0</ele><time>2026-03-29T09:20:54Z</time></trkpt><trkpt lat="43.83555416868787" lon="7.6235050666395106"><ele>175.0</ele><time>2026-03-29T09:20:55Z</time></trkpt><trkpt lat="43.83549440165197" lon="7.623538401102449"><ele>175.0</ele><time>2026-03-29T09:20:56Z</time></trkpt><trkpt lat="43.83542632185001" lon="7.623566816260234"><ele>175.0</ele><time>2026-03-29T09:20:58Z</time></trkpt><trkpt lat="43.83536754447959" lon="7.623492597161233"><ele>175.0</ele><time>2026-03-29T09:22:35Z</time></trkpt><trkpt lat="43.8353381032214" lon="7.623368264057395"><ele>175.0</ele><time>2026-03-29T09:22:37Z</time></trkpt><trkpt lat="43.83532654294041" lon="7.623252901639368"><ele>175.0</ele><time>2026-03-29T09:22:39Z</time></trkpt><trkpt lat="43.83539793392804" lon="7.623247235172257"><ele>175.0</ele><time>2026-03-29T09:22:42Z</time></trkpt><trkpt lat="43.835453304774994" lon="7.6233210709404275"><ele>175.0</ele><time>2026-03-29T09:22:44Z</time></trkpt><trkpt lat="43.8354653346554" lon="7.623188179587756"><ele>175.0</ele><time>2026-03-29T09:22:47Z</time></trkpt><trkpt lat="43.8354019915109" lon="7.623063752131588"><ele>175.0</ele><time>2026-03-29T09:22:49Z</time></trkpt><trkpt lat="43.835371042916776" lon="7.622948210185737"><ele>175.0</ele><time>2026-03-29T09:22:51Z</time></trkpt><trkpt lat="43.835440951495215" lon="7.622882922145001"><ele>175.0</ele><time>2026-03-29T09:22:53Z</time></trkpt><trkpt lat="43.83555146313128" lon="7.622954213457072"><ele>175.0</ele><time>2026-03-29T09:22:55Z</time></trkpt><trkpt lat="43.83564166405146" lon="7.6229534877582"><ele>175.0</ele><time>2026-03-29T09:22:57Z</time></trkpt><trkpt lat="43.83568810889794" lon="7.622874558381404"><ele>179.33333333333334</ele><time>2026-03-29T09:22:58Z</time></trkpt><trkpt lat="43.83572628222474" lon="7.622777774442313"><ele>183.66666666666669</ele><time>2026-03-29T09:22:59Z</time></trkpt><trkpt lat="43.8357670071646" lon="7.622697607953281"><ele>188.0</ele><time>2026-03-29T09:23:00Z</time></trkpt><trkpt lat="43.83581191247554" lon="7.622620980117676"><ele>192.33333333333334</ele><time>2026-03-29T09:23:01Z</time></trkpt><trkpt lat="43.835889876252494" lon="7.622509644361496"><ele>196.66666666666666</ele><time>2026-03-29T09:23:03Z</time></trkpt><trkpt lat="43.83594250292821" lon="7.622444293394788"><ele>201.0</ele><time>2026-03-29T09:23:04Z</time></trkpt><trkpt lat="43.83599854513854" lon="7.622383398824234"><ele>201.0</ele><time>2026-03-29T09:23:05Z</time></trkpt><trkpt lat="43.836054007035436" lon="7.622339632051533"><ele>201.0</ele><time>2026-03-29T09:23:06Z</time></trkpt><trkpt lat="43.83612165667355" lon="7.622298298485171"><ele>201.0</ele><time>2026-03-29T09:23:07Z</time></trkpt><trkpt lat="43.8361982812623" lon="7.622267114245972"><ele>201.0</ele><time>2026-03-29T09:23:08Z</time></trkpt><trkpt lat="43.83626367399782" lon="7.622250218949887"><ele>201.0</ele><time>2026-03-29T09:23:09Z</time></trkpt><trkpt lat="43.836347404947034" lon="7.62223863508529"><ele>201.0</ele><time>2026-03-29T09:23:11Z</time></trkpt><trkpt lat="43.83641987429698" lon="7.622159284211241"><ele>201.0</ele><time>2026-03-29T09:23:14Z</time></trkpt><trkpt lat="43.83635458626942" lon="7.622072401023422"><ele>201.0</ele><time>2026-03-29T09:23:16Z</time></trkpt><trkpt lat="43.83629001297599" lon="7.622080533239551"><ele>201.0</ele><time>2026-03-29T09:23:17Z</time></trkpt><trkpt lat="43.83621612832894" lon="7.622096701712299"><ele>201.0</ele><time>2026-03-29T09:23:18Z</time></trkpt><trkpt lat="43.836150350851284" lon="7.622081209884376"><ele>201.0</ele><time>2026-03-29T09:23:19Z</time></trkpt><trkpt lat="43.83608687335769" lon="7.622083862545637"><ele>201.0</ele><time>2026-03-29T09:23:20Z</time></trkpt><trkpt lat="43.83601942181265" lon="7.622116866817413"><ele>201.0</ele><time>2026-03-29T09:23:21Z</time></trkpt><trkpt lat="43.835946747903606" lon="7.6221243544870285"><ele>201.0</ele><time>2026-03-29T09:23:22Z</time></trkpt><trkpt lat="43.83584744498252" lon="7.622134950833936"><ele>201.0</ele><time>2026-03-29T09:23:24Z</time></trkpt><trkpt lat="43.83578659828404" lon="7.6221613333708245"><ele>201.0</ele><time>2026-03-29T09:23:26Z</time></trkpt><trkpt lat="43.83573997401617" lon="7.622074271847892"><ele>201.0</ele><time>2026-03-29T09:23:42Z</time></trkpt><trkpt lat="43.835809021596745" lon="7.621993846010339"><ele>201.0</ele><time>2026-03-29T09:23:45Z</time></trkpt><trkpt lat="43.83591852571792" lon="7.621987863011745"><ele>201.0</ele><time>2026-03-29T09:23:47Z</time></trkpt><trkpt lat="43.8359857533418" lon="7.621966258273246"><ele>205.83333333333334</ele><time>2026-03-29T09:23:48Z</time></trkpt><trkpt lat="43.836072884785835" lon="7.621966305297137"><ele>210.66666666666669</ele><time>2026-03-29T09:23:49Z</time></trkpt><trkpt lat="43.83614055301121" lon="7.621930135078974"><ele>215.5</ele><time>2026-03-29T09:23:50Z</time></trkpt><trkpt lat="43.83621357348207" lon="7.621859294347287"><ele>220.33333333333334</ele><time>2026-03-29T09:23:51Z</time></trkpt><trkpt lat="43.83629178969638" lon="7.621803825322896"><ele>225.16666666666669</ele><time>2026-03-29T09:23:52Z</time></trkpt><trkpt lat="43.83635968708512" lon="7.621770444004977"><ele>230.0</ele><time>2026-03-29T09:23:53Z</time></trkpt><trkpt lat="43.83647500969261" lon="7.621728627243366"><ele>230.0</ele><time>2026-03-29T09:23:55Z</time></trkpt><trkpt lat="43.83653650014086" lon="7.62170754110017"><ele>230.0</ele><time>2026-03-29T09:23:56Z</time></trkpt><trkpt lat="43.836603131876295" lon="7.621674337290573"><ele>230.0</ele><time>2026-03-29T09:23:58Z</time></trkpt><trkpt lat="43.83666120719114" lon="7.621591251226296"><ele>230.0</ele><time>2026-03-29T09:24:00Z</time></trkpt><trkpt lat="43.83658211980937" lon="7.621471135453666"><ele>230.0</ele><time>2026-03-29T09:24:01Z</time></trkpt><trkpt lat="43.836458648599894" lon="7.621426149671877"><ele>230.0</ele><time>2026-03-29T09:24:03Z</time></trkpt><trkpt lat="43.8363878067079" lon="7.621320256246478"><ele>230.0</ele><time>2026-03-29T09:24:05Z</time></trkpt><trkpt lat="43.83640216976355" lon="7.621216804873924"><ele>230.0</ele><time>2026-03-29T09:24:07Z</time></trkpt><trkpt lat="43.83648971326553" lon="7.621265063071977"><ele>230.0</ele><time>2026-03-29T09:24:09Z</time></trkpt><trkpt lat="43.83661851770609" lon="7.621275944541582"><ele>230.0</ele><time>2026-03-29T09:24:11Z</time></trkpt><trkpt lat="43.83669472755183" lon="7.621282542659071"><ele>230.00000000000003</ele><time>2026-03-29T09:24:12Z</time></trkpt><trkpt lat="43.83675818502096" lon="7.621285543387718"><ele>230.0</ele><time>2026-03-29T09:24:13Z</time></trkpt><trkpt lat="43.836862044484526" lon="7.621238919932539"><ele>230.0</ele><time>2026-03-29T09:24:15Z</time></trkpt><trkpt lat="43.836895031326904" lon="7.621154648228922"><ele>230.0</ele><time>2026-03-29T09:24:16Z</time></trkpt><trkpt lat="43.83697845940343" lon="7.621045421182631"><ele>230.00000000000003</ele><time>2026-03-29T09:24:18Z</time></trkpt><trkpt lat="43.83704911694861" lon="7.620968138013971"><ele>230.0</ele><time>2026-03-29T09:24:20Z</time></trkpt><trkpt lat="43.83708204751363" lon="7.620857171708618"><ele>235.16666666666669</ele><time>2026-03-29T09:24:23Z</time></trkpt><trkpt lat="43.83696548241378" lon="7.620743913863428"><ele>240.33333333333334</ele><time>2026-03-29T09:24:24Z</time></trkpt><trkpt lat="43.8369134200541" lon="7.620677538855483"><ele>245.5</ele><time>2026-03-29T09:24:25Z</time></trkpt><trkpt lat="43.83684131799187" lon="7.6206309744734275"><ele>250.66666666666669</ele><time>2026-03-29T09:24:26Z</time></trkpt><trkpt lat="43.83677742681091" lon="7.6205694865988285"><ele>255.83333333333334</ele><time>2026-03-29T09:24:27Z</time></trkpt><trkpt lat="43.83671161517276" lon="7.620547077555356"><ele>261.0</ele><time>2026-03-29T09:24:28Z</time></trkpt><trkpt lat="43.83661301114807" lon="7.620479847962661"><ele>261.1666666666667</ele><time>2026-03-29T09:24:30Z</time></trkpt><trkpt lat="43.83654453009305" lon="7.6204026180812665"><ele>261.3333333333333</ele><time>2026-03-29T09:24:32Z</time></trkpt><trkpt lat="43.83650149172625" lon="7.620320050198685"><ele>261.5</ele><time>2026-03-29T09:24:34Z</time></trkpt><trkpt lat="43.83646348651603" lon="7.620194038425389"><ele>261.66666666666663</ele><time>2026-03-29T09:24:36Z</time></trkpt><trkpt lat="43.83641517136606" lon="7.620078679100059"><ele>261.8333333333333</ele><time>2026-03-29T09:24:38Z</time></trkpt><trkpt lat="43.83639199510561" lon="7.619953891261547"><ele>262.0</ele><time>2026-03-29T09:24:40Z</time></trkpt><trkpt lat="43.836325533512884" lon="7.619882772971253"><ele>265.5</ele><time>2026-03-29T09:24:59Z</time></trkpt><trkpt lat="43.83627335332019" lon="7.619829681044912"><ele>269.0</ele><time>2026-03-29T09:25:01Z</time></trkpt><trkpt lat="43.83622875871866" lon="7.6197573419188185"><ele>272.5</ele><time>2026-03-29T09:25:03Z</time></trkpt><trkpt lat="43.83620635962496" lon="7.619654699079791"><ele>276.0</ele><time>2026-03-29T09:25:05Z</time></trkpt><trkpt lat="43.83618918169978" lon="7.619551310600716"><ele>279.5</ele><time>2026-03-29T09:25:07Z</time></trkpt><trkpt lat="43.836181404461264" lon="7.619417287030951"><ele>283.0</ele><time>2026-03-29T09:25:09Z</time></trkpt><trkpt lat="43.836122504755444" lon="7.6192771841682365"><ele>282.3333333333333</ele><time>2026-03-29T09:25:11Z</time></trkpt><trkpt lat="43.836080129096004" lon="7.619206528746874"><ele>281.66666666666663</ele><time>2026-03-29T09:25:12Z</time></trkpt><trkpt lat="43.83600803331823" lon="7.6191090540509165"><ele>281.0</ele><time>2026-03-29T09:25:14Z</time></trkpt><trkpt lat="43.83594909697585" lon="7.619027581335501"><ele>280.3333333333333</ele><time>2026-03-29T09:25:16Z</time></trkpt><trkpt lat="43.83591724945203" lon="7.618889964216508"><ele>279.6666666666667</ele><time>2026-03-29T09:25:18Z</time></trkpt><trkpt lat="43.83591397963973" lon="7.618797076394266"><ele>279.0</ele><time>2026-03-29T09:25:19Z</time></trkpt><trkpt lat="43.83588763919919" lon="7.618648616767056"><ele>279.0</ele><time>2026-03-29T09:25:21Z</time></trkpt><trkpt lat="43.835848705831346" lon="7.618514018334343"><ele>279.0</ele><time>2026-03-29T09:25:23Z</time></trkpt><trkpt lat="43.83583302029116" lon="7.618381775428516"><ele>279.0</ele><time>2026-03-29T09:25:25Z</time></trkpt><trkpt lat="43.835819550497135" lon="7.618290579770572"><ele>279.0</ele><time>2026-03-29T09:25:28Z</time></trkpt><trkpt lat="43.83580411966803" lon="7.61810691214142"><ele>279.0</ele><time>2026-03-29T09:25:29Z</time></trkpt><trkpt lat="43.835793375687416" lon="7.617932125905549"><ele>278.2</ele><time>2026-03-29T09:25:31Z</time></trkpt><trkpt lat="43.835809894588394" lon="7.617752763934893"><ele>277.4</ele><time>2026-03-29T09:25:33Z</time></trkpt><trkpt lat="43.83583802676829" lon="7.617661190515109"><ele>276.6</ele><time>2026-03-29T09:25:34Z</time></trkpt><trkpt lat="43.835863648312866" lon="7.617511147990167"><ele>275.8</ele><time>2026-03-29T09:25:36Z</time></trkpt><trkpt lat="43.83586840160704" lon="7.6173447939834045"><ele>275.0</ele><time>2026-03-29T09:25:38Z</time></trkpt><trkpt lat="43.83587016683917" lon="7.617171909859419"><ele>275.0</ele><time>2026-03-29T09:25:40Z</time></trkpt><trkpt lat="43.83589272856455" lon="7.617018639079486"><ele>275.0</ele><time>2026-03-29T09:25:42Z</time></trkpt><trkpt lat="43.835901876894496" lon="7.6169186658476296"><ele>275.0</ele><time>2026-03-29T09:25:44Z</time></trkpt><trkpt lat="43.8359388570751" lon="7.616841272473736"><ele>275.0</ele><time>2026-03-29T09:25:46Z</time></trkpt><trkpt lat="43.83604809192113" lon="7.616789543624238"><ele>275.0</ele><time>2026-03-29T09:25:48Z</time></trkpt><trkpt lat="43.836140019800574" lon="7.616764020101139"><ele>280.6</ele><time>2026-03-29T09:25:50Z</time></trkpt><trkpt lat="43.8362226591625" lon="7.616715620490536"><ele>286.2</ele><time>2026-03-29T09:25:52Z</time></trkpt><trkpt lat="43.8362889897254" lon="7.616638861127613"><ele>291.8</ele><time>2026-03-29T09:25:54Z</time></trkpt><trkpt lat="43.83635013176415" lon="7.616515403043734"><ele>297.4</ele><time>2026-03-29T09:25:56Z</time></trkpt><trkpt lat="43.83639240119846" lon="7.616447867675445"><ele>303.0</ele><time>2026-03-29T09:25:58Z</time></trkpt><trkpt lat="43.836488566720064" lon="7.616339964360218"><ele>303.0</ele><time>2026-03-29T09:25:59Z</time></trkpt><trkpt lat="43.836524690077894" lon="7.616217029689648"><ele>303.0</ele><time>2026-03-29T09:26:01Z</time></trkpt><trkpt lat="43.836490140590875" lon="7.616071253600842"><ele>303.0</ele><time>2026-03-29T09:26:03Z</time></trkpt><trkpt lat="43.83642520176108" lon="7.61591316437345"><ele>303.0</ele><time>2026-03-29T09:26:05Z</time></trkpt><trkpt lat="43.83637996760549" lon="7.615761997504888"><ele>302.4</ele><time>2026-03-29T09:26:07Z</time></trkpt><trkpt lat="43.836341735475045" lon="7.615619104084767"><ele>301.8</ele><time>2026-03-29T09:26:09Z</time></trkpt><trkpt lat="43.83630548618839" lon="7.615516295933171"><ele>301.2</ele><time>2026-03-29T09:26:11Z</time></trkpt><trkpt lat="43.836238381878665" lon="7.615402146732073"><ele>300.6</ele><time>2026-03-29T09:26:13Z</time></trkpt><trkpt lat="43.83619105713629" lon="7.615281354373632"><ele>300.0</ele><time>2026-03-29T09:26:15Z</time></trkpt><trkpt lat="43.836168548890534" lon="7.6151408212859595"><ele>301.5</ele><time>2026-03-29T09:26:17Z</time></trkpt><trkpt lat="43.8361328014169" lon="7.615039826389742"><ele>303.0</ele><time>2026-03-29T09:26:19Z</time></trkpt><trkpt lat="43.83606929243792" lon="7.615056297792037"><ele>304.5</ele><time>2026-03-29T09:26:22Z</time></trkpt><trkpt lat="43.83603895261002" lon="7.614961257400607"><ele>306.0</ele><time>2026-03-29T09:28:59Z</time></trkpt><trkpt lat="43.83605498420387" lon="7.614838888638763"><ele>307.5</ele><time>2026-03-29T09:29:01Z</time></trkpt><trkpt lat="43.836087241840644" lon="7.614705529574855"><ele>309.0</ele><time>2026-03-29T09:29:04Z</time></trkpt><trkpt lat="43.836084734163826" lon="7.614595307151555"><ele>309.0</ele><time>2026-03-29T09:29:06Z</time></trkpt><trkpt lat="43.83599094218779" lon="7.614562233523553"><ele>309.0</ele><time>2026-03-29T09:29:09Z</time></trkpt><trkpt lat="43.83593181488385" lon="7.614530533099506"><ele>309.0</ele><time>2026-03-29T09:29:11Z</time></trkpt><trkpt lat="43.83585840690761" lon="7.614476793440967"><ele>309.0</ele><time>2026-03-29T09:29:29Z</time></trkpt><trkpt lat="43.835892646889384" lon="7.614386628919783"><ele>309.0</ele><time>2026-03-29T09:29:32Z</time></trkpt><trkpt lat="43.83597136805804" lon="7.614415601273258"><ele>309.0</ele><time>2026-03-29T09:29:35Z</time></trkpt><trkpt lat="43.83592661141452" lon="7.614331267585103"><ele>307.6666666666667</ele><time>2026-03-29T09:30:23Z</time></trkpt><trkpt lat="43.835855612226766" lon="7.6142931545754475"><ele>306.3333333333333</ele><time>2026-03-29T09:30:26Z</time></trkpt><trkpt lat="43.83580882066686" lon="7.614216604646723"><ele>305.0</ele><time>2026-03-29T09:30:30Z</time></trkpt><trkpt lat="43.835744421940504" lon="7.614180243057886"><ele>303.66666666666663</ele><time>2026-03-29T09:35:22Z</time></trkpt><trkpt lat="43.835669480635616" lon="7.614121232116148"><ele>302.3333333333333</ele><time>2026-03-29T09:35:26Z</time></trkpt><trkpt lat="43.835600440995556" lon="7.6140784764250435"><ele>301.0</ele><time>2026-03-29T09:35:29Z</time></trkpt><trkpt lat="43.83554018567895" lon="7.614008991384969"><ele>301.0</ele><time>2026-03-29T09:35:32Z</time></trkpt><trkpt lat="43.835496678468985" lon="7.613945429279596"><ele>301.0</ele><time>2026-03-29T09:35:34Z</time></trkpt><trkpt lat="43.83542822938663" lon="7.613896571436916"><ele>301.0</ele><time>2026-03-29T09:35:37Z</time></trkpt><trkpt lat="43.83535141047274" lon="7.6138921924772704"><ele>301.0</ele><time>2026-03-29T09:35:40.999Z</time></trkpt><trkpt lat="43.835287636395506" lon="7.613912465370264"><ele>301.0</ele><time>2026-03-29T09:36:22Z</time></trkpt><trkpt lat="43.83524583542887" lon="7.613834148307546"><ele>301.0</ele><time>2026-03-29T09:36:58Z</time></trkpt><trkpt lat="43.83525852877329" lon="7.613740749537777"><ele>301.0</ele><time>2026-03-29T09:37:13Z</time></trkpt><trkpt lat="43.83528931924011" lon="7.6136506785941656"><ele>301.0</ele><time>2026-03-29T09:37:23.999Z</time></trkpt><trkpt lat="43.83532760749862" lon="7.61358058223269"><ele>301.0</ele><time>2026-03-29T09:37:46.999Z</time></trkpt><trkpt lat="43.835380737817324" lon="7.6135171396297885"><ele>301.0</ele><time>2026-03-29T09:37:56Z</time></trkpt><trkpt lat="43.83533266878964" lon="7.613577577034962"><ele>301.0</ele><time>2026-03-29T09:38:19Z</time></trkpt><trkpt lat="43.835285799035844" lon="7.61365131567535"><ele>301.0</ele><time>2026-03-29T09:38:31Z</time></trkpt><trkpt lat="43.835261069620316" lon="7.6137371412631305"><ele>301.0</ele><time>2026-03-29T09:38:42Z</time></trkpt><trkpt lat="43.83523183232523" lon="7.613825858341986"><ele>301.0</ele><time>2026-03-29T09:38:51Z</time></trkpt><trkpt lat="43.83525169555015" lon="7.613909617065116"><ele>301.0</ele><time>2026-03-29T09:39:03Z</time></trkpt><trkpt lat="43.83531564050544" lon="7.613888718093646"><ele>301.0</ele><time>2026-03-29T09:39:14Z</time></trkpt><trkpt lat="43.83539604395866" lon="7.613875120399388"><ele>301.0</ele><time>2026-03-29T09:40:06Z</time></trkpt><trkpt lat="43.83546338820331" lon="7.613890551073779"><ele>301.0</ele><time>2026-03-29T09:40:52Z</time></trkpt><trkpt lat="43.8355316596196" lon="7.613959064955431"><ele>301.0</ele><time>2026-03-29T09:40:56Z</time></trkpt><trkpt lat="43.835568946329644" lon="7.614034494545235"><ele>301.0</ele><time>2026-03-29T09:40:59Z</time></trkpt><trkpt lat="43.8356239724399" lon="7.6140845318970545"><ele>301.0</ele><time>2026-03-29T09:41:02Z</time></trkpt><trkpt lat="43.83568039957499" lon="7.614128917903509"><ele>301.0</ele><time>2026-03-29T09:41:04Z</time></trkpt><trkpt lat="43.83574276715368" lon="7.6141756883408025"><ele>301.0</ele><time>2026-03-29T09:41:07Z</time></trkpt><trkpt lat="43.83581778535889" lon="7.614255250496686"><ele>301.0</ele><time>2026-03-29T09:41:10Z</time></trkpt><trkpt lat="43.83587303329045" lon="7.614326811730624"><ele>301.0</ele><time>2026-03-29T09:41:13Z</time></trkpt><trkpt lat="43.83594632929031" lon="7.614360211167147"><ele>301.0</ele><time>2026-03-29T09:41:16Z</time></trkpt><trkpt lat="43.835881948433205" lon="7.6144173004407625"><ele>301.0</ele><time>2026-03-29T09:41:27Z</time></trkpt><trkpt lat="43.8358370015971" lon="7.614484472612331"><ele>302.14285714285717</ele><time>2026-03-29T09:41:30Z</time></trkpt><trkpt lat="43.83589760251979" lon="7.614536080878521"><ele>303.2857142857143</ele><time>2026-03-29T09:41:34Z</time></trkpt><trkpt lat="43.835963039974196" lon="7.614586230895245"><ele>304.42857142857144</ele><time>2026-03-29T09:41:39Z</time></trkpt><trkpt lat="43.83603273593428" lon="7.614570453476726"><ele>305.57142857142856</ele><time>2026-03-29T09:41:43Z</time></trkpt><trkpt lat="43.83607189262954" lon="7.614663494069066"><ele>306.7142857142857</ele><time>2026-03-29T09:41:45.999Z</time></trkpt><trkpt lat="43.83605861925769" lon="7.614749093677019"><ele>307.8571428571429</ele><time>2026-03-29T09:41:47.999Z</time></trkpt><trkpt lat="43.83603440941148" lon="7.61486808921401"><ele>309.0</ele><time>2026-03-29T09:41:50.999Z</time></trkpt><trkpt lat="43.83602503300761" lon="7.614993098820764"><ele>309.0</ele><time>2026-03-29T09:41:54.999Z</time></trkpt><trkpt lat="43.836057207102" lon="7.615075526173318"><ele>309.0</ele><time>2026-03-29T09:41:57.999Z</time></trkpt><trkpt lat="43.83614230246697" lon="7.6151186717254005"><ele>309.0</ele><time>2026-03-29T09:42:00.999Z</time></trkpt><trkpt lat="43.83617169133321" lon="7.6152172662365425"><ele>309.0</ele><time>2026-03-29T09:42:02.999Z</time></trkpt><trkpt lat="43.83619362465038" lon="7.615346270665586"><ele>309.0</ele><time>2026-03-29T09:42:05Z</time></trkpt><trkpt lat="43.836241260365114" lon="7.615434476292288"><ele>309.0</ele><time>2026-03-29T09:42:08Z</time></trkpt><trkpt lat="43.836314404848366" lon="7.615558540792816"><ele>308.0</ele><time>2026-03-29T09:42:09Z</time></trkpt><trkpt lat="43.836343367530695" lon="7.6156380015952"><ele>307.0</ele><time>2026-03-29T09:42:10Z</time></trkpt><trkpt lat="43.836371178468134" lon="7.61576374372458"><ele>306.0</ele><time>2026-03-29T09:42:12Z</time></trkpt><trkpt lat="43.83640581343806" lon="7.615888893735462"><ele>305.0</ele><time>2026-03-29T09:42:14Z</time></trkpt><trkpt lat="43.83643653322244" lon="7.615983047768028"><ele>304.0</ele><time>2026-03-29T09:42:16Z</time></trkpt><trkpt lat="43.83648031409484" lon="7.616117866616819"><ele>303.0</ele><time>2026-03-29T09:42:18Z</time></trkpt><trkpt lat="43.83650724487785" lon="7.616211523295073"><ele>303.0</ele><time>2026-03-29T09:42:20Z</time></trkpt><trkpt lat="43.8364873820685" lon="7.616344178955116"><ele>303.0</ele><time>2026-03-29T09:42:22Z</time></trkpt><trkpt lat="43.836439059867125" lon="7.616431278490887"><ele>303.0</ele><time>2026-03-29T09:42:24Z</time></trkpt><trkpt lat="43.83636855813486" lon="7.616521343044132"><ele>303.0</ele><time>2026-03-29T09:42:27Z</time></trkpt><trkpt lat="43.83632717658748" lon="7.616589426058658"><ele>303.0</ele><time>2026-03-29T09:42:28Z</time></trkpt><trkpt lat="43.836271691955496" lon="7.616683747208986"><ele>303.0</ele><time>2026-03-29T09:42:30Z</time></trkpt><trkpt lat="43.83626249444892" lon="7.616774923288525"><ele>303.0</ele><time>2026-03-29T09:42:33Z</time></trkpt><trkpt lat="43.83615295456932" lon="7.6167738509662195"><ele>303.0</ele><time>2026-03-29T09:42:34Z</time></trkpt><trkpt lat="43.83607956357254" lon="7.6167642947648755"><ele>303.0</ele><time>2026-03-29T09:42:35Z</time></trkpt><trkpt lat="43.83601608298484" lon="7.616778084246456"><ele>303.0</ele><time>2026-03-29T09:42:36Z</time></trkpt><trkpt lat="43.835983229169855" lon="7.616873165946293"><ele>303.0</ele><time>2026-03-29T09:42:39Z</time></trkpt><trkpt lat="43.8359001036532" lon="7.616929481122917"><ele>303.0</ele><time>2026-03-29T09:42:41Z</time></trkpt><trkpt lat="43.83590469282292" lon="7.617021388962003"><ele>297.4</ele><time>2026-03-29T09:42:43Z</time></trkpt><trkpt lat="43.835906426593134" lon="7.617116674162261"><ele>291.8</ele><time>2026-03-29T09:42:44Z</time></trkpt><trkpt lat="43.83586278247699" lon="7.61722274108354"><ele>286.2</ele><time>2026-03-29T09:42:46Z</time></trkpt><trkpt lat="43.83585669108561" lon="7.617386438566537"><ele>280.6</ele><time>2026-03-29T09:42:48Z</time></trkpt><trkpt lat="43.835858728933964" lon="7.6175411735216665"><ele>275.0</ele><time>2026-03-29T09:42:50Z</time></trkpt><trkpt lat="43.83585616685445" lon="7.617646317563602"><ele>275.0</ele><time>2026-03-29T09:42:52Z</time></trkpt><trkpt lat="43.83582889255968" lon="7.6177548183525845"><ele>275.0</ele><time>2026-03-29T09:42:54Z</time></trkpt><trkpt lat="43.83578955318153" lon="7.61788691630878"><ele>275.0</ele><time>2026-03-29T09:42:56Z</time></trkpt><trkpt lat="43.83578097186749" lon="7.61800663741582"><ele>275.0</ele><time>2026-03-29T09:42:58Z</time></trkpt><trkpt lat="43.83579062500888" lon="7.6181056540324175"><ele>275.0</ele><time>2026-03-29T09:42:59Z</time></trkpt><trkpt lat="43.835784174563194" lon="7.618255534479567"><ele>274.4</ele><time>2026-03-29T09:43:01Z</time></trkpt><trkpt lat="43.83579466409657" lon="7.6183771952453405"><ele>273.8</ele><time>2026-03-29T09:43:03Z</time></trkpt><trkpt lat="43.83584175315999" lon="7.618497636007514"><ele>273.2</ele><time>2026-03-29T09:43:05Z</time></trkpt><trkpt lat="43.83588550355384" lon="7.6186704396239415"><ele>272.6</ele><time>2026-03-29T09:43:07Z</time></trkpt><trkpt lat="43.835920002236435" lon="7.6188275254989914"><ele>272.0</ele><time>2026-03-29T09:43:09Z</time></trkpt><trkpt lat="43.83592627109362" lon="7.6189602099406555"><ele>273.83333333333337</ele><time>2026-03-29T09:43:11Z</time></trkpt><trkpt lat="43.83597244449363" lon="7.61905834493185"><ele>275.6666666666667</ele><time>2026-03-29T09:43:13Z</time></trkpt><trkpt lat="43.836015883057854" lon="7.619123083621786"><ele>277.5</ele><time>2026-03-29T09:43:15Z</time></trkpt><trkpt lat="43.83608313252193" lon="7.619222450478924"><ele>279.3333333333333</ele><time>2026-03-29T09:43:17Z</time></trkpt><trkpt lat="43.83613061983613" lon="7.619313016093246"><ele>281.16666666666663</ele><time>2026-03-29T09:43:19Z</time></trkpt><trkpt lat="43.83615818383008" lon="7.61940967178403"><ele>283.0</ele><time>2026-03-29T09:43:21Z</time></trkpt><trkpt lat="43.83618207914036" lon="7.619496728703206"><ele>283.0</ele><time>2026-03-29T09:43:23Z</time></trkpt><trkpt lat="43.836191475799346" lon="7.6195882288768955"><ele>283.0</ele><time>2026-03-29T09:43:25Z</time></trkpt><trkpt lat="43.83622507563068" lon="7.619697797877689"><ele>283.0</ele><time>2026-03-29T09:43:34Z</time></trkpt><trkpt lat="43.83625708232345" lon="7.619789993825864"><ele>283.0</ele><time>2026-03-29T09:43:36Z</time></trkpt><trkpt lat="43.836343789155734" lon="7.6198859455586065"><ele>283.0</ele><time>2026-03-29T09:43:38Z</time></trkpt><trkpt lat="43.83639333978469" lon="7.61999016446612"><ele>283.0</ele><time>2026-03-29T09:43:40Z</time></trkpt><trkpt lat="43.836435657217855" lon="7.62010953260288"><ele>283.0</ele><time>2026-03-29T09:43:42Z</time></trkpt><trkpt lat="43.83647659545088" lon="7.620207604844609"><ele>283.0</ele><time>2026-03-29T09:43:44Z</time></trkpt><trkpt lat="43.836511807254205" lon="7.6203127140456814"><ele>283.0</ele><time>2026-03-29T09:43:46Z</time></trkpt><trkpt lat="43.836548456961886" lon="7.620422783026274"><ele>283.0</ele><time>2026-03-29T09:43:48Z</time></trkpt><trkpt lat="43.83661720630653" lon="7.620503287260634"><ele>283.0</ele><time>2026-03-29T09:43:49.999Z</time></trkpt><trkpt lat="43.83670806932795" lon="7.620566756940465"><ele>283.0</ele><time>2026-03-29T09:43:51.999Z</time></trkpt><trkpt lat="43.83679476225259" lon="7.620626047590908"><ele>278.6</ele><time>2026-03-29T09:43:53.999Z</time></trkpt><trkpt lat="43.83688096139966" lon="7.620688185554998"><ele>274.20000000000005</ele><time>2026-03-29T09:43:55.999Z</time></trkpt><trkpt lat="43.836957630529504" lon="7.620778406993367"><ele>269.8</ele><time>2026-03-29T09:43:57.999Z</time></trkpt><trkpt lat="43.83702052547106" lon="7.6208627729140535"><ele>265.40000000000003</ele><time>2026-03-29T09:43:59.999Z</time></trkpt><trkpt lat="43.83701703758264" lon="7.620978249763989"><ele>261.0</ele><time>2026-03-29T09:44:02.999Z</time></trkpt><trkpt lat="43.836957933758065" lon="7.621055576768192"><ele>261.0</ele><time>2026-03-29T09:44:04.999Z</time></trkpt><trkpt lat="43.83690121346148" lon="7.621127905900229"><ele>261.0</ele><time>2026-03-29T09:44:06.999Z</time></trkpt><trkpt lat="43.836818116679225" lon="7.621203542392448"><ele>261.0</ele><time>2026-03-29T09:44:08.999Z</time></trkpt><trkpt lat="43.83674047248205" lon="7.621246316577709"><ele>261.0</ele><time>2026-03-29T09:44:11Z</time></trkpt><trkpt lat="43.836664352747405" lon="7.621236236069013"><ele>261.0</ele><time>2026-03-29T09:44:13Z</time></trkpt><trkpt lat="43.836576249967464" lon="7.621214499373376"><ele>261.0</ele><time>2026-03-29T09:44:15Z</time></trkpt><trkpt lat="43.836497597662785" lon="7.621222439368553"><ele>255.83333333333334</ele><time>2026-03-29T09:44:17Z</time></trkpt><trkpt lat="43.836423155362034" lon="7.621222938546422"><ele>250.66666666666669</ele><time>2026-03-29T09:44:19Z</time></trkpt><trkpt lat="43.83637240977911" lon="7.62130579805658"><ele>245.5</ele><time>2026-03-29T09:44:22Z</time></trkpt><trkpt lat="43.8364335163172" lon="7.62140590507722"><ele>240.33333333333334</ele><time>2026-03-29T09:44:24Z</time></trkpt><trkpt lat="43.83650775020097" lon="7.621488306825322"><ele>235.16666666666669</ele><time>2026-03-29T09:44:26Z</time></trkpt><trkpt lat="43.83657137920898" lon="7.621522841004801"><ele>230.0</ele><time>2026-03-29T09:44:28Z</time></trkpt><trkpt lat="43.83661502750647" lon="7.621613018319953"><ele>230.0</ele><time>2026-03-29T09:44:31Z</time></trkpt><trkpt lat="43.83655780840605" lon="7.621676649897785"><ele>230.0</ele><time>2026-03-29T09:44:33Z</time></trkpt><trkpt lat="43.83646880731559" lon="7.621689268600809"><ele>230.0</ele><time>2026-03-29T09:44:35Z</time></trkpt><trkpt lat="43.83637203959072" lon="7.621724769868956"><ele>230.0</ele><time>2026-03-29T09:44:37Z</time></trkpt><trkpt lat="43.836256731178715" lon="7.62178452251063"><ele>230.0</ele><time>2026-03-29T09:44:39Z</time></trkpt><trkpt lat="43.83620228433695" lon="7.621829912492725"><ele>230.0</ele><time>2026-03-29T09:44:40Z</time></trkpt><trkpt lat="43.8360988603705" lon="7.621903556860805"><ele>230.0</ele><time>2026-03-29T09:44:42Z</time></trkpt><trkpt lat="43.835990926723106" lon="7.621953222413365"><ele>230.0</ele><time>2026-03-29T09:44:44Z</time></trkpt><trkpt lat="43.83589176964361" lon="7.621996350620496"><ele>230.0</ele><time>2026-03-29T09:44:46Z</time></trkpt><trkpt lat="43.83580307410863" lon="7.622011217499845"><ele>230.0</ele><time>2026-03-29T09:44:48Z</time></trkpt><trkpt lat="43.83574570326206" lon="7.62207849859949"><ele>225.16666666666669</ele><time>2026-03-29T09:44:51Z</time></trkpt><trkpt lat="43.83576834110502" lon="7.622198864291001"><ele>220.33333333333334</ele><time>2026-03-29T09:44:53Z</time></trkpt><trkpt lat="43.83584995634458" lon="7.622189465376905"><ele>215.5</ele><time>2026-03-29T09:44:54Z</time></trkpt><trkpt lat="43.8359353542285" lon="7.622164135678084"><ele>210.66666666666669</ele><time>2026-03-29T09:44:56Z</time></trkpt><trkpt lat="43.83601443104109" lon="7.622144217791682"><ele>205.83333333333334</ele><time>2026-03-29T09:44:58Z</time></trkpt><trkpt lat="43.83611775307257" lon="7.622128026896482"><ele>201.0</ele><time>2026-03-29T09:45:00Z</time></trkpt><trkpt lat="43.83620566513362" lon="7.62212869143032"><ele>201.0</ele><time>2026-03-29T09:45:02Z</time></trkpt><trkpt lat="43.83629381655858" lon="7.622130875331568"><ele>201.0</ele><time>2026-03-29T09:45:03.999Z</time></trkpt><trkpt lat="43.8363729610904" lon="7.622122050903197"><ele>201.0</ele><time>2026-03-29T09:45:06Z</time></trkpt><trkpt lat="43.836341075274916" lon="7.62221472426263"><ele>201.0</ele><time>2026-03-29T09:45:09.999Z</time></trkpt><trkpt lat="43.8362255906549" lon="7.622216493530335"><ele>201.0</ele><time>2026-03-29T09:45:11.999Z</time></trkpt><trkpt lat="43.83612726983388" lon="7.622256178168371"><ele>201.0</ele><time>2026-03-29T09:45:13.999Z</time></trkpt><trkpt lat="43.83604017403039" lon="7.622305034028082"><ele>201.0</ele><time>2026-03-29T09:45:15.999Z</time></trkpt><trkpt lat="43.83597500733382" lon="7.622371770654807"><ele>201.0</ele><time>2026-03-29T09:45:17.999Z</time></trkpt><trkpt lat="43.83591298519634" lon="7.6224398123537345"><ele>201.0</ele><time>2026-03-29T09:45:19.999Z</time></trkpt><trkpt lat="43.83585172737417" lon="7.622521391776904"><ele>201.0</ele><time>2026-03-29T09:45:21.999Z</time></trkpt><trkpt lat="43.835785586124814" lon="7.622617626573366"><ele>201.0</ele><time>2026-03-29T09:45:23.999Z</time></trkpt><trkpt lat="43.83572111547821" lon="7.622712329511938"><ele>195.8</ele><time>2026-03-29T09:45:25.999Z</time></trkpt><trkpt lat="43.835668457575004" lon="7.622826673819836"><ele>190.60000000000002</ele><time>2026-03-29T09:45:27.999Z</time></trkpt><trkpt lat="43.83560533169132" lon="7.6229147337828795"><ele>185.4</ele><time>2026-03-29T09:45:29.999Z</time></trkpt><trkpt lat="43.83551507921144" lon="7.622953963162089"><ele>180.2</ele><time>2026-03-29T09:45:31.999Z</time></trkpt><trkpt lat="43.835432116143835" lon="7.622902983078535"><ele>175.0</ele><time>2026-03-29T09:45:33.999Z</time></trkpt><trkpt lat="43.835362690804" lon="7.622979249508791"><ele>175.0</ele><time>2026-03-29T09:45:36.999Z</time></trkpt><trkpt lat="43.83540368172181" lon="7.623093660693698"><ele>175.0</ele><time>2026-03-29T09:45:38.999Z</time></trkpt><trkpt lat="43.835444225313616" lon="7.623205749158553"><ele>175.0</ele><time>2026-03-29T09:45:40.999Z</time></trkpt><trkpt lat="43.835414972562276" lon="7.623287269934866"><ele>175.0</ele><time>2026-03-29T09:45:43.999Z</time></trkpt><trkpt lat="43.8353732018622" lon="7.62321359799687"><ele>175.0</ele><time>2026-03-29T09:45:45.999Z</time></trkpt><trkpt lat="43.83532289148518" lon="7.623299157505612"><ele>175.0</ele><time>2026-03-29T09:45:49.999Z</time></trkpt><trkpt lat="43.83536076983327" lon="7.623428539464555"><ele>175.0</ele><time>2026-03-29T09:45:51.999Z</time></trkpt><trkpt lat="43.83538132423614" lon="7.623517089306139"><ele>175.0</ele><time>2026-03-29T09:45:53.999Z</time></trkpt><trkpt lat="43.83544184268431" lon="7.6235763846809075"><ele>175.0</ele><time>2026-03-29T09:45:56.999Z</time></trkpt><trkpt lat="43.8355173162143" lon="7.623528686556668"><ele>175.0</ele><time>2026-03-29T09:45:58.999Z</time></trkpt><trkpt lat="43.83558911351439" lon="7.623486937182548"><ele>175.0</ele><time>2026-03-29T09:46:02.999Z</time></trkpt><trkpt lat="43.83564795873787" lon="7.623432789673835"><ele>175.0</ele><time>2026-03-29T09:46:06.999Z</time></trkpt><trkpt lat="43.835717947222385" lon="7.623383164553847"><ele>175.0</ele><time>2026-03-29T09:46:08.999Z</time></trkpt><trkpt lat="43.83578441323894" lon="7.623330412370722"><ele>175.0</ele><time>2026-03-29T09:46:10.999Z</time></trkpt><trkpt lat="43.835871944299015" lon="7.623267131040559"><ele>175.0</ele><time>2026-03-29T09:46:12.999Z</time></trkpt><trkpt lat="43.835900683969825" lon="7.623364351197641"><ele>175.0</ele><time>2026-03-29T09:46:17.999Z</time></trkpt><trkpt lat="43.835830092807115" lon="7.623434940975138"><ele>175.0</ele><time>2026-03-29T09:46:19.999Z</time></trkpt><trkpt lat="43.83578809393979" lon="7.623583601504833"><ele>169.2</ele><time>2026-03-29T09:46:21.999Z</time></trkpt><trkpt lat="43.8357332848" lon="7.6237177473185165"><ele>163.4</ele><time>2026-03-29T09:46:23.999Z</time></trkpt><trkpt lat="43.83565697798656" lon="7.623835598249025"><ele>157.6</ele><time>2026-03-29T09:46:25.999Z</time></trkpt><trkpt lat="43.835596203774806" lon="7.623951422626257"><ele>151.8</ele><time>2026-03-29T09:46:27.999Z</time></trkpt><trkpt lat="43.83551476037488" lon="7.624062310852927"><ele>146.0</ele><time>2026-03-29T09:46:29.999Z</time></trkpt><trkpt lat="43.83541726525091" lon="7.6241531929829085"><ele>146.0</ele><time>2026-03-29T09:46:31.999Z</time></trkpt><trkpt lat="43.83532487483562" lon="7.624235624264348"><ele>146.0</ele><time>2026-03-29T09:46:33.999Z</time></trkpt><trkpt lat="43.83528075612212" lon="7.624300975336134"><ele>146.0</ele><time>2026-03-29T09:46:34.999Z</time></trkpt><trkpt lat="43.835180497308535" lon="7.624374250157644"><ele>146.0</ele><time>2026-03-29T09:46:36.999Z</time></trkpt><trkpt lat="43.835086326463475" lon="7.624442550422916"><ele>146.0</ele><time>2026-03-29T09:46:38.999Z</time></trkpt><trkpt lat="43.83504081281905" lon="7.624512027177252"><ele>146.0</ele><time>2026-03-29T09:46:40.999Z</time></trkpt><trkpt lat="43.8351049031506" lon="7.624564485540087"><ele>146.0</ele><time>2026-03-29T09:46:42.999Z</time></trkpt><trkpt lat="43.83521687136577" lon="7.6245880048828285"><ele>146.0</ele><time>2026-03-29T09:46:44.999Z</time></trkpt><trkpt lat="43.835274530841914" lon="7.624534725637753"><ele>146.0</ele><time>2026-03-29T09:46:45.999Z</time></trkpt><trkpt lat="43.835397941768825" lon="7.624492264233503"><ele>146.0</ele><time>2026-03-29T09:46:47.999Z</time></trkpt><trkpt lat="43.83547135858658" lon="7.62446698354354"><ele>146.0</ele><time>2026-03-29T09:46:48.999Z</time></trkpt><trkpt lat="43.83553225506976" lon="7.624442378473242"><ele>146.0</ele><time>2026-03-29T09:46:49.999Z</time></trkpt><trkpt lat="43.83560940382116" lon="7.624399582355949"><ele>146.0</ele><time>2026-03-29T09:46:50.999Z</time></trkpt><trkpt lat="43.83571445934131" lon="7.624328941426395"><ele>146.0</ele><time>2026-03-29T09:46:51.999Z</time></trkpt><trkpt lat="43.835792066194095" lon="7.62427702214557"><ele>146.0</ele><time>2026-03-29T09:46:52.999Z</time></trkpt><trkpt lat="43.83585525867074" lon="7.624236874756796"><ele>146.0</ele><time>2026-03-29T09:46:53.999Z</time></trkpt><trkpt lat="43.835917418868206" lon="7.624197382656621"><ele>147.0</ele><time>2026-03-29T09:46:54.999Z</time></trkpt><trkpt lat="43.835982892030295" lon="7.624173593044869"><ele>148.0</ele><time>2026-03-29T09:46:55.999Z</time></trkpt><trkpt lat="43.836058929305615" lon="7.624171801708905"><ele>149.0</ele><time>2026-03-29T09:46:56.999Z</time></trkpt><trkpt lat="43.83614527948033" lon="7.6241498198264885"><ele>150.0</ele><time>2026-03-29T09:46:57.999Z</time></trkpt><trkpt lat="43.836214894100905" lon="7.624176390295816"><ele>151.0</ele><time>2026-03-29T09:46:58.999Z</time></trkpt><trkpt lat="43.836318148428404" lon="7.624227224670825"><ele>152.0</ele><time>2026-03-29T09:47:00.999Z</time></trkpt><trkpt lat="43.83635575268541" lon="7.624305254144458"><ele>152.0</ele><time>2026-03-29T09:47:01.999Z</time></trkpt><trkpt lat="43.836426156740984" lon="7.624352514297603"><ele>152.0</ele><time>2026-03-29T09:47:02.999Z</time></trkpt><trkpt lat="43.836483000573715" lon="7.6244259965240175"><ele>152.0</ele><time>2026-03-29T09:47:03.999Z</time></trkpt><trkpt lat="43.83657668684712" lon="7.624506473762287"><ele>152.0</ele><time>2026-03-29T09:47:05.999Z</time></trkpt><trkpt lat="43.83665828397264" lon="7.624521740899841"><ele>152.0</ele><time>2026-03-29T09:47:07.999Z</time></trkpt><trkpt lat="43.836756718951186" lon="7.624470063670842"><ele>151.2</ele><time>2026-03-29T09:47:09.999Z</time></trkpt><trkpt lat="43.83684131830221" lon="7.624422895732905"><ele>150.39999999999998</ele><time>2026-03-29T09:47:11.999Z</time></trkpt><trkpt lat="43.83694682936958" lon="7.624441094106188"><ele>149.60000000000002</ele><time>2026-03-29T09:47:13.999Z</time></trkpt><trkpt lat="43.8370433826733" lon="7.624400226005556"><ele>148.8</ele><time>2026-03-29T09:47:15.999Z</time></trkpt><trkpt lat="43.83714486672662" lon="7.624414981970972"><ele>148.0</ele><time>2026-03-29T09:47:17.999Z</time></trkpt><trkpt lat="43.837251129438975" lon="7.624396141753995"><ele>148.0</ele><time>2026-03-29T09:47:19.999Z</time></trkpt><trkpt lat="43.83736038892839" lon="7.624416333079798"><ele>148.0</ele><time>2026-03-29T09:47:21.999Z</time></trkpt><trkpt lat="43.8374814511789" lon="7.624441286364304"><ele>148.0</ele><time>2026-03-29T09:47:23.999Z</time></trkpt><trkpt lat="43.83754641741026" lon="7.624457635571786"><ele>148.0</ele><time>2026-03-29T09:47:24.999Z</time></trkpt><trkpt lat="43.83761775082389" lon="7.624462002209845"><ele>148.0</ele><time>2026-03-29T09:47:25.999Z</time></trkpt><trkpt lat="43.83768124394121" lon="7.624451537059995"><ele>148.0</ele><time>2026-03-29T09:47:26.999Z</time></trkpt><trkpt lat="43.83778913403102" lon="7.624394509641298"><ele>143.4</ele><time>2026-03-29T09:47:28.999Z</time></trkpt><trkpt lat="43.83786678674206" lon="7.624320523716183"><ele>138.8</ele><time>2026-03-29T09:47:30.999Z</time></trkpt><trkpt lat="43.837917801255756" lon="7.624389655697611"><ele>134.2</ele><time>2026-03-29T09:47:34.999Z</time></trkpt><trkpt lat="43.83780568133259" lon="7.624448219051574"><ele>129.6</ele><time>2026-03-29T09:47:36.999Z</time></trkpt><trkpt lat="43.83770613807699" lon="7.624534587292772"><ele>125.0</ele><time>2026-03-29T09:47:38.999Z</time></trkpt><trkpt lat="43.83764463255379" lon="7.624597679137606"><ele>120.2</ele><time>2026-03-29T09:47:40.999Z</time></trkpt><trkpt lat="43.837683887802164" lon="7.624720226747548"><ele>115.4</ele><time>2026-03-29T09:47:42.999Z</time></trkpt><trkpt lat="43.83775253532545" lon="7.624688915906175"><ele>110.6</ele><time>2026-03-29T09:47:43.999Z</time></trkpt><trkpt lat="43.83784281938167" lon="7.624627674728467"><ele>105.8</ele><time>2026-03-29T09:47:45.999Z</time></trkpt><trkpt lat="43.837970192501594" lon="7.624642284739046"><ele>101.0</ele><time>2026-03-29T09:47:47.999Z</time></trkpt><trkpt lat="43.838050764078965" lon="7.624623125287213"><ele>100.99999999999999</ele><time>2026-03-29T09:47:48.999Z</time></trkpt><trkpt lat="43.83812329513033" lon="7.624625410400754"><ele>101.0</ele><time>2026-03-29T09:47:49.999Z</time></trkpt><trkpt lat="43.838203112234616" lon="7.624613137983258"><ele>101.0</ele><time>2026-03-29T09:47:50.999Z</time></trkpt><trkpt lat="43.83828320856945" lon="7.62459034588148"><ele>101.0</ele><time>2026-03-29T09:47:51.999Z</time></trkpt><trkpt lat="43.83835287984566" lon="7.624598623506499"><ele>100.99999999999999</ele><time>2026-03-29T09:47:52.999Z</time></trkpt><trkpt lat="43.838452191086056" lon="7.624635364741661"><ele>101.0</ele><time>2026-03-29T09:47:54.999Z</time></trkpt><trkpt lat="43.83850234629186" lon="7.624719505457061"><ele>100.99999999999999</ele><time>2026-03-29T09:47:56.999Z</time></trkpt><trkpt lat="43.838443348052294" lon="7.624765956905641"><ele>101.0</ele><time>2026-03-29T09:47:58.999Z</time></trkpt><trkpt lat="43.83833853826587" lon="7.624814190864901"><ele>101.0</ele><time>2026-03-29T09:48:01.999Z</time></trkpt><trkpt lat="43.838260059293205" lon="7.624854239087514"><ele>101.0</ele><time>2026-03-29T09:48:02.999Z</time></trkpt><trkpt lat="43.838190944885305" lon="7.6248921868878705"><ele>100.99999999999999</ele><time>2026-03-29T09:48:03.999Z</time></trkpt><trkpt lat="43.838124338771344" lon="7.624928757467562"><ele>101.0</ele><time>2026-03-29T09:48:04.999Z</time></trkpt><trkpt lat="43.838056966267885" lon="7.6249684753271065"><ele>101.0</ele><time>2026-03-29T09:48:05.999Z</time></trkpt><trkpt lat="43.83799095357794" lon="7.625009250006274"><ele>101.0</ele><time>2026-03-29T09:48:06.999Z</time></trkpt><trkpt lat="43.83792315302631" lon="7.625058735145125"><ele>101.0</ele><time>2026-03-29T09:48:07.999Z</time></trkpt><trkpt lat="43.837860752091416" lon="7.625111057749235"><ele>101.0</ele><time>2026-03-29T09:48:08.999Z</time></trkpt><trkpt lat="43.83780317569716" lon="7.625165755449863"><ele>101.0</ele><time>2026-03-29T09:48:09.999Z</time></trkpt><trkpt lat="43.8377643651274" lon="7.625243292112969"><ele>101.0</ele><time>2026-03-29T09:48:10.999Z</time></trkpt><trkpt lat="43.83773125509996" lon="7.6253196904289515"><ele>101.0</ele><time>2026-03-29T09:48:11.999Z</time></trkpt><trkpt lat="43.83768207995307" lon="7.625385145645456"><ele>97.99999999999999</ele><time>2026-03-29T09:48:12.999Z</time></trkpt><trkpt lat="43.83765807657265" lon="7.625482787467199"><ele>95.0</ele><time>2026-03-29T09:48:13.999Z</time></trkpt><trkpt lat="43.83761841576098" lon="7.625575694929635"><ele>92.0</ele><time>2026-03-29T09:48:14.999Z</time></trkpt><trkpt lat="43.837589066191605" lon="7.625682836970591"><ele>89.0</ele><time>2026-03-29T09:48:15.999Z</time></trkpt><trkpt lat="43.83753884513289" lon="7.625771841907519"><ele>86.0</ele><time>2026-03-29T09:48:16.999Z</time></trkpt><trkpt lat="43.83749336780609" lon="7.625853834244347"><ele>83.0</ele><time>2026-03-29T09:48:17.999Z</time></trkpt><trkpt lat="43.837437726297104" lon="7.625914126095167"><ele>82.60000000000001</ele><time>2026-03-29T09:48:18.999Z</time></trkpt><trkpt lat="43.83735841561149" lon="7.626043200053504"><ele>82.2</ele><time>2026-03-29T09:48:20.999Z</time></trkpt><trkpt lat="43.83729340040979" lon="7.626070108309102"><ele>81.8</ele><time>2026-03-29T09:48:21.999Z</time></trkpt><trkpt lat="43.83717650533623" lon="7.626101104349995"><ele>81.4</ele><time>2026-03-29T09:48:23.999Z</time></trkpt><trkpt lat="43.8371069904718" lon="7.626165469776584"><ele>81.0</ele><time>2026-03-29T09:48:25.999Z</time></trkpt><trkpt lat="43.837137027827126" lon="7.626267579813454"><ele>77.83333333333333</ele><time>2026-03-29T09:48:27.999Z</time></trkpt><trkpt lat="43.837224110955056" lon="7.626269929947114"><ele>74.66666666666667</ele><time>2026-03-29T09:48:29.999Z</time></trkpt><trkpt lat="43.83728884680434" lon="7.626293315137727"><ele>71.5</ele><time>2026-03-29T09:48:31.999Z</time></trkpt><trkpt lat="43.83731544651995" lon="7.626379358404316"><ele>68.33333333333334</ele><time>2026-03-29T09:48:33.999Z</time></trkpt><trkpt lat="43.83730921036993" lon="7.626475693738085"><ele>65.16666666666667</ele><time>2026-03-29T09:48:35.999Z</time></trkpt><trkpt lat="43.83737633412313" lon="7.626561768820388"><ele>62.0</ele><time>2026-03-29T09:48:39.999Z</time></trkpt><trkpt lat="43.8374627410824" lon="7.6265585382189265"><ele>62.00000000000001</ele><time>2026-03-29T09:48:42.999Z</time></trkpt><trkpt lat="43.83753665500578" lon="7.6265443917481575"><ele>62.0</ele><time>2026-03-29T09:48:44.999Z</time></trkpt><trkpt lat="43.83763695181952" lon="7.626526199677797"><ele>62.0</ele><time>2026-03-29T09:48:46.999Z</time></trkpt><trkpt lat="43.83770193253559" lon="7.626497918117953"><ele>62.0</ele><time>2026-03-29T09:48:48.999Z</time></trkpt><trkpt lat="43.837764458437114" lon="7.626530689866334"><ele>62.00000000000001</ele><time>2026-03-29T09:48:52.999Z</time></trkpt><trkpt lat="43.83785164204079" lon="7.626608350831851"><ele>62.0</ele><time>2026-03-29T09:49:06Z</time></trkpt><trkpt lat="43.83795113665536" lon="7.6266423429692525"><ele>62.333333333333336</ele><time>2026-03-29T09:49:08Z</time></trkpt><trkpt lat="43.83805093269177" lon="7.626720939621083"><ele>62.66666666666667</ele><time>2026-03-29T09:49:10Z</time></trkpt><trkpt lat="43.8381273646855" lon="7.626761780950211"><ele>63.0</ele><time>2026-03-29T09:49:12Z</time></trkpt><trkpt lat="43.838194436667116" lon="7.626792048631678"><ele>63.33333333333333</ele><time>2026-03-29T09:49:14Z</time></trkpt><trkpt lat="43.83827837244502" lon="7.626815060701498"><ele>63.666666666666664</ele><time>2026-03-29T09:49:16Z</time></trkpt><trkpt lat="43.83837066510212" lon="7.6268461108217105"><ele>64.0</ele><time>2026-03-29T09:49:18Z</time></trkpt><trkpt lat="43.838433221063134" lon="7.62685729998636"><ele>64.33333333333333</ele><time>2026-03-29T09:49:19Z</time></trkpt><trkpt lat="43.83851452258676" lon="7.6268500594963236"><ele>64.66666666666666</ele><time>2026-03-29T09:49:20Z</time></trkpt><trkpt lat="43.83858988663272" lon="7.626869350952438"><ele>65.0</ele><time>2026-03-29T09:49:21Z</time></trkpt><trkpt lat="43.83867472414275" lon="7.626865855186136"><ele>65.33333333333333</ele><time>2026-03-29T09:49:22Z</time></trkpt><trkpt lat="43.83877117977826" lon="7.626860990339764"><ele>65.66666666666667</ele><time>2026-03-29T09:49:23Z</time></trkpt><trkpt lat="43.83887279282722" lon="7.626853057546633"><ele>66.0</ele><time>2026-03-29T09:49:24Z</time></trkpt><trkpt lat="43.83897077871485" lon="7.626842370492547"><ele>66.0</ele><time>2026-03-29T09:49:25Z</time></trkpt><trkpt lat="43.83904446062179" lon="7.626830319388219"><ele>66.0</ele><time>2026-03-29T09:49:26Z</time></trkpt><trkpt lat="43.83912378763509" lon="7.626809814615802"><ele>66.0</ele><time>2026-03-29T09:49:27Z</time></trkpt><trkpt lat="43.83921193795355" lon="7.626767119021685"><ele>66.0</ele><time>2026-03-29T09:49:28Z</time></trkpt><trkpt lat="43.839294973832594" lon="7.626721227896953"><ele>66.0</ele><time>2026-03-29T09:49:29Z</time></trkpt><trkpt lat="43.83937650604919" lon="7.626673743679786"><ele>66.0</ele><time>2026-03-29T09:49:30Z</time></trkpt><trkpt lat="43.83948745600736" lon="7.626600168943123"><ele>67.6</ele><time>2026-03-29T09:49:31Z</time></trkpt><trkpt lat="43.83958738670926" lon="7.62652570128296"><ele>69.19999999999999</ele><time>2026-03-29T09:49:32Z</time></trkpt><trkpt lat="43.839663124033706" lon="7.62641066237376"><ele>70.80000000000001</ele><time>2026-03-29T09:49:33Z</time></trkpt><trkpt lat="43.839721831204955" lon="7.626307782345298"><ele>72.4</ele><time>2026-03-29T09:49:34Z</time></trkpt><trkpt lat="43.83978421405876" lon="7.626217096373314"><ele>74.0</ele><time>2026-03-29T09:49:35Z</time></trkpt><trkpt lat="43.839845747606624" lon="7.626144457151345"><ele>74.0</ele><time>2026-03-29T09:49:36Z</time></trkpt><trkpt lat="43.839917290337034" lon="7.626055590939148"><ele>74.0</ele><time>2026-03-29T09:49:37Z</time></trkpt><trkpt lat="43.84002781408746" lon="7.626044504499434"><ele>74.0</ele><time>2026-03-29T09:49:38Z</time></trkpt><trkpt lat="43.84014534801414" lon="7.626005610559822"><ele>74.0</ele><time>2026-03-29T09:49:39Z</time></trkpt><trkpt lat="43.84024287280569" lon="7.625973425030733"><ele>74.0</ele><time>2026-03-29T09:49:40Z</time></trkpt><trkpt lat="43.840353149186164" lon="7.625920669266133"><ele>71.25</ele><time>2026-03-29T09:49:41Z</time></trkpt><trkpt lat="43.840465413939526" lon="7.625900096506934"><ele>68.5</ele><time>2026-03-29T09:49:42Z</time></trkpt><trkpt lat="43.84057292368193" lon="7.625884081843211"><ele>65.75</ele><time>2026-03-29T09:49:43Z</time></trkpt><trkpt lat="43.84069214605296" lon="7.625875244740662"><ele>63.0</ele><time>2026-03-29T09:49:44Z</time></trkpt><trkpt lat="43.84080678089863" lon="7.625894468885597"><ele>63.0</ele><time>2026-03-29T09:49:45Z</time></trkpt><trkpt lat="43.84093138764849" lon="7.625911774812547"><ele>63.0</ele><time>2026-03-29T09:49:46Z</time></trkpt><trkpt lat="43.841053068209334" lon="7.625919425053143"><ele>63.0</ele><time>2026-03-29T09:49:47Z</time></trkpt><trkpt lat="43.84116876910357" lon="7.625927089475489"><ele>63.0</ele><time>2026-03-29T09:49:48Z</time></trkpt><trkpt lat="43.84128591801572" lon="7.62593091430247"><ele>62.75</ele><time>2026-03-29T09:49:49Z</time></trkpt><trkpt lat="43.84140194325941" lon="7.6259130912961375"><ele>62.5</ele><time>2026-03-29T09:49:50Z</time></trkpt><trkpt lat="43.8415200998219" lon="7.6258958653631055"><ele>62.25</ele><time>2026-03-29T09:49:51Z</time></trkpt><trkpt lat="43.841636049940156" lon="7.62587408999389"><ele>62.0</ele><time>2026-03-29T09:49:52Z</time></trkpt><trkpt lat="43.84175018530386" lon="7.625855103218882"><ele>61.0</ele><time>2026-03-29T09:49:53Z</time></trkpt><trkpt lat="43.841864452471235" lon="7.625838776452356"><ele>60.0</ele><time>2026-03-29T09:49:54Z</time></trkpt><trkpt lat="43.84197837403051" lon="7.625820806729538"><ele>59.0</ele><time>2026-03-29T09:49:55Z</time></trkpt><trkpt lat="43.84208840914141" lon="7.625812869689561"><ele>58.0</ele><time>2026-03-29T09:49:56Z</time></trkpt><trkpt lat="43.842198655270735" lon="7.625795355599271"><ele>58.0</ele><time>2026-03-29T09:49:57Z</time></trkpt><trkpt lat="43.842308566662574" lon="7.6257668984996405"><ele>58.0</ele><time>2026-03-29T09:49:58Z</time></trkpt><trkpt lat="43.842421204008325" lon="7.6257227190646875"><ele>58.0</ele><time>2026-03-29T09:49:59Z</time></trkpt><trkpt lat="43.842533644034845" lon="7.625661515537153"><ele>58.0</ele><time>2026-03-29T09:50:00Z</time></trkpt><trkpt lat="43.84263589889541" lon="7.625591562983434"><ele>58.4</ele><time>2026-03-29T09:50:01Z</time></trkpt><trkpt lat="43.842725038945254" lon="7.625528804844533"><ele>58.8</ele><time>2026-03-29T09:50:02Z</time></trkpt><trkpt lat="43.842804990102465" lon="7.625465470469694"><ele>59.2</ele><time>2026-03-29T09:50:03Z</time></trkpt><trkpt lat="43.84289000604676" lon="7.62539411958216"><ele>59.6</ele><time>2026-03-29T09:50:04Z</time></trkpt><trkpt lat="43.84297977287097" lon="7.625320154555604"><ele>60.0</ele><time>2026-03-29T09:50:05Z</time></trkpt><trkpt lat="43.84308239136721" lon="7.6252450977066655"><ele>60.0</ele><time>2026-03-29T09:50:06Z</time></trkpt><trkpt lat="43.84318529168451" lon="7.625174733130351"><ele>60.0</ele><time>2026-03-29T09:50:07Z</time></trkpt><trkpt lat="43.8432894987175" lon="7.625100626926497"><ele>60.0</ele><time>2026-03-29T09:50:08Z</time></trkpt><trkpt lat="43.84339215890327" lon="7.625044859782766"><ele>60.0</ele><time>2026-03-29T09:50:09Z</time></trkpt><trkpt lat="43.843497705922296" lon="7.624980643195316"><ele>59.5</ele><time>2026-03-29T09:50:10Z</time></trkpt><trkpt lat="43.8436085510135" lon="7.6249323351236775"><ele>59.0</ele><time>2026-03-29T09:50:11Z</time></trkpt><trkpt lat="43.8437217698915" lon="7.624894226556217"><ele>58.5</ele><time>2026-03-29T09:50:12Z</time></trkpt><trkpt lat="43.84383301667571" lon="7.6248641463614035"><ele>58.0</ele><time>2026-03-29T09:50:13Z</time></trkpt><trkpt lat="43.843934551372946" lon="7.624833366885556"><ele>58.0</ele><time>2026-03-29T09:50:14Z</time></trkpt><trkpt lat="43.844029631329924" lon="7.624804135946545"><ele>58.0</ele><time>2026-03-29T09:50:15Z</time></trkpt><trkpt lat="43.84412834825637" lon="7.62477563656261"><ele>58.0</ele><time>2026-03-29T09:50:16Z</time></trkpt><trkpt lat="43.84422859935527" lon="7.624748456436501"><ele>58.0</ele><time>2026-03-29T09:50:17Z</time></trkpt><trkpt lat="43.84432556963519" lon="7.624716685486345"><ele>58.0</ele><time>2026-03-29T09:50:18Z</time></trkpt><trkpt lat="43.84441612414008" lon="7.624689107239951"><ele>57.599999999999994</ele><time>2026-03-29T09:50:19Z</time></trkpt><trkpt lat="43.84451373537964" lon="7.6246633191319875"><ele>57.199999999999996</ele><time>2026-03-29T09:50:20Z</time></trkpt><trkpt lat="43.84462263611881" lon="7.624638107416809"><ele>56.8</ele><time>2026-03-29T09:50:21Z</time></trkpt><trkpt lat="43.84474018265817" lon="7.624610684264264"><ele>56.4</ele><time>2026-03-29T09:50:22Z</time></trkpt><trkpt lat="43.84485131772544" lon="7.624595611486834"><ele>56.0</ele><time>2026-03-29T09:50:23Z</time></trkpt><trkpt lat="43.84495820686736" lon="7.624580331698514"><ele>56.0</ele><time>2026-03-29T09:50:24Z</time></trkpt><trkpt lat="43.845066391900566" lon="7.624558539023871"><ele>55.99999999999999</ele><time>2026-03-29T09:50:25Z</time></trkpt><trkpt lat="43.84517074911632" lon="7.624535573470998"><ele>55.99999999999999</ele><time>2026-03-29T09:50:26Z</time></trkpt><trkpt lat="43.845275166340755" lon="7.624512683239406"><ele>56.0</ele><time>2026-03-29T09:50:27Z</time></trkpt><trkpt lat="43.84538296021614" lon="7.624482885205274"><ele>56.0</ele><time>2026-03-29T09:50:28Z</time></trkpt><trkpt lat="43.84549951289895" lon="7.624444040481345"><ele>56.75</ele><time>2026-03-29T09:50:29Z</time></trkpt><trkpt lat="43.84562398632562" lon="7.624399908362493"><ele>57.5</ele><time>2026-03-29T09:50:30Z</time></trkpt><trkpt lat="43.8457381714401" lon="7.624357946013791"><ele>58.25</ele><time>2026-03-29T09:50:31Z</time></trkpt><trkpt lat="43.84584434442178" lon="7.624323796778155"><ele>59.0</ele><time>2026-03-29T09:50:32Z</time></trkpt><trkpt lat="43.845942878960585" lon="7.62429397613753"><ele>58.333333333333336</ele><time>2026-03-29T09:50:33Z</time></trkpt><trkpt lat="43.846031354183275" lon="7.624260447632908"><ele>57.66666666666667</ele><time>2026-03-29T09:50:34Z</time></trkpt><trkpt lat="43.846112914675075" lon="7.624228238700828"><ele>57.0</ele><time>2026-03-29T09:50:35Z</time></trkpt><trkpt lat="43.84618711173123" lon="7.624201320017513"><ele>56.33333333333333</ele><time>2026-03-29T09:50:36Z</time></trkpt><trkpt lat="43.846264803321944" lon="7.624175711784435"><ele>55.666666666666664</ele><time>2026-03-29T09:50:37Z</time></trkpt><trkpt lat="43.84633361950567" lon="7.6241557970125395"><ele>55.0</ele><time>2026-03-29T09:50:38Z</time></trkpt><trkpt lat="43.846399734817076" lon="7.6241389488500095"><ele>55.0</ele><time>2026-03-29T09:50:39Z</time></trkpt><trkpt lat="43.84651256811371" lon="7.624122692116941"><ele>55.0</ele><time>2026-03-29T09:50:41Z</time></trkpt><trkpt lat="43.84661470753417" lon="7.624106642699732"><ele>55.0</ele><time>2026-03-29T09:50:43Z</time></trkpt><trkpt lat="43.846682989598584" lon="7.624097405860468"><ele>55.0</ele><time>2026-03-29T09:50:51Z</time></trkpt><trkpt lat="43.846774070034535" lon="7.624074883705896"><ele>55.0</ele><time>2026-03-29T09:51:37Z</time></trkpt><trkpt lat="43.846866509874005" lon="7.624045304822544"><ele>54.6</ele><time>2026-03-29T09:51:39Z</time></trkpt><trkpt lat="43.84698228458967" lon="7.624021074658815"><ele>54.2</ele><time>2026-03-29T09:51:41Z</time></trkpt><trkpt lat="43.84704587467168" lon="7.623938085052098"><ele>53.8</ele><time>2026-03-29T09:51:42Z</time></trkpt><trkpt lat="43.84713816252635" lon="7.624011126822168"><ele>53.4</ele><time>2026-03-29T09:51:43Z</time></trkpt><trkpt lat="43.84721890717006" lon="7.6239899308979595"><ele>53.0</ele><time>2026-03-29T09:51:44Z</time></trkpt><trkpt lat="43.84728536785552" lon="7.623992591932598"><ele>53.00000000000001</ele><time>2026-03-29T09:51:45Z</time></trkpt><trkpt lat="43.84736504960627" lon="7.623979133719091"><ele>53.0</ele><time>2026-03-29T09:51:46Z</time></trkpt><trkpt lat="43.847445541336924" lon="7.623948042854118"><ele>53.0</ele><time>2026-03-29T09:51:47Z</time></trkpt><trkpt lat="43.84752552950084" lon="7.623934990543667"><ele>53.0</ele><time>2026-03-29T09:51:48Z</time></trkpt><trkpt lat="43.8476037135359" lon="7.623920423302709"><ele>53.00000000000001</ele><time>2026-03-29T09:51:49Z</time></trkpt><trkpt lat="43.84767669104948" lon="7.623910807313413"><ele>53.0</ele><time>2026-03-29T09:51:50Z</time></trkpt><trkpt lat="43.84775718572235" lon="7.623889291616248"><ele>53.16666666666667</ele><time>2026-03-29T09:51:51Z</time></trkpt><trkpt lat="43.84789066350445" lon="7.623871601695714"><ele>53.333333333333336</ele><time>2026-03-29T09:51:53Z</time></trkpt><trkpt lat="43.84796430840387" lon="7.623857209633386"><ele>53.5</ele><time>2026-03-29T09:51:54Z</time></trkpt><trkpt lat="43.84803283222806" lon="7.623844840106527"><ele>53.66666666666667</ele><time>2026-03-29T09:51:55Z</time></trkpt><trkpt lat="43.848098732565695" lon="7.623831853426947"><ele>53.833333333333336</ele><time>2026-03-29T09:51:56Z</time></trkpt><trkpt lat="43.84816883260086" lon="7.623836475894004"><ele>54.0</ele><time>2026-03-29T09:51:57Z</time></trkpt><trkpt lat="43.8482404393591" lon="7.623825582606036"><ele>54.0</ele><time>2026-03-29T09:51:58Z</time></trkpt><trkpt lat="43.848329452448056" lon="7.623810852389053"><ele>54.00000000000001</ele><time>2026-03-29T09:51:59Z</time></trkpt><trkpt lat="43.84841910892796" lon="7.623793518715291"><ele>54.00000000000001</ele><time>2026-03-29T09:52:00Z</time></trkpt><trkpt lat="43.848515598158556" lon="7.623773908733723"><ele>54.0</ele><time>2026-03-29T09:52:01Z</time></trkpt><trkpt lat="43.848609509780964" lon="7.623741386997079"><ele>54.0</ele><time>2026-03-29T09:52:02Z</time></trkpt><trkpt lat="43.8487078915102" lon="7.623734274295154"><ele>53.800000000000004</ele><time>2026-03-29T09:52:03Z</time></trkpt><trkpt lat="43.84880154390311" lon="7.623719211834489"><ele>53.60000000000001</ele><time>2026-03-29T09:52:04Z</time></trkpt><trkpt lat="43.848893396413246" lon="7.623706823655336"><ele>53.4</ele><time>2026-03-29T09:52:05Z</time></trkpt><trkpt lat="43.84898271302151" lon="7.623696363908551"><ele>53.2</ele><time>2026-03-29T09:52:06Z</time></trkpt><trkpt lat="43.84907219262298" lon="7.6236820886826475"><ele>53.0</ele><time>2026-03-29T09:52:07Z</time></trkpt><trkpt lat="43.84916194278963" lon="7.623670153031638"><ele>54.2</ele><time>2026-03-29T09:52:08Z</time></trkpt><trkpt lat="43.84925505503283" lon="7.623645401699394"><ele>55.4</ele><time>2026-03-29T09:52:09Z</time></trkpt><trkpt lat="43.849350268714545" lon="7.623601074308149"><ele>56.60000000000001</ele><time>2026-03-29T09:52:10Z</time></trkpt><trkpt lat="43.84943845971193" lon="7.623557357839295"><ele>57.800000000000004</ele><time>2026-03-29T09:52:11Z</time></trkpt><trkpt lat="43.8495201435771" lon="7.623512688230269"><ele>59.0</ele><time>2026-03-29T09:52:12Z</time></trkpt><trkpt lat="43.849613462024514" lon="7.623459033318235"><ele>59.333333333333336</ele><time>2026-03-29T09:52:13Z</time></trkpt><trkpt lat="43.84967849801188" lon="7.623435316774833"><ele>59.66666666666667</ele><time>2026-03-29T09:52:14Z</time></trkpt><trkpt lat="43.84975790544606" lon="7.623406947841613"><ele>60.0</ele><time>2026-03-29T09:52:15Z</time></trkpt><trkpt lat="43.849828846454706" lon="7.623365841354825"><ele>60.33333333333333</ele><time>2026-03-29T09:52:16Z</time></trkpt><trkpt lat="43.84989298303889" lon="7.623324291680384"><ele>60.666666666666664</ele><time>2026-03-29T09:52:17Z</time></trkpt><trkpt lat="43.84995477129408" lon="7.623287164269399"><ele>61.0</ele><time>2026-03-29T09:52:18Z</time></trkpt><trkpt lat="43.850063742641844" lon="7.623218633841332"><ele>60.99999999999999</ele><time>2026-03-29T09:52:20Z</time></trkpt><trkpt lat="43.850130695990046" lon="7.6231876814594965"><ele>61.0</ele><time>2026-03-29T09:52:21Z</time></trkpt><trkpt lat="43.85020297333403" lon="7.623155084071844"><ele>61.0</ele><time>2026-03-29T09:52:22Z</time></trkpt><trkpt lat="43.85027421614136" lon="7.623114625771647"><ele>61.0</ele><time>2026-03-29T09:52:23Z</time></trkpt><trkpt lat="43.850348230821176" lon="7.6230645249008715"><ele>60.99999999999999</ele><time>2026-03-29T09:52:24Z</time></trkpt><trkpt lat="43.85042055317641" lon="7.6230141799034525"><ele>61.0</ele><time>2026-03-29T09:52:25Z</time></trkpt><trkpt lat="43.85049484566589" lon="7.622976073765298"><ele>60.99999999999999</ele><time>2026-03-29T09:52:26Z</time></trkpt><trkpt lat="43.850573796973784" lon="7.622955596492667"><ele>61.0</ele><time>2026-03-29T09:52:27Z</time></trkpt><trkpt lat="43.85066128978848" lon="7.622959345186554"><ele>61.0</ele><time>2026-03-29T09:52:28Z</time></trkpt><trkpt lat="43.85074904746988" lon="7.623006640075562"><ele>61.0</ele><time>2026-03-29T09:52:29Z</time></trkpt><trkpt lat="43.85083228692674" lon="7.623057287456823"><ele>60.99999999999999</ele><time>2026-03-29T09:52:30Z</time></trkpt><trkpt lat="43.850918664386484" lon="7.6230935270084235"><ele>61.0</ele><time>2026-03-29T09:52:31Z</time></trkpt><trkpt lat="43.8509928638523" lon="7.623152004016317"><ele>61.49999999999999</ele><time>2026-03-29T09:52:32Z</time></trkpt><trkpt lat="43.85107154434167" lon="7.623203384016664"><ele>62.0</ele><time>2026-03-29T09:52:33Z</time></trkpt><trkpt lat="43.85115149783409" lon="7.623252106175476"><ele>62.5</ele><time>2026-03-29T09:52:34Z</time></trkpt><trkpt lat="43.851222732400096" lon="7.623296300387453"><ele>63.0</ele><time>2026-03-29T09:52:35Z</time></trkpt><trkpt lat="43.85128613769462" lon="7.623334690201947"><ele>63.49999999999999</ele><time>2026-03-29T09:52:36Z</time></trkpt><trkpt lat="43.85135438345076" lon="7.623372100614206"><ele>64.0</ele><time>2026-03-29T09:52:37Z</time></trkpt><trkpt lat="43.85142854512394" lon="7.623417720849469"><ele>63.99999999999999</ele><time>2026-03-29T09:52:38Z</time></trkpt><trkpt lat="43.85150713434952" lon="7.623471005146698"><ele>64.0</ele><time>2026-03-29T09:52:39Z</time></trkpt><trkpt lat="43.851592459104374" lon="7.623519900025935"><ele>64.0</ele><time>2026-03-29T09:52:40Z</time></trkpt><trkpt lat="43.851670968281375" lon="7.623567724453109"><ele>64.0</ele><time>2026-03-29T09:52:41Z</time></trkpt><trkpt lat="43.85173417929568" lon="7.623608748495931"><ele>63.99999999999999</ele><time>2026-03-29T09:52:42Z</time></trkpt><trkpt lat="43.85179492898361" lon="7.623646782185769"><ele>64.0</ele><time>2026-03-29T09:52:43Z</time></trkpt><trkpt lat="43.851875779007386" lon="7.6236907189641485"><ele>63.49999999999999</ele><time>2026-03-29T09:52:44Z</time></trkpt><trkpt lat="43.85195770684079" lon="7.6237562447117915"><ele>63.0</ele><time>2026-03-29T09:52:45Z</time></trkpt><trkpt lat="43.85203244934257" lon="7.6238032130769655"><ele>62.5</ele><time>2026-03-29T09:52:46Z</time></trkpt><trkpt lat="43.85210235817033" lon="7.623847144009814"><ele>62.0</ele><time>2026-03-29T09:52:47Z</time></trkpt><trkpt lat="43.85216688906798" lon="7.6238878527161775"><ele>61.49999999999999</ele><time>2026-03-29T09:52:48Z</time></trkpt><trkpt lat="43.852238855056676" lon="7.623932851811136"><ele>61.0</ele><time>2026-03-29T09:52:49Z</time></trkpt><trkpt lat="43.85231379026933" lon="7.623979368249241"><ele>60.99999999999999</ele><time>2026-03-29T09:52:50Z</time></trkpt><trkpt lat="43.85238184563361" lon="7.624021779112029"><ele>61.0</ele><time>2026-03-29T09:52:51Z</time></trkpt><trkpt lat="43.85245471247954" lon="7.62406718850434"><ele>60.99999999999999</ele><time>2026-03-29T09:52:52Z</time></trkpt><trkpt lat="43.85252590452116" lon="7.62411155411816"><ele>60.99999999999999</ele><time>2026-03-29T09:52:53Z</time></trkpt><trkpt lat="43.85259029614594" lon="7.624150519488548"><ele>61.0</ele><time>2026-03-29T09:52:54Z</time></trkpt><trkpt lat="43.85265463912709" lon="7.624189324031643"><ele>60.99999999999999</ele><time>2026-03-29T09:52:55Z</time></trkpt><trkpt lat="43.85272150328421" lon="7.624227471643372"><ele>60.99999999999999</ele><time>2026-03-29T09:52:56Z</time></trkpt><trkpt lat="43.85279360930771" lon="7.624264059165238"><ele>61.33333333333333</ele><time>2026-03-29T09:52:57Z</time></trkpt><trkpt lat="43.8528583588056" lon="7.624296621086945"><ele>61.666666666666664</ele><time>2026-03-29T09:52:58Z</time></trkpt><trkpt lat="43.85293994404478" lon="7.624291869600153"><ele>62.0</ele><time>2026-03-29T09:52:59Z</time></trkpt><trkpt lat="43.853032403464525" lon="7.624288493032261"><ele>62.33333333333333</ele><time>2026-03-29T09:53:00Z</time></trkpt><trkpt lat="43.85311762369604" lon="7.6242803376254225"><ele>62.666666666666664</ele><time>2026-03-29T09:53:01Z</time></trkpt><trkpt lat="43.85318493952591" lon="7.6242710067887005"><ele>63.0</ele><time>2026-03-29T09:53:02Z</time></trkpt><trkpt lat="43.8532485276102" lon="7.624255116173781"><ele>63.0</ele><time>2026-03-29T09:53:03Z</time></trkpt><trkpt lat="43.85332445144498" lon="7.624241858811275"><ele>63.0</ele><time>2026-03-29T09:53:04Z</time></trkpt><trkpt lat="43.85341078308572" lon="7.624226007724159"><ele>63.0</ele><time>2026-03-29T09:53:05Z</time></trkpt><trkpt lat="43.85349834903653" lon="7.624207095488505"><ele>63.0</ele><time>2026-03-29T09:53:06Z</time></trkpt><trkpt lat="43.853573176865105" lon="7.624187505648525"><ele>63.0</ele><time>2026-03-29T09:53:07Z</time></trkpt><trkpt lat="43.853646880561534" lon="7.624168013500532"><ele>63.0</ele><time>2026-03-29T09:53:08Z</time></trkpt><trkpt lat="43.85371176747519" lon="7.624149785338963"><ele>62.5</ele><time>2026-03-29T09:53:09Z</time></trkpt><trkpt lat="43.85378105054979" lon="7.624138083723806"><ele>62.0</ele><time>2026-03-29T09:53:10Z</time></trkpt><trkpt lat="43.85385692203606" lon="7.624121233469789"><ele>61.5</ele><time>2026-03-29T09:53:11Z</time></trkpt><trkpt lat="43.853928239489605" lon="7.624107279686083"><ele>61.0</ele><time>2026-03-29T09:53:12Z</time></trkpt><trkpt lat="43.85403989355685" lon="7.624100003864264"><ele>60.5</ele><time>2026-03-29T09:53:14Z</time></trkpt><trkpt lat="43.85412698688601" lon="7.624082412289216"><ele>60.0</ele><time>2026-03-29T09:53:16Z</time></trkpt><trkpt lat="43.854199805541604" lon="7.624067704008447"><ele>60.0</ele><time>2026-03-29T09:53:19Z</time></trkpt><trkpt lat="43.85413513952089" lon="7.62408076552388"><ele>60.0</ele><time>2026-03-29T09:53:26Z</time></trkpt><trkpt lat="43.85407062985517" lon="7.624093795479799"><ele>60.0</ele><time>2026-03-29T09:53:31Z</time></trkpt><trkpt lat="43.854000183824525" lon="7.624108024546707"><ele>60.0</ele><time>2026-03-29T09:53:41Z</time></trkpt><trkpt lat="43.85389793472422" lon="7.624073859477459"><ele>60.0</ele><time>2026-03-29T09:53:43Z</time></trkpt><trkpt lat="43.85379233232292" lon="7.624097057461159"><ele>60.0</ele><time>2026-03-29T09:53:45Z</time></trkpt><trkpt lat="43.85372456100025" lon="7.624110757042916"><ele>60.0</ele><time>2026-03-29T09:53:46Z</time></trkpt><trkpt lat="43.85366184524451" lon="7.624131607870734"><ele>60.0</ele><time>2026-03-29T09:53:47Z</time></trkpt><trkpt lat="43.853592373877795" lon="7.624142424564402"><ele>60.0</ele><time>2026-03-29T09:53:48Z</time></trkpt><trkpt lat="43.85351376755817" lon="7.624158023691205"><ele>60.0</ele><time>2026-03-29T09:53:49Z</time></trkpt><trkpt lat="43.85343254202307" lon="7.624172270432498"><ele>60.0</ele><time>2026-03-29T09:53:50Z</time></trkpt><trkpt lat="43.853348511387374" lon="7.624190520332848"><ele>60.0</ele><time>2026-03-29T09:53:51Z</time></trkpt><trkpt lat="43.85326370544239" lon="7.624204920411236"><ele>60.42857142857143</ele><time>2026-03-29T09:53:52Z</time></trkpt><trkpt lat="43.85318846216732" lon="7.624215209622247"><ele>60.857142857142854</ele><time>2026-03-29T09:53:53Z</time></trkpt><trkpt lat="43.853107944911514" lon="7.624234263476204"><ele>61.285714285714285</ele><time>2026-03-29T09:53:54Z</time></trkpt><trkpt lat="43.85302342743796" lon="7.624247874537265"><ele>61.714285714285715</ele><time>2026-03-29T09:53:55Z</time></trkpt><trkpt lat="43.85295433986874" lon="7.624254437222421"><ele>62.14285714285714</ele><time>2026-03-29T09:53:56Z</time></trkpt><trkpt lat="43.85288950663029" lon="7.624258302811279"><ele>62.57142857142857</ele><time>2026-03-29T09:53:57Z</time></trkpt><trkpt lat="43.85281777327862" lon="7.624247494418204"><ele>63.0</ele><time>2026-03-29T09:53:58Z</time></trkpt><trkpt lat="43.85273875207292" lon="7.624211480143271"><ele>63.0</ele><time>2026-03-29T09:53:59Z</time></trkpt><trkpt lat="43.852654531576356" lon="7.62414818415373"><ele>63.0</ele><time>2026-03-29T09:54:00Z</time></trkpt><trkpt lat="43.852574317508044" lon="7.624090675069509"><ele>63.0</ele><time>2026-03-29T09:54:01Z</time></trkpt><trkpt lat="43.852506878737636" lon="7.62406501503624"><ele>63.0</ele><time>2026-03-29T09:54:02Z</time></trkpt><trkpt lat="43.85244034336468" lon="7.624019163198859"><ele>63.0</ele><time>2026-03-29T09:54:03Z</time></trkpt><trkpt lat="43.85236673649694" lon="7.623977497026055"><ele>63.0</ele><time>2026-03-29T09:54:04Z</time></trkpt><trkpt lat="43.852288781504974" lon="7.623928583514526"><ele>62.666666666666664</ele><time>2026-03-29T09:54:05Z</time></trkpt><trkpt lat="43.85221749494315" lon="7.623884139410922"><ele>62.33333333333333</ele><time>2026-03-29T09:54:06Z</time></trkpt><trkpt lat="43.85214793453033" lon="7.623839021922031"><ele>62.0</ele><time>2026-03-29T09:54:07Z</time></trkpt><trkpt lat="43.8520709244198" lon="7.623793080208831"><ele>61.666666666666664</ele><time>2026-03-29T09:54:08Z</time></trkpt><trkpt lat="43.85198466691257" lon="7.623742364748525"><ele>61.33333333333333</ele><time>2026-03-29T09:54:09Z</time></trkpt><trkpt lat="43.8518979358303" lon="7.623690593894145"><ele>61.0</ele><time>2026-03-29T09:54:10Z</time></trkpt><trkpt lat="43.85181646745347" lon="7.623639098814336"><ele>61.49999999999999</ele><time>2026-03-29T09:54:11Z</time></trkpt><trkpt lat="43.85174681758688" lon="7.623573170367188"><ele>62.0</ele><time>2026-03-29T09:54:12Z</time></trkpt><trkpt lat="43.85167317508373" lon="7.623526893197437"><ele>62.5</ele><time>2026-03-29T09:54:13Z</time></trkpt><trkpt lat="43.8515964624141" lon="7.623479791989401"><ele>63.0</ele><time>2026-03-29T09:54:14Z</time></trkpt><trkpt lat="43.851520456764035" lon="7.623433459774168"><ele>63.49999999999999</ele><time>2026-03-29T09:54:15Z</time></trkpt><trkpt lat="43.85144675707789" lon="7.623388534658236"><ele>64.0</ele><time>2026-03-29T09:54:16Z</time></trkpt><trkpt lat="43.8513799486284" lon="7.623346893574237"><ele>63.99999999999999</ele><time>2026-03-29T09:54:17Z</time></trkpt><trkpt lat="43.85131042192877" lon="7.623304191892192"><ele>64.0</ele><time>2026-03-29T09:54:18Z</time></trkpt><trkpt lat="43.85122346394804" lon="7.623267656434294"><ele>64.0</ele><time>2026-03-29T09:54:19Z</time></trkpt><trkpt lat="43.85113635062576" lon="7.623209385528089"><ele>64.0</ele><time>2026-03-29T09:54:20Z</time></trkpt><trkpt lat="43.851049982633846" lon="7.6231550765686045"><ele>63.99999999999999</ele><time>2026-03-29T09:54:21Z</time></trkpt><trkpt lat="43.85097412517502" lon="7.623107395492061"><ele>64.0</ele><time>2026-03-29T09:54:22Z</time></trkpt><trkpt lat="43.850907941757434" lon="7.623064766585702"><ele>63.49999999999999</ele><time>2026-03-29T09:54:23Z</time></trkpt><trkpt lat="43.85084346535448" lon="7.623021833133367"><ele>63.0</ele><time>2026-03-29T09:54:24Z</time></trkpt><trkpt lat="43.850771868727094" lon="7.6229826327302055"><ele>62.5</ele><time>2026-03-29T09:54:25Z</time></trkpt><trkpt lat="43.850692143701856" lon="7.622949510844286"><ele>62.0</ele><time>2026-03-29T09:54:26Z</time></trkpt><trkpt lat="43.85060390321816" lon="7.622924465612786"><ele>61.49999999999999</ele><time>2026-03-29T09:54:27Z</time></trkpt><trkpt lat="43.85051142929006" lon="7.622923898397911"><ele>61.0</ele><time>2026-03-29T09:54:28Z</time></trkpt><trkpt lat="43.85042556468602" lon="7.622955722275081"><ele>60.99999999999999</ele><time>2026-03-29T09:54:29Z</time></trkpt><trkpt lat="43.85035362619389" lon="7.623001442653363"><ele>61.0</ele><time>2026-03-29T09:54:30Z</time></trkpt><trkpt lat="43.85028879732302" lon="7.623045496196031"><ele>61.0</ele><time>2026-03-29T09:54:31Z</time></trkpt><trkpt lat="43.85022039525088" lon="7.623089986258986"><ele>61.0</ele><time>2026-03-29T09:54:32Z</time></trkpt><trkpt lat="43.850160591344476" lon="7.62312915584938"><ele>60.99999999999999</ele><time>2026-03-29T09:54:33Z</time></trkpt><trkpt lat="43.85005535055976" lon="7.623187480333268"><ele>61.0</ele><time>2026-03-29T09:54:35Z</time></trkpt><trkpt lat="43.84996638871817" lon="7.623220143265414"><ele>60.99999999999999</ele><time>2026-03-29T09:54:37Z</time></trkpt><trkpt lat="43.84990387465313" lon="7.6231446964728855"><ele>61.0</ele><time>2026-03-29T09:54:41Z</time></trkpt><trkpt lat="43.84983626345819" lon="7.623159454496068"><ele>61.0</ele><time>2026-03-29T09:54:43Z</time></trkpt><trkpt lat="43.84977330308703" lon="7.623172738034747"><ele>61.0</ele><time>2026-03-29T09:54:45Z</time></trkpt><trkpt lat="43.849698746119664" lon="7.623172985867804"><ele>60.99999999999999</ele><time>2026-03-29T09:54:47Z</time></trkpt><trkpt lat="43.849605553519375" lon="7.623151733209059"><ele>61.0</ele><time>2026-03-29T09:54:51Z</time></trkpt><trkpt lat="43.84954749562956" lon="7.623109457608807"><ele>60.99999999999999</ele><time>2026-03-29T09:55:03Z</time></trkpt><trkpt lat="43.84946473690987" lon="7.623115867521509"><ele>61.0</ele><time>2026-03-29T09:55:06Z</time></trkpt><trkpt lat="43.84937391021532" lon="7.6230702413998195"><ele>61.0</ele><time>2026-03-29T09:55:08Z</time></trkpt><trkpt lat="43.84928197463773" lon="7.623006974090396"><ele>61.0</ele><time>2026-03-29T09:55:10Z</time></trkpt><trkpt lat="43.849211662439934" lon="7.622988911072529"><ele>60.99999999999999</ele><time>2026-03-29T09:55:11Z</time></trkpt><trkpt lat="43.849135313920996" lon="7.622992814879704"><ele>61.0</ele><time>2026-03-29T09:55:12Z</time></trkpt><trkpt lat="43.84901124802568" lon="7.622981911859286"><ele>60.666666666666664</ele><time>2026-03-29T09:55:14Z</time></trkpt><trkpt lat="43.84887258559071" lon="7.62292006530081"><ele>60.33333333333333</ele><time>2026-03-29T09:55:16Z</time></trkpt><trkpt lat="43.8487953483833" lon="7.622873827882893"><ele>60.0</ele><time>2026-03-29T09:55:17Z</time></trkpt><trkpt lat="43.84873759903509" lon="7.622838694315813"><ele>59.66666666666667</ele><time>2026-03-29T09:55:18Z</time></trkpt><trkpt lat="43.84867816921964" lon="7.62280765884602"><ele>59.333333333333336</ele><time>2026-03-29T09:55:19Z</time></trkpt><trkpt lat="43.848600011215304" lon="7.622770270045907"><ele>59.0</ele><time>2026-03-29T09:55:20Z</time></trkpt><trkpt lat="43.84851145171429" lon="7.622733608943506"><ele>61.6</ele><time>2026-03-29T09:55:21Z</time></trkpt><trkpt lat="43.84843017945037" lon="7.622703927497575"><ele>64.2</ele><time>2026-03-29T09:55:22Z</time></trkpt><trkpt lat="43.8483558930035" lon="7.622682209279805"><ele>66.80000000000001</ele><time>2026-03-29T09:55:23Z</time></trkpt><trkpt lat="43.848291124523165" lon="7.622657086531675"><ele>69.4</ele><time>2026-03-29T09:55:24Z</time></trkpt><trkpt lat="43.84815263581705" lon="7.622617932055945"><ele>72.0</ele><time>2026-03-29T09:55:26Z</time></trkpt><trkpt lat="43.84806309791207" lon="7.622604760433742"><ele>72.0</ele><time>2026-03-29T09:55:27Z</time></trkpt><trkpt lat="43.84797619487383" lon="7.622590342200408"><ele>72.0</ele><time>2026-03-29T09:55:28Z</time></trkpt><trkpt lat="43.847893462630736" lon="7.622563426180188"><ele>72.0</ele><time>2026-03-29T09:55:29Z</time></trkpt><trkpt lat="43.84782290839935" lon="7.622536017460828"><ele>72.0</ele><time>2026-03-29T09:55:30Z</time></trkpt><trkpt lat="43.84775549578956" lon="7.622510059055021"><ele>72.0</ele><time>2026-03-29T09:55:31Z</time></trkpt><trkpt lat="43.84768150076623" lon="7.622494215423822"><ele>72.0</ele><time>2026-03-29T09:55:32Z</time></trkpt><trkpt lat="43.84760332025048" lon="7.622497494926752"><ele>71.33333333333333</ele><time>2026-03-29T09:55:33Z</time></trkpt><trkpt lat="43.847531049980525" lon="7.62250360349789"><ele>70.66666666666667</ele><time>2026-03-29T09:55:34Z</time></trkpt><trkpt lat="43.84742496943162" lon="7.622506884840458"><ele>70.0</ele><time>2026-03-29T09:55:36Z</time></trkpt><trkpt lat="43.847355364089246" lon="7.622493499909247"><ele>69.33333333333334</ele><time>2026-03-29T09:55:38Z</time></trkpt><trkpt lat="43.84733768208066" lon="7.62240556006873"><ele>68.66666666666667</ele><time>2026-03-29T09:55:40Z</time></trkpt><trkpt lat="43.847392110829745" lon="7.622268137513181"><ele>68.0</ele><time>2026-03-29T09:55:42Z</time></trkpt><trkpt lat="43.847460063092235" lon="7.622116278352086"><ele>68.0</ele><time>2026-03-29T09:55:44Z</time></trkpt><trkpt lat="43.84749012253353" lon="7.622023607567318"><ele>68.0</ele><time>2026-03-29T09:55:45Z</time></trkpt><trkpt lat="43.84747966721945" lon="7.621914845829131"><ele>68.0</ele><time>2026-03-29T09:55:46Z</time></trkpt><trkpt lat="43.84746025056878" lon="7.621827354164134"><ele>68.0</ele><time>2026-03-29T09:55:47Z</time></trkpt><trkpt lat="43.84737220157464" lon="7.621719926300531"><ele>68.0</ele><time>2026-03-29T09:55:49Z</time></trkpt><trkpt lat="43.84730826837592" lon="7.62172134004142"><ele>68.0</ele><time>2026-03-29T09:55:50Z</time></trkpt><trkpt lat="43.8472384322367" lon="7.621785542552347"><ele>69.66666666666667</ele><time>2026-03-29T09:55:51Z</time></trkpt><trkpt lat="43.84716954235573" lon="7.621847316367515"><ele>71.33333333333334</ele><time>2026-03-29T09:55:52Z</time></trkpt><trkpt lat="43.84709194562537" lon="7.621866368611812"><ele>73.0</ele><time>2026-03-29T09:55:53Z</time></trkpt><trkpt lat="43.84700737835868" lon="7.6218649848748194"><ele>74.66666666666667</ele><time>2026-03-29T09:55:54Z</time></trkpt><trkpt lat="43.846924468755134" lon="7.6218696153427725"><ele>76.33333333333333</ele><time>2026-03-29T09:55:55Z</time></trkpt><trkpt lat="43.84684826490337" lon="7.621878464148356"><ele>78.0</ele><time>2026-03-29T09:55:56Z</time></trkpt><trkpt lat="43.84678063965301" lon="7.621873646805827"><ele>79.83333333333333</ele><time>2026-03-29T09:55:57Z</time></trkpt><trkpt lat="43.846716494216295" lon="7.6218549159148745"><ele>81.66666666666667</ele><time>2026-03-29T09:55:58Z</time></trkpt><trkpt lat="43.84666470144988" lon="7.621786349569123"><ele>83.5</ele><time>2026-03-29T09:55:59Z</time></trkpt><trkpt lat="43.84659407815972" lon="7.621743555832823"><ele>85.33333333333334</ele><time>2026-03-29T09:56:00Z</time></trkpt><trkpt lat="43.84648511430444" lon="7.621754618719105"><ele>87.16666666666667</ele><time>2026-03-29T09:56:02Z</time></trkpt><trkpt lat="43.84643189175376" lon="7.621810219201494"><ele>89.0</ele><time>2026-03-29T09:56:03Z</time></trkpt><trkpt lat="43.84635779876578" lon="7.62183346754233"><ele>89.0</ele><time>2026-03-29T09:56:04Z</time></trkpt><trkpt lat="43.84628830064092" lon="7.621882795676469"><ele>89.0</ele><time>2026-03-29T09:56:05Z</time></trkpt><trkpt lat="43.84622422800984" lon="7.6218983150370585"><ele>89.0</ele><time>2026-03-29T09:56:06Z</time></trkpt><trkpt lat="43.84611860697764" lon="7.621844485564216"><ele>89.0</ele><time>2026-03-29T09:56:08Z</time></trkpt><trkpt lat="43.84605249886887" lon="7.621831868975173"><ele>89.0</ele><time>2026-03-29T09:56:09Z</time></trkpt><trkpt lat="43.84593457074155" lon="7.621881539864602"><ele>89.0</ele><time>2026-03-29T09:56:11Z</time></trkpt><trkpt lat="43.84586574535734" lon="7.6219523682832655"><ele>88.2</ele><time>2026-03-29T09:56:12Z</time></trkpt><trkpt lat="43.845808899188164" lon="7.62201343668645"><ele>87.4</ele><time>2026-03-29T09:56:13Z</time></trkpt><trkpt lat="43.84572850451275" lon="7.62208341473487"><ele>86.6</ele><time>2026-03-29T09:56:15Z</time></trkpt><trkpt lat="43.845643046448416" lon="7.622108416002003"><ele>85.8</ele><time>2026-03-29T09:56:17Z</time></trkpt><trkpt lat="43.84553850456081" lon="7.622058073692455"><ele>85.0</ele><time>2026-03-29T09:56:19Z</time></trkpt><trkpt lat="43.8455235934246" lon="7.621872574201735"><ele>87.5</ele><time>2026-03-29T09:56:21Z</time></trkpt><trkpt lat="43.8455331379611" lon="7.621768233141287"><ele>90.0</ele><time>2026-03-29T09:56:22Z</time></trkpt><trkpt lat="43.84554815724069" lon="7.62164241803235"><ele>92.5</ele><time>2026-03-29T09:56:23Z</time></trkpt><trkpt lat="43.84555943573905" lon="7.621511804948858"><ele>95.0</ele><time>2026-03-29T09:56:24Z</time></trkpt><trkpt lat="43.84554006429437" lon="7.621388727334195"><ele>97.50000000000001</ele><time>2026-03-29T09:56:25Z</time></trkpt><trkpt lat="43.845548364494775" lon="7.621264306706162"><ele>100.0</ele><time>2026-03-29T09:56:26Z</time></trkpt><trkpt lat="43.84554170563543" lon="7.621136466683809"><ele>103.00000000000001</ele><time>2026-03-29T09:56:27Z</time></trkpt><trkpt lat="43.84550327895439" lon="7.621014654370364"><ele>106.0</ele><time>2026-03-29T09:56:28Z</time></trkpt><trkpt lat="43.845448789691375" lon="7.62088903665551"><ele>109.0</ele><time>2026-03-29T09:56:29Z</time></trkpt><trkpt lat="43.84538505678903" lon="7.620791081488909"><ele>112.0</ele><time>2026-03-29T09:56:30Z</time></trkpt><trkpt lat="43.84534852001222" lon="7.620706912835868"><ele>115.00000000000001</ele><time>2026-03-29T09:56:31Z</time></trkpt><trkpt lat="43.845295494311635" lon="7.620656121965554"><ele>118.0</ele><time>2026-03-29T09:56:32Z</time></trkpt><trkpt lat="43.84521994645542" lon="7.620543049610677"><ele>117.80000000000001</ele><time>2026-03-29T09:56:34Z</time></trkpt><trkpt lat="43.845124273104304" lon="7.620576478069268"><ele>117.60000000000001</ele><time>2026-03-29T09:56:36Z</time></trkpt><trkpt lat="43.845082305996485" lon="7.620765969003044"><ele>117.39999999999999</ele><time>2026-03-29T09:56:38Z</time></trkpt><trkpt lat="43.84505867433969" lon="7.620876667400354"><ele>117.19999999999999</ele><time>2026-03-29T09:56:39Z</time></trkpt><trkpt lat="43.84501025435735" lon="7.6209635351149805"><ele>117.0</ele><time>2026-03-29T09:56:40Z</time></trkpt><trkpt lat="43.8449428937957" lon="7.6210356096238945"><ele>117.0</ele><time>2026-03-29T09:56:41Z</time></trkpt><trkpt lat="43.84486369703508" lon="7.621094793882943"><ele>116.99999999999999</ele><time>2026-03-29T09:56:42Z</time></trkpt><trkpt lat="43.844785841508205" lon="7.621137520302644"><ele>116.99999999999999</ele><time>2026-03-29T09:56:43Z</time></trkpt><trkpt lat="43.84469053123153" lon="7.621181036643127"><ele>117.0</ele><time>2026-03-29T09:56:44Z</time></trkpt><trkpt lat="43.84458983225388" lon="7.621211620664777"><ele>117.0</ele><time>2026-03-29T09:56:45Z</time></trkpt><trkpt lat="43.84448819701936" lon="7.621244406590403"><ele>116.0</ele><time>2026-03-29T09:56:46Z</time></trkpt><trkpt lat="43.84438863745195" lon="7.621282312135725"><ele>114.99999999999999</ele><time>2026-03-29T09:56:47Z</time></trkpt><trkpt lat="43.84428953470334" lon="7.621323997606745"><ele>113.99999999999999</ele><time>2026-03-29T09:56:48Z</time></trkpt><trkpt lat="43.84420113759015" lon="7.6213574742908134"><ele>113.0</ele><time>2026-03-29T09:56:49Z</time></trkpt><trkpt lat="43.844122326066326" lon="7.621375930246319"><ele>112.0</ele><time>2026-03-29T09:56:50Z</time></trkpt><trkpt lat="43.84404405318702" lon="7.621392297720255"><ele>112.00000000000001</ele><time>2026-03-29T09:56:51Z</time></trkpt><trkpt lat="43.84396112861551" lon="7.621398681292615"><ele>112.0</ele><time>2026-03-29T09:56:52Z</time></trkpt><trkpt lat="43.8438722370055" lon="7.621381290926367"><ele>112.0</ele><time>2026-03-29T09:56:53Z</time></trkpt><trkpt lat="43.84377553735367" lon="7.621353786769456"><ele>112.0</ele><time>2026-03-29T09:56:54Z</time></trkpt><trkpt lat="43.8436830948455" lon="7.621326186930519"><ele>112.00000000000001</ele><time>2026-03-29T09:56:55Z</time></trkpt><trkpt lat="43.84360896684311" lon="7.6213044815456"><ele>112.0</ele><time>2026-03-29T09:56:56Z</time></trkpt><trkpt lat="43.8435492251749" lon="7.621270536655552"><ele>118.6</ele><time>2026-03-29T09:56:57Z</time></trkpt><trkpt lat="43.84343685406504" lon="7.621137241635713"><ele>125.19999999999999</ele><time>2026-03-29T09:56:59Z</time></trkpt><trkpt lat="43.84337827370967" lon="7.6210356184796035"><ele>131.8</ele><time>2026-03-29T09:57:00Z</time></trkpt><trkpt lat="43.84332429176542" lon="7.620933865274392"><ele>138.4</ele><time>2026-03-29T09:57:01Z</time></trkpt><trkpt lat="43.843285542103935" lon="7.6208602703571255"><ele>145.0</ele><time>2026-03-29T09:57:02Z</time></trkpt><trkpt lat="43.84319333960785" lon="7.620848844525903"><ele>145.0</ele><time>2026-03-29T09:57:04Z</time></trkpt><trkpt lat="43.84310503117819" lon="7.62093513784155"><ele>145.0</ele><time>2026-03-29T09:57:06Z</time></trkpt><trkpt lat="43.8430421952331" lon="7.6209954851199075"><ele>145.0</ele><time>2026-03-29T09:57:07Z</time></trkpt><trkpt lat="43.842973127136354" lon="7.6210424580604075"><ele>145.0</ele><time>2026-03-29T09:57:08Z</time></trkpt><trkpt lat="43.84289902126003" lon="7.6210942929225585"><ele>145.0</ele><time>2026-03-29T09:57:09Z</time></trkpt><trkpt lat="43.84283172670452" lon="7.621161515968835"><ele>145.0</ele><time>2026-03-29T09:57:10Z</time></trkpt><trkpt lat="43.842766830739464" lon="7.621247848224916"><ele>144.5</ele><time>2026-03-29T09:57:11Z</time></trkpt><trkpt lat="43.84270343185396" lon="7.621343315137548"><ele>144.0</ele><time>2026-03-29T09:57:12Z</time></trkpt><trkpt lat="43.84263916435672" lon="7.621424723847269"><ele>143.5</ele><time>2026-03-29T09:57:13Z</time></trkpt><trkpt lat="43.842579399551084" lon="7.62149854613858"><ele>143.0</ele><time>2026-03-29T09:57:14Z</time></trkpt><trkpt lat="43.842522369509346" lon="7.621560754431018"><ele>142.5</ele><time>2026-03-29T09:57:15Z</time></trkpt><trkpt lat="43.842459466057626" lon="7.621606635588323"><ele>142.0</ele><time>2026-03-29T09:57:16Z</time></trkpt><trkpt lat="43.842386252230256" lon="7.621634474398031"><ele>142.0</ele><time>2026-03-29T09:57:17Z</time></trkpt><trkpt lat="43.8423171569097" lon="7.621652455900771"><ele>142.0</ele><time>2026-03-29T09:57:18Z</time></trkpt><trkpt lat="43.84222973298093" lon="7.621692526009789"><ele>142.0</ele><time>2026-03-29T09:57:20Z</time></trkpt><trkpt lat="43.84215089009413" lon="7.621775871252402"><ele>142.0</ele><time>2026-03-29T09:57:22Z</time></trkpt><trkpt lat="43.842113417878345" lon="7.621884147598116"><ele>142.0</ele><time>2026-03-29T09:57:23Z</time></trkpt><trkpt lat="43.84208339301808" lon="7.622001783427422"><ele>142.0</ele><time>2026-03-29T09:57:24Z</time></trkpt><trkpt lat="43.842051309031994" lon="7.622105190118664"><ele>143.33333333333334</ele><time>2026-03-29T09:57:25Z</time></trkpt><trkpt lat="43.84201930425788" lon="7.622194014710096"><ele>144.66666666666669</ele><time>2026-03-29T09:57:26Z</time></trkpt><trkpt lat="43.84198408273169" lon="7.622271359599723"><ele>146.0</ele><time>2026-03-29T09:57:27Z</time></trkpt><trkpt lat="43.84187679398142" lon="7.622365835299913"><ele>147.33333333333334</ele><time>2026-03-29T09:57:29Z</time></trkpt><trkpt lat="43.84179134900422" lon="7.622389263136587"><ele>148.66666666666666</ele><time>2026-03-29T09:57:30Z</time></trkpt><trkpt lat="43.84170347660095" lon="7.622415841495564"><ele>150.0</ele><time>2026-03-29T09:57:31Z</time></trkpt><trkpt lat="43.84161807767652" lon="7.622449210291982"><ele>150.0</ele><time>2026-03-29T09:57:32Z</time></trkpt><trkpt lat="43.841521553842156" lon="7.622489750073379"><ele>150.0</ele><time>2026-03-29T09:57:33Z</time></trkpt><trkpt lat="43.84142884806774" lon="7.622531285772359"><ele>150.0</ele><time>2026-03-29T09:57:34Z</time></trkpt><trkpt lat="43.84134211573745" lon="7.622575452898289"><ele>150.0</ele><time>2026-03-29T09:57:35Z</time></trkpt><trkpt lat="43.8412652874411" lon="7.622615474952361"><ele>150.0</ele><time>2026-03-29T09:57:36Z</time></trkpt><trkpt lat="43.84119184058139" lon="7.6226428342578165"><ele>150.0</ele><time>2026-03-29T09:57:37Z</time></trkpt><trkpt lat="43.84111111387195" lon="7.622648124238876"><ele>150.0</ele><time>2026-03-29T09:57:38Z</time></trkpt><trkpt lat="43.841026202643995" lon="7.6226223594056055"><ele>150.0</ele><time>2026-03-29T09:57:39Z</time></trkpt><trkpt lat="43.84094942014652" lon="7.622560480956046"><ele>150.0</ele><time>2026-03-29T09:57:40Z</time></trkpt><trkpt lat="43.84087108521877" lon="7.622464163557969"><ele>150.0</ele><time>2026-03-29T09:57:41Z</time></trkpt><trkpt lat="43.84079361947602" lon="7.622363232758526"><ele>150.0</ele><time>2026-03-29T09:57:42Z</time></trkpt><trkpt lat="43.840710642630235" lon="7.622269448394171"><ele>151.0</ele><time>2026-03-29T09:57:43Z</time></trkpt><trkpt lat="43.84063110374935" lon="7.622178966212515"><ele>152.0</ele><time>2026-03-29T09:57:44Z</time></trkpt><trkpt lat="43.8405481602061" lon="7.622084752512717"><ele>153.0</ele><time>2026-03-29T09:57:45Z</time></trkpt><trkpt lat="43.84047121158585" lon="7.621981045578825"><ele>154.0</ele><time>2026-03-29T09:57:46Z</time></trkpt><trkpt lat="43.84040254408861" lon="7.621878519254508"><ele>155.0</ele><time>2026-03-29T09:57:47Z</time></trkpt><trkpt lat="43.840335528511595" lon="7.621785323442538"><ele>158.0</ele><time>2026-03-29T09:57:48Z</time></trkpt><trkpt lat="43.84026796304433" lon="7.621699182590012"><ele>161.0</ele><time>2026-03-29T09:57:49Z</time></trkpt><trkpt lat="43.84019751888197" lon="7.6216416423493545"><ele>164.0</ele><time>2026-03-29T09:57:50Z</time></trkpt><trkpt lat="43.840117816092054" lon="7.621638587825357"><ele>167.0</ele><time>2026-03-29T09:57:51Z</time></trkpt><trkpt lat="43.8400371336001" lon="7.621687448558998"><ele>170.0</ele><time>2026-03-29T09:57:52Z</time></trkpt><trkpt lat="43.83998163995521" lon="7.621777761257521"><ele>173.0</ele><time>2026-03-29T09:57:53Z</time></trkpt><trkpt lat="43.83991857722368" lon="7.621854861381811"><ele>173.0</ele><time>2026-03-29T09:57:54Z</time></trkpt><trkpt lat="43.839825291954455" lon="7.621898015603776"><ele>173.0</ele><time>2026-03-29T09:57:55Z</time></trkpt><trkpt lat="43.839733212703" lon="7.6219153311092"><ele>173.0</ele><time>2026-03-29T09:57:56Z</time></trkpt><trkpt lat="43.83964694299631" lon="7.621927787647345"><ele>173.0</ele><time>2026-03-29T09:57:57Z</time></trkpt><trkpt lat="43.839571293420185" lon="7.6219239726284576"><ele>173.0</ele><time>2026-03-29T09:57:58Z</time></trkpt><trkpt lat="43.83950560901388" lon="7.6218786661870075"><ele>173.0</ele><time>2026-03-29T09:57:59Z</time></trkpt><trkpt lat="43.83944537621701" lon="7.6218002167616135"><ele>173.0</ele><time>2026-03-29T09:58:00Z</time></trkpt><trkpt lat="43.839402174703004" lon="7.621715906644935"><ele>173.0</ele><time>2026-03-29T09:58:01Z</time></trkpt><trkpt lat="43.83931021077445" lon="7.621641654989359"><ele>173.0</ele><time>2026-03-29T09:58:03Z</time></trkpt><trkpt lat="43.83920316082605" lon="7.621724058081237"><ele>173.0</ele><time>2026-03-29T09:58:05Z</time></trkpt><trkpt lat="43.83915747648451" lon="7.621805527101579"><ele>173.0</ele><time>2026-03-29T09:58:06Z</time></trkpt><trkpt lat="43.83910859319465" lon="7.6218654345108865"><ele>173.0</ele><time>2026-03-29T09:58:07Z</time></trkpt><trkpt lat="43.839045457679156" lon="7.621910898651858"><ele>173.83333333333331</ele><time>2026-03-29T09:58:08Z</time></trkpt><trkpt lat="43.83897316157832" lon="7.621941882235051"><ele>174.66666666666666</ele><time>2026-03-29T09:58:09Z</time></trkpt><trkpt lat="43.83890144910275" lon="7.621974944080327"><ele>175.5</ele><time>2026-03-29T09:58:10Z</time></trkpt><trkpt lat="43.838798312020664" lon="7.6219913660792376"><ele>176.33333333333334</ele><time>2026-03-29T09:58:12Z</time></trkpt><trkpt lat="43.838758373985364" lon="7.621893716719234"><ele>177.16666666666669</ele><time>2026-03-29T09:58:14Z</time></trkpt><trkpt lat="43.8387919451345" lon="7.621775212190723"><ele>178.0</ele><time>2026-03-29T09:58:16Z</time></trkpt><trkpt lat="43.838873715643395" lon="7.621734556477538"><ele>177.99999999999997</ele><time>2026-03-29T09:58:17Z</time></trkpt><trkpt lat="43.838951268019095" lon="7.621702181070169"><ele>178.0</ele><time>2026-03-29T09:58:18Z</time></trkpt><trkpt lat="43.83902158058215" lon="7.621654906085389"><ele>178.0</ele><time>2026-03-29T09:58:19Z</time></trkpt><trkpt lat="43.83908287058979" lon="7.621599747888946"><ele>178.0</ele><time>2026-03-29T09:58:20Z</time></trkpt><trkpt lat="43.839132336327154" lon="7.621534343381847"><ele>178.0</ele><time>2026-03-29T09:58:21Z</time></trkpt><trkpt lat="43.83917221292429" lon="7.621453508549338"><ele>177.99999999999997</ele><time>2026-03-29T09:58:22Z</time></trkpt><trkpt lat="43.839211041816895" lon="7.621372149861489"><ele>178.0</ele><time>2026-03-29T09:58:23Z</time></trkpt><trkpt lat="43.83925324257445" lon="7.62128930688498"><ele>177.16666666666669</ele><time>2026-03-29T09:58:24Z</time></trkpt><trkpt lat="43.83931475255257" lon="7.621232643420934"><ele>176.33333333333334</ele><time>2026-03-29T09:58:25Z</time></trkpt><trkpt lat="43.839362244260634" lon="7.621169185458833"><ele>175.5</ele><time>2026-03-29T09:58:26Z</time></trkpt><trkpt lat="43.839432341770944" lon="7.621165375414833"><ele>174.66666666666666</ele><time>2026-03-29T09:58:27Z</time></trkpt><trkpt lat="43.83950290867537" lon="7.621239234871284"><ele>173.83333333333331</ele><time>2026-03-29T09:58:28Z</time></trkpt><trkpt lat="43.83958973579467" lon="7.621276386303759"><ele>173.0</ele><time>2026-03-29T09:58:29Z</time></trkpt><trkpt lat="43.83967552955845" lon="7.621287412395328"><ele>173.0</ele><time>2026-03-29T09:58:30Z</time></trkpt><trkpt lat="43.83976476758667" lon="7.621265405265366"><ele>173.0</ele><time>2026-03-29T09:58:31Z</time></trkpt><trkpt lat="43.83984037735022" lon="7.621214909716495"><ele>173.0</ele><time>2026-03-29T09:58:32Z</time></trkpt><trkpt lat="43.8399081922384" lon="7.621150790473442"><ele>173.0</ele><time>2026-03-29T09:58:33Z</time></trkpt><trkpt lat="43.83996213244045" lon="7.6210619594429545"><ele>173.0</ele><time>2026-03-29T09:58:34Z</time></trkpt><trkpt lat="43.8400050995078" lon="7.620973947639958"><ele>173.0</ele><time>2026-03-29T09:58:35Z</time></trkpt><trkpt lat="43.84006646137747" lon="7.620946976875499"><ele>174.2</ele><time>2026-03-29T09:58:36Z</time></trkpt><trkpt lat="43.84017673218158" lon="7.621033993052578"><ele>175.4</ele><time>2026-03-29T09:58:38Z</time></trkpt><trkpt lat="43.84026106578251" lon="7.621112421480721"><ele>176.6</ele><time>2026-03-29T09:58:39Z</time></trkpt><trkpt lat="43.84034476093883" lon="7.621164621797322"><ele>177.79999999999998</ele><time>2026-03-29T09:58:40Z</time></trkpt><trkpt lat="43.840427670146774" lon="7.621200145039717"><ele>179.0</ele><time>2026-03-29T09:58:41Z</time></trkpt><trkpt lat="43.84051273536699" lon="7.621223915294931"><ele>179.0</ele><time>2026-03-29T09:58:42Z</time></trkpt><trkpt lat="43.840594502699226" lon="7.6212687902132314"><ele>179.0</ele><time>2026-03-29T09:58:43Z</time></trkpt><trkpt lat="43.84069276777597" lon="7.621287762780097"><ele>179.0</ele><time>2026-03-29T09:58:44Z</time></trkpt><trkpt lat="43.84078257653875" lon="7.6213452125541465"><ele>179.0</ele><time>2026-03-29T09:58:45Z</time></trkpt><trkpt lat="43.84085425619593" lon="7.621347281373991"><ele>179.0</ele><time>2026-03-29T09:58:46Z</time></trkpt><trkpt lat="43.840968464044344" lon="7.6213680039588345"><ele>177.33333333333331</ele><time>2026-03-29T09:58:48Z</time></trkpt><trkpt lat="43.84103017435289" lon="7.621300844460202"><ele>175.66666666666666</ele><time>2026-03-29T09:58:49Z</time></trkpt><trkpt lat="43.84110374479038" lon="7.621251946019277"><ele>174.0</ele><time>2026-03-29T09:58:50Z</time></trkpt><trkpt lat="43.84117367163103" lon="7.6211874011128025"><ele>172.33333333333334</ele><time>2026-03-29T09:58:51Z</time></trkpt><trkpt lat="43.841239954496146" lon="7.621117367354263"><ele>170.66666666666669</ele><time>2026-03-29T09:58:52Z</time></trkpt><trkpt lat="43.841321084645806" lon="7.6210611280115055"><ele>169.0</ele><time>2026-03-29T09:58:53Z</time></trkpt><trkpt lat="43.841381635628785" lon="7.6209667023158225"><ele>172.83333333333334</ele><time>2026-03-29T09:58:54Z</time></trkpt><trkpt lat="43.84144462655077" lon="7.620882172065014"><ele>176.66666666666669</ele><time>2026-03-29T09:58:55Z</time></trkpt><trkpt lat="43.8414973774843" lon="7.620791479299722"><ele>180.5</ele><time>2026-03-29T09:58:56Z</time></trkpt><trkpt lat="43.841540943632346" lon="7.620678849627772"><ele>184.33333333333334</ele><time>2026-03-29T09:58:57Z</time></trkpt><trkpt lat="43.841598396096" lon="7.620579321658135"><ele>188.16666666666666</ele><time>2026-03-29T09:58:58Z</time></trkpt><trkpt lat="43.84165249704074" lon="7.620499497484015"><ele>192.0</ele><time>2026-03-29T09:58:59Z</time></trkpt><trkpt lat="43.841713186078" lon="7.620430470298089"><ele>192.0</ele><time>2026-03-29T09:59:00Z</time></trkpt><trkpt lat="43.84178731396646" lon="7.620361567482628"><ele>192.0</ele><time>2026-03-29T09:59:01Z</time></trkpt><trkpt lat="43.841858029311766" lon="7.620264994846881"><ele>192.0</ele><time>2026-03-29T09:59:02Z</time></trkpt><trkpt lat="43.84192836054172" lon="7.620194373301222"><ele>192.0</ele><time>2026-03-29T09:59:03Z</time></trkpt><trkpt lat="43.841981704785766" lon="7.620127831060683"><ele>192.0</ele><time>2026-03-29T09:59:04Z</time></trkpt><trkpt lat="43.84205036349975" lon="7.62008000437022"><ele>192.0</ele><time>2026-03-29T09:59:05Z</time></trkpt><trkpt lat="43.8421175323796" lon="7.620023422468989"><ele>191.83333333333334</ele><time>2026-03-29T09:59:06Z</time></trkpt><trkpt lat="43.84219633518559" lon="7.619970693140147"><ele>191.66666666666666</ele><time>2026-03-29T09:59:07Z</time></trkpt><trkpt lat="43.84227307412223" lon="7.619897194278098"><ele>191.5</ele><time>2026-03-29T09:59:08Z</time></trkpt><trkpt lat="43.84235487462411" lon="7.619866757389183"><ele>191.33333333333331</ele><time>2026-03-29T09:59:09Z</time></trkpt><trkpt lat="43.8424164052599" lon="7.619798990488699"><ele>191.16666666666666</ele><time>2026-03-29T09:59:10Z</time></trkpt><trkpt lat="43.842478503935936" lon="7.619753461451926"><ele>191.0</ele><time>2026-03-29T09:59:11Z</time></trkpt><trkpt lat="43.84253816927381" lon="7.619699792346421"><ele>191.0</ele><time>2026-03-29T09:59:12Z</time></trkpt><trkpt lat="43.84258127791034" lon="7.619623092013739"><ele>191.0</ele><time>2026-03-29T09:59:13Z</time></trkpt><trkpt lat="43.842612817448725" lon="7.619546053805972"><ele>191.0</ele><time>2026-03-29T09:59:14Z</time></trkpt><trkpt lat="43.84265681720458" lon="7.619412424880082"><ele>191.0</ele><time>2026-03-29T09:59:16Z</time></trkpt><trkpt lat="43.84266587019786" lon="7.6192529885283875"><ele>191.0</ele><time>2026-03-29T09:59:18Z</time></trkpt><trkpt lat="43.842717907967014" lon="7.619132648296928"><ele>192.16666666666666</ele><time>2026-03-29T09:59:20Z</time></trkpt><trkpt lat="43.84278974199064" lon="7.619105665062655"><ele>193.33333333333331</ele><time>2026-03-29T09:59:21Z</time></trkpt><trkpt lat="43.84287907308074" lon="7.619164335661949"><ele>194.5</ele><time>2026-03-29T09:59:22Z</time></trkpt><trkpt lat="43.84296221952573" lon="7.619144497767847"><ele>195.66666666666666</ele><time>2026-03-29T09:59:23Z</time></trkpt><trkpt lat="43.84303751386359" lon="7.619133143830254"><ele>196.83333333333334</ele><time>2026-03-29T09:59:24Z</time></trkpt><trkpt lat="43.84311509153991" lon="7.619117284842164"><ele>198.0</ele><time>2026-03-29T09:59:25Z</time></trkpt><trkpt lat="43.84318727077993" lon="7.619163854440631"><ele>198.0</ele><time>2026-03-29T09:59:26Z</time></trkpt><trkpt lat="43.8432701167591" lon="7.619196083647796"><ele>198.0</ele><time>2026-03-29T09:59:27Z</time></trkpt><trkpt lat="43.843365688499304" lon="7.619209184920145"><ele>198.0</ele><time>2026-03-29T09:59:28Z</time></trkpt><trkpt lat="43.84345532344526" lon="7.619242319034447"><ele>198.0</ele><time>2026-03-29T09:59:29Z</time></trkpt><trkpt lat="43.843526930156344" lon="7.6193026697772535"><ele>198.0</ele><time>2026-03-29T09:59:30Z</time></trkpt><trkpt lat="43.8436008572811" lon="7.619347467513127"><ele>198.0</ele><time>2026-03-29T09:59:31Z</time></trkpt><trkpt lat="43.84367313932607" lon="7.619401890113697"><ele>197.5</ele><time>2026-03-29T09:59:32Z</time></trkpt><trkpt lat="43.8437301408742" lon="7.6194534436548995"><ele>197.0</ele><time>2026-03-29T09:59:33Z</time></trkpt><trkpt lat="43.843783901631554" lon="7.619501118275482"><ele>196.5</ele><time>2026-03-29T09:59:34Z</time></trkpt><trkpt lat="43.84383973324029" lon="7.619550628432337"><ele>196.0</ele><time>2026-03-29T09:59:35Z</time></trkpt><trkpt lat="43.84394316073462" lon="7.619626221844775"><ele>195.5</ele><time>2026-03-29T09:59:37Z</time></trkpt><trkpt lat="43.84404881277101" lon="7.6195816773561384"><ele>195.0</ele><time>2026-03-29T09:59:39Z</time></trkpt><trkpt lat="43.84408703887273" lon="7.619501222439111"><ele>195.0</ele><time>2026-03-29T09:59:40Z</time></trkpt><trkpt lat="43.84409063345232" lon="7.619373221295277"><ele>195.0</ele><time>2026-03-29T09:59:41Z</time></trkpt><trkpt lat="43.84408303353906" lon="7.619255183419607"><ele>195.0</ele><time>2026-03-29T09:59:42Z</time></trkpt><trkpt lat="43.84409151994147" lon="7.619134277526855"><ele>195.0</ele><time>2026-03-29T09:59:43Z</time></trkpt><trkpt lat="43.84409014976727" lon="7.6190122052654665"><ele>195.0</ele><time>2026-03-29T09:59:44Z</time></trkpt><trkpt lat="43.84409014976548" lon="7.618910158242326"><ele>195.0</ele><time>2026-03-29T09:59:45Z</time></trkpt><trkpt lat="43.84407452342462" lon="7.618817725424785"><ele>195.0</ele><time>2026-03-29T09:59:46Z</time></trkpt><trkpt lat="43.84407712406034" lon="7.618727030968675"><ele>195.0</ele><time>2026-03-29T09:59:47Z</time></trkpt><trkpt lat="43.8440986003419" lon="7.618630142460418"><ele>195.0</ele><time>2026-03-29T09:59:48Z</time></trkpt><trkpt lat="43.84410600205403" lon="7.618512485344018"><ele>195.0</ele><time>2026-03-29T09:59:49Z</time></trkpt><trkpt lat="43.844115269182986" lon="7.618397385353842"><ele>195.0</ele><time>2026-03-29T09:59:50Z</time></trkpt><trkpt lat="43.84412526404794" lon="7.618309928033993"><ele>195.0</ele><time>2026-03-29T09:59:51Z</time></trkpt><trkpt lat="43.84416119417734" lon="7.61815470265783"><ele>195.33333333333334</ele><time>2026-03-29T09:59:53Z</time></trkpt><trkpt lat="43.84422898149018" lon="7.618109645049336"><ele>195.66666666666669</ele><time>2026-03-29T09:59:54Z</time></trkpt><trkpt lat="43.84429131291008" lon="7.618060906586708"><ele>196.0</ele><time>2026-03-29T09:59:55Z</time></trkpt><trkpt lat="43.84434425390327" lon="7.618013074967021"><ele>196.33333333333334</ele><time>2026-03-29T09:59:56Z</time></trkpt><trkpt lat="43.84447126665313" lon="7.6179835104659155"><ele>196.66666666666669</ele><time>2026-03-29T09:59:58Z</time></trkpt><trkpt lat="43.84454808706396" lon="7.617999287789828"><ele>197.0</ele><time>2026-03-29T09:59:59Z</time></trkpt><trkpt lat="43.84463909167493" lon="7.617991287558098"><ele>197.0</ele><time>2026-03-29T10:00:00Z</time></trkpt><trkpt lat="43.84473456540017" lon="7.617966340368267"><ele>197.0</ele><time>2026-03-29T10:00:01Z</time></trkpt><trkpt lat="43.84482225908945" lon="7.617941255391006"><ele>197.0</ele><time>2026-03-29T10:00:02Z</time></trkpt><trkpt lat="43.84491255663203" lon="7.617924674869091"><ele>197.0</ele><time>2026-03-29T10:00:03Z</time></trkpt><trkpt lat="43.84501929091114" lon="7.6179149214359"><ele>197.0</ele><time>2026-03-29T10:00:04Z</time></trkpt><trkpt lat="43.84512417319682" lon="7.617907976372874"><ele>197.66666666666669</ele><time>2026-03-29T10:00:05Z</time></trkpt><trkpt lat="43.84521441301943" lon="7.617914792290708"><ele>198.33333333333334</ele><time>2026-03-29T10:00:06Z</time></trkpt><trkpt lat="43.84529725640579" lon="7.617932149937378"><ele>199.0</ele><time>2026-03-29T10:00:07Z</time></trkpt><trkpt lat="43.84538166822146" lon="7.617969492379461"><ele>199.66666666666669</ele><time>2026-03-29T10:00:08Z</time></trkpt><trkpt lat="43.84546712663119" lon="7.618020028349104"><ele>200.33333333333334</ele><time>2026-03-29T10:00:09Z</time></trkpt><trkpt lat="43.845548857960296" lon="7.618042143208252"><ele>201.0</ele><time>2026-03-29T10:00:10Z</time></trkpt><trkpt lat="43.84561740064354" lon="7.618062146765634"><ele>201.0</ele><time>2026-03-29T10:00:11Z</time></trkpt><trkpt lat="43.84571404709811" lon="7.618023263758478"><ele>201.0</ele><time>2026-03-29T10:00:13Z</time></trkpt><trkpt lat="43.84579763820274" lon="7.618019475775773"><ele>201.0</ele><time>2026-03-29T10:00:15Z</time></trkpt><trkpt lat="43.8459009602813" lon="7.617986141030067"><ele>201.0</ele><time>2026-03-29T10:00:17Z</time></trkpt><trkpt lat="43.845971095250206" lon="7.6179639245329245"><ele>201.0</ele><time>2026-03-29T10:00:18Z</time></trkpt><trkpt lat="43.84605134011248" lon="7.617939666267401"><ele>201.0</ele><time>2026-03-29T10:00:19Z</time></trkpt><trkpt lat="43.846134431731834" lon="7.617914547460835"><ele>200.0</ele><time>2026-03-29T10:00:20Z</time></trkpt><trkpt lat="43.84621757202119" lon="7.617887219617093"><ele>199.0</ele><time>2026-03-29T10:00:21Z</time></trkpt><trkpt lat="43.846305469301946" lon="7.6178574635111485"><ele>198.0</ele><time>2026-03-29T10:00:22Z</time></trkpt><trkpt lat="43.846400266330235" lon="7.617822548109003"><ele>197.0</ele><time>2026-03-29T10:00:23Z</time></trkpt><trkpt lat="43.846499965028805" lon="7.617790293517742"><ele>196.0</ele><time>2026-03-29T10:00:24Z</time></trkpt><trkpt lat="43.846594042904286" lon="7.6177647820682175"><ele>200.0</ele><time>2026-03-29T10:00:25Z</time></trkpt><trkpt lat="43.846679014139966" lon="7.617747566881185"><ele>204.0</ele><time>2026-03-29T10:00:26Z</time></trkpt><trkpt lat="43.84676232690687" lon="7.617728018716844"><ele>208.00000000000003</ele><time>2026-03-29T10:00:27Z</time></trkpt><trkpt lat="43.8468402280761" lon="7.6176773786168726"><ele>212.0</ele><time>2026-03-29T10:00:28Z</time></trkpt><trkpt lat="43.846910019383515" lon="7.617664339477874"><ele>216.0</ele><time>2026-03-29T10:00:29Z</time></trkpt><trkpt lat="43.84700499597617" lon="7.61751501842632"><ele>210.66666666666666</ele><time>2026-03-29T10:00:31Z</time></trkpt><trkpt lat="43.847019251676194" lon="7.617400373352031"><ele>205.33333333333334</ele><time>2026-03-29T10:00:32Z</time></trkpt><trkpt lat="43.84701481046445" lon="7.617274321573685"><ele>200.0</ele><time>2026-03-29T10:00:33Z</time></trkpt><trkpt lat="43.846978452537286" lon="7.617143624822271"><ele>194.66666666666669</ele><time>2026-03-29T10:00:34Z</time></trkpt><trkpt lat="43.84694969809938" lon="7.617034969298366"><ele>189.33333333333334</ele><time>2026-03-29T10:00:35Z</time></trkpt><trkpt lat="43.84696304972389" lon="7.616924496161565"><ele>184.0</ele><time>2026-03-29T10:00:36Z</time></trkpt><trkpt lat="43.84698117074465" lon="7.616811076551791"><ele>184.0</ele><time>2026-03-29T10:00:37Z</time></trkpt><trkpt lat="43.847022622581214" lon="7.61669474659795"><ele>184.0</ele><time>2026-03-29T10:00:38Z</time></trkpt><trkpt lat="43.84705786049467" lon="7.616575228364287"><ele>184.0</ele><time>2026-03-29T10:00:39Z</time></trkpt><trkpt lat="43.84706758879776" lon="7.616452505596147"><ele>184.0</ele><time>2026-03-29T10:00:40Z</time></trkpt><trkpt lat="43.84709143428938" lon="7.616333060209126"><ele>184.0</ele><time>2026-03-29T10:00:41Z</time></trkpt><trkpt lat="43.847153588578536" lon="7.616242915474789"><ele>184.0</ele><time>2026-03-29T10:00:42Z</time></trkpt><trkpt lat="43.84723374642211" lon="7.616180246972701"><ele>184.0</ele><time>2026-03-29T10:00:43Z</time></trkpt><trkpt lat="43.84728144765747" lon="7.616091458930388"><ele>184.0</ele><time>2026-03-29T10:00:44Z</time></trkpt><trkpt lat="43.84732865792738" lon="7.616012036231988"><ele>184.0</ele><time>2026-03-29T10:00:45Z</time></trkpt><trkpt lat="43.8473433239048" lon="7.6158856295826265"><ele>184.0</ele><time>2026-03-29T10:00:46Z</time></trkpt><trkpt lat="43.84733886232593" lon="7.615751268107936"><ele>184.0</ele><time>2026-03-29T10:00:47Z</time></trkpt><trkpt lat="43.8473117264483" lon="7.615634277895133"><ele>188.0</ele><time>2026-03-29T10:00:48Z</time></trkpt><trkpt lat="43.84727196784147" lon="7.615524112919481"><ele>192.0</ele><time>2026-03-29T10:00:49Z</time></trkpt><trkpt lat="43.8472267046818" lon="7.615417477690531"><ele>196.0</ele><time>2026-03-29T10:00:50Z</time></trkpt><trkpt lat="43.8471994987105" lon="7.615313390727657"><ele>200.0</ele><time>2026-03-29T10:00:51Z</time></trkpt><trkpt lat="43.84718551901718" lon="7.615183134874734"><ele>204.0</ele><time>2026-03-29T10:00:52Z</time></trkpt><trkpt lat="43.84720092983293" lon="7.615044578600334"><ele>205.0</ele><time>2026-03-29T10:00:53Z</time></trkpt><trkpt lat="43.84717608267683" lon="7.614900333744659"><ele>206.0</ele><time>2026-03-29T10:00:54Z</time></trkpt><trkpt lat="43.84717251445669" lon="7.614786321336791"><ele>207.0</ele><time>2026-03-29T10:00:55Z</time></trkpt><trkpt lat="43.84716168221498" lon="7.614668549358026"><ele>208.0</ele><time>2026-03-29T10:00:56Z</time></trkpt><trkpt lat="43.84714408680835" lon="7.614551759452635"><ele>209.0</ele><time>2026-03-29T10:00:57Z</time></trkpt><trkpt lat="43.847124435737456" lon="7.614433724834372"><ele>210.0</ele><time>2026-03-29T10:00:58Z</time></trkpt><trkpt lat="43.84710114771447" lon="7.6143324876643765"><ele>214.0</ele><time>2026-03-29T10:00:59Z</time></trkpt><trkpt lat="43.84710648548314" lon="7.614160176719667"><ele>218.0</ele><time>2026-03-29T10:01:01Z</time></trkpt><trkpt lat="43.847141304823076" lon="7.614079621670902"><ele>222.0</ele><time>2026-03-29T10:01:02Z</time></trkpt><trkpt lat="43.847230370598936" lon="7.614045410453058"><ele>226.0</ele><time>2026-03-29T10:01:03Z</time></trkpt><trkpt lat="43.84732085151387" lon="7.614018552386343"><ele>230.0</ele><time>2026-03-29T10:01:04Z</time></trkpt><trkpt lat="43.84741850859902" lon="7.6139827625449605"><ele>230.0</ele><time>2026-03-29T10:01:05Z</time></trkpt><trkpt lat="43.84751833696202" lon="7.61394584715667"><ele>230.0</ele><time>2026-03-29T10:01:06Z</time></trkpt><trkpt lat="43.84760874330047" lon="7.61391033129446"><ele>230.0</ele><time>2026-03-29T10:01:07Z</time></trkpt><trkpt lat="43.84769914950014" lon="7.61387896589191"><ele>230.0</ele><time>2026-03-29T10:01:08Z</time></trkpt><trkpt lat="43.84779150994086" lon="7.61384473282475"><ele>230.0</ele><time>2026-03-29T10:01:09Z</time></trkpt><trkpt lat="43.84788296247935" lon="7.613808319935663"><ele>227.2</ele><time>2026-03-29T10:01:10Z</time></trkpt><trkpt lat="43.84797588635547" lon="7.613773500366382"><ele>224.4</ele><time>2026-03-29T10:01:11Z</time></trkpt><trkpt lat="43.84806945712245" lon="7.6137401177989465"><ele>221.60000000000002</ele><time>2026-03-29T10:01:12Z</time></trkpt><trkpt lat="43.84815784460935" lon="7.613703688973354"><ele>218.8</ele><time>2026-03-29T10:01:13Z</time></trkpt><trkpt lat="43.84823361693347" lon="7.613647910890787"><ele>216.0</ele><time>2026-03-29T10:01:14Z</time></trkpt><trkpt lat="43.84832178480231" lon="7.613650435758241"><ele>219.8</ele><time>2026-03-29T10:01:15Z</time></trkpt><trkpt lat="43.84842157955983" lon="7.613641079351401"><ele>223.60000000000002</ele><time>2026-03-29T10:01:16Z</time></trkpt><trkpt lat="43.84850858763986" lon="7.613600025859977"><ele>227.4</ele><time>2026-03-29T10:01:17Z</time></trkpt><trkpt lat="43.84861377657986" lon="7.613548324195933"><ele>231.2</ele><time>2026-03-29T10:01:18Z</time></trkpt><trkpt lat="43.848703109064466" lon="7.613483329730208"><ele>235.0</ele><time>2026-03-29T10:01:19Z</time></trkpt><trkpt lat="43.84878178258062" lon="7.613438574728084"><ele>234.99999999999997</ele><time>2026-03-29T10:01:20Z</time></trkpt><trkpt lat="43.84886215120631" lon="7.613424355994085"><ele>235.0</ele><time>2026-03-29T10:01:21Z</time></trkpt><trkpt lat="43.848945219259235" lon="7.613425211243819"><ele>235.0</ele><time>2026-03-29T10:01:22Z</time></trkpt><trkpt lat="43.84902769339881" lon="7.61338812713071"><ele>235.0</ele><time>2026-03-29T10:01:23Z</time></trkpt><trkpt lat="43.84910473007975" lon="7.613343466587114"><ele>234.99999999999997</ele><time>2026-03-29T10:01:24Z</time></trkpt><trkpt lat="43.84917312744985" lon="7.613253595727975"><ele>235.0</ele><time>2026-03-29T10:01:25Z</time></trkpt><trkpt lat="43.849237724149134" lon="7.6131677624047605"><ele>234.6</ele><time>2026-03-29T10:01:26Z</time></trkpt><trkpt lat="43.84929608850838" lon="7.613056477084751"><ele>234.2</ele><time>2026-03-29T10:01:27Z</time></trkpt><trkpt lat="43.849357405963964" lon="7.612963006576505"><ele>233.8</ele><time>2026-03-29T10:01:28Z</time></trkpt><trkpt lat="43.84942060975679" lon="7.612878336310736"><ele>233.4</ele><time>2026-03-29T10:01:29Z</time></trkpt><trkpt lat="43.849474379628035" lon="7.612782836022039"><ele>233.0</ele><time>2026-03-29T10:01:30Z</time></trkpt><trkpt lat="43.849506478197476" lon="7.612673530597142"><ele>233.00000000000003</ele><time>2026-03-29T10:01:31Z</time></trkpt><trkpt lat="43.84953342564782" lon="7.612562990253669"><ele>233.0</ele><time>2026-03-29T10:01:32Z</time></trkpt><trkpt lat="43.84957090248035" lon="7.612448321141336"><ele>233.0</ele><time>2026-03-29T10:01:33Z</time></trkpt><trkpt lat="43.849608438667445" lon="7.612334016628113"><ele>233.0</ele><time>2026-03-29T10:01:34Z</time></trkpt><trkpt lat="43.84965784789157" lon="7.6122271273343864"><ele>233.00000000000003</ele><time>2026-03-29T10:01:35Z</time></trkpt><trkpt lat="43.849709264194566" lon="7.612121064518515"><ele>233.0</ele><time>2026-03-29T10:01:36Z</time></trkpt><trkpt lat="43.84973870411369" lon="7.612009665322371"><ele>236.66666666666669</ele><time>2026-03-29T10:01:37Z</time></trkpt><trkpt lat="43.84975840370433" lon="7.611911393239977"><ele>240.33333333333334</ele><time>2026-03-29T10:01:38Z</time></trkpt><trkpt lat="43.84979253705936" lon="7.611829745046816"><ele>244.0</ele><time>2026-03-29T10:01:39Z</time></trkpt><trkpt lat="43.84984726566192" lon="7.611775082563934"><ele>247.66666666666669</ele><time>2026-03-29T10:01:40Z</time></trkpt><trkpt lat="43.84994290094674" lon="7.6118171710477185"><ele>251.33333333333334</ele><time>2026-03-29T10:01:42Z</time></trkpt><trkpt lat="43.84999514343656" lon="7.611870475498996"><ele>255.0</ele><time>2026-03-29T10:01:43Z</time></trkpt><trkpt lat="43.85007779245716" lon="7.611925517097519"><ele>255.5</ele><time>2026-03-29T10:01:44Z</time></trkpt><trkpt lat="43.850152522814625" lon="7.611931818221593"><ele>256.0</ele><time>2026-03-29T10:01:45Z</time></trkpt><trkpt lat="43.850228563547695" lon="7.611939553990866"><ele>256.5</ele><time>2026-03-29T10:01:46Z</time></trkpt><trkpt lat="43.850314885023664" lon="7.611934333012731"><ele>257.0</ele><time>2026-03-29T10:01:47Z</time></trkpt><trkpt lat="43.85039738748265" lon="7.611918560019013"><ele>257.5</ele><time>2026-03-29T10:01:48Z</time></trkpt><trkpt lat="43.850489131583075" lon="7.611902920899428"><ele>258.0</ele><time>2026-03-29T10:01:49Z</time></trkpt><trkpt lat="43.850585067374716" lon="7.6118809748295275"><ele>258.0</ele><time>2026-03-29T10:01:50Z</time></trkpt><trkpt lat="43.85067927200996" lon="7.611856075043616"><ele>258.0</ele><time>2026-03-29T10:01:51Z</time></trkpt><trkpt lat="43.85075466410012" lon="7.611825142361208"><ele>258.0</ele><time>2026-03-29T10:01:52Z</time></trkpt><trkpt lat="43.850823277783235" lon="7.611782530392942"><ele>258.0</ele><time>2026-03-29T10:01:53Z</time></trkpt><trkpt lat="43.85088880919343" lon="7.611720078468483"><ele>258.0</ele><time>2026-03-29T10:01:54Z</time></trkpt><trkpt lat="43.85094026260579" lon="7.6116596421905065"><ele>258.0</ele><time>2026-03-29T10:01:55Z</time></trkpt><trkpt lat="43.85103090406278" lon="7.611658790880695"><ele>259.3333333333333</ele><time>2026-03-29T10:01:57Z</time></trkpt><trkpt lat="43.85110412887369" lon="7.611707471518129"><ele>260.6666666666667</ele><time>2026-03-29T10:01:59Z</time></trkpt><trkpt lat="43.851163563301554" lon="7.611747104488808"><ele>262.0</ele><time>2026-03-29T10:02:01Z</time></trkpt><trkpt lat="43.85122546663746" lon="7.611780866264958"><ele>263.33333333333337</ele><time>2026-03-29T10:04:40Z</time></trkpt><trkpt lat="43.851287543284165" lon="7.6118198098027925"><ele>264.6666666666667</ele><time>2026-03-29T10:04:42Z</time></trkpt><trkpt lat="43.85136029759067" lon="7.611869422937389"><ele>266.0</ele><time>2026-03-29T10:04:44Z</time></trkpt><trkpt lat="43.85145538860894" lon="7.611951569779831"><ele>268.40000000000003</ele><time>2026-03-29T10:04:46Z</time></trkpt><trkpt lat="43.851526378285335" lon="7.612069666566298"><ele>270.8</ele><time>2026-03-29T10:04:48Z</time></trkpt><trkpt lat="43.85163245206089" lon="7.612120490825745"><ele>273.20000000000005</ele><time>2026-03-29T10:04:50Z</time></trkpt><trkpt lat="43.851760177425405" lon="7.612117928696312"><ele>275.6</ele><time>2026-03-29T10:04:52Z</time></trkpt><trkpt lat="43.85183097310639" lon="7.612122609127111"><ele>278.0</ele><time>2026-03-29T10:04:53Z</time></trkpt><trkpt lat="43.85192789904895" lon="7.6121327028350425"><ele>278.0</ele><time>2026-03-29T10:04:55Z</time></trkpt><trkpt lat="43.85194767038846" lon="7.612223343376553"><ele>278.0</ele><time>2026-03-29T10:04:57Z</time></trkpt><trkpt lat="43.851922023617824" lon="7.612349441399892"><ele>278.0</ele><time>2026-03-29T10:05:00Z</time></trkpt><trkpt lat="43.85192061468267" lon="7.6124415653108075"><ele>278.0</ele><time>2026-03-29T10:05:03Z</time></trkpt><trkpt lat="43.85189492328975" lon="7.612555486231373"><ele>278.0</ele><time>2026-03-29T10:05:07Z</time></trkpt><trkpt lat="43.85188376113226" lon="7.6126611441308425"><ele>278.0</ele><time>2026-03-29T10:05:10Z</time></trkpt><trkpt lat="43.85189317591978" lon="7.612788179483516"><ele>277.0</ele><time>2026-03-29T10:05:24Z</time></trkpt><trkpt lat="43.851902208508264" lon="7.612882137667603"><ele>276.0</ele><time>2026-03-29T10:05:25Z</time></trkpt><trkpt lat="43.85191673826614" lon="7.612982320174635"><ele>275.0</ele><time>2026-03-29T10:05:26Z</time></trkpt><trkpt lat="43.851935069621696" lon="7.6130808714487745"><ele>274.0</ele><time>2026-03-29T10:05:27Z</time></trkpt><trkpt lat="43.851956017261756" lon="7.6132039507871285"><ele>273.0</ele><time>2026-03-29T10:05:28Z</time></trkpt><trkpt lat="43.851959615600066" lon="7.613319383062775"><ele>272.0</ele><time>2026-03-29T10:05:29Z</time></trkpt><trkpt lat="43.85194876031795" lon="7.6134358193099585"><ele>272.0</ele><time>2026-03-29T10:05:30Z</time></trkpt><trkpt lat="43.85194554504282" lon="7.6135706755645"><ele>272.0</ele><time>2026-03-29T10:05:31Z</time></trkpt><trkpt lat="43.85195863182526" lon="7.613706320814129"><ele>272.0</ele><time>2026-03-29T10:05:32Z</time></trkpt><trkpt lat="43.851993687386766" lon="7.613839882351737"><ele>272.0</ele><time>2026-03-29T10:05:33Z</time></trkpt><trkpt lat="43.85204226404833" lon="7.613963889165211"><ele>272.0</ele><time>2026-03-29T10:05:34Z</time></trkpt><trkpt lat="43.85209087107262" lon="7.614082057044542"><ele>271.2</ele><time>2026-03-29T10:05:35Z</time></trkpt><trkpt lat="43.852134875372336" lon="7.614196271394314"><ele>270.4</ele><time>2026-03-29T10:05:36Z</time></trkpt><trkpt lat="43.85217634295346" lon="7.614317432194208"><ele>269.6</ele><time>2026-03-29T10:05:37Z</time></trkpt><trkpt lat="43.85223346571334" lon="7.614445287904321"><ele>268.8</ele><time>2026-03-29T10:05:38Z</time></trkpt><trkpt lat="43.852292457620635" lon="7.614569531881147"><ele>268.0</ele><time>2026-03-29T10:05:39Z</time></trkpt><trkpt lat="43.852349432426145" lon="7.614683660548833"><ele>266.3333333333333</ele><time>2026-03-29T10:05:40Z</time></trkpt><trkpt lat="43.852385810020536" lon="7.614795172342126"><ele>264.66666666666663</ele><time>2026-03-29T10:05:41Z</time></trkpt><trkpt lat="43.85242984084648" lon="7.614891442427845"><ele>263.0</ele><time>2026-03-29T10:05:42Z</time></trkpt><trkpt lat="43.85247575204236" lon="7.614989454952252"><ele>261.3333333333333</ele><time>2026-03-29T10:05:43Z</time></trkpt><trkpt lat="43.85252611048971" lon="7.615093025822136"><ele>259.6666666666667</ele><time>2026-03-29T10:05:44Z</time></trkpt><trkpt lat="43.8525893202902" lon="7.61520224162396"><ele>258.0</ele><time>2026-03-29T10:05:45Z</time></trkpt><trkpt lat="43.852669253337815" lon="7.615280874290628"><ele>259.0</ele><time>2026-03-29T10:05:46Z</time></trkpt><trkpt lat="43.852727884433456" lon="7.615382578850249"><ele>260.0</ele><time>2026-03-29T10:05:47Z</time></trkpt><trkpt lat="43.852791905319116" lon="7.615466298762728"><ele>261.0</ele><time>2026-03-29T10:05:48Z</time></trkpt><trkpt lat="43.852862403175166" lon="7.615557014866761"><ele>262.0</ele><time>2026-03-29T10:05:49Z</time></trkpt><trkpt lat="43.852938750244626" lon="7.615624631096451"><ele>263.0</ele><time>2026-03-29T10:05:50Z</time></trkpt><trkpt lat="43.85300133810202" lon="7.615699243119209"><ele>263.0</ele><time>2026-03-29T10:05:51Z</time></trkpt><trkpt lat="43.853059419346714" lon="7.615772002779685"><ele>263.0</ele><time>2026-03-29T10:05:52Z</time></trkpt><trkpt lat="43.85315099765247" lon="7.6158164109367235"><ele>263.0</ele><time>2026-03-29T10:05:53Z</time></trkpt><trkpt lat="43.853241264706085" lon="7.615845362285051"><ele>263.0</ele><time>2026-03-29T10:05:54Z</time></trkpt><trkpt lat="43.85334665276172" lon="7.615873111833108"><ele>263.0</ele><time>2026-03-29T10:05:55Z</time></trkpt><trkpt lat="43.853448733338205" lon="7.61588826621143"><ele>265.4</ele><time>2026-03-29T10:05:56Z</time></trkpt><trkpt lat="43.85354594190398" lon="7.61589020755074"><ele>267.8</ele><time>2026-03-29T10:05:57Z</time></trkpt><trkpt lat="43.853641727190364" lon="7.615890207547544"><ele>270.2</ele><time>2026-03-29T10:05:58Z</time></trkpt><trkpt lat="43.85373836744519" lon="7.615891149689021"><ele>272.6</ele><time>2026-03-29T10:05:59Z</time></trkpt><trkpt lat="43.85383047682655" lon="7.61589381043472"><ele>275.0</ele><time>2026-03-29T10:06:00Z</time></trkpt><trkpt lat="43.85392125040912" lon="7.615907538084798"><ele>275.0</ele><time>2026-03-29T10:06:01Z</time></trkpt><trkpt lat="43.85401102335117" lon="7.615943481740196"><ele>275.0</ele><time>2026-03-29T10:06:02Z</time></trkpt><trkpt lat="43.85409459463829" lon="7.615992577142272"><ele>275.0</ele><time>2026-03-29T10:06:03Z</time></trkpt><trkpt lat="43.85416035619488" lon="7.616062801935958"><ele>275.0</ele><time>2026-03-29T10:06:04Z</time></trkpt><trkpt lat="43.85423068620778" lon="7.616128042831472"><ele>275.0</ele><time>2026-03-29T10:06:05Z</time></trkpt><trkpt lat="43.85430460901178" lon="7.616166202506143"><ele>275.0</ele><time>2026-03-29T10:06:06Z</time></trkpt><trkpt lat="43.85438934846583" lon="7.616146701224273"><ele>274.0</ele><time>2026-03-29T10:06:07Z</time></trkpt><trkpt lat="43.85447854307473" lon="7.616071448362288"><ele>273.0</ele><time>2026-03-29T10:06:08Z</time></trkpt><trkpt lat="43.854550099137015" lon="7.615970233470247"><ele>272.0</ele><time>2026-03-29T10:06:09Z</time></trkpt><trkpt lat="43.8546345799719" lon="7.615883305715677"><ele>271.0</ele><time>2026-03-29T10:06:10Z</time></trkpt><trkpt lat="43.85472074292337" lon="7.615779720520227"><ele>270.0</ele><time>2026-03-29T10:06:11Z</time></trkpt><trkpt lat="43.85480036249551" lon="7.6156738257875505"><ele>270.0</ele><time>2026-03-29T10:06:12Z</time></trkpt><trkpt lat="43.85487453749198" lon="7.6155727903400425"><ele>270.0</ele><time>2026-03-29T10:06:13Z</time></trkpt><trkpt lat="43.85494546112032" lon="7.615472153094899"><ele>270.0</ele><time>2026-03-29T10:06:14Z</time></trkpt><trkpt lat="43.855014708359484" lon="7.6153695621348385"><ele>270.0</ele><time>2026-03-29T10:06:15Z</time></trkpt><trkpt lat="43.855082124437644" lon="7.615272134654946"><ele>270.0</ele><time>2026-03-29T10:06:16Z</time></trkpt><trkpt lat="43.85515437420463" lon="7.615186714076135"><ele>272.8</ele><time>2026-03-29T10:06:17Z</time></trkpt><trkpt lat="43.855235220312736" lon="7.615104531721936"><ele>275.6</ele><time>2026-03-29T10:06:18Z</time></trkpt><trkpt lat="43.85532282276544" lon="7.615025734884275"><ele>278.4</ele><time>2026-03-29T10:06:19Z</time></trkpt><trkpt lat="43.85541339579329" lon="7.615002332275031"><ele>281.2</ele><time>2026-03-29T10:06:20Z</time></trkpt><trkpt lat="43.85550240212316" lon="7.6149746524801545"><ele>284.0</ele><time>2026-03-29T10:06:21Z</time></trkpt><trkpt lat="43.85560316793391" lon="7.614935750750685"><ele>284.0</ele><time>2026-03-29T10:06:22Z</time></trkpt><trkpt lat="43.8557056579525" lon="7.614912985791767"><ele>284.0</ele><time>2026-03-29T10:06:23Z</time></trkpt><trkpt lat="43.85579891317008" lon="7.614886446113945"><ele>284.0</ele><time>2026-03-29T10:06:24Z</time></trkpt><trkpt lat="43.85588021255443" lon="7.614839515411176"><ele>284.0</ele><time>2026-03-29T10:06:25Z</time></trkpt><trkpt lat="43.85596287774579" lon="7.6148073787653905"><ele>284.0</ele><time>2026-03-29T10:06:26Z</time></trkpt><trkpt lat="43.85603646359897" lon="7.614737471041423"><ele>285.83333333333337</ele><time>2026-03-29T10:06:27Z</time></trkpt><trkpt lat="43.85609834995342" lon="7.614642505423237"><ele>287.6666666666667</ele><time>2026-03-29T10:06:28Z</time></trkpt><trkpt lat="43.856145044895335" lon="7.614544175606334"><ele>289.5</ele><time>2026-03-29T10:06:29Z</time></trkpt><trkpt lat="43.856175645327774" lon="7.614467314665731"><ele>291.3333333333333</ele><time>2026-03-29T10:06:30Z</time></trkpt><trkpt lat="43.856222435912905" lon="7.614349514860743"><ele>293.16666666666663</ele><time>2026-03-29T10:06:32Z</time></trkpt><trkpt lat="43.85625468465154" lon="7.614268325550982"><ele>295.0</ele><time>2026-03-29T10:06:33Z</time></trkpt><trkpt lat="43.85629298259296" lon="7.614171906695578"><ele>295.0</ele><time>2026-03-29T10:06:34Z</time></trkpt><trkpt lat="43.85633302284662" lon="7.61407350258792"><ele>295.0</ele><time>2026-03-29T10:06:35Z</time></trkpt><trkpt lat="43.85637859561503" lon="7.6139887420279635"><ele>295.0</ele><time>2026-03-29T10:06:36Z</time></trkpt><trkpt lat="43.85644100965792" lon="7.613928578111502"><ele>295.0</ele><time>2026-03-29T10:06:37Z</time></trkpt><trkpt lat="43.85651838611216" lon="7.613876944181412"><ele>295.0</ele><time>2026-03-29T10:06:38Z</time></trkpt><trkpt lat="43.856606086342204" lon="7.613830461750724"><ele>295.0</ele><time>2026-03-29T10:06:39Z</time></trkpt><trkpt lat="43.85670193505251" lon="7.613782764053334"><ele>294.5</ele><time>2026-03-29T10:06:40Z</time></trkpt><trkpt lat="43.856798952501755" lon="7.613735599939832"><ele>294.0</ele><time>2026-03-29T10:06:41Z</time></trkpt><trkpt lat="43.85688184327396" lon="7.6136707748531265"><ele>293.5</ele><time>2026-03-29T10:06:42Z</time></trkpt><trkpt lat="43.856957918058285" lon="7.613640904027703"><ele>293.0</ele><time>2026-03-29T10:06:43Z</time></trkpt><trkpt lat="43.85702934260927" lon="7.613616636201835"><ele>292.5</ele><time>2026-03-29T10:06:44Z</time></trkpt><trkpt lat="43.85710104513765" lon="7.613646110445701"><ele>292.0</ele><time>2026-03-29T10:06:45Z</time></trkpt><trkpt lat="43.85718540510663" lon="7.613680087972481"><ele>292.0</ele><time>2026-03-29T10:06:46Z</time></trkpt><trkpt lat="43.857280102148856" lon="7.61368226933706"><ele>292.0</ele><time>2026-03-29T10:06:47Z</time></trkpt><trkpt lat="43.857382061001076" lon="7.613687429790203"><ele>292.0</ele><time>2026-03-29T10:06:48Z</time></trkpt><trkpt lat="43.85749054208064" lon="7.613664849623799"><ele>292.0</ele><time>2026-03-29T10:06:49Z</time></trkpt><trkpt lat="43.85759466532312" lon="7.6136307205293425"><ele>292.0</ele><time>2026-03-29T10:06:50Z</time></trkpt><trkpt lat="43.857692696114356" lon="7.6136073671397195"><ele>297.6</ele><time>2026-03-29T10:06:51Z</time></trkpt><trkpt lat="43.85778219889966" lon="7.613585407518759"><ele>303.2</ele><time>2026-03-29T10:06:52Z</time></trkpt><trkpt lat="43.85786785071599" lon="7.613570614935377"><ele>308.8</ele><time>2026-03-29T10:06:53Z</time></trkpt><trkpt lat="43.85795346742131" lon="7.613554755186352"><ele>314.4</ele><time>2026-03-29T10:06:54Z</time></trkpt><trkpt lat="43.858042393789546" lon="7.613518117608028"><ele>320.0</ele><time>2026-03-29T10:06:55Z</time></trkpt><trkpt lat="43.85812535128059" lon="7.613441706141849"><ele>320.0</ele><time>2026-03-29T10:06:56Z</time></trkpt><trkpt lat="43.85820272248792" lon="7.613353339695197"><ele>320.0</ele><time>2026-03-29T10:06:57Z</time></trkpt><trkpt lat="43.85826549501207" lon="7.613282337689246"><ele>320.0</ele><time>2026-03-29T10:06:58Z</time></trkpt><trkpt lat="43.85836480097213" lon="7.61323833904639"><ele>320.0</ele><time>2026-03-29T10:07:00Z</time></trkpt><trkpt lat="43.85841782106039" lon="7.6133013880824185"><ele>320.0</ele><time>2026-03-29T10:07:01Z</time></trkpt><trkpt lat="43.858458025480715" lon="7.613390150302127"><ele>320.0</ele><time>2026-03-29T10:07:02Z</time></trkpt><trkpt lat="43.85850409742091" lon="7.6134956195256995"><ele>320.2</ele><time>2026-03-29T10:07:03Z</time></trkpt><trkpt lat="43.85855933198156" lon="7.613607987050306"><ele>320.4</ele><time>2026-03-29T10:07:04Z</time></trkpt><trkpt lat="43.85862082248573" lon="7.613703075393923"><ele>320.6</ele><time>2026-03-29T10:07:05Z</time></trkpt><trkpt lat="43.85867247297439" lon="7.613810814569405"><ele>320.8</ele><time>2026-03-29T10:07:06Z</time></trkpt><trkpt lat="43.85871268220628" lon="7.613893351663109"><ele>321.0</ele><time>2026-03-29T10:07:07Z</time></trkpt><trkpt lat="43.858798556675765" lon="7.6139629144531575"><ele>321.0</ele><time>2026-03-29T10:07:08Z</time></trkpt><trkpt lat="43.858897030390324" lon="7.614016679272073"><ele>321.0</ele><time>2026-03-29T10:07:09Z</time></trkpt><trkpt lat="43.85899045555556" lon="7.614083663620658"><ele>321.0</ele><time>2026-03-29T10:07:10Z</time></trkpt><trkpt lat="43.859091686323744" lon="7.614141197578785"><ele>321.0</ele><time>2026-03-29T10:07:11Z</time></trkpt><trkpt lat="43.8591856781668" lon="7.61417146472538"><ele>321.0</ele><time>2026-03-29T10:07:12Z</time></trkpt><trkpt lat="43.85928279238005" lon="7.614181820831108"><ele>321.6</ele><time>2026-03-29T10:07:13Z</time></trkpt><trkpt lat="43.85936557086385" lon="7.614253215238952"><ele>322.20000000000005</ele><time>2026-03-29T10:07:14Z</time></trkpt><trkpt lat="43.859450476407474" lon="7.614319638611392"><ele>322.79999999999995</ele><time>2026-03-29T10:07:15Z</time></trkpt><trkpt lat="43.8595277075115" lon="7.614398161279919"><ele>323.4</ele><time>2026-03-29T10:07:16Z</time></trkpt><trkpt lat="43.85959553390973" lon="7.614480879230152"><ele>324.0</ele><time>2026-03-29T10:07:17Z</time></trkpt><trkpt lat="43.85965118550366" lon="7.614560049616307"><ele>324.0</ele><time>2026-03-29T10:07:18Z</time></trkpt><trkpt lat="43.85970840303179" lon="7.614599093583982"><ele>324.0</ele><time>2026-03-29T10:07:19Z</time></trkpt><trkpt lat="43.8597770850843" lon="7.614628991389893"><ele>324.0</ele><time>2026-03-29T10:07:20Z</time></trkpt><trkpt lat="43.85986591542916" lon="7.61459523549588"><ele>324.0</ele><time>2026-03-29T10:07:21Z</time></trkpt><trkpt lat="43.85996130660044" lon="7.614525207542689"><ele>324.0</ele><time>2026-03-29T10:07:22Z</time></trkpt><trkpt lat="43.86003467022335" lon="7.614466200539911"><ele>324.0</ele><time>2026-03-29T10:07:23Z</time></trkpt><trkpt lat="43.860071571133794" lon="7.614384788451606"><ele>324.0</ele><time>2026-03-29T10:07:24Z</time></trkpt><trkpt lat="43.86005411198003" lon="7.61421012300278"><ele>324.0</ele><time>2026-03-29T10:07:26Z</time></trkpt><trkpt lat="43.86001413045664" lon="7.614120626044901"><ele>324.0</ele><time>2026-03-29T10:07:27Z</time></trkpt><trkpt lat="43.85996948297725" lon="7.614028113058694"><ele>324.0</ele><time>2026-03-29T10:07:28Z</time></trkpt><trkpt lat="43.8599045354371" lon="7.613945786957722"><ele>324.0</ele><time>2026-03-29T10:07:29Z</time></trkpt><trkpt lat="43.85982974458799" lon="7.613876604464159"><ele>324.0</ele><time>2026-03-29T10:07:30Z</time></trkpt><trkpt lat="43.859764458010076" lon="7.613803467299797"><ele>324.0</ele><time>2026-03-29T10:07:31Z</time></trkpt><trkpt lat="43.8597173760435" lon="7.613719501262297"><ele>324.0</ele><time>2026-03-29T10:07:32Z</time></trkpt><trkpt lat="43.859697444020576" lon="7.613596157760489"><ele>324.0</ele><time>2026-03-29T10:07:34Z</time></trkpt><trkpt lat="43.85970145872405" lon="7.6134801881831695"><ele>324.0</ele><time>2026-03-29T10:07:37Z</time></trkpt><trkpt lat="43.85963019515768" lon="7.613417114560228"><ele>324.0</ele><time>2026-03-29T10:07:38Z</time></trkpt><trkpt lat="43.859573886834646" lon="7.6133421625764965"><ele>326.0</ele><time>2026-03-29T10:07:39Z</time></trkpt><trkpt lat="43.85952498892803" lon="7.6132635372744035"><ele>328.0</ele><time>2026-03-29T10:07:40Z</time></trkpt><trkpt lat="43.859461649806434" lon="7.6131929622498955"><ele>330.0</ele><time>2026-03-29T10:07:41Z</time></trkpt><trkpt lat="43.85939644153854" lon="7.613112103408768"><ele>332.0</ele><time>2026-03-29T10:07:42Z</time></trkpt><trkpt lat="43.859330333510506" lon="7.61302727777976"><ele>334.0</ele><time>2026-03-29T10:07:43Z</time></trkpt><trkpt lat="43.85926517769499" lon="7.612947981019436"><ele>336.0</ele><time>2026-03-29T10:07:44Z</time></trkpt><trkpt lat="43.859202666708995" lon="7.612856825671323"><ele>338.4</ele><time>2026-03-29T10:07:45Z</time></trkpt><trkpt lat="43.85915754478779" lon="7.612760786051632"><ele>340.8</ele><time>2026-03-29T10:07:46Z</time></trkpt><trkpt lat="43.859129306365695" lon="7.612639303839443"><ele>343.2</ele><time>2026-03-29T10:07:47Z</time></trkpt><trkpt lat="43.859111495548724" lon="7.612494909954575"><ele>345.59999999999997</ele><time>2026-03-29T10:07:48Z</time></trkpt><trkpt lat="43.85909177042024" lon="7.612353824059123"><ele>348.0</ele><time>2026-03-29T10:07:49Z</time></trkpt><trkpt lat="43.85906157451273" lon="7.612231702457241"><ele>348.0</ele><time>2026-03-29T10:07:50Z</time></trkpt><trkpt lat="43.8590131931928" lon="7.612140608393784"><ele>348.0</ele><time>2026-03-29T10:07:51Z</time></trkpt><trkpt lat="43.85896479169046" lon="7.612068944454076"><ele>348.0</ele><time>2026-03-29T10:07:52Z</time></trkpt><trkpt lat="43.858855472710644" lon="7.611985903704899"><ele>348.0</ele><time>2026-03-29T10:07:54Z</time></trkpt><trkpt lat="43.85877205667445" lon="7.611944279225257"><ele>348.0</ele><time>2026-03-29T10:07:55Z</time></trkpt><trkpt lat="43.85867296966539" lon="7.611931980972282"><ele>346.5</ele><time>2026-03-29T10:07:56Z</time></trkpt><trkpt lat="43.85855989515258" lon="7.61195672738711"><ele>345.0</ele><time>2026-03-29T10:07:57Z</time></trkpt><trkpt lat="43.85844342803257" lon="7.612002651628432"><ele>343.5</ele><time>2026-03-29T10:07:58Z</time></trkpt><trkpt lat="43.85832885297529" lon="7.612037783485322"><ele>342.0</ele><time>2026-03-29T10:07:59Z</time></trkpt><trkpt lat="43.85822277164435" lon="7.6120652980397105"><ele>342.0</ele><time>2026-03-29T10:08:00Z</time></trkpt><trkpt lat="43.85811361113958" lon="7.612091998201975"><ele>342.0</ele><time>2026-03-29T10:08:01Z</time></trkpt><trkpt lat="43.858000875303475" lon="7.612120705584779"><ele>342.0</ele><time>2026-03-29T10:08:02Z</time></trkpt><trkpt lat="43.85788890295171" lon="7.612147667539086"><ele>342.0</ele><time>2026-03-29T10:08:03Z</time></trkpt><trkpt lat="43.85777577705643" lon="7.612167613283142"><ele>342.0</ele><time>2026-03-29T10:08:04Z</time></trkpt><trkpt lat="43.857659358731844" lon="7.612167540885314"><ele>342.0</ele><time>2026-03-29T10:08:05Z</time></trkpt><trkpt lat="43.85754415077226" lon="7.612162703740106"><ele>342.0</ele><time>2026-03-29T10:08:06Z</time></trkpt><trkpt lat="43.85743083077389" lon="7.612165580427705"><ele>342.0</ele><time>2026-03-29T10:08:07Z</time></trkpt><trkpt lat="43.857313129546064" lon="7.612173446987908"><ele>344.5</ele><time>2026-03-29T10:08:08Z</time></trkpt><trkpt lat="43.857193140010885" lon="7.612178173127862"><ele>347.0</ele><time>2026-03-29T10:08:09Z</time></trkpt><trkpt lat="43.85707268941996" lon="7.612177517854935"><ele>349.5</ele><time>2026-03-29T10:08:10Z</time></trkpt><trkpt lat="43.856950164796444" lon="7.6121770568415945"><ele>352.0</ele><time>2026-03-29T10:08:11Z</time></trkpt><trkpt lat="43.85683004125831" lon="7.612182886862986"><ele>354.0</ele><time>2026-03-29T10:08:12Z</time></trkpt><trkpt lat="43.856714752339684" lon="7.612206884011164"><ele>356.0</ele><time>2026-03-29T10:08:13Z</time></trkpt><trkpt lat="43.856603401814894" lon="7.61224851823381"><ele>358.0</ele><time>2026-03-29T10:08:14Z</time></trkpt><trkpt lat="43.85649792110206" lon="7.612315328841011"><ele>360.0</ele><time>2026-03-29T10:08:15Z</time></trkpt><trkpt lat="43.856393238954624" lon="7.612390308341305"><ele>360.0</ele><time>2026-03-29T10:08:16Z</time></trkpt><trkpt lat="43.856287980474875" lon="7.612457647576495"><ele>360.0</ele><time>2026-03-29T10:08:17Z</time></trkpt><trkpt lat="43.85618489187699" lon="7.612526647556919"><ele>360.0</ele><time>2026-03-29T10:08:18Z</time></trkpt><trkpt lat="43.856085221453455" lon="7.612598184289204"><ele>360.0</ele><time>2026-03-29T10:08:19Z</time></trkpt><trkpt lat="43.85598862603726" lon="7.612671358699739"><ele>359.0</ele><time>2026-03-29T10:08:20Z</time></trkpt><trkpt lat="43.85589453529517" lon="7.612742655541977"><ele>358.0</ele><time>2026-03-29T10:08:21Z</time></trkpt><trkpt lat="43.85581409324953" lon="7.6128005277467174"><ele>357.0</ele><time>2026-03-29T10:08:22Z</time></trkpt><trkpt lat="43.855745947222076" lon="7.612844365542401"><ele>356.0</ele><time>2026-03-29T10:08:23Z</time></trkpt><trkpt lat="43.855674212333724" lon="7.612875379381099"><ele>355.0</ele><time>2026-03-29T10:08:24Z</time></trkpt><trkpt lat="43.85559964101586" lon="7.612865444285724"><ele>354.0</ele><time>2026-03-29T10:08:25Z</time></trkpt><trkpt lat="43.85553198601442" lon="7.61281509079031"><ele>358.6</ele><time>2026-03-29T10:08:26Z</time></trkpt><trkpt lat="43.85548878158117" lon="7.612710385252243"><ele>363.2</ele><time>2026-03-29T10:08:27Z</time></trkpt><trkpt lat="43.855475601740984" lon="7.612568140479718"><ele>367.8</ele><time>2026-03-29T10:08:28Z</time></trkpt><trkpt lat="43.855473690960494" lon="7.612421065927062"><ele>372.40000000000003</ele><time>2026-03-29T10:08:29Z</time></trkpt><trkpt lat="43.855458450264585" lon="7.612267431433631"><ele>377.0</ele><time>2026-03-29T10:08:30Z</time></trkpt><trkpt lat="43.85544049147312" lon="7.612122972366269"><ele>380.0</ele><time>2026-03-29T10:08:31Z</time></trkpt><trkpt lat="43.855424451603" lon="7.6119728411287575"><ele>383.0</ele><time>2026-03-29T10:08:32Z</time></trkpt><trkpt lat="43.85541014296169" lon="7.611822943078612"><ele>386.0</ele><time>2026-03-29T10:08:33Z</time></trkpt><trkpt lat="43.855395411887336" lon="7.61167370848564"><ele>389.0</ele><time>2026-03-29T10:08:34Z</time></trkpt><trkpt lat="43.855381746010046" lon="7.611524396916119"><ele>392.0</ele><time>2026-03-29T10:08:35Z</time></trkpt><trkpt lat="43.85536667588132" lon="7.611373626409123"><ele>392.0</ele><time>2026-03-29T10:08:36Z</time></trkpt><trkpt lat="43.85535237787904" lon="7.611227000216486"><ele>392.0</ele><time>2026-03-29T10:08:37Z</time></trkpt><trkpt lat="43.85533937145435" lon="7.611080395858784"><ele>392.0</ele><time>2026-03-29T10:08:38Z</time></trkpt><trkpt lat="43.85533677834957" lon="7.6109314942149755"><ele>392.0</ele><time>2026-03-29T10:08:39Z</time></trkpt><trkpt lat="43.85533514343466" lon="7.610777502315847"><ele>392.0</ele><time>2026-03-29T10:08:40Z</time></trkpt><trkpt lat="43.85533003087184" lon="7.610617500421817"><ele>393.25</ele><time>2026-03-29T10:08:41Z</time></trkpt><trkpt lat="43.85532418751921" lon="7.610452421695721"><ele>394.5</ele><time>2026-03-29T10:08:42Z</time></trkpt><trkpt lat="43.8553179949185" lon="7.610284343632068"><ele>395.75</ele><time>2026-03-29T10:08:43Z</time></trkpt><trkpt lat="43.855309220334476" lon="7.610116338597952"><ele>397.0</ele><time>2026-03-29T10:08:44Z</time></trkpt><trkpt lat="43.85530423988722" lon="7.609944478947918"><ele>398.25</ele><time>2026-03-29T10:08:45Z</time></trkpt><trkpt lat="43.85529732548287" lon="7.609779352456323"><ele>399.5</ele><time>2026-03-29T10:08:46Z</time></trkpt><trkpt lat="43.85529175296471" lon="7.609610470958279"><ele>400.75</ele><time>2026-03-29T10:08:47Z</time></trkpt><trkpt lat="43.855287679446" lon="7.609438094206756"><ele>402.0</ele><time>2026-03-29T10:08:48Z</time></trkpt><trkpt lat="43.85528371319827" lon="7.609260471630247"><ele>403.0</ele><time>2026-03-29T10:08:49Z</time></trkpt><trkpt lat="43.85528043053062" lon="7.609091497939613"><ele>404.0</ele><time>2026-03-29T10:08:50Z</time></trkpt><trkpt lat="43.855279088088245" lon="7.608937901104825"><ele>405.0</ele><time>2026-03-29T10:08:51Z</time></trkpt><trkpt lat="43.855275629434544" lon="7.608807878926375"><ele>406.0</ele><time>2026-03-29T10:08:52Z</time></trkpt><trkpt lat="43.85527023984348" lon="7.608693791247274"><ele>407.0</ele><time>2026-03-29T10:08:53Z</time></trkpt><trkpt lat="43.85526469019146" lon="7.608573032775535"><ele>408.40000000000003</ele><time>2026-03-29T10:08:54Z</time></trkpt><trkpt lat="43.85525630231613" lon="7.6084441655637"><ele>409.8</ele><time>2026-03-29T10:08:55Z</time></trkpt><trkpt lat="43.855237054547636" lon="7.608316188743968"><ele>411.2</ele><time>2026-03-29T10:08:56Z</time></trkpt><trkpt lat="43.855202534677375" lon="7.608192456486798"><ele>412.6</ele><time>2026-03-29T10:08:57Z</time></trkpt><trkpt lat="43.85516577079139" lon="7.608079163276868"><ele>414.0</ele><time>2026-03-29T10:08:58Z</time></trkpt><trkpt lat="43.85512457112913" lon="7.607978292588857"><ele>411.1666666666667</ele><time>2026-03-29T10:08:59Z</time></trkpt><trkpt lat="43.855091192714845" lon="7.6078811578312315"><ele>408.33333333333337</ele><time>2026-03-29T10:09:00Z</time></trkpt><trkpt lat="43.85507959701697" lon="7.6077692556430945"><ele>405.5</ele><time>2026-03-29T10:09:01Z</time></trkpt><trkpt lat="43.855051260525876" lon="7.6076504715452495"><ele>402.6666666666667</ele><time>2026-03-29T10:09:02Z</time></trkpt><trkpt lat="43.85506030388977" lon="7.607520874610101"><ele>399.83333333333337</ele><time>2026-03-29T10:09:03Z</time></trkpt><trkpt lat="43.855037024024725" lon="7.607397102112666"><ele>397.0</ele><time>2026-03-29T10:09:04Z</time></trkpt><trkpt lat="43.85502374473616" lon="7.607275497590969"><ele>397.00000000000006</ele><time>2026-03-29T10:09:05Z</time></trkpt><trkpt lat="43.854986095422255" lon="7.607170138564435"><ele>397.0</ele><time>2026-03-29T10:09:06Z</time></trkpt><trkpt lat="43.85492127647161" lon="7.607090490687441"><ele>397.0</ele><time>2026-03-29T10:09:07Z</time></trkpt><trkpt lat="43.85483333078118" lon="7.6070548060850145"><ele>397.0</ele><time>2026-03-29T10:09:08Z</time></trkpt><trkpt lat="43.85474304131183" lon="7.607035509143868"><ele>397.00000000000006</ele><time>2026-03-29T10:09:09Z</time></trkpt><trkpt lat="43.854664049324086" lon="7.607017885229632"><ele>397.0</ele><time>2026-03-29T10:09:10Z</time></trkpt><trkpt lat="43.854591742227875" lon="7.6070096938751455"><ele>397.0</ele><time>2026-03-29T10:09:11Z</time></trkpt><trkpt lat="43.85451485188606" lon="7.607002256495144"><ele>397.0</ele><time>2026-03-29T10:09:12Z</time></trkpt><trkpt lat="43.85441858832136" lon="7.607012965565874"><ele>397.0</ele><time>2026-03-29T10:09:13Z</time></trkpt><trkpt lat="43.854313074150106" lon="7.607021193946111"><ele>397.0</ele><time>2026-03-29T10:09:14Z</time></trkpt><trkpt lat="43.85420057666632" lon="7.607032876524879"><ele>397.0</ele><time>2026-03-29T10:09:15Z</time></trkpt><trkpt lat="43.85409517953243" lon="7.607071243982226"><ele>395.6</ele><time>2026-03-29T10:09:16Z</time></trkpt><trkpt lat="43.85400178434042" lon="7.607150088154099"><ele>394.20000000000005</ele><time>2026-03-29T10:09:17Z</time></trkpt><trkpt lat="43.85392575004673" lon="7.607223445969394"><ele>392.8</ele><time>2026-03-29T10:09:18Z</time></trkpt><trkpt lat="43.85384970912365" lon="7.607268526933788"><ele>391.4</ele><time>2026-03-29T10:09:19Z</time></trkpt><trkpt lat="43.85376958489863" lon="7.607273557301746"><ele>390.0</ele><time>2026-03-29T10:09:20Z</time></trkpt><trkpt lat="43.85368718620742" lon="7.607216645983025"><ele>390.0</ele><time>2026-03-29T10:09:21Z</time></trkpt><trkpt lat="43.85360428989462" lon="7.60714278965094"><ele>390.0</ele><time>2026-03-29T10:09:22Z</time></trkpt><trkpt lat="43.85350754795524" lon="7.607077196741037"><ele>390.0</ele><time>2026-03-29T10:09:23Z</time></trkpt><trkpt lat="43.853431624474105" lon="7.606996222992174"><ele>390.0</ele><time>2026-03-29T10:09:24Z</time></trkpt><trkpt lat="43.85339676686905" lon="7.606877962242868"><ele>390.0</ele><time>2026-03-29T10:09:25Z</time></trkpt><trkpt lat="43.853336501895825" lon="7.606767423745262"><ele>394.6</ele><time>2026-03-29T10:09:26Z</time></trkpt><trkpt lat="43.8532857214152" lon="7.606641449234289"><ele>399.2</ele><time>2026-03-29T10:09:27Z</time></trkpt><trkpt lat="43.853213319901904" lon="7.606518730112978"><ele>403.79999999999995</ele><time>2026-03-29T10:09:28Z</time></trkpt><trkpt lat="43.853135994114346" lon="7.606408899812041"><ele>408.4</ele><time>2026-03-29T10:09:29Z</time></trkpt><trkpt lat="43.85305579508569" lon="7.606317170041087"><ele>413.0</ele><time>2026-03-29T10:09:30Z</time></trkpt><trkpt lat="43.85298437008711" lon="7.606223869511902"><ele>414.4</ele><time>2026-03-29T10:09:31Z</time></trkpt><trkpt lat="43.85291903530943" lon="7.606131522064565"><ele>415.79999999999995</ele><time>2026-03-29T10:09:32Z</time></trkpt><trkpt lat="43.85284958513763" lon="7.606044992213401"><ele>417.2</ele><time>2026-03-29T10:09:33Z</time></trkpt><trkpt lat="43.852767912631045" lon="7.6059956518678185"><ele>418.6</ele><time>2026-03-29T10:09:34Z</time></trkpt><trkpt lat="43.852668896795244" lon="7.605997088638184"><ele>420.0</ele><time>2026-03-29T10:09:35Z</time></trkpt><trkpt lat="43.85257964099715" lon="7.606008464394557"><ele>420.0</ele><time>2026-03-29T10:09:36Z</time></trkpt><trkpt lat="43.85250311823385" lon="7.605971772157612"><ele>420.0</ele><time>2026-03-29T10:09:37Z</time></trkpt><trkpt lat="43.85243383746014" lon="7.6058717096265225"><ele>420.0</ele><time>2026-03-29T10:09:38Z</time></trkpt><trkpt lat="43.85236170131153" lon="7.605769578995649"><ele>420.0</ele><time>2026-03-29T10:09:39Z</time></trkpt><trkpt lat="43.85227082251753" lon="7.605705306975011"><ele>420.0</ele><time>2026-03-29T10:09:40Z</time></trkpt><trkpt lat="43.85216625619538" lon="7.605665157374023"><ele>420.0</ele><time>2026-03-29T10:09:41Z</time></trkpt><trkpt lat="43.85207090770348" lon="7.6056245799726"><ele>420.0</ele><time>2026-03-29T10:09:42Z</time></trkpt><trkpt lat="43.85198890957332" lon="7.605583302742797"><ele>420.0</ele><time>2026-03-29T10:09:43Z</time></trkpt><trkpt lat="43.85191200942873" lon="7.605549823261681"><ele>420.0</ele><time>2026-03-29T10:09:44Z</time></trkpt><trkpt lat="43.85183954103834" lon="7.605515775744184"><ele>420.0</ele><time>2026-03-29T10:09:45Z</time></trkpt><trkpt lat="43.851768368042585" lon="7.605481121867195"><ele>420.0</ele><time>2026-03-29T10:09:46Z</time></trkpt><trkpt lat="43.85169046902681" lon="7.605441264479362"><ele>419.2</ele><time>2026-03-29T10:09:47Z</time></trkpt><trkpt lat="43.85160256061771" lon="7.605416301026293"><ele>418.4</ele><time>2026-03-29T10:09:48Z</time></trkpt><trkpt lat="43.85151045205893" lon="7.605430047868213"><ele>417.6</ele><time>2026-03-29T10:09:49Z</time></trkpt><trkpt lat="43.851415777064304" lon="7.605482570324457"><ele>416.8</ele><time>2026-03-29T10:09:50Z</time></trkpt><trkpt lat="43.85131957718402" lon="7.605549234753433"><ele>416.0</ele><time>2026-03-29T10:09:51Z</time></trkpt><trkpt lat="43.85122884194861" lon="7.605597889360925"><ele>415.99999999999994</ele><time>2026-03-29T10:09:52Z</time></trkpt><trkpt lat="43.851153388776936" lon="7.605634553492211"><ele>416.0</ele><time>2026-03-29T10:09:53Z</time></trkpt><trkpt lat="43.85108587959316" lon="7.605657718422775"><ele>416.0</ele><time>2026-03-29T10:09:54Z</time></trkpt><trkpt lat="43.851016370029804" lon="7.605671755495922"><ele>416.0</ele><time>2026-03-29T10:09:55Z</time></trkpt><trkpt lat="43.85092661169813" lon="7.605641117290573"><ele>415.99999999999994</ele><time>2026-03-29T10:09:57Z</time></trkpt><trkpt lat="43.85093530758914" lon="7.605541787315114"><ele>416.0</ele><time>2026-03-29T10:10:01Z</time></trkpt><trkpt lat="43.85097689629321" lon="7.605471715753192"><ele>415.99999999999994</ele><time>2026-03-29T10:10:06Z</time></trkpt><trkpt lat="43.85104659710489" lon="7.605430748672609"><ele>416.0</ele><time>2026-03-29T10:10:20Z</time></trkpt><trkpt lat="43.85112321952021" lon="7.605403948695178"><ele>416.0</ele><time>2026-03-29T10:10:28Z</time></trkpt><trkpt lat="43.851203368730616" lon="7.605385777205071"><ele>416.0</ele><time>2026-03-29T10:10:29Z</time></trkpt><trkpt lat="43.85128823163264" lon="7.605353718338233"><ele>415.99999999999994</ele><time>2026-03-29T10:10:30Z</time></trkpt><trkpt lat="43.8514109554998" lon="7.605330196965768"><ele>416.0</ele><time>2026-03-29T10:10:31Z</time></trkpt><trkpt lat="43.85152956326502" lon="7.60529408032715"><ele>420.6</ele><time>2026-03-29T10:10:32Z</time></trkpt><trkpt lat="43.85163930081404" lon="7.605252461522593"><ele>425.20000000000005</ele><time>2026-03-29T10:10:33Z</time></trkpt><trkpt lat="43.85174213753261" lon="7.605213537288687"><ele>429.79999999999995</ele><time>2026-03-29T10:10:34Z</time></trkpt><trkpt lat="43.85184918723761" lon="7.605203599675208"><ele>434.4</ele><time>2026-03-29T10:10:35Z</time></trkpt><trkpt lat="43.851946072700414" lon="7.605170599114587"><ele>439.0</ele><time>2026-03-29T10:10:36Z</time></trkpt><trkpt lat="43.8520324286447" lon="7.6051249768826"><ele>439.2</ele><time>2026-03-29T10:10:37Z</time></trkpt><trkpt lat="43.852127723259755" lon="7.605134761946895"><ele>439.4</ele><time>2026-03-29T10:10:38Z</time></trkpt><trkpt lat="43.85222094135114" lon="7.605139441709243"><ele>439.6</ele><time>2026-03-29T10:10:39Z</time></trkpt><trkpt lat="43.852327783111235" lon="7.6051367444904425"><ele>439.8</ele><time>2026-03-29T10:10:40Z</time></trkpt><trkpt lat="43.85244552202847" lon="7.605154647608495"><ele>440.0</ele><time>2026-03-29T10:10:41Z</time></trkpt><trkpt lat="43.852562450399134" lon="7.605162809285552"><ele>441.8</ele><time>2026-03-29T10:10:42Z</time></trkpt><trkpt lat="43.85267387373068" lon="7.605169905921279"><ele>443.6</ele><time>2026-03-29T10:10:43Z</time></trkpt><trkpt lat="43.852777062798296" lon="7.6051784314360855"><ele>445.4</ele><time>2026-03-29T10:10:44Z</time></trkpt><trkpt lat="43.852872601957046" lon="7.605185537777992"><ele>447.2</ele><time>2026-03-29T10:10:45Z</time></trkpt><trkpt lat="43.85296538641228" lon="7.605197313554496"><ele>449.0</ele><time>2026-03-29T10:10:46Z</time></trkpt><trkpt lat="43.85305802384016" lon="7.605208799714912"><ele>449.0</ele><time>2026-03-29T10:10:47Z</time></trkpt><trkpt lat="43.853143310261196" lon="7.605259199673167"><ele>449.0</ele><time>2026-03-29T10:10:48Z</time></trkpt><trkpt lat="43.85323501107249" lon="7.605298678543285"><ele>449.0</ele><time>2026-03-29T10:10:49Z</time></trkpt><trkpt lat="43.853339483767954" lon="7.605344718123989"><ele>449.0</ele><time>2026-03-29T10:10:50Z</time></trkpt><trkpt lat="43.85345155817033" lon="7.605383229992682"><ele>449.0</ele><time>2026-03-29T10:10:51Z</time></trkpt><trkpt lat="43.853547048419976" lon="7.6054509979462805"><ele>448.79999999999995</ele><time>2026-03-29T10:10:52Z</time></trkpt><trkpt lat="43.853642065521264" lon="7.605511838670503"><ele>448.59999999999997</ele><time>2026-03-29T10:10:53Z</time></trkpt><trkpt lat="43.85373589658067" lon="7.605588032414268"><ele>448.4</ele><time>2026-03-29T10:10:54Z</time></trkpt><trkpt lat="43.853838560458456" lon="7.6056509872935925"><ele>448.2</ele><time>2026-03-29T10:10:55Z</time></trkpt><trkpt lat="43.853932427593676" lon="7.605730087540123"><ele>448.0</ele><time>2026-03-29T10:10:56Z</time></trkpt><trkpt lat="43.854017231189225" lon="7.605794424470881"><ele>448.00000000000006</ele><time>2026-03-29T10:10:57Z</time></trkpt><trkpt lat="43.85409141610356" lon="7.605847020884455"><ele>448.0</ele><time>2026-03-29T10:10:58Z</time></trkpt><trkpt lat="43.8541630152945" lon="7.605894252171379"><ele>448.0</ele><time>2026-03-29T10:10:59Z</time></trkpt><trkpt lat="43.854241697434404" lon="7.605928562972733"><ele>448.0</ele><time>2026-03-29T10:11:00Z</time></trkpt><trkpt lat="43.85433042215382" lon="7.605935469632877"><ele>448.00000000000006</ele><time>2026-03-29T10:11:01Z</time></trkpt><trkpt lat="43.85441940823867" lon="7.605897409685464"><ele>448.0</ele><time>2026-03-29T10:11:02Z</time></trkpt><trkpt lat="43.85450654430205" lon="7.605825289183181"><ele>447.2</ele><time>2026-03-29T10:11:03Z</time></trkpt><trkpt lat="43.854588914910636" lon="7.6057330117781685"><ele>446.4</ele><time>2026-03-29T10:11:04Z</time></trkpt><trkpt lat="43.85468248817251" lon="7.605671872678921"><ele>445.59999999999997</ele><time>2026-03-29T10:11:05Z</time></trkpt><trkpt lat="43.854765313291395" lon="7.605606226988392"><ele>444.79999999999995</ele><time>2026-03-29T10:11:06Z</time></trkpt><trkpt lat="43.854856241091" lon="7.605564663130635"><ele>444.0</ele><time>2026-03-29T10:11:07Z</time></trkpt><trkpt lat="43.85496096734195" lon="7.605520946976767"><ele>444.0</ele><time>2026-03-29T10:11:08Z</time></trkpt><trkpt lat="43.85506402767861" lon="7.60547921645872"><ele>444.0</ele><time>2026-03-29T10:11:09Z</time></trkpt><trkpt lat="43.85516335099424" lon="7.605443295983842"><ele>444.0</ele><time>2026-03-29T10:11:10Z</time></trkpt><trkpt lat="43.85526363007222" lon="7.605414609430399"><ele>444.0</ele><time>2026-03-29T10:11:11Z</time></trkpt><trkpt lat="43.85536513621818" lon="7.605393927028447"><ele>444.0</ele><time>2026-03-29T10:11:12Z</time></trkpt><trkpt lat="43.85547269223876" lon="7.605376327283344"><ele>444.2</ele><time>2026-03-29T10:11:13Z</time></trkpt><trkpt lat="43.85558651179119" lon="7.605360198808502"><ele>444.4</ele><time>2026-03-29T10:11:14Z</time></trkpt><trkpt lat="43.85569171176932" lon="7.605347435482441"><ele>444.6</ele><time>2026-03-29T10:11:15Z</time></trkpt><trkpt lat="43.85578840519992" lon="7.605334534355557"><ele>444.8</ele><time>2026-03-29T10:11:16Z</time></trkpt><trkpt lat="43.85588290310638" lon="7.605320000857259"><ele>445.0</ele><time>2026-03-29T10:11:17Z</time></trkpt><trkpt lat="43.855975682410616" lon="7.60530896850211"><ele>448.50000000000006</ele><time>2026-03-29T10:11:18Z</time></trkpt><trkpt lat="43.856056416816614" lon="7.605300619980986"><ele>452.0</ele><time>2026-03-29T10:11:19Z</time></trkpt><trkpt lat="43.856125019866504" lon="7.605298206746218"><ele>455.5</ele><time>2026-03-29T10:11:20Z</time></trkpt><trkpt lat="43.85620053369182" lon="7.605308070787064"><ele>459.0</ele><time>2026-03-29T10:11:21Z</time></trkpt><trkpt lat="43.85628816266196" lon="7.605351140573617"><ele>462.50000000000006</ele><time>2026-03-29T10:11:22Z</time></trkpt><trkpt lat="43.85637465621056" lon="7.605392262561372"><ele>466.0</ele><time>2026-03-29T10:11:23Z</time></trkpt><trkpt lat="43.85645615215242" lon="7.605415745723627"><ele>466.00000000000006</ele><time>2026-03-29T10:11:24Z</time></trkpt><trkpt lat="43.85653094220168" lon="7.605467034256237"><ele>466.0</ele><time>2026-03-29T10:11:25Z</time></trkpt><trkpt lat="43.85660286757548" lon="7.605519076590897"><ele>466.0</ele><time>2026-03-29T10:11:26Z</time></trkpt><trkpt lat="43.85664583659361" lon="7.605608609719256"><ele>466.0</ele><time>2026-03-29T10:11:27Z</time></trkpt><trkpt lat="43.85668833898469" lon="7.605699751651278"><ele>466.00000000000006</ele><time>2026-03-29T10:11:28Z</time></trkpt><trkpt lat="43.85671729610473" lon="7.60581090091909"><ele>466.0</ele><time>2026-03-29T10:11:29Z</time></trkpt><trkpt lat="43.8567274337025" lon="7.605927975102646"><ele>466.0</ele><time>2026-03-29T10:11:30Z</time></trkpt><trkpt lat="43.85673553449741" lon="7.606061193607221"><ele>466.0</ele><time>2026-03-29T10:11:31Z</time></trkpt><trkpt lat="43.85671925178174" lon="7.606208163160978"><ele>466.0</ele><time>2026-03-29T10:11:32Z</time></trkpt><trkpt lat="43.8566954611366" lon="7.606338143391407"><ele>466.0</ele><time>2026-03-29T10:11:33Z</time></trkpt><trkpt lat="43.85669990936871" lon="7.606461585975247"><ele>466.0</ele><time>2026-03-29T10:11:34Z</time></trkpt><trkpt lat="43.85669602321906" lon="7.606557240498036"><ele>465.4</ele><time>2026-03-29T10:11:35Z</time></trkpt><trkpt lat="43.856750963086455" lon="7.606705434543655"><ele>464.8</ele><time>2026-03-29T10:11:37Z</time></trkpt><trkpt lat="43.85681189406656" lon="7.606786094114178"><ele>464.19999999999993</ele><time>2026-03-29T10:11:38Z</time></trkpt><trkpt lat="43.85689597687383" lon="7.606881246198677"><ele>463.59999999999997</ele><time>2026-03-29T10:11:39Z</time></trkpt><trkpt lat="43.856976181626145" lon="7.606997551194552"><ele>463.0</ele><time>2026-03-29T10:11:40Z</time></trkpt><trkpt lat="43.85706044879087" lon="7.607121982353781"><ele>465.4</ele><time>2026-03-29T10:11:41Z</time></trkpt><trkpt lat="43.85714090337728" lon="7.607237346140906"><ele>467.79999999999995</ele><time>2026-03-29T10:11:42Z</time></trkpt><trkpt lat="43.85721918942189" lon="7.607341563759502"><ele>470.2</ele><time>2026-03-29T10:11:43Z</time></trkpt><trkpt lat="43.85729084134158" lon="7.607440042067101"><ele>472.6</ele><time>2026-03-29T10:11:44Z</time></trkpt><trkpt lat="43.85735533995842" lon="7.607528650235773"><ele>475.0</ele><time>2026-03-29T10:11:45Z</time></trkpt><trkpt lat="43.8574139158529" lon="7.607614237596323"><ele>475.0</ele><time>2026-03-29T10:11:46Z</time></trkpt><trkpt lat="43.857473350057944" lon="7.60770361780378"><ele>475.0</ele><time>2026-03-29T10:11:47Z</time></trkpt><trkpt lat="43.857515161555064" lon="7.607817691036026"><ele>475.0</ele><time>2026-03-29T10:11:48Z</time></trkpt><trkpt lat="43.85758862779613" lon="7.6079174542578345"><ele>475.0</ele><time>2026-03-29T10:11:49Z</time></trkpt><trkpt lat="43.85764594684331" lon="7.608032774043117"><ele>475.0</ele><time>2026-03-29T10:11:50Z</time></trkpt><trkpt lat="43.85770551323007" lon="7.6081375804371225"><ele>475.6666666666667</ele><time>2026-03-29T10:11:51Z</time></trkpt><trkpt lat="43.857758801801694" lon="7.6082385263222605"><ele>476.33333333333337</ele><time>2026-03-29T10:11:52Z</time></trkpt><trkpt lat="43.8578087315329" lon="7.608336250487623"><ele>477.0</ele><time>2026-03-29T10:11:53Z</time></trkpt><trkpt lat="43.85786441882359" lon="7.608415534864345"><ele>477.66666666666663</ele><time>2026-03-29T10:11:54Z</time></trkpt><trkpt lat="43.857939902593756" lon="7.608459166665691"><ele>478.3333333333333</ele><time>2026-03-29T10:11:55Z</time></trkpt><trkpt lat="43.858018002424394" lon="7.608464014122648"><ele>479.0</ele><time>2026-03-29T10:11:56Z</time></trkpt><trkpt lat="43.8581071491144" lon="7.608422738781938"><ele>479.0</ele><time>2026-03-29T10:11:57Z</time></trkpt><trkpt lat="43.85821562831932" lon="7.608383857928923"><ele>479.0</ele><time>2026-03-29T10:11:58Z</time></trkpt><trkpt lat="43.858319619014345" lon="7.608351832418656"><ele>479.0</ele><time>2026-03-29T10:11:59Z</time></trkpt><trkpt lat="43.85842724385722" lon="7.608342878765941"><ele>479.0</ele><time>2026-03-29T10:12:00Z</time></trkpt><trkpt lat="43.858526224109404" lon="7.608294885745791"><ele>479.0</ele><time>2026-03-29T10:12:01Z</time></trkpt><trkpt lat="43.858631568415625" lon="7.608275984127903"><ele>478.6</ele><time>2026-03-29T10:12:02Z</time></trkpt><trkpt lat="43.858736402849615" lon="7.608265332548457"><ele>478.2</ele><time>2026-03-29T10:12:03Z</time></trkpt><trkpt lat="43.85884009755812" lon="7.608253703335104"><ele>477.80000000000007</ele><time>2026-03-29T10:12:04Z</time></trkpt><trkpt lat="43.858942866840245" lon="7.608244243692389"><ele>477.40000000000003</ele><time>2026-03-29T10:12:05Z</time></trkpt><trkpt lat="43.859048122026394" lon="7.608259495370856"><ele>477.0</ele><time>2026-03-29T10:12:06Z</time></trkpt><trkpt lat="43.85915059600583" lon="7.6082337123373325"><ele>477.0</ele><time>2026-03-29T10:12:07Z</time></trkpt><trkpt lat="43.85924408450355" lon="7.608235620555586"><ele>477.00000000000006</ele><time>2026-03-29T10:12:08Z</time></trkpt><trkpt lat="43.85933315879031" lon="7.6082247520001545"><ele>477.00000000000006</ele><time>2026-03-29T10:12:09Z</time></trkpt><trkpt lat="43.859419974601714" lon="7.608192333863477"><ele>477.0</ele><time>2026-03-29T10:12:10Z</time></trkpt><trkpt lat="43.85950784170739" lon="7.6081361275750075"><ele>477.0</ele><time>2026-03-29T10:12:11Z</time></trkpt><trkpt lat="43.859595638892884" lon="7.608080835005659"><ele>475.40000000000003</ele><time>2026-03-29T10:12:12Z</time></trkpt><trkpt lat="43.8596851573472" lon="7.60802493681095"><ele>473.80000000000007</ele><time>2026-03-29T10:12:13Z</time></trkpt><trkpt lat="43.859776255417884" lon="7.607967379257727"><ele>472.2</ele><time>2026-03-29T10:12:14Z</time></trkpt><trkpt lat="43.859865186458755" lon="7.607909678749432"><ele>470.6</ele><time>2026-03-29T10:12:15Z</time></trkpt><trkpt lat="43.85995346108329" lon="7.607892204588065"><ele>469.0</ele><time>2026-03-29T10:12:16Z</time></trkpt><trkpt lat="43.86003118535601" lon="7.607847808613148"><ele>465.1666666666667</ele><time>2026-03-29T10:12:17Z</time></trkpt><trkpt lat="43.86011387734479" lon="7.607815462238176"><ele>461.33333333333337</ele><time>2026-03-29T10:12:18Z</time></trkpt><trkpt lat="43.86018517864887" lon="7.607777793530407"><ele>457.5</ele><time>2026-03-29T10:12:19Z</time></trkpt><trkpt lat="43.86020011937773" lon="7.607657437966016"><ele>453.66666666666663</ele><time>2026-03-29T10:12:20Z</time></trkpt><trkpt lat="43.86020329510282" lon="7.607540769561612"><ele>449.8333333333333</ele><time>2026-03-29T10:12:21Z</time></trkpt><trkpt lat="43.86021516836492" lon="7.607423485296585"><ele>446.0</ele><time>2026-03-29T10:12:22Z</time></trkpt><trkpt lat="43.86021325358039" lon="7.607293345410849"><ele>446.0</ele><time>2026-03-29T10:12:23Z</time></trkpt><trkpt lat="43.860221804067535" lon="7.607184085655608"><ele>446.0</ele><time>2026-03-29T10:12:24Z</time></trkpt><trkpt lat="43.86023507331535" lon="7.607047053415085"><ele>446.0</ele><time>2026-03-29T10:12:25Z</time></trkpt><trkpt lat="43.86025254825372" lon="7.606895962344549"><ele>446.0</ele><time>2026-03-29T10:12:26Z</time></trkpt><trkpt lat="43.86027362829284" lon="7.60675155262433"><ele>446.0</ele><time>2026-03-29T10:12:27Z</time></trkpt><trkpt lat="43.86029304213224" lon="7.606623303643017"><ele>448.16666666666663</ele><time>2026-03-29T10:12:28Z</time></trkpt><trkpt lat="43.86031045160847" lon="7.606496790240968"><ele>450.3333333333333</ele><time>2026-03-29T10:12:29Z</time></trkpt><trkpt lat="43.860330571971495" lon="7.60638918962164"><ele>452.5</ele><time>2026-03-29T10:12:30Z</time></trkpt><trkpt lat="43.86035344797508" lon="7.606301255633538"><ele>454.66666666666663</ele><time>2026-03-29T10:12:31Z</time></trkpt><trkpt lat="43.86038553282723" lon="7.606223862859181"><ele>456.8333333333333</ele><time>2026-03-29T10:12:32Z</time></trkpt><trkpt lat="43.86044180394294" lon="7.606149582080509"><ele>459.0</ele><time>2026-03-29T10:12:33Z</time></trkpt><trkpt lat="43.86052523053112" lon="7.6060764755919195"><ele>459.6</ele><time>2026-03-29T10:12:34Z</time></trkpt><trkpt lat="43.86059778099246" lon="7.60599041119362"><ele>460.2</ele><time>2026-03-29T10:12:35Z</time></trkpt><trkpt lat="43.860685638029885" lon="7.605913055079464"><ele>460.80000000000007</ele><time>2026-03-29T10:12:36Z</time></trkpt><trkpt lat="43.86078313059607" lon="7.605823793716554"><ele>461.40000000000003</ele><time>2026-03-29T10:12:37Z</time></trkpt><trkpt lat="43.860885519619075" lon="7.605724072135739"><ele>462.0</ele><time>2026-03-29T10:12:38Z</time></trkpt><trkpt lat="43.86098839646226" lon="7.605635348280078"><ele>462.0</ele><time>2026-03-29T10:12:39Z</time></trkpt><trkpt lat="43.86108439561808" lon="7.605559997406618"><ele>462.0</ele><time>2026-03-29T10:12:40Z</time></trkpt><trkpt lat="43.8611810607367" lon="7.605478945278446"><ele>462.0</ele><time>2026-03-29T10:12:41Z</time></trkpt><trkpt lat="43.86127461173863" lon="7.605390988021764"><ele>462.0</ele><time>2026-03-29T10:12:42Z</time></trkpt><trkpt lat="43.86136958632292" lon="7.605291462539532"><ele>470.5</ele><time>2026-03-29T10:12:43Z</time></trkpt><trkpt lat="43.861454020313616" lon="7.6051881257293"><ele>479.0</ele><time>2026-03-29T10:12:44Z</time></trkpt><trkpt lat="43.861533647932916" lon="7.605081524858466"><ele>487.5</ele><time>2026-03-29T10:12:45Z</time></trkpt><trkpt lat="43.86163061438811" lon="7.604993969461754"><ele>496.0</ele><time>2026-03-29T10:12:46Z</time></trkpt><trkpt lat="43.861720499196764" lon="7.6048830516391765"><ele>492.0</ele><time>2026-03-29T10:12:47Z</time></trkpt><trkpt lat="43.86182390228672" lon="7.60481089804008"><ele>488.0</ele><time>2026-03-29T10:12:48Z</time></trkpt><trkpt lat="43.861911325593134" lon="7.604742350070362"><ele>484.0</ele><time>2026-03-29T10:12:49Z</time></trkpt><trkpt lat="43.861992996953866" lon="7.604672154525295"><ele>480.0</ele><time>2026-03-29T10:12:50Z</time></trkpt><trkpt lat="43.86206048587215" lon="7.604591697842353"><ele>476.0</ele><time>2026-03-29T10:12:51Z</time></trkpt><trkpt lat="43.862111408738684" lon="7.604515039456385"><ele>479.8333333333333</ele><time>2026-03-29T10:12:52Z</time></trkpt><trkpt lat="43.86215537764089" lon="7.60445206074909"><ele>483.66666666666663</ele><time>2026-03-29T10:12:53Z</time></trkpt><trkpt lat="43.86223514559795" lon="7.60436584197777"><ele>487.5</ele><time>2026-03-29T10:12:55Z</time></trkpt><trkpt lat="43.86229495306882" lon="7.604305994387069"><ele>491.33333333333337</ele><time>2026-03-29T10:12:57Z</time></trkpt><trkpt lat="43.86232906632203" lon="7.604226676656652"><ele>495.1666666666667</ele><time>2026-03-29T10:20:04Z</time></trkpt><trkpt lat="43.86227745611481" lon="7.604283640529218"><ele>499.0</ele><time>2026-03-29T10:23:08Z</time></trkpt><trkpt lat="43.86221544247852" lon="7.604361319356598"><ele>499.00000000000006</ele><time>2026-03-29T10:23:10Z</time></trkpt><trkpt lat="43.862158849040604" lon="7.604441354118122"><ele>499.0</ele><time>2026-03-29T10:23:12Z</time></trkpt><trkpt lat="43.8620997751656" lon="7.604513028420715"><ele>499.00000000000006</ele><time>2026-03-29T10:23:14Z</time></trkpt><trkpt lat="43.862051875433714" lon="7.604584071957728"><ele>499.00000000000006</ele><time>2026-03-29T10:23:17Z</time></trkpt><trkpt lat="43.86200518103801" lon="7.604665161262243"><ele>499.0</ele><time>2026-03-29T10:23:21Z</time></trkpt><trkpt lat="43.86199863435476" lon="7.6045738929365605"><ele>499.00000000000006</ele><time>2026-03-29T10:23:37Z</time></trkpt><trkpt lat="43.86203786773783" lon="7.604494950420887"><ele>499.00000000000006</ele><time>2026-03-29T10:23:39Z</time></trkpt><trkpt lat="43.86208229631136" lon="7.604416698954895"><ele>499.00000000000006</ele><time>2026-03-29T10:23:41Z</time></trkpt><trkpt lat="43.86212909404395" lon="7.604335029723476"><ele>499.0</ele><time>2026-03-29T10:23:43Z</time></trkpt><trkpt lat="43.8621710714633" lon="7.604250310568862"><ele>499.0</ele><time>2026-03-29T10:23:45Z</time></trkpt><trkpt lat="43.86222155751618" lon="7.604169325272997"><ele>499.0</ele><time>2026-03-29T10:23:47Z</time></trkpt><trkpt lat="43.86228933552047" lon="7.6040821714219184"><ele>499.00000000000006</ele><time>2026-03-29T10:23:49Z</time></trkpt><trkpt lat="43.86233634482082" lon="7.6039916913099015"><ele>499.0</ele><time>2026-03-29T10:23:51Z</time></trkpt><trkpt lat="43.862393555222596" lon="7.60390731344166"><ele>499.00000000000006</ele><time>2026-03-29T10:23:53Z</time></trkpt><trkpt lat="43.86244757834989" lon="7.603820758317461"><ele>499.0</ele><time>2026-03-29T10:23:55Z</time></trkpt><trkpt lat="43.862509391507444" lon="7.603752928123117"><ele>499.0</ele><time>2026-03-29T10:23:57Z</time></trkpt><trkpt lat="43.862590484855346" lon="7.603709790418553"><ele>499.0</ele><time>2026-03-29T10:23:59Z</time></trkpt><trkpt lat="43.86268112666883" lon="7.603687504112751"><ele>499.00000000000006</ele><time>2026-03-29T10:24:01Z</time></trkpt><trkpt lat="43.86276720734803" lon="7.60365169846281"><ele>499.0</ele><time>2026-03-29T10:24:03Z</time></trkpt><trkpt lat="43.86280247525133" lon="7.603574342586938"><ele>500.00000000000006</ele><time>2026-03-29T10:24:05Z</time></trkpt><trkpt lat="43.86275365947397" lon="7.603484320220696"><ele>501.0</ele><time>2026-03-29T10:24:07Z</time></trkpt><trkpt lat="43.862669507201915" lon="7.603438289857989"><ele>502.0</ele><time>2026-03-29T10:24:09Z</time></trkpt><trkpt lat="43.862603762291045" lon="7.6034809517904005"><ele>503.0</ele><time>2026-03-29T10:24:12Z</time></trkpt><trkpt lat="43.86252495096611" lon="7.603476630255887"><ele>504.00000000000006</ele><time>2026-03-29T10:32:51Z</time></trkpt><trkpt lat="43.862435883986564" lon="7.60347775062033"><ele>505.0</ele><time>2026-03-29T10:32:54Z</time></trkpt><trkpt lat="43.862350040705856" lon="7.603446533136105"><ele>505.0</ele><time>2026-03-29T10:32:57Z</time></trkpt><trkpt lat="43.86227072949876" lon="7.60343544670519"><ele>504.99999999999994</ele><time>2026-03-29T10:33:00Z</time></trkpt><trkpt lat="43.86219680396379" lon="7.603433279835791"><ele>505.0</ele><time>2026-03-29T10:33:02Z</time></trkpt><trkpt lat="43.86213428461353" lon="7.603452731316101"><ele>505.0</ele><time>2026-03-29T10:33:04Z</time></trkpt><trkpt lat="43.862063936198275" lon="7.603516894056074"><ele>504.99999999999994</ele><time>2026-03-29T10:33:07Z</time></trkpt><trkpt lat="43.86200149833099" lon="7.603554828683434"><ele>505.0</ele><time>2026-03-29T10:33:09Z</time></trkpt><trkpt lat="43.86193241266394" lon="7.6035700605976775"><ele>505.0</ele><time>2026-03-29T10:33:11Z</time></trkpt><trkpt lat="43.86185922217561" lon="7.603587373675119"><ele>505.71428571428567</ele><time>2026-03-29T10:33:13Z</time></trkpt><trkpt lat="43.86177398563251" lon="7.603578494420549"><ele>506.4285714285714</ele><time>2026-03-29T10:33:16Z</time></trkpt><trkpt lat="43.861710523162856" lon="7.603570190711417"><ele>507.1428571428571</ele><time>2026-03-29T10:33:18Z</time></trkpt><trkpt lat="43.86165122159989" lon="7.60360123185762"><ele>507.8571428571429</ele><time>2026-03-29T10:33:20Z</time></trkpt><trkpt lat="43.8615875524884" lon="7.603673000605613"><ele>508.5714285714286</ele><time>2026-03-29T10:33:23Z</time></trkpt><trkpt lat="43.86153446617613" lon="7.603750701016542"><ele>509.28571428571433</ele><time>2026-03-29T10:33:26Z</time></trkpt><trkpt lat="43.861470581983816" lon="7.6038012200776866"><ele>510.0</ele><time>2026-03-29T10:33:29Z</time></trkpt><trkpt lat="43.86139505358735" lon="7.603834473167683"><ele>510.0</ele><time>2026-03-29T10:33:32Z</time></trkpt><trkpt lat="43.861321771145626" lon="7.60384875504007"><ele>510.00000000000006</ele><time>2026-03-29T10:33:34Z</time></trkpt><trkpt lat="43.86124638304267" lon="7.603830396458222"><ele>510.0</ele><time>2026-03-29T10:33:36Z</time></trkpt><trkpt lat="43.861165909816876" lon="7.603805144646583"><ele>510.0</ele><time>2026-03-29T10:33:38Z</time></trkpt><trkpt lat="43.86109497756759" lon="7.603788552208355"><ele>510.00000000000006</ele><time>2026-03-29T10:33:40Z</time></trkpt><trkpt lat="43.86103851987183" lon="7.603745533572802"><ele>510.0</ele><time>2026-03-29T10:33:43Z</time></trkpt><trkpt lat="43.86097435257917" lon="7.603701065335494"><ele>510.0</ele><time>2026-03-29T10:33:45Z</time></trkpt><trkpt lat="43.8608815925985" lon="7.6036829816357"><ele>509.0</ele><time>2026-03-29T10:33:48Z</time></trkpt><trkpt lat="43.86081223678409" lon="7.603717542235282"><ele>508.0</ele><time>2026-03-29T10:33:58.001Z</time></trkpt><trkpt lat="43.86082125110274" lon="7.60361571404293"><ele>507.0</ele><time>2026-03-29T10:34:02.001Z</time></trkpt><trkpt lat="43.86089764802797" lon="7.603579246850636"><ele>506.0</ele><time>2026-03-29T10:34:05.001Z</time></trkpt><trkpt lat="43.86097980591142" lon="7.60359004358519"><ele>505.0</ele><time>2026-03-29T10:34:08.001Z</time></trkpt><trkpt lat="43.861061240156424" lon="7.603634358363479"><ele>504.0</ele><time>2026-03-29T10:34:11.001Z</time></trkpt><trkpt lat="43.8611474956136" lon="7.603638351815614"><ele>502.0</ele><time>2026-03-29T10:34:14.001Z</time></trkpt><trkpt lat="43.86122357883385" lon="7.603580188308896"><ele>500.0</ele><time>2026-03-29T10:34:17.001Z</time></trkpt><trkpt lat="43.861286585571015" lon="7.603543317332256"><ele>498.0</ele><time>2026-03-29T10:34:19.001Z</time></trkpt><trkpt lat="43.86133762446893" lon="7.603480731779487"><ele>496.0</ele><time>2026-03-29T10:34:21.001Z</time></trkpt><trkpt lat="43.86138404851636" lon="7.603377541786798"><ele>494.0</ele><time>2026-03-29T10:34:24.001Z</time></trkpt><trkpt lat="43.861410056679155" lon="7.603296169355655"><ele>492.0</ele><time>2026-03-29T10:34:26.001Z</time></trkpt><trkpt lat="43.8614329331812" lon="7.603206031125403"><ele>490.0</ele><time>2026-03-29T10:34:28.001Z</time></trkpt><trkpt lat="43.86148168097465" lon="7.60309294540035"><ele>490.00000000000006</ele><time>2026-03-29T10:34:31.001Z</time></trkpt><trkpt lat="43.8615046900091" lon="7.603008046153366"><ele>490.0</ele><time>2026-03-29T10:34:33Z</time></trkpt><trkpt lat="43.86153327268634" lon="7.602895605317892"><ele>490.0</ele><time>2026-03-29T10:34:36Z</time></trkpt><trkpt lat="43.86159659120823" lon="7.602866828524434"><ele>490.0</ele><time>2026-03-29T10:34:38Z</time></trkpt><trkpt lat="43.861666728958625" lon="7.60288789436772"><ele>490.00000000000006</ele><time>2026-03-29T10:34:40Z</time></trkpt><trkpt lat="43.86175518384554" lon="7.602854402825654"><ele>490.0</ele><time>2026-03-29T10:34:43Z</time></trkpt><trkpt lat="43.861758248045305" lon="7.602749973464216"><ele>485.50000000000006</ele><time>2026-03-29T10:34:47Z</time></trkpt><trkpt lat="43.8616872222881" lon="7.602741265315348"><ele>481.0</ele><time>2026-03-29T10:34:49Z</time></trkpt><trkpt lat="43.861606996144616" lon="7.602719988532772"><ele>476.5</ele><time>2026-03-29T10:34:51Z</time></trkpt><trkpt lat="43.86155007733565" lon="7.602664016137539"><ele>472.0</ele><time>2026-03-29T10:34:53Z</time></trkpt><trkpt lat="43.86148406067314" lon="7.6026026860255715"><ele>467.50000000000006</ele><time>2026-03-29T10:34:56Z</time></trkpt><trkpt lat="43.861398478504704" lon="7.602604207388619"><ele>463.0</ele><time>2026-03-29T10:35:06Z</time></trkpt><trkpt lat="43.8613430628481" lon="7.602657944190036"><ele>463.00000000000006</ele><time>2026-03-29T10:35:09Z</time></trkpt><trkpt lat="43.86128378710387" lon="7.6027441623619145"><ele>463.0</ele><time>2026-03-29T10:35:13Z</time></trkpt><trkpt lat="43.86123509913107" lon="7.602810268781609"><ele>463.0</ele><time>2026-03-29T10:35:15Z</time></trkpt><trkpt lat="43.861182962712824" lon="7.6028670392133275"><ele>463.0</ele><time>2026-03-29T10:35:17Z</time></trkpt><trkpt lat="43.86112008295499" lon="7.602943810449016"><ele>463.00000000000006</ele><time>2026-03-29T10:35:19Z</time></trkpt><trkpt lat="43.86106079174095" lon="7.603002075639255"><ele>463.0</ele><time>2026-03-29T10:35:21Z</time></trkpt><trkpt lat="43.86098873434023" lon="7.603039383909194"><ele>464.83333333333337</ele><time>2026-03-29T10:35:23Z</time></trkpt><trkpt lat="43.86089784691633" lon="7.60305988042375"><ele>466.6666666666667</ele><time>2026-03-29T10:35:26Z</time></trkpt><trkpt lat="43.86083807901109" lon="7.602999740676611"><ele>468.5</ele><time>2026-03-29T10:35:28Z</time></trkpt><trkpt lat="43.86078152934693" lon="7.602959791729658"><ele>470.33333333333337</ele><time>2026-03-29T10:35:30.001Z</time></trkpt><trkpt lat="43.860720178190526" lon="7.602911982396419"><ele>472.1666666666667</ele><time>2026-03-29T10:35:33.001Z</time></trkpt><trkpt lat="43.8606461018664" lon="7.602865777636075"><ele>474.0</ele><time>2026-03-29T10:35:36.001Z</time></trkpt><trkpt lat="43.86056725187623" lon="7.602836462157417"><ele>474.0</ele><time>2026-03-29T10:35:39.001Z</time></trkpt><trkpt lat="43.86047250210084" lon="7.602849601312421"><ele>474.0</ele><time>2026-03-29T10:35:42.001Z</time></trkpt><trkpt lat="43.860392057334" lon="7.602899066514981"><ele>474.0</ele><time>2026-03-29T10:35:45.001Z</time></trkpt><trkpt lat="43.8603040497918" lon="7.602893450051155"><ele>474.0</ele><time>2026-03-29T10:35:48.001Z</time></trkpt><trkpt lat="43.86022766622388" lon="7.602840860245754"><ele>474.0</ele><time>2026-03-29T10:35:52.001Z</time></trkpt><trkpt lat="43.860169289363576" lon="7.602726236134334"><ele>469.8571428571428</ele><time>2026-03-29T10:35:55.001Z</time></trkpt><trkpt lat="43.86012745621249" lon="7.6026602830816685"><ele>465.71428571428567</ele><time>2026-03-29T10:35:57.001Z</time></trkpt><trkpt lat="43.86006728486688" lon="7.602609874113194"><ele>461.57142857142856</ele><time>2026-03-29T10:36:00.001Z</time></trkpt><trkpt lat="43.860003775565566" lon="7.602577011796019"><ele>457.4285714285714</ele><time>2026-03-29T10:36:04.001Z</time></trkpt><trkpt lat="43.85998264440901" lon="7.6024862060667315"><ele>453.2857142857142</ele><time>2026-03-29T10:36:07.001Z</time></trkpt><trkpt lat="43.860004065369594" lon="7.602366934507397"><ele>449.14285714285717</ele><time>2026-03-29T10:36:10.001Z</time></trkpt><trkpt lat="43.86001725918578" lon="7.602257273972655"><ele>445.0</ele><time>2026-03-29T10:36:13.001Z</time></trkpt><trkpt lat="43.86009356611124" lon="7.602229414966314"><ele>445.00000000000006</ele><time>2026-03-29T10:36:17.001Z</time></trkpt><trkpt lat="43.86014546203248" lon="7.602326738085224"><ele>445.0</ele><time>2026-03-29T10:36:20.001Z</time></trkpt><trkpt lat="43.860210564902516" lon="7.602400929912006"><ele>445.0</ele><time>2026-03-29T10:36:23.001Z</time></trkpt><trkpt lat="43.860301708679586" lon="7.602420916557391"><ele>445.0</ele><time>2026-03-29T10:36:26.001Z</time></trkpt><trkpt lat="43.86039331110777" lon="7.602403511336472"><ele>445.00000000000006</ele><time>2026-03-29T10:36:29.001Z</time></trkpt><trkpt lat="43.86047237748829" lon="7.60238555806964"><ele>445.0</ele><time>2026-03-29T10:36:32.001Z</time></trkpt><trkpt lat="43.86049000580509" lon="7.602295176818246"><ele>445.00000000000006</ele><time>2026-03-29T10:36:35.001Z</time></trkpt><trkpt lat="43.8604175624722" lon="7.602245575858489"><ele>445.0</ele><time>2026-03-29T10:36:38.001Z</time></trkpt><trkpt lat="43.8603344833486" lon="7.602243359217963"><ele>445.0</ele><time>2026-03-29T10:36:42.001Z</time></trkpt><trkpt lat="43.86027757787998" lon="7.602205865381997"><ele>445.0</ele><time>2026-03-29T10:36:45.001Z</time></trkpt><trkpt lat="43.860234687441945" lon="7.60209761040523"><ele>445.00000000000006</ele><time>2026-03-29T10:36:48.001Z</time></trkpt><trkpt lat="43.86018425909936" lon="7.602016329354552"><ele>445.0</ele><time>2026-03-29T10:36:51.001Z</time></trkpt><trkpt lat="43.86015841747478" lon="7.60190741837057"><ele>440.50000000000006</ele><time>2026-03-29T10:36:54.001Z</time></trkpt><trkpt lat="43.86012667186651" lon="7.6017888351213"><ele>436.0</ele><time>2026-03-29T10:36:57Z</time></trkpt><trkpt lat="43.86010924375484" lon="7.601699973705692"><ele>431.5</ele><time>2026-03-29T10:37:00Z</time></trkpt><trkpt lat="43.86004673541034" lon="7.601624361878605"><ele>427.0</ele><time>2026-03-29T10:37:03Z</time></trkpt><trkpt lat="43.85996628819307" lon="7.601622873537869"><ele>422.50000000000006</ele><time>2026-03-29T10:37:06Z</time></trkpt><trkpt lat="43.859901485142366" lon="7.601669840439947"><ele>418.0</ele><time>2026-03-29T10:37:09Z</time></trkpt><trkpt lat="43.859869914149094" lon="7.601589741207432"><ele>418.00000000000006</ele><time>2026-03-29T10:37:22Z</time></trkpt><trkpt lat="43.859939833226385" lon="7.601533224161579"><ele>418.0</ele><time>2026-03-29T10:37:25.001Z</time></trkpt><trkpt lat="43.860015195129634" lon="7.601498558451478"><ele>418.0</ele><time>2026-03-29T10:37:28.001Z</time></trkpt><trkpt lat="43.86010104346941" lon="7.601486798431984"><ele>418.0</ele><time>2026-03-29T10:37:31.001Z</time></trkpt><trkpt lat="43.86017955510235" lon="7.601495842271922"><ele>418.00000000000006</ele><time>2026-03-29T10:37:34.001Z</time></trkpt><trkpt lat="43.860249434607645" lon="7.601549660864515"><ele>418.0</ele><time>2026-03-29T10:37:37.001Z</time></trkpt><trkpt lat="43.860300765915895" lon="7.601626491810804"><ele>418.00000000000006</ele><time>2026-03-29T10:37:40.001Z</time></trkpt><trkpt lat="43.860364777114846" lon="7.601713640264713"><ele>418.0</ele><time>2026-03-29T10:37:43.001Z</time></trkpt><trkpt lat="43.86042625876095" lon="7.601745187919082"><ele>418.0</ele><time>2026-03-29T10:37:45.001Z</time></trkpt><trkpt lat="43.86049138653788" lon="7.601712769825209"><ele>418.0</ele><time>2026-03-29T10:37:48.001Z</time></trkpt><trkpt lat="43.86056514241615" lon="7.601649840200815"><ele>418.00000000000006</ele><time>2026-03-29T10:37:51.001Z</time></trkpt><trkpt lat="43.86064117861058" lon="7.601605584050037"><ele>418.0</ele><time>2026-03-29T10:37:54.001Z</time></trkpt><trkpt lat="43.86070390179077" lon="7.601577554167256"><ele>418.00000000000006</ele><time>2026-03-29T10:37:57.001Z</time></trkpt><trkpt lat="43.86078351986866" lon="7.601516910889817"><ele>418.0</ele><time>2026-03-29T10:38:00.001Z</time></trkpt><trkpt lat="43.860851567329085" lon="7.601448802216535"><ele>418.0</ele><time>2026-03-29T10:38:03.001Z</time></trkpt><trkpt lat="43.8609228338215" lon="7.601375089558882"><ele>418.0</ele><time>2026-03-29T10:38:06.001Z</time></trkpt><trkpt lat="43.860954347238746" lon="7.601264723085232"><ele>418.00000000000006</ele><time>2026-03-29T10:38:09.001Z</time></trkpt><trkpt lat="43.860922313218445" lon="7.601180021170945"><ele>418.0</ele><time>2026-03-29T10:38:11.001Z</time></trkpt><trkpt lat="43.860907696674" lon="7.601067063715164"><ele>421.0</ele><time>2026-03-29T10:38:14.001Z</time></trkpt><trkpt lat="43.86095521789109" lon="7.60095775965525"><ele>424.0</ele><time>2026-03-29T10:38:17.001Z</time></trkpt><trkpt lat="43.861016111237944" lon="7.6008379970892745"><ele>426.99999999999994</ele><time>2026-03-29T10:38:19.001Z</time></trkpt><trkpt lat="43.86103601475236" lon="7.600728875791836"><ele>430.0</ele><time>2026-03-29T10:38:21.001Z</time></trkpt><trkpt lat="43.86101926371954" lon="7.600590168178124"><ele>433.0</ele><time>2026-03-29T10:38:23.001Z</time></trkpt><trkpt lat="43.86101765534519" lon="7.600471710222758"><ele>433.0</ele><time>2026-03-29T10:38:25.001Z</time></trkpt><trkpt lat="43.861002465260974" lon="7.600357971256691"><ele>432.99999999999994</ele><time>2026-03-29T10:38:27.001Z</time></trkpt><trkpt lat="43.86096286138726" lon="7.600224506554867"><ele>432.99999999999994</ele><time>2026-03-29T10:38:29.001Z</time></trkpt><trkpt lat="43.86090208156975" lon="7.600106555781948"><ele>433.0</ele><time>2026-03-29T10:38:31.001Z</time></trkpt><trkpt lat="43.86085560850309" lon="7.599977985654254"><ele>433.0</ele><time>2026-03-29T10:38:33.001Z</time></trkpt><trkpt lat="43.8608034529614" lon="7.5998473609012915"><ele>427.79999999999995</ele><time>2026-03-29T10:38:35.001Z</time></trkpt><trkpt lat="43.8607709708412" lon="7.599728977149497"><ele>422.59999999999997</ele><time>2026-03-29T10:38:37.001Z</time></trkpt><trkpt lat="43.86071772102912" lon="7.599620680837617"><ele>417.4</ele><time>2026-03-29T10:41:16Z</time></trkpt><trkpt lat="43.860643270406555" lon="7.599539665429276"><ele>412.20000000000005</ele><time>2026-03-29T10:41:18Z</time></trkpt><trkpt lat="43.86056966303921" lon="7.599441217950793"><ele>407.0</ele><time>2026-03-29T10:41:20Z</time></trkpt><trkpt lat="43.860511397530836" lon="7.599315271331249"><ele>407.0</ele><time>2026-03-29T10:41:22Z</time></trkpt><trkpt lat="43.86051622899964" lon="7.599186355659867"><ele>407.0</ele><time>2026-03-29T10:41:24Z</time></trkpt><trkpt lat="43.86053079144225" lon="7.599023981676512"><ele>407.0</ele><time>2026-03-29T10:41:26Z</time></trkpt><trkpt lat="43.86049041914024" lon="7.5988979082685395"><ele>407.0</ele><time>2026-03-29T10:41:28Z</time></trkpt><trkpt lat="43.86048900768034" lon="7.598777399778011"><ele>407.0</ele><time>2026-03-29T10:41:30Z</time></trkpt><trkpt lat="43.860497073590054" lon="7.598631537814979"><ele>407.0</ele><time>2026-03-29T10:41:32Z</time></trkpt><trkpt lat="43.86052442615458" lon="7.5985247360726005"><ele>407.0</ele><time>2026-03-29T10:41:34Z</time></trkpt><trkpt lat="43.8605367810437" lon="7.598407123540217"><ele>407.0</ele><time>2026-03-29T10:41:36Z</time></trkpt><trkpt lat="43.86055347196936" lon="7.59829148267836"><ele>407.0</ele><time>2026-03-29T10:41:38Z</time></trkpt><trkpt lat="43.860580325180784" lon="7.598163787819259"><ele>407.0</ele><time>2026-03-29T10:41:40Z</time></trkpt><trkpt lat="43.86063551784799" lon="7.598009546973354"><ele>406.99999999999994</ele><time>2026-03-29T10:41:42Z</time></trkpt><trkpt lat="43.86066938652418" lon="7.597914167085353"><ele>407.0</ele><time>2026-03-29T10:41:43Z</time></trkpt><trkpt lat="43.86069917453231" lon="7.597827703548622"><ele>407.0</ele><time>2026-03-29T10:41:44Z</time></trkpt><trkpt lat="43.860727894277915" lon="7.597741445441536"><ele>407.0</ele><time>2026-03-29T10:41:45Z</time></trkpt><trkpt lat="43.860761773308674" lon="7.5975906650768"><ele>406.99999999999994</ele><time>2026-03-29T10:41:47Z</time></trkpt><trkpt lat="43.860766177468655" lon="7.597447038460805"><ele>407.0</ele><time>2026-03-29T10:41:49Z</time></trkpt><trkpt lat="43.86075361878615" lon="7.5973040501616715"><ele>404.49999999999994</ele><time>2026-03-29T10:41:51Z</time></trkpt><trkpt lat="43.860722667326016" lon="7.597227683993905"><ele>402.0</ele><time>2026-03-29T10:41:52Z</time></trkpt><trkpt lat="43.860703947968666" lon="7.597069187159568"><ele>399.5</ele><time>2026-03-29T10:41:54Z</time></trkpt><trkpt lat="43.86067881363524" lon="7.596938823188231"><ele>397.0</ele><time>2026-03-29T10:41:56Z</time></trkpt><trkpt lat="43.86065854408643" lon="7.59683949387282"><ele>394.49999999999994</ele><time>2026-03-29T10:41:58Z</time></trkpt><trkpt lat="43.86064068384556" lon="7.596748861655678"><ele>392.0</ele><time>2026-03-29T10:42:00Z</time></trkpt><trkpt lat="43.86057029110467" lon="7.5967636216492505"><ele>387.8333333333333</ele><time>2026-03-29T10:42:01Z</time></trkpt><trkpt lat="43.86051620530803" lon="7.596817475807009"><ele>383.66666666666663</ele><time>2026-03-29T10:42:02Z</time></trkpt><trkpt lat="43.86051325994791" lon="7.596921634472722"><ele>379.5</ele><time>2026-03-29T10:42:03Z</time></trkpt><trkpt lat="43.860469878851134" lon="7.597001615048096"><ele>375.3333333333333</ele><time>2026-03-29T10:42:05Z</time></trkpt><trkpt lat="43.86044008552446" lon="7.596898904281667"><ele>371.16666666666663</ele><time>2026-03-29T10:42:08Z</time></trkpt><trkpt lat="43.860431569737145" lon="7.59678592061366"><ele>367.0</ele><time>2026-03-29T10:42:10Z</time></trkpt><trkpt lat="43.86038097908014" lon="7.596704272431032"><ele>367.0</ele><time>2026-03-29T10:42:13Z</time></trkpt><trkpt lat="43.86030183497148" lon="7.596747069960605"><ele>367.0</ele><time>2026-03-29T10:42:15Z</time></trkpt><trkpt lat="43.86027326403144" lon="7.596869486146277"><ele>367.0</ele><time>2026-03-29T10:42:17Z</time></trkpt><trkpt lat="43.860235907103856" lon="7.596944781764507"><ele>367.0</ele><time>2026-03-29T10:42:20Z</time></trkpt><trkpt lat="43.86020587229019" lon="7.596820245714522"><ele>367.0</ele><time>2026-03-29T10:42:23Z</time></trkpt><trkpt lat="43.86022836929215" lon="7.5967306841093825"><ele>367.0</ele><time>2026-03-29T10:42:25Z</time></trkpt><trkpt lat="43.86025169475505" lon="7.596646978805124"><ele>367.0</ele><time>2026-03-29T10:42:27Z</time></trkpt><trkpt lat="43.86031885295534" lon="7.596599702297858"><ele>367.0</ele><time>2026-03-29T10:42:29Z</time></trkpt><trkpt lat="43.86039133382773" lon="7.596561749783665"><ele>367.0</ele><time>2026-03-29T10:42:31Z</time></trkpt><trkpt lat="43.86047368957091" lon="7.596526904433866"><ele>367.0</ele><time>2026-03-29T10:42:33Z</time></trkpt><trkpt lat="43.86055164908174" lon="7.596472890932038"><ele>367.0</ele><time>2026-03-29T10:42:35Z</time></trkpt><trkpt lat="43.86064413646873" lon="7.596432439849642"><ele>367.0</ele><time>2026-03-29T10:42:37Z</time></trkpt><trkpt lat="43.86072536067071" lon="7.596360612487098"><ele>367.0</ele><time>2026-03-29T10:42:39Z</time></trkpt><trkpt lat="43.86084248951682" lon="7.596272801121708"><ele>367.0</ele><time>2026-03-29T10:42:41Z</time></trkpt><trkpt lat="43.8609577992578" lon="7.596231684415004"><ele>367.0</ele><time>2026-03-29T10:42:43Z</time></trkpt><trkpt lat="43.861021253314895" lon="7.596222950161657"><ele>367.0</ele><time>2026-03-29T10:42:44Z</time></trkpt><trkpt lat="43.861128346682804" lon="7.596229216791501"><ele>367.0</ele><time>2026-03-29T10:42:46Z</time></trkpt><trkpt lat="43.86119146427642" lon="7.596267584383206"><ele>367.5</ele><time>2026-03-29T10:42:47Z</time></trkpt><trkpt lat="43.861270295889334" lon="7.596311126257881"><ele>368.0</ele><time>2026-03-29T10:42:48Z</time></trkpt><trkpt lat="43.86134897439818" lon="7.596358279021118"><ele>368.5</ele><time>2026-03-29T10:42:49Z</time></trkpt><trkpt lat="43.86141753044305" lon="7.5964112739069805"><ele>369.0</ele><time>2026-03-29T10:42:50Z</time></trkpt><trkpt lat="43.86152614857711" lon="7.596503243236931"><ele>369.5</ele><time>2026-03-29T10:42:52Z</time></trkpt><trkpt lat="43.86158362806363" lon="7.596552021927944"><ele>370.0</ele><time>2026-03-29T10:42:53Z</time></trkpt><trkpt lat="43.86167025895991" lon="7.596614728036908"><ele>370.0</ele><time>2026-03-29T10:42:55Z</time></trkpt><trkpt lat="43.86177397136505" lon="7.596619599996292"><ele>370.0</ele><time>2026-03-29T10:42:57Z</time></trkpt><trkpt lat="43.86185041950263" lon="7.596547458167972"><ele>370.0</ele><time>2026-03-29T10:42:59Z</time></trkpt><trkpt lat="43.861896283710244" lon="7.596486583628282"><ele>370.0</ele><time>2026-03-29T10:43:01Z</time></trkpt><trkpt lat="43.86182844890621" lon="7.596346778636398"><ele>370.0</ele><time>2026-03-29T10:43:03Z</time></trkpt><trkpt lat="43.86177182259465" lon="7.596306839760973"><ele>370.0</ele><time>2026-03-29T10:43:04Z</time></trkpt><trkpt lat="43.861700420105834" lon="7.596221368945516"><ele>365.8333333333333</ele><time>2026-03-29T10:43:06Z</time></trkpt><trkpt lat="43.8616533114601" lon="7.596157832231575"><ele>361.66666666666663</ele><time>2026-03-29T10:43:07Z</time></trkpt><trkpt lat="43.86158800221152" lon="7.596073580658098"><ele>357.5</ele><time>2026-03-29T10:43:09Z</time></trkpt><trkpt lat="43.86153345611906" lon="7.595988998577104"><ele>353.3333333333333</ele><time>2026-03-29T10:43:11Z</time></trkpt><trkpt lat="43.86155969861613" lon="7.595848231534805"><ele>349.1666666666667</ele><time>2026-03-29T10:43:13Z</time></trkpt><trkpt lat="43.86156919255941" lon="7.5957177978532044"><ele>345.0</ele><time>2026-03-29T10:43:15Z</time></trkpt><trkpt lat="43.86153517392033" lon="7.5956041979675"><ele>345.0</ele><time>2026-03-29T10:44:40Z</time></trkpt><trkpt lat="43.8614585798283" lon="7.5955228411814915"><ele>345.0</ele><time>2026-03-29T10:44:42Z</time></trkpt><trkpt lat="43.86140830230629" lon="7.595462224839743"><ele>345.0</ele><time>2026-03-29T10:44:43Z</time></trkpt><trkpt lat="43.861353049805075" lon="7.595380045368061"><ele>345.0</ele><time>2026-03-29T10:44:44Z</time></trkpt><trkpt lat="43.86128594000796" lon="7.595247469997159"><ele>345.0</ele><time>2026-03-29T10:44:46Z</time></trkpt><trkpt lat="43.86124058074091" lon="7.595083184267425"><ele>345.1666666666667</ele><time>2026-03-29T10:44:48Z</time></trkpt><trkpt lat="43.861220662174595" lon="7.594940869176859"><ele>345.3333333333333</ele><time>2026-03-29T10:44:50Z</time></trkpt><trkpt lat="43.86116008333385" lon="7.594818355075522"><ele>345.5</ele><time>2026-03-29T10:44:52Z</time></trkpt><trkpt lat="43.86110528234262" lon="7.594771375330254"><ele>345.66666666666663</ele><time>2026-03-29T10:44:53Z</time></trkpt><trkpt lat="43.86104341994409" lon="7.594732426954335"><ele>345.8333333333333</ele><time>2026-03-29T10:44:54Z</time></trkpt><trkpt lat="43.860971608827334" lon="7.594707192196684"><ele>346.0</ele><time>2026-03-29T10:44:55Z</time></trkpt><trkpt lat="43.860905283864774" lon="7.594695670968661"><ele>342.20000000000005</ele><time>2026-03-29T10:44:56Z</time></trkpt><trkpt lat="43.860798191498986" lon="7.594637217283972"><ele>338.40000000000003</ele><time>2026-03-29T10:44:58Z</time></trkpt><trkpt lat="43.86071764571859" lon="7.594540606399282"><ele>334.6</ele><time>2026-03-29T10:45:00Z</time></trkpt><trkpt lat="43.860686919205605" lon="7.594451230376247"><ele>330.8</ele><time>2026-03-29T10:45:01Z</time></trkpt><trkpt lat="43.860681863765066" lon="7.594354387340477"><ele>327.0</ele><time>2026-03-29T10:45:01.999Z</time></trkpt><trkpt lat="43.8606721433244" lon="7.594226062623885"><ele>327.0</ele><time>2026-03-29T10:45:03Z</time></trkpt><trkpt lat="43.860661088843486" lon="7.594051062867102"><ele>327.0</ele><time>2026-03-29T10:45:04Z</time></trkpt><trkpt lat="43.86064993474962" lon="7.593926655508732"><ele>327.0</ele><time>2026-03-29T10:45:05Z</time></trkpt><trkpt lat="43.86063631548334" lon="7.593820021106455"><ele>327.0</ele><time>2026-03-29T10:45:06Z</time></trkpt><trkpt lat="43.860620367662804" lon="7.593715863504167"><ele>327.0</ele><time>2026-03-29T10:45:07Z</time></trkpt><trkpt lat="43.86060607758833" lon="7.593625169319784"><ele>327.0</ele><time>2026-03-29T10:45:08Z</time></trkpt><trkpt lat="43.860568825828395" lon="7.593453019721408"><ele>327.6666666666667</ele><time>2026-03-29T10:45:10Z</time></trkpt><trkpt lat="43.86053544194627" lon="7.593371632121464"><ele>328.3333333333333</ele><time>2026-03-29T10:45:11Z</time></trkpt><trkpt lat="43.860485586412466" lon="7.5933071870533375"><ele>329.0</ele><time>2026-03-29T10:45:12Z</time></trkpt><trkpt lat="43.8603775959363" lon="7.5932460704972105"><ele>329.66666666666663</ele><time>2026-03-29T10:45:13Z</time></trkpt><trkpt lat="43.860294403171395" lon="7.593180338113814"><ele>330.3333333333333</ele><time>2026-03-29T10:45:14Z</time></trkpt><trkpt lat="43.86022981517097" lon="7.59312560416925"><ele>331.0</ele><time>2026-03-29T10:45:15Z</time></trkpt><trkpt lat="43.86017493139207" lon="7.593041672427219"><ele>328.8</ele><time>2026-03-29T10:45:16Z</time></trkpt><trkpt lat="43.860086942337865" lon="7.592934527359647"><ele>326.6</ele><time>2026-03-29T10:45:18Z</time></trkpt><trkpt lat="43.860028655261395" lon="7.592856223685513"><ele>324.4</ele><time>2026-03-29T10:45:19Z</time></trkpt><trkpt lat="43.85997692330903" lon="7.592767828128115"><ele>322.2</ele><time>2026-03-29T10:45:20Z</time></trkpt><trkpt lat="43.85990540351785" lon="7.5926511983029314"><ele>320.0</ele><time>2026-03-29T10:45:21Z</time></trkpt><trkpt lat="43.859832519179434" lon="7.5925711570137535"><ele>320.0</ele><time>2026-03-29T10:45:22Z</time></trkpt><trkpt lat="43.85977604287579" lon="7.592521454800866"><ele>320.0</ele><time>2026-03-29T10:45:23Z</time></trkpt><trkpt lat="43.85970473442576" lon="7.592467313028473"><ele>320.0</ele><time>2026-03-29T10:45:24Z</time></trkpt><trkpt lat="43.85959430587027" lon="7.592373468931271"><ele>320.0</ele><time>2026-03-29T10:45:26Z</time></trkpt><trkpt lat="43.85950799290693" lon="7.5922493142911955"><ele>320.0</ele><time>2026-03-29T10:45:28Z</time></trkpt><trkpt lat="43.8595285754858" lon="7.592138675178028"><ele>320.0</ele><time>2026-03-29T10:45:29Z</time></trkpt><trkpt lat="43.859501895688766" lon="7.592046212788891"><ele>320.0</ele><time>2026-03-29T10:45:30Z</time></trkpt><trkpt lat="43.85944950766197" lon="7.591944335299727"><ele>320.0</ele><time>2026-03-29T10:45:31Z</time></trkpt><trkpt lat="43.85937320743303" lon="7.591885562338631"><ele>320.0</ele><time>2026-03-29T10:45:32Z</time></trkpt><trkpt lat="43.85932899144751" lon="7.591739930785592"><ele>320.0</ele><time>2026-03-29T10:45:34Z</time></trkpt><trkpt lat="43.85930877383982" lon="7.591635262257505"><ele>320.0</ele><time>2026-03-29T10:45:35Z</time></trkpt><trkpt lat="43.8592805327809" lon="7.591537655257443"><ele>315.6666666666667</ele><time>2026-03-29T10:45:36Z</time></trkpt><trkpt lat="43.859251258869364" lon="7.591436647222764"><ele>311.33333333333337</ele><time>2026-03-29T10:45:37Z</time></trkpt><trkpt lat="43.85922315780847" lon="7.591340580475908"><ele>307.0</ele><time>2026-03-29T10:45:38Z</time></trkpt><trkpt lat="43.8591934764921" lon="7.591253667942076"><ele>302.6666666666667</ele><time>2026-03-29T10:45:39Z</time></trkpt><trkpt lat="43.85916341955416" lon="7.591167446910194"><ele>298.3333333333333</ele><time>2026-03-29T10:45:40Z</time></trkpt><trkpt lat="43.859129603148574" lon="7.591081666116048"><ele>294.0</ele><time>2026-03-29T10:45:41Z</time></trkpt><trkpt lat="43.85908131044907" lon="7.590970854538017"><ele>293.8</ele><time>2026-03-29T10:45:42Z</time></trkpt><trkpt lat="43.85901170509499" lon="7.59082500567483"><ele>293.59999999999997</ele><time>2026-03-29T10:45:44Z</time></trkpt><trkpt lat="43.858968154828126" lon="7.5907425177773815"><ele>293.4</ele><time>2026-03-29T10:45:45Z</time></trkpt><trkpt lat="43.85892947895491" lon="7.590664248222022"><ele>293.2</ele><time>2026-03-29T10:45:46Z</time></trkpt><trkpt lat="43.85886930366323" lon="7.590521648941034"><ele>293.0</ele><time>2026-03-29T10:45:48Z</time></trkpt><trkpt lat="43.858902989750185" lon="7.5904471475575"><ele>293.0</ele><time>2026-03-29T10:45:50Z</time></trkpt><trkpt lat="43.85907613733409" lon="7.590446199208045"><ele>293.0</ele><time>2026-03-29T10:46:04Z</time></trkpt><trkpt lat="43.85914782969775" lon="7.590416754764424"><ele>293.0</ele><time>2026-03-29T10:46:06Z</time></trkpt><trkpt lat="43.859360109801045" lon="7.590228200600949"><ele>295.0</ele><time>2026-03-29T10:46:12Z</time></trkpt><trkpt lat="43.85938122535587" lon="7.590062407174477"><ele>297.0</ele><time>2026-03-29T10:46:14Z</time></trkpt><trkpt lat="43.8593885997906" lon="7.5898955145428655"><ele>299.0</ele><time>2026-03-29T10:46:16Z</time></trkpt><trkpt lat="43.85940323799772" lon="7.589754126534583"><ele>301.0</ele><time>2026-03-29T10:46:18Z</time></trkpt><trkpt lat="43.85943297718813" lon="7.589649561973007"><ele>303.0</ele><time>2026-03-29T10:46:20Z</time></trkpt><trkpt lat="43.8594889444139" lon="7.589580479804009"><ele>303.0</ele><time>2026-03-29T10:46:22Z</time></trkpt><trkpt lat="43.85959617408083" lon="7.589541709299536"><ele>303.0</ele><time>2026-03-29T10:46:24Z</time></trkpt><trkpt lat="43.85966126691558" lon="7.589499272396551"><ele>303.0</ele><time>2026-03-29T10:46:25Z</time></trkpt><trkpt lat="43.859749846712525" lon="7.5894069125357335"><ele>303.0</ele><time>2026-03-29T10:46:27Z</time></trkpt><trkpt lat="43.859775244140145" lon="7.589237907502162"><ele>303.0</ele><time>2026-03-29T10:46:29Z</time></trkpt><trkpt lat="43.85972170160837" lon="7.58907980775086"><ele>302.4</ele><time>2026-03-29T10:46:31Z</time></trkpt><trkpt lat="43.859684661586996" lon="7.588939321700107"><ele>301.8</ele><time>2026-03-29T10:46:32Z</time></trkpt><trkpt lat="43.85962168542326" lon="7.588812076057174"><ele>301.2</ele><time>2026-03-29T10:46:33Z</time></trkpt><trkpt lat="43.85956110111699" lon="7.588718993528358"><ele>300.6</ele><time>2026-03-29T10:46:34Z</time></trkpt><trkpt lat="43.859497252954355" lon="7.588630947284241"><ele>300.0</ele><time>2026-03-29T10:46:35Z</time></trkpt><trkpt lat="43.859424542377596" lon="7.588542450792691"><ele>300.0</ele><time>2026-03-29T10:46:36Z</time></trkpt><trkpt lat="43.859340776145515" lon="7.588448834921546"><ele>300.0</ele><time>2026-03-29T10:46:37Z</time></trkpt><trkpt lat="43.85925235190638" lon="7.588357330634733"><ele>300.0</ele><time>2026-03-29T10:46:38Z</time></trkpt><trkpt lat="43.85917374089861" lon="7.588281858600822"><ele>300.0</ele><time>2026-03-29T10:46:39Z</time></trkpt><trkpt lat="43.85909869241121" lon="7.588213106602905"><ele>300.0</ele><time>2026-03-29T10:46:40Z</time></trkpt><trkpt lat="43.859028129077466" lon="7.588151586617038"><ele>295.1428571428571</ele><time>2026-03-29T10:46:41Z</time></trkpt><trkpt lat="43.85896293768572" lon="7.588094664569898"><ele>290.2857142857143</ele><time>2026-03-29T10:46:42Z</time></trkpt><trkpt lat="43.85890572794414" lon="7.588039069639121"><ele>285.42857142857144</ele><time>2026-03-29T10:46:43Z</time></trkpt><trkpt lat="43.85883160837639" lon="7.587991977642226"><ele>280.57142857142856</ele><time>2026-03-29T10:46:44Z</time></trkpt><trkpt lat="43.85877364961927" lon="7.587935993126194"><ele>275.7142857142857</ele><time>2026-03-29T10:46:45Z</time></trkpt><trkpt lat="43.858704805089545" lon="7.587905509202725"><ele>270.85714285714283</ele><time>2026-03-29T10:46:46Z</time></trkpt><trkpt lat="43.85862838283889" lon="7.5878941387318175"><ele>266.0</ele><time>2026-03-29T10:46:47Z</time></trkpt><trkpt lat="43.85855263525956" lon="7.587903788177682"><ele>266.0</ele><time>2026-03-29T10:46:48Z</time></trkpt><trkpt lat="43.85847857058424" lon="7.587912406640572"><ele>266.0</ele><time>2026-03-29T10:46:49Z</time></trkpt><trkpt lat="43.85839651123725" lon="7.587910881413765"><ele>266.0</ele><time>2026-03-29T10:46:50Z</time></trkpt><trkpt lat="43.85831583764036" lon="7.587908232776567"><ele>266.0</ele><time>2026-03-29T10:46:51Z</time></trkpt><trkpt lat="43.85823567703121" lon="7.587901375739511"><ele>266.0</ele><time>2026-03-29T10:46:52Z</time></trkpt><trkpt lat="43.8581619753601" lon="7.587887000772714"><ele>266.0</ele><time>2026-03-29T10:46:53Z</time></trkpt><trkpt lat="43.85809652313142" lon="7.58784894973094"><ele>266.1666666666667</ele><time>2026-03-29T10:46:54Z</time></trkpt><trkpt lat="43.85803351487113" lon="7.587789849070984"><ele>266.33333333333337</ele><time>2026-03-29T10:46:55Z</time></trkpt><trkpt lat="43.85799476905927" lon="7.587677431412966"><ele>266.5</ele><time>2026-03-29T10:46:56Z</time></trkpt><trkpt lat="43.857930990516145" lon="7.5876073572337654"><ele>266.6666666666667</ele><time>2026-03-29T10:46:57Z</time></trkpt><trkpt lat="43.857860595855925" lon="7.587536895254906"><ele>266.8333333333333</ele><time>2026-03-29T10:46:58Z</time></trkpt><trkpt lat="43.85778415303913" lon="7.587478901365828"><ele>267.0</ele><time>2026-03-29T10:46:59Z</time></trkpt><trkpt lat="43.85772334761457" lon="7.587421085285786"><ele>267.0</ele><time>2026-03-29T10:47:00Z</time></trkpt><trkpt lat="43.85766655509937" lon="7.587377506207448"><ele>267.0</ele><time>2026-03-29T10:47:01Z</time></trkpt><trkpt lat="43.857604856880826" lon="7.5873540613992185"><ele>267.0</ele><time>2026-03-29T10:47:02Z</time></trkpt><trkpt lat="43.85752846080451" lon="7.5873212287206115"><ele>267.0</ele><time>2026-03-29T10:47:03Z</time></trkpt><trkpt lat="43.857422062738046" lon="7.587287454594406"><ele>267.0</ele><time>2026-03-29T10:47:05Z</time></trkpt><trkpt lat="43.857302752069906" lon="7.5872314782245605"><ele>267.0</ele><time>2026-03-29T10:47:07Z</time></trkpt><trkpt lat="43.85719572676721" lon="7.587167665936507"><ele>265.8571428571429</ele><time>2026-03-29T10:47:09Z</time></trkpt><trkpt lat="43.857134127637124" lon="7.587122655804882"><ele>264.7142857142857</ele><time>2026-03-29T10:47:10Z</time></trkpt><trkpt lat="43.85706296898311" lon="7.58708727480829"><ele>263.57142857142856</ele><time>2026-03-29T10:47:11Z</time></trkpt><trkpt lat="43.85700205400178" lon="7.587045018723251"><ele>262.42857142857144</ele><time>2026-03-29T10:47:12Z</time></trkpt><trkpt lat="43.85692923608155" lon="7.586992836746907"><ele>261.2857142857143</ele><time>2026-03-29T10:47:13Z</time></trkpt><trkpt lat="43.85686847218623" lon="7.586936606129301"><ele>260.14285714285717</ele><time>2026-03-29T10:47:14Z</time></trkpt><trkpt lat="43.856800717164745" lon="7.586881642578599"><ele>259.0</ele><time>2026-03-29T10:47:15Z</time></trkpt><trkpt lat="43.8567297444792" lon="7.586826716752088"><ele>253.39999999999998</ele><time>2026-03-29T10:47:16Z</time></trkpt><trkpt lat="43.85661674354781" lon="7.586776405211166"><ele>247.79999999999998</ele><time>2026-03-29T10:47:18Z</time></trkpt><trkpt lat="43.856504604774244" lon="7.58680037783995"><ele>242.20000000000002</ele><time>2026-03-29T10:47:20Z</time></trkpt><trkpt lat="43.856394346880336" lon="7.586813034731109"><ele>236.60000000000002</ele><time>2026-03-29T10:47:22Z</time></trkpt><trkpt lat="43.85632387839257" lon="7.58670587504704"><ele>231.0</ele><time>2026-03-29T10:47:24Z</time></trkpt><trkpt lat="43.856311309275895" lon="7.586587023865213"><ele>231.0</ele><time>2026-03-29T10:47:26Z</time></trkpt><trkpt lat="43.85627799844256" lon="7.58646837831635"><ele>231.00000000000003</ele><time>2026-03-29T10:47:28Z</time></trkpt><trkpt lat="43.85619854681318" lon="7.586406274512619"><ele>231.00000000000003</ele><time>2026-03-29T10:47:30Z</time></trkpt><trkpt lat="43.85612271365107" lon="7.586604407554997"><ele>231.0</ele><time>2026-03-29T10:47:34Z</time></trkpt><trkpt lat="43.85614252495663" lon="7.586702193267824"><ele>231.0</ele><time>2026-03-29T10:47:35Z</time></trkpt><trkpt lat="43.85615287093881" lon="7.5868053369647"><ele>231.0</ele><time>2026-03-29T10:47:36Z</time></trkpt><trkpt lat="43.856161990960764" lon="7.586925650068433"><ele>231.0</ele><time>2026-03-29T10:47:37Z</time></trkpt><trkpt lat="43.856208436431366" lon="7.587066451639786"><ele>231.0</ele><time>2026-03-29T10:47:39Z</time></trkpt><trkpt lat="43.85626431223312" lon="7.58714300702938"><ele>231.0</ele><time>2026-03-29T10:47:41Z</time></trkpt><trkpt lat="43.856292630282745" lon="7.587226653939898"><ele>231.0</ele><time>2026-03-29T10:47:45Z</time></trkpt><trkpt lat="43.856197583273804" lon="7.587195141744479"><ele>231.0</ele><time>2026-03-29T10:47:47Z</time></trkpt><trkpt lat="43.85616719749455" lon="7.587111073271945"><ele>231.0</ele><time>2026-03-29T10:47:48Z</time></trkpt><trkpt lat="43.856130906010456" lon="7.587035595806586"><ele>231.0</ele><time>2026-03-29T10:47:49Z</time></trkpt><trkpt lat="43.856091679404415" lon="7.586957767846393"><ele>231.0</ele><time>2026-03-29T10:47:50Z</time></trkpt><trkpt lat="43.85604804340967" lon="7.586867543087681"><ele>231.0</ele><time>2026-03-29T10:47:51Z</time></trkpt><trkpt lat="43.85600824628462" lon="7.586781975513806"><ele>231.0</ele><time>2026-03-29T10:47:52Z</time></trkpt><trkpt lat="43.8559673094887" lon="7.586705266305299"><ele>231.0</ele><time>2026-03-29T10:47:53Z</time></trkpt><trkpt lat="43.855909491825095" lon="7.586650100843934"><ele>231.0</ele><time>2026-03-29T10:47:54Z</time></trkpt><trkpt lat="43.85584365309099" lon="7.586607654848005"><ele>225.4</ele><time>2026-03-29T10:47:55Z</time></trkpt><trkpt lat="43.85572160564122" lon="7.58657481584487"><ele>219.8</ele><time>2026-03-29T10:47:57Z</time></trkpt><trkpt lat="43.855642767321605" lon="7.5865788743111935"><ele>214.20000000000002</ele><time>2026-03-29T10:47:58Z</time></trkpt><trkpt lat="43.85555820095353" lon="7.586590747758181"><ele>208.60000000000002</ele><time>2026-03-29T10:47:59Z</time></trkpt><trkpt lat="43.85547563634587" lon="7.586579700313942"><ele>203.0</ele><time>2026-03-29T10:48:00Z</time></trkpt><trkpt lat="43.85539853416546" lon="7.586557533121865"><ele>203.0</ele><time>2026-03-29T10:48:01Z</time></trkpt><trkpt lat="43.855325961714776" lon="7.586532515207276"><ele>203.0</ele><time>2026-03-29T10:48:02Z</time></trkpt><trkpt lat="43.85526095282742" lon="7.586496627517623"><ele>203.0</ele><time>2026-03-29T10:48:03Z</time></trkpt><trkpt lat="43.8551869900484" lon="7.586470813351386"><ele>203.0</ele><time>2026-03-29T10:48:04Z</time></trkpt><trkpt lat="43.8551316245618" lon="7.586398986015298"><ele>203.0</ele><time>2026-03-29T10:48:05Z</time></trkpt><trkpt lat="43.85506286804394" lon="7.58634756784933"><ele>203.0</ele><time>2026-03-29T10:48:06Z</time></trkpt><trkpt lat="43.85499938869496" lon="7.586300095546102"><ele>203.0</ele><time>2026-03-29T10:48:07Z</time></trkpt><trkpt lat="43.85492229011291" lon="7.5862430783010355"><ele>203.2</ele><time>2026-03-29T10:48:08Z</time></trkpt><trkpt lat="43.854843044564035" lon="7.586185990136341"><ele>203.4</ele><time>2026-03-29T10:48:09Z</time></trkpt><trkpt lat="43.854745128723074" lon="7.586147945303221"><ele>203.6</ele><time>2026-03-29T10:48:10Z</time></trkpt><trkpt lat="43.85464447532937" lon="7.586094167434138"><ele>203.79999999999998</ele><time>2026-03-29T10:48:11Z</time></trkpt><trkpt lat="43.85452974803321" lon="7.586052261999893"><ele>204.0</ele><time>2026-03-29T10:48:12Z</time></trkpt><trkpt lat="43.854424649287964" lon="7.585980963010823"><ele>204.0</ele><time>2026-03-29T10:48:13Z</time></trkpt><trkpt lat="43.85431899611932" lon="7.5859370753654245"><ele>204.0</ele><time>2026-03-29T10:48:14Z</time></trkpt><trkpt lat="43.8542140630847" lon="7.58592515081417"><ele>204.0</ele><time>2026-03-29T10:48:15Z</time></trkpt><trkpt lat="43.85412802464055" lon="7.585867613560425"><ele>204.0</ele><time>2026-03-29T10:48:16Z</time></trkpt><trkpt lat="43.85403899475417" lon="7.58583180070988"><ele>204.0</ele><time>2026-03-29T10:48:17Z</time></trkpt><trkpt lat="43.853968167481334" lon="7.585790474883176"><ele>200.33333333333334</ele><time>2026-03-29T10:48:18Z</time></trkpt><trkpt lat="43.85390110709812" lon="7.5857293376548665"><ele>196.66666666666666</ele><time>2026-03-29T10:48:19Z</time></trkpt><trkpt lat="43.8538371303875" lon="7.58566930662458"><ele>193.0</ele><time>2026-03-29T10:48:20Z</time></trkpt><trkpt lat="43.85377895223813" lon="7.585609528519006"><ele>189.33333333333331</ele><time>2026-03-29T10:48:21Z</time></trkpt><trkpt lat="43.85372064919947" lon="7.585549534880269"><ele>185.66666666666666</ele><time>2026-03-29T10:48:22Z</time></trkpt><trkpt lat="43.85368221032238" lon="7.585478906075201"><ele>182.0</ele><time>2026-03-29T10:48:23Z</time></trkpt><trkpt lat="43.85367705748473" lon="7.585323075807662"><ele>182.0</ele><time>2026-03-29T10:48:25Z</time></trkpt><trkpt lat="43.85368361350419" lon="7.58523461351768"><ele>182.0</ele><time>2026-03-29T10:48:26Z</time></trkpt><trkpt lat="43.85369010227516" lon="7.585135120288797"><ele>182.0</ele><time>2026-03-29T10:48:27Z</time></trkpt><trkpt lat="43.85369282064636" lon="7.585033043518762"><ele>182.0</ele><time>2026-03-29T10:48:28Z</time></trkpt><trkpt lat="43.85369063267114" lon="7.5849400278853025"><ele>182.0</ele><time>2026-03-29T10:48:29Z</time></trkpt><trkpt lat="43.853679437367" lon="7.584835133186104"><ele>182.0</ele><time>2026-03-29T10:48:30Z</time></trkpt><trkpt lat="43.853663081745346" lon="7.58471367709681"><ele>182.0</ele><time>2026-03-29T10:48:31Z</time></trkpt><trkpt lat="43.8536471401244" lon="7.584595174674015"><ele>181.16666666666666</ele><time>2026-03-29T10:48:32Z</time></trkpt><trkpt lat="43.85363411358628" lon="7.584485667274832"><ele>180.33333333333331</ele><time>2026-03-29T10:48:33Z</time></trkpt><trkpt lat="43.85362981162825" lon="7.58439189314098"><ele>179.5</ele><time>2026-03-29T10:48:34Z</time></trkpt><trkpt lat="43.853651752877596" lon="7.584226961086871"><ele>178.66666666666666</ele><time>2026-03-29T10:48:36Z</time></trkpt><trkpt lat="43.853680361175655" lon="7.584135545154289"><ele>177.83333333333334</ele><time>2026-03-29T10:48:37Z</time></trkpt><trkpt lat="43.85368866850159" lon="7.584004883118457"><ele>177.0</ele><time>2026-03-29T10:48:38Z</time></trkpt><trkpt lat="43.853623988020445" lon="7.583917064043127"><ele>177.0</ele><time>2026-03-29T10:48:39Z</time></trkpt><trkpt lat="43.85359851457494" lon="7.583799682839399"><ele>177.0</ele><time>2026-03-29T10:48:40Z</time></trkpt><trkpt lat="43.85362523400135" lon="7.583667865459176"><ele>177.0</ele><time>2026-03-29T10:48:41Z</time></trkpt><trkpt lat="43.85362395560156" lon="7.583537744510607"><ele>177.0</ele><time>2026-03-29T10:48:42Z</time></trkpt><trkpt lat="43.85364519291013" lon="7.58342848711944"><ele>177.0</ele><time>2026-03-29T10:48:43Z</time></trkpt><trkpt lat="43.85367384059813" lon="7.583332357189135"><ele>177.0</ele><time>2026-03-29T10:48:44Z</time></trkpt><trkpt lat="43.853619999819514" lon="7.583227405225582"><ele>174.16666666666666</ele><time>2026-03-29T10:48:45Z</time></trkpt><trkpt lat="43.85361265671694" lon="7.583131612846151"><ele>171.33333333333334</ele><time>2026-03-29T10:48:46Z</time></trkpt><trkpt lat="43.853612022262645" lon="7.583038536137553"><ele>168.5</ele><time>2026-03-29T10:48:47Z</time></trkpt><trkpt lat="43.853657384624704" lon="7.582953114005443"><ele>165.66666666666669</ele><time>2026-03-29T10:48:48Z</time></trkpt><trkpt lat="43.853724446629954" lon="7.582865009126449"><ele>162.83333333333334</ele><time>2026-03-29T10:48:49Z</time></trkpt><trkpt lat="43.85378122268152" lon="7.582776464668401"><ele>160.0</ele><time>2026-03-29T10:48:50Z</time></trkpt><trkpt lat="43.85380549108811" lon="7.582677470277026"><ele>156.66666666666669</ele><time>2026-03-29T10:48:51Z</time></trkpt><trkpt lat="43.85381442664513" lon="7.582576040858357"><ele>153.33333333333334</ele><time>2026-03-29T10:48:52Z</time></trkpt><trkpt lat="43.85381506407388" lon="7.582477332324773"><ele>150.0</ele><time>2026-03-29T10:48:53Z</time></trkpt><trkpt lat="43.853819545021835" lon="7.5823859491670325"><ele>146.66666666666666</ele><time>2026-03-29T10:48:54Z</time></trkpt><trkpt lat="43.85382455110068" lon="7.582298628043852"><ele>143.33333333333331</ele><time>2026-03-29T10:48:55Z</time></trkpt><trkpt lat="43.85382070330702" lon="7.582190722904387"><ele>140.0</ele><time>2026-03-29T10:48:57Z</time></trkpt><trkpt lat="43.85371173624527" lon="7.582137703986826"><ele>140.0</ele><time>2026-03-29T10:53:47Z</time></trkpt><trkpt lat="43.85366407243247" lon="7.582253127832448"><ele>140.0</ele><time>2026-03-29T10:53:49Z</time></trkpt><trkpt lat="43.853678737577624" lon="7.5823484383245185"><ele>140.0</ele><time>2026-03-29T10:53:50Z</time></trkpt><trkpt lat="43.85368032166043" lon="7.582446256719887"><ele>140.0</ele><time>2026-03-29T10:53:51Z</time></trkpt><trkpt lat="43.85366544308252" lon="7.582536132076306"><ele>140.0</ele><time>2026-03-29T10:53:52Z</time></trkpt><trkpt lat="43.853635382494204" lon="7.582620846638553"><ele>140.0</ele><time>2026-03-29T10:53:53Z</time></trkpt><trkpt lat="43.85358771811798" lon="7.5826974487313805"><ele>140.0</ele><time>2026-03-29T10:53:54Z</time></trkpt><trkpt lat="43.85353362963183" lon="7.582767168492868"><ele>140.0</ele><time>2026-03-29T10:53:55Z</time></trkpt><trkpt lat="43.853473150482465" lon="7.582823904970588"><ele>140.0</ele><time>2026-03-29T10:53:56Z</time></trkpt><trkpt lat="43.85340692639403" lon="7.582881036899769"><ele>140.0</ele><time>2026-03-29T10:53:57Z</time></trkpt><trkpt lat="43.85335032724357" lon="7.5829500671006524"><ele>140.0</ele><time>2026-03-29T10:53:58Z</time></trkpt><trkpt lat="43.85330426563971" lon="7.583050893472972"><ele>140.0</ele><time>2026-03-29T10:53:59Z</time></trkpt><trkpt lat="43.853257536707545" lon="7.583174537085669"><ele>140.0</ele><time>2026-03-29T10:54:00Z</time></trkpt><trkpt lat="43.85322629048602" lon="7.583300509289425"><ele>138.0</ele><time>2026-03-29T10:54:01Z</time></trkpt><trkpt lat="43.853187000816256" lon="7.583428626103152"><ele>136.0</ele><time>2026-03-29T10:54:02Z</time></trkpt><trkpt lat="43.85315038320975" lon="7.583537919137977"><ele>134.0</ele><time>2026-03-29T10:54:03Z</time></trkpt><trkpt lat="43.853109357399305" lon="7.583627352624118"><ele>132.0</ele><time>2026-03-29T10:54:04Z</time></trkpt><trkpt lat="43.85305947264911" lon="7.583690186839434"><ele>130.0</ele><time>2026-03-29T10:54:05Z</time></trkpt><trkpt lat="43.85294853730231" lon="7.583745917258912"><ele>128.0</ele><time>2026-03-29T10:54:07Z</time></trkpt><trkpt lat="43.852845532131376" lon="7.583719057329626"><ele>126.99999999999999</ele><time>2026-03-29T10:54:09Z</time></trkpt><trkpt lat="43.852817585552245" lon="7.583638585830874"><ele>126.0</ele><time>2026-03-29T10:54:10Z</time></trkpt><trkpt lat="43.85281457295981" lon="7.5834807531076445"><ele>125.0</ele><time>2026-03-29T10:54:12Z</time></trkpt><trkpt lat="43.852816881550346" lon="7.583381129601957"><ele>124.0</ele><time>2026-03-29T10:54:13Z</time></trkpt><trkpt lat="43.85282113825811" lon="7.58326788878792"><ele>122.99999999999999</ele><time>2026-03-29T10:54:14Z</time></trkpt><trkpt lat="43.852809984464656" lon="7.583170401371266"><ele>122.0</ele><time>2026-03-29T10:54:15Z</time></trkpt><trkpt lat="43.85277830738012" lon="7.583062130627588"><ele>121.99999999999999</ele><time>2026-03-29T10:54:16Z</time></trkpt><trkpt lat="43.85271772306496" lon="7.582972796767223"><ele>122.0</ele><time>2026-03-29T10:54:17Z</time></trkpt><trkpt lat="43.85262966419636" lon="7.582932501057835"><ele>122.0</ele><time>2026-03-29T10:54:18Z</time></trkpt><trkpt lat="43.85258140469983" lon="7.582862673937964"><ele>122.0</ele><time>2026-03-29T10:54:19Z</time></trkpt><trkpt lat="43.852551452340215" lon="7.58278087466358"><ele>121.99999999999999</ele><time>2026-03-29T10:54:20Z</time></trkpt><trkpt lat="43.8525039571098" lon="7.582711066057749"><ele>122.0</ele><time>2026-03-29T10:54:21Z</time></trkpt><trkpt lat="43.852446406029166" lon="7.582651738177085"><ele>118.0</ele><time>2026-03-29T10:54:22Z</time></trkpt><trkpt lat="43.85235396172941" lon="7.582579021907195"><ele>113.99999999999999</ele><time>2026-03-29T10:54:24Z</time></trkpt><trkpt lat="43.852232687502344" lon="7.582507020309409"><ele>110.0</ele><time>2026-03-29T10:54:26Z</time></trkpt><trkpt lat="43.85215484447747" lon="7.5824893507669495"><ele>106.0</ele><time>2026-03-29T10:54:27Z</time></trkpt><trkpt lat="43.852087804227374" lon="7.582441683383791"><ele>102.0</ele><time>2026-03-29T10:54:28Z</time></trkpt><trkpt lat="43.852019203330464" lon="7.582388391144375"><ele>102.0</ele><time>2026-03-29T10:54:29Z</time></trkpt><trkpt lat="43.85197595989567" lon="7.582310771835057"><ele>102.0</ele><time>2026-03-29T10:54:30Z</time></trkpt><trkpt lat="43.85194653122857" lon="7.582144957786931"><ele>102.0</ele><time>2026-03-29T10:54:32Z</time></trkpt><trkpt lat="43.851926507261425" lon="7.582037849469119"><ele>102.0</ele><time>2026-03-29T10:54:33Z</time></trkpt><trkpt lat="43.85193446605438" lon="7.581931435213"><ele>102.0</ele><time>2026-03-29T10:54:34Z</time></trkpt><trkpt lat="43.85193185548621" lon="7.581830146787601"><ele>102.0</ele><time>2026-03-29T10:54:35Z</time></trkpt><trkpt lat="43.85190341910338" lon="7.581719653277539"><ele>99.6</ele><time>2026-03-29T10:54:36Z</time></trkpt><trkpt lat="43.851842281637765" lon="7.581633939651895"><ele>97.19999999999999</ele><time>2026-03-29T10:54:37Z</time></trkpt><trkpt lat="43.85177984490181" lon="7.5815532272333135"><ele>94.8</ele><time>2026-03-29T10:54:38Z</time></trkpt><trkpt lat="43.851686112996916" lon="7.58149959831766"><ele>92.4</ele><time>2026-03-29T10:54:39Z</time></trkpt><trkpt lat="43.8515996100789" lon="7.581426141592943"><ele>90.0</ele><time>2026-03-29T10:54:40Z</time></trkpt><trkpt lat="43.85151443212594" lon="7.581372905409674"><ele>90.0</ele><time>2026-03-29T10:54:41Z</time></trkpt><trkpt lat="43.851434626673736" lon="7.581323512357491"><ele>90.0</ele><time>2026-03-29T10:54:42Z</time></trkpt><trkpt lat="43.851355063009436" lon="7.581276294017156"><ele>90.0</ele><time>2026-03-29T10:54:43Z</time></trkpt><trkpt lat="43.851260796154335" lon="7.581242600483456"><ele>90.0</ele><time>2026-03-29T10:54:44Z</time></trkpt><trkpt lat="43.851169146173476" lon="7.581176711614337"><ele>90.0</ele><time>2026-03-29T10:54:45Z</time></trkpt><trkpt lat="43.85108198880489" lon="7.5811148097724885"><ele>86.8</ele><time>2026-03-29T10:54:46Z</time></trkpt><trkpt lat="43.85099812246133" lon="7.581053255744695"><ele>83.6</ele><time>2026-03-29T10:54:47Z</time></trkpt><trkpt lat="43.85091272557015" lon="7.58099414555993"><ele>80.4</ele><time>2026-03-29T10:54:48Z</time></trkpt><trkpt lat="43.85082409737575" lon="7.580931918194636"><ele>77.2</ele><time>2026-03-29T10:54:49Z</time></trkpt><trkpt lat="43.850739059942846" lon="7.580873603075793"><ele>74.0</ele><time>2026-03-29T10:54:50Z</time></trkpt><trkpt lat="43.85066219293217" lon="7.580796901737688"><ele>74.0</ele><time>2026-03-29T10:54:51Z</time></trkpt><trkpt lat="43.85056568839319" lon="7.580776061032362"><ele>74.0</ele><time>2026-03-29T10:54:52Z</time></trkpt><trkpt lat="43.8504745090314" lon="7.5807625441195485"><ele>74.0</ele><time>2026-03-29T10:54:53Z</time></trkpt><trkpt lat="43.8503705914623" lon="7.580779920184947"><ele>74.0</ele><time>2026-03-29T10:54:54Z</time></trkpt><trkpt lat="43.8502707495404" lon="7.580807734797365"><ele>74.0</ele><time>2026-03-29T10:54:55Z</time></trkpt><trkpt lat="43.850179913871415" lon="7.580764333992081"><ele>72.4</ele><time>2026-03-29T10:54:56Z</time></trkpt><trkpt lat="43.85008705104981" lon="7.580704631388571"><ele>70.80000000000001</ele><time>2026-03-29T10:54:57Z</time></trkpt><trkpt lat="43.849986813066494" lon="7.58063047594199"><ele>69.19999999999999</ele><time>2026-03-29T10:54:58Z</time></trkpt><trkpt lat="43.84988438516671" lon="7.580550645479063"><ele>67.6</ele><time>2026-03-29T10:54:59Z</time></trkpt><trkpt lat="43.84979652921561" lon="7.580473140168943"><ele>66.0</ele><time>2026-03-29T10:55:00Z</time></trkpt><trkpt lat="43.84971317569154" lon="7.580385591790915"><ele>65.83333333333333</ele><time>2026-03-29T10:55:01Z</time></trkpt><trkpt lat="43.84963547004939" lon="7.5803121915997025"><ele>65.66666666666667</ele><time>2026-03-29T10:55:02Z</time></trkpt><trkpt lat="43.84956210189166" lon="7.580249777994528"><ele>65.5</ele><time>2026-03-29T10:55:03Z</time></trkpt><trkpt lat="43.84948736792012" lon="7.580209451057756"><ele>65.33333333333334</ele><time>2026-03-29T10:55:04Z</time></trkpt><trkpt lat="43.84941105390392" lon="7.580186767251747"><ele>65.16666666666667</ele><time>2026-03-29T10:55:05Z</time></trkpt><trkpt lat="43.84934400975598" lon="7.580140456894855"><ele>65.0</ele><time>2026-03-29T10:55:06Z</time></trkpt><trkpt lat="43.84928065962535" lon="7.580117895110267"><ele>65.0</ele><time>2026-03-29T10:55:07Z</time></trkpt><trkpt lat="43.84920589688622" lon="7.580097182509649"><ele>65.0</ele><time>2026-03-29T10:55:09Z</time></trkpt><trkpt lat="43.84920578745161" lon="7.5799655354427395"><ele>65.0</ele><time>2026-03-29T10:55:39Z</time></trkpt><trkpt lat="43.849252076067266" lon="7.579890408948377"><ele>65.0</ele><time>2026-03-29T10:55:40Z</time></trkpt><trkpt lat="43.84929985213845" lon="7.5798310447559185"><ele>65.0</ele><time>2026-03-29T10:55:41Z</time></trkpt><trkpt lat="43.84934318321259" lon="7.579758408566823"><ele>65.0</ele><time>2026-03-29T10:55:42Z</time></trkpt><trkpt lat="43.84939504476468" lon="7.5796720716701325"><ele>65.0</ele><time>2026-03-29T10:55:43Z</time></trkpt><trkpt lat="43.84944639347402" lon="7.579589251355645"><ele>65.0</ele><time>2026-03-29T10:55:44Z</time></trkpt><trkpt lat="43.84949925834267" lon="7.579507551962034"><ele>65.0</ele><time>2026-03-29T10:55:45Z</time></trkpt><trkpt lat="43.849565112366946" lon="7.579413343345898"><ele>65.0</ele><time>2026-03-29T10:55:46Z</time></trkpt><trkpt lat="43.84963771052657" lon="7.57931434078719"><ele>65.0</ele><time>2026-03-29T10:55:47Z</time></trkpt><trkpt lat="43.8497060163736" lon="7.579221808877406"><ele>65.75</ele><time>2026-03-29T10:55:48Z</time></trkpt><trkpt lat="43.849782109588915" lon="7.579128951426127"><ele>66.5</ele><time>2026-03-29T10:55:49Z</time></trkpt><trkpt lat="43.84987295944785" lon="7.57903749136125"><ele>67.25</ele><time>2026-03-29T10:55:50Z</time></trkpt><trkpt lat="43.849967868450044" lon="7.578944624060032"><ele>68.0</ele><time>2026-03-29T10:55:51Z</time></trkpt><trkpt lat="43.85006714936946" lon="7.578844553486141"><ele>72.75</ele><time>2026-03-29T10:55:52Z</time></trkpt><trkpt lat="43.8501619764821" lon="7.578747108815948"><ele>77.5</ele><time>2026-03-29T10:55:53Z</time></trkpt><trkpt lat="43.850262478087956" lon="7.578650547697281"><ele>82.25</ele><time>2026-03-29T10:55:54Z</time></trkpt><trkpt lat="43.85037766060712" lon="7.578550350251801"><ele>87.0</ele><time>2026-03-29T10:55:55Z</time></trkpt><trkpt lat="43.85051588898673" lon="7.578433861109218"><ele>87.0</ele><time>2026-03-29T10:55:56Z</time></trkpt><trkpt lat="43.85064804898853" lon="7.57831178422699"><ele>87.0</ele><time>2026-03-29T10:55:57Z</time></trkpt><trkpt lat="43.850784199602515" lon="7.57822100831675"><ele>87.0</ele><time>2026-03-29T10:55:58Z</time></trkpt><trkpt lat="43.85090418269924" lon="7.578118167057131"><ele>104.66666666666666</ele><time>2026-03-29T10:55:59Z</time></trkpt><trkpt lat="43.851025853482746" lon="7.578013879074972"><ele>122.33333333333333</ele><time>2026-03-29T10:56:00Z</time></trkpt><trkpt lat="43.85115379618582" lon="7.57790421515608"><ele>140.0</ele><time>2026-03-29T10:56:01Z</time></trkpt><trkpt lat="43.851294821885475" lon="7.577783337520568"><ele>140.0</ele><time>2026-03-29T10:56:02.062Z</time></trkpt><trkpt lat="43.8514175945122" lon="7.577678105323204"><ele>140.0</ele><time>2026-03-29T10:56:03.051Z</time></trkpt><trkpt lat="43.85153887965127" lon="7.577574147920533"><ele>140.0</ele><time>2026-03-29T10:56:04.052Z</time></trkpt><trkpt lat="43.85166525029382" lon="7.577465831611909"><ele>140.0</ele><time>2026-03-29T10:56:05.047Z</time></trkpt><trkpt lat="43.852552923506" lon="7.576700747670149"><ele>200.5</ele><time>2026-03-29T10:56:08.923Z</time></trkpt><trkpt lat="43.85277368816069" lon="7.576482574069451"><ele>261.0</ele><time>2026-03-29T10:56:09.926Z</time></trkpt><trkpt lat="43.85300240409254" lon="7.576285035306295"><ele>258.0</ele><time>2026-03-29T10:56:10.925Z</time></trkpt><trkpt lat="43.853240850551664" lon="7.576107910508785"><ele>255.0</ele><time>2026-03-29T10:56:11.926Z</time></trkpt><trkpt lat="43.85346372827748" lon="7.575896464438568"><ele>255.0</ele><time>2026-03-29T10:56:12.926Z</time></trkpt><trkpt lat="43.85370809161927" lon="7.575737355632384"><ele>255.0</ele><time>2026-03-29T10:56:13.926Z</time></trkpt><trkpt lat="43.8539401320952" lon="7.5755453183185155"><ele>255.0</ele><time>2026-03-29T10:56:14.926Z</time></trkpt><trkpt lat="43.854190480854086" lon="7.5754047933521935"><ele>255.0</ele><time>2026-03-29T10:56:15.926Z</time></trkpt><trkpt lat="43.85443633478628" lon="7.575251991655345"><ele>199.0</ele><time>2026-03-29T10:56:16.926Z</time></trkpt><trkpt lat="43.85502170889326" lon="7.5749336195076085"><ele>66.0</ele><time>2026-03-29T10:56:17.926Z</time></trkpt><trkpt lat="43.8554708" lon="7.5746876"><ele>104.0</ele><time>2026-03-29T10:56:18.924Z</time></trkpt><trkpt lat="43.85626325883896" lon="7.574304953380367"><ele>104.0</ele><time>2026-03-29T10:56:39Z</time></trkpt><trkpt lat="43.85639095912591" lon="7.574231636492535"><ele>104.0</ele><time>2026-03-29T10:56:40Z</time></trkpt><trkpt lat="43.85650725510014" lon="7.574173594515597"><ele>104.0</ele><time>2026-03-29T10:56:41Z</time></trkpt><trkpt lat="43.85662774378996" lon="7.574112321244825"><ele>104.0</ele><time>2026-03-29T10:56:42Z</time></trkpt><trkpt lat="43.85674958833967" lon="7.5740702396549295"><ele>155.0</ele><time>2026-03-29T10:56:43Z</time></trkpt><trkpt lat="43.8575569" lon="7.5736441"><ele>118.0</ele><time>2026-03-29T10:56:50.926Z</time></trkpt><trkpt lat="43.86785021637379" lon="7.55389754735079"><ele>118.0</ele><time>2026-03-29T10:58:56Z</time></trkpt><trkpt lat="43.86794209029256" lon="7.5538593311369535"><ele>118.00000000000001</ele><time>2026-03-29T11:01:10.001Z</time></trkpt><trkpt lat="43.86796473616086" lon="7.553769274833312"><ele>118.00000000000001</ele><time>2026-03-29T11:01:26Z</time></trkpt><trkpt lat="43.8680219583393" lon="7.553655758360083"><ele>118.0</ele><time>2026-03-29T11:01:28Z</time></trkpt><trkpt lat="43.86809666315205" lon="7.553536099137936"><ele>118.0</ele><time>2026-03-29T11:01:30Z</time></trkpt><trkpt lat="43.868144986664944" lon="7.553452712880456"><ele>118.0</ele><time>2026-03-29T11:01:32Z</time></trkpt><trkpt lat="43.86826420453199" lon="7.55348154402454"><ele>118.00000000000001</ele><time>2026-03-29T11:01:36Z</time></trkpt><trkpt lat="43.868370067359265" lon="7.5535799744023855"><ele>118.00000000000001</ele><time>2026-03-29T11:01:38Z</time></trkpt><trkpt lat="43.868441099889466" lon="7.553638356045608"><ele>118.0</ele><time>2026-03-29T11:01:39Z</time></trkpt><trkpt lat="43.86851154047485" lon="7.553682625998847"><ele>118.0</ele><time>2026-03-29T11:01:40Z</time></trkpt><trkpt lat="43.86858361952875" lon="7.553736085754153"><ele>117.00000000000001</ele><time>2026-03-29T11:01:41Z</time></trkpt><trkpt lat="43.868663458681134" lon="7.553797675740744"><ele>116.0</ele><time>2026-03-29T11:01:42Z</time></trkpt><trkpt lat="43.86874265178086" lon="7.553865165384822"><ele>115.0</ele><time>2026-03-29T11:01:43Z</time></trkpt><trkpt lat="43.86880022243545" lon="7.553933633231778"><ele>114.0</ele><time>2026-03-29T11:01:44Z</time></trkpt><trkpt lat="43.868854932993074" lon="7.553999369953682"><ele>113.00000000000001</ele><time>2026-03-29T11:01:45Z</time></trkpt><trkpt lat="43.86890650960599" lon="7.55406938538246"><ele>112.0</ele><time>2026-03-29T11:01:46Z</time></trkpt><trkpt lat="43.868959102993024" lon="7.554137882378888"><ele>112.00000000000001</ele><time>2026-03-29T11:01:47Z</time></trkpt><trkpt lat="43.86901963501987" lon="7.5541994716564265"><ele>112.0</ele><time>2026-03-29T11:01:48Z</time></trkpt><trkpt lat="43.86908853790863" lon="7.554246246104716"><ele>112.0</ele><time>2026-03-29T11:01:49Z</time></trkpt><trkpt lat="43.86916587845688" lon="7.554280010341156"><ele>112.0</ele><time>2026-03-29T11:01:50Z</time></trkpt><trkpt lat="43.869246459078965" lon="7.554304173983372"><ele>112.00000000000001</ele><time>2026-03-29T11:01:51Z</time></trkpt><trkpt lat="43.86931956310034" lon="7.554320148921801"><ele>112.0</ele><time>2026-03-29T11:01:52Z</time></trkpt><trkpt lat="43.86938733099925" lon="7.554325062552432"><ele>113.19999999999999</ele><time>2026-03-29T11:01:53Z</time></trkpt><trkpt lat="43.86945048853916" lon="7.554325272573306"><ele>114.39999999999999</ele><time>2026-03-29T11:01:54Z</time></trkpt><trkpt lat="43.86956650788427" lon="7.5543235236082245"><ele>115.60000000000001</ele><time>2026-03-29T11:01:56Z</time></trkpt><trkpt lat="43.86968111966639" lon="7.5543448498318755"><ele>116.80000000000001</ele><time>2026-03-29T11:01:58Z</time></trkpt><trkpt lat="43.869784724138526" lon="7.554340440258399"><ele>118.0</ele><time>2026-03-29T11:02:00Z</time></trkpt><trkpt lat="43.86986470762309" lon="7.554324743134254"><ele>118.00000000000001</ele><time>2026-03-29T11:02:02Z</time></trkpt><trkpt lat="43.86993360504348" lon="7.5543232219231875"><ele>118.0</ele><time>2026-03-29T11:02:05Z</time></trkpt><trkpt lat="43.87001703858763" lon="7.554321697891354"><ele>118.0</ele><time>2026-03-29T11:04:46Z</time></trkpt><trkpt lat="43.87007272323265" lon="7.554373906984123"><ele>118.0</ele><time>2026-03-29T11:04:50Z</time></trkpt><trkpt lat="43.87012488810493" lon="7.554483334213817"><ele>118.00000000000001</ele><time>2026-03-29T11:04:54Z</time></trkpt><trkpt lat="43.87015238386228" lon="7.554589504544488"><ele>118.0</ele><time>2026-03-29T11:04:57Z</time></trkpt><trkpt lat="43.87017386686581" lon="7.554675451114836"><ele>119.0</ele><time>2026-03-29T11:04:59Z</time></trkpt><trkpt lat="43.87022052747506" lon="7.554770752663062"><ele>120.0</ele><time>2026-03-29T11:05:01Z</time></trkpt><trkpt lat="43.87027556024747" lon="7.554828074813506"><ele>121.0</ele><time>2026-03-29T11:05:03Z</time></trkpt><trkpt lat="43.8703497258897" lon="7.5548831577548325"><ele>122.0</ele><time>2026-03-29T11:05:05Z</time></trkpt><trkpt lat="43.87040844200239" lon="7.554915863738249"><ele>123.0</ele><time>2026-03-29T11:05:06Z</time></trkpt><trkpt lat="43.870467046378195" lon="7.554953987825756"><ele>124.0</ele><time>2026-03-29T11:05:07Z</time></trkpt><trkpt lat="43.8705293361646" lon="7.554996891465326"><ele>125.0</ele><time>2026-03-29T11:05:08Z</time></trkpt><trkpt lat="43.87059002560134" lon="7.555041380583543"><ele>124.99999999999999</ele><time>2026-03-29T11:05:09Z</time></trkpt><trkpt lat="43.870654797853064" lon="7.555089436177442"><ele>125.0</ele><time>2026-03-29T11:05:10Z</time></trkpt><trkpt lat="43.87072049373352" lon="7.555137532421804"><ele>125.0</ele><time>2026-03-29T11:05:11Z</time></trkpt><trkpt lat="43.87078032372511" lon="7.555179826438201"><ele>125.0</ele><time>2026-03-29T11:05:12Z</time></trkpt><trkpt lat="43.8708830988936" lon="7.555244570076898"><ele>124.99999999999999</ele><time>2026-03-29T11:05:14Z</time></trkpt><trkpt lat="43.870966183828564" lon="7.555301136179098"><ele>125.0</ele><time>2026-03-29T11:05:16Z</time></trkpt><trkpt lat="43.871014336659464" lon="7.5553808291854985"><ele>124.99999999999999</ele><time>2026-03-29T11:05:19.001Z</time></trkpt><trkpt lat="43.87094721242902" lon="7.555378576764674"><ele>125.0</ele><time>2026-03-29T11:05:24Z</time></trkpt><trkpt lat="43.870890616943285" lon="7.555337926648561"><ele>125.0</ele><time>2026-03-29T11:05:27Z</time></trkpt><trkpt lat="43.870811679029515" lon="7.555293140656977"><ele>125.0</ele><time>2026-03-29T11:05:29Z</time></trkpt><trkpt lat="43.870697259295824" lon="7.555229676579237"><ele>124.99999999999999</ele><time>2026-03-29T11:05:31Z</time></trkpt><trkpt lat="43.870634080349454" lon="7.555196435137934"><ele>125.0</ele><time>2026-03-29T11:05:32Z</time></trkpt><trkpt lat="43.87057385909197" lon="7.555163663859807"><ele>124.99999999999999</ele><time>2026-03-29T11:05:33Z</time></trkpt><trkpt lat="43.870459031915665" lon="7.5550881836889365"><ele>125.0</ele><time>2026-03-29T11:05:35Z</time></trkpt><trkpt lat="43.87039460337126" lon="7.555045816095517"><ele>125.0</ele><time>2026-03-29T11:05:36Z</time></trkpt><trkpt lat="43.870333095044145" lon="7.554988489090207"><ele>125.0</ele><time>2026-03-29T11:05:37Z</time></trkpt><trkpt lat="43.87026279466104" lon="7.554941041152378"><ele>124.99999999999999</ele><time>2026-03-29T11:05:38Z</time></trkpt><trkpt lat="43.87019702709517" lon="7.554890555610881"><ele>125.0</ele><time>2026-03-29T11:05:39Z</time></trkpt><trkpt lat="43.8701302714537" lon="7.554842092132359"><ele>120.99999999999999</ele><time>2026-03-29T11:05:40Z</time></trkpt><trkpt lat="43.870063660375855" lon="7.554794416568852"><ele>117.0</ele><time>2026-03-29T11:05:41Z</time></trkpt><trkpt lat="43.87000333324078" lon="7.554743361003992"><ele>113.0</ele><time>2026-03-29T11:05:42Z</time></trkpt><trkpt lat="43.86994012015454" lon="7.5546956400163285"><ele>109.0</ele><time>2026-03-29T11:05:43Z</time></trkpt><trkpt lat="43.86986813623084" lon="7.554656386382802"><ele>104.99999999999999</ele><time>2026-03-29T11:05:44Z</time></trkpt><trkpt lat="43.86978666393912" lon="7.554629369278716"><ele>101.0</ele><time>2026-03-29T11:05:45Z</time></trkpt><trkpt lat="43.869687428512066" lon="7.5546218433987375"><ele>100.99999999999999</ele><time>2026-03-29T11:05:46Z</time></trkpt><trkpt lat="43.86959591286825" lon="7.55460186698586"><ele>101.0</ele><time>2026-03-29T11:05:47Z</time></trkpt><trkpt lat="43.869516986824934" lon="7.554576056214299"><ele>101.0</ele><time>2026-03-29T11:05:48Z</time></trkpt><trkpt lat="43.86944694235119" lon="7.554553532228382"><ele>101.0</ele><time>2026-03-29T11:05:49Z</time></trkpt><trkpt lat="43.869375327106304" lon="7.554526553051739"><ele>100.99999999999999</ele><time>2026-03-29T11:05:50Z</time></trkpt><trkpt lat="43.86930331635814" lon="7.55449484394118"><ele>101.0</ele><time>2026-03-29T11:05:51Z</time></trkpt><trkpt lat="43.869232588460626" lon="7.554459578892847"><ele>101.99999999999999</ele><time>2026-03-29T11:05:52Z</time></trkpt><trkpt lat="43.869167162838075" lon="7.55443439461317"><ele>103.0</ele><time>2026-03-29T11:05:53Z</time></trkpt><trkpt lat="43.86910185365852" lon="7.554430590713401"><ele>104.0</ele><time>2026-03-29T11:05:54Z</time></trkpt><trkpt lat="43.869007045063604" lon="7.554463177456245"><ele>105.0</ele><time>2026-03-29T11:05:56Z</time></trkpt><trkpt lat="43.868944329221954" lon="7.554550394202297"><ele>105.99999999999999</ele><time>2026-03-29T11:05:58Z</time></trkpt><trkpt lat="43.868917087542776" lon="7.5546989184346565"><ele>107.0</ele><time>2026-03-29T11:06:00Z</time></trkpt><trkpt lat="43.868935217569074" lon="7.554846728945292"><ele>106.99999999999999</ele><time>2026-03-29T11:06:02Z</time></trkpt><trkpt lat="43.86900232736428" lon="7.554981741171151"><ele>107.0</ele><time>2026-03-29T11:06:04Z</time></trkpt><trkpt lat="43.86905704818138" lon="7.555033171944845"><ele>107.0</ele><time>2026-03-29T11:06:05Z</time></trkpt><trkpt lat="43.86911946379407" lon="7.5550846050843"><ele>107.0</ele><time>2026-03-29T11:06:06Z</time></trkpt><trkpt lat="43.869178932489305" lon="7.555142575020317"><ele>106.99999999999999</ele><time>2026-03-29T11:06:07Z</time></trkpt><trkpt lat="43.86923210359237" lon="7.555200147899277"><ele>107.0</ele><time>2026-03-29T11:06:08Z</time></trkpt><trkpt lat="43.86928339336598" lon="7.555258752105526"><ele>106.16666666666666</ele><time>2026-03-29T11:06:09Z</time></trkpt><trkpt lat="43.86934239965199" lon="7.5553259249454285"><ele>105.33333333333333</ele><time>2026-03-29T11:06:10Z</time></trkpt><trkpt lat="43.869405233830086" lon="7.555396382563821"><ele>104.5</ele><time>2026-03-29T11:06:11Z</time></trkpt><trkpt lat="43.869474031303845" lon="7.555476543995204"><ele>103.66666666666666</ele><time>2026-03-29T11:06:12Z</time></trkpt><trkpt lat="43.86954434140537" lon="7.555562172246981"><ele>102.83333333333333</ele><time>2026-03-29T11:06:13Z</time></trkpt><trkpt lat="43.86962544631112" lon="7.555654612526584"><ele>102.0</ele><time>2026-03-29T11:06:14Z</time></trkpt><trkpt lat="43.86970467861706" lon="7.555748916975197"><ele>102.0</ele><time>2026-03-29T11:06:15Z</time></trkpt><trkpt lat="43.86977147896968" lon="7.555828382305564"><ele>102.0</ele><time>2026-03-29T11:06:16Z</time></trkpt><trkpt lat="43.86983346488453" lon="7.555892718957081"><ele>102.0</ele><time>2026-03-29T11:06:17Z</time></trkpt><trkpt lat="43.86992242931653" lon="7.55598264514118"><ele>102.0</ele><time>2026-03-29T11:06:19Z</time></trkpt><trkpt lat="43.86997358636374" lon="7.55605012238431"><ele>102.0</ele><time>2026-03-29T11:06:21Z</time></trkpt><trkpt lat="43.87003074797498" lon="7.556135177503456"><ele>102.0</ele><time>2026-03-29T11:06:23Z</time></trkpt><trkpt lat="43.870052084958665" lon="7.556293653294305"><ele>103.33333333333333</ele><time>2026-03-29T11:06:25Z</time></trkpt><trkpt lat="43.87002831502538" lon="7.556380579538238"><ele>104.66666666666666</ele><time>2026-03-29T11:06:26Z</time></trkpt><trkpt lat="43.869985319525235" lon="7.556466556381896"><ele>106.0</ele><time>2026-03-29T11:06:27Z</time></trkpt><trkpt lat="43.869934540339884" lon="7.556556242623789"><ele>107.33333333333333</ele><time>2026-03-29T11:06:28Z</time></trkpt><trkpt lat="43.869896551142624" lon="7.55662906270003"><ele>108.66666666666666</ele><time>2026-03-29T11:06:29Z</time></trkpt><trkpt lat="43.86982486009128" lon="7.556782936768649"><ele>110.0</ele><time>2026-03-29T11:06:31Z</time></trkpt><trkpt lat="43.869779351470925" lon="7.556877723833324"><ele>110.0</ele><time>2026-03-29T11:06:32Z</time></trkpt><trkpt lat="43.86971909064662" lon="7.556974528988224"><ele>110.0</ele><time>2026-03-29T11:06:33Z</time></trkpt><trkpt lat="43.86965294549868" lon="7.557078192447042"><ele>110.0</ele><time>2026-03-29T11:06:34Z</time></trkpt><trkpt lat="43.869585682740855" lon="7.557171924120517"><ele>110.0</ele><time>2026-03-29T11:06:35Z</time></trkpt><trkpt lat="43.86953432817804" lon="7.557255502527317"><ele>110.0</ele><time>2026-03-29T11:06:36Z</time></trkpt><trkpt lat="43.86946490487672" lon="7.557371522022062"><ele>107.83333333333333</ele><time>2026-03-29T11:06:38Z</time></trkpt><trkpt lat="43.86938017279692" lon="7.557476537854153"><ele>105.66666666666666</ele><time>2026-03-29T11:06:40Z</time></trkpt><trkpt lat="43.8693343590617" lon="7.557544548722309"><ele>103.5</ele><time>2026-03-29T11:06:41Z</time></trkpt><trkpt lat="43.8692714685168" lon="7.557652092083491"><ele>101.33333333333334</ele><time>2026-03-29T11:06:43Z</time></trkpt><trkpt lat="43.86922540894456" lon="7.5577123647228115"><ele>99.16666666666667</ele><time>2026-03-29T11:06:45Z</time></trkpt><trkpt lat="43.8691893525752" lon="7.557786190588982"><ele>97.0</ele><time>2026-03-29T11:06:48Z</time></trkpt><trkpt lat="43.86913985147619" lon="7.557862203568078"><ele>98.6</ele><time>2026-03-29T11:07:05Z</time></trkpt><trkpt lat="43.869088685295296" lon="7.557929131166056"><ele>100.19999999999999</ele><time>2026-03-29T11:07:06Z</time></trkpt><trkpt lat="43.86902887130913" lon="7.558025935896178"><ele>101.8</ele><time>2026-03-29T11:07:07Z</time></trkpt><trkpt lat="43.86896845202583" lon="7.5581226038049625"><ele>103.4</ele><time>2026-03-29T11:07:08Z</time></trkpt><trkpt lat="43.868873967911625" lon="7.5582020188839785"><ele>105.0</ele><time>2026-03-29T11:07:10Z</time></trkpt><trkpt lat="43.86880861897883" lon="7.558108630059982"><ele>105.0</ele><time>2026-03-29T11:07:12Z</time></trkpt><trkpt lat="43.86884377352084" lon="7.557963726662301"><ele>105.0</ele><time>2026-03-29T11:07:14Z</time></trkpt><trkpt lat="43.8689368092241" lon="7.557934534472353"><ele>105.0</ele><time>2026-03-29T11:07:15Z</time></trkpt><trkpt lat="43.86900877714335" lon="7.557849393925278"><ele>105.0</ele><time>2026-03-29T11:07:16Z</time></trkpt><trkpt lat="43.86909279962277" lon="7.557746060991966"><ele>105.0</ele><time>2026-03-29T11:07:17Z</time></trkpt><trkpt lat="43.869167080759574" lon="7.557586328319562"><ele>103.4</ele><time>2026-03-29T11:07:18Z</time></trkpt><trkpt lat="43.86921941921722" lon="7.557439995062911"><ele>101.8</ele><time>2026-03-29T11:07:19Z</time></trkpt><trkpt lat="43.869281957361466" lon="7.557340435610949"><ele>100.19999999999999</ele><time>2026-03-29T11:07:20Z</time></trkpt><trkpt lat="43.869319814007724" lon="7.557259806380416"><ele>98.6</ele><time>2026-03-29T11:07:21Z</time></trkpt><trkpt lat="43.86937047010023" lon="7.55713000275845"><ele>97.0</ele><time>2026-03-29T11:07:23Z</time></trkpt><trkpt lat="43.869365433367165" lon="7.5570428375489405"><ele>99.16666666666667</ele><time>2026-03-29T11:07:24Z</time></trkpt><trkpt lat="43.8693189134123" lon="7.556971356956189"><ele>101.33333333333334</ele><time>2026-03-29T11:07:25Z</time></trkpt><trkpt lat="43.86922810553249" lon="7.55698896954092"><ele>103.5</ele><time>2026-03-29T11:07:26Z</time></trkpt><trkpt lat="43.869191414200586" lon="7.557061855352227"><ele>105.66666666666666</ele><time>2026-03-29T11:07:27Z</time></trkpt><trkpt lat="43.869152364814866" lon="7.5571817339811735"><ele>107.83333333333333</ele><time>2026-03-29T11:07:28Z</time></trkpt><trkpt lat="43.869110638034776" lon="7.557317024923297"><ele>110.0</ele><time>2026-03-29T11:07:29Z</time></trkpt><trkpt lat="43.86907370597058" lon="7.55742683576645"><ele>109.0</ele><time>2026-03-29T11:07:30Z</time></trkpt><trkpt lat="43.86902809525442" lon="7.557520964965391"><ele>108.0</ele><time>2026-03-29T11:07:31Z</time></trkpt><trkpt lat="43.8689567082072" lon="7.5576135845874095"><ele>107.0</ele><time>2026-03-29T11:07:32Z</time></trkpt><trkpt lat="43.86886231711929" lon="7.557701110414481"><ele>106.0</ele><time>2026-03-29T11:07:33Z</time></trkpt><trkpt lat="43.868755245041285" lon="7.557795641293756"><ele>105.0</ele><time>2026-03-29T11:07:34Z</time></trkpt><trkpt lat="43.86865165218409" lon="7.5578955359785125"><ele>105.0</ele><time>2026-03-29T11:07:35Z</time></trkpt><trkpt lat="43.86857187386478" lon="7.558002591995685"><ele>105.0</ele><time>2026-03-29T11:07:36Z</time></trkpt><trkpt lat="43.868487254201526" lon="7.5581155982786665"><ele>105.0</ele><time>2026-03-29T11:07:37Z</time></trkpt><trkpt lat="43.86839382041288" lon="7.558239071590081"><ele>105.0</ele><time>2026-03-29T11:07:38Z</time></trkpt><trkpt lat="43.868296662801285" lon="7.55837127076606"><ele>110.75</ele><time>2026-03-29T11:07:39Z</time></trkpt><trkpt lat="43.86820654601202" lon="7.558492343791465"><ele>116.5</ele><time>2026-03-29T11:07:40Z</time></trkpt><trkpt lat="43.86812826196728" lon="7.558598502653096"><ele>122.25</ele><time>2026-03-29T11:07:41Z</time></trkpt><trkpt lat="43.86805481545366" lon="7.558712686986882"><ele>128.0</ele><time>2026-03-29T11:07:42Z</time></trkpt><trkpt lat="43.86799047437791" lon="7.558849020315396"><ele>127.99999999999999</ele><time>2026-03-29T11:07:43Z</time></trkpt><trkpt lat="43.86794827126577" lon="7.558981165529737"><ele>128.0</ele><time>2026-03-29T11:07:44Z</time></trkpt><trkpt lat="43.867927890593734" lon="7.5591067484918275"><ele>128.0</ele><time>2026-03-29T11:07:45Z</time></trkpt><trkpt lat="43.867914927372624" lon="7.559228027254908"><ele>128.0</ele><time>2026-03-29T11:07:46Z</time></trkpt><trkpt lat="43.86790218351649" lon="7.55932805546464"><ele>127.99999999999999</ele><time>2026-03-29T11:07:47Z</time></trkpt><trkpt lat="43.86784148758795" lon="7.559401308871693"><ele>128.0</ele><time>2026-03-29T11:07:48Z</time></trkpt><trkpt lat="43.86776158924321" lon="7.55947110411284"><ele>125.2</ele><time>2026-03-29T11:07:49Z</time></trkpt><trkpt lat="43.86767839867682" lon="7.559577797341291"><ele>122.4</ele><time>2026-03-29T11:07:50Z</time></trkpt><trkpt lat="43.867622223620025" lon="7.559684492212574"><ele>119.60000000000001</ele><time>2026-03-29T11:07:51Z</time></trkpt><trkpt lat="43.86757330595189" lon="7.559789960152926"><ele>116.80000000000001</ele><time>2026-03-29T11:07:52Z</time></trkpt><trkpt lat="43.86753942299509" lon="7.559886834430344"><ele>114.0</ele><time>2026-03-29T11:07:53Z</time></trkpt><trkpt lat="43.8675149950028" lon="7.559987792347407"><ele>126.0</ele><time>2026-03-29T11:07:54Z</time></trkpt><trkpt lat="43.86759080360983" lon="7.560139714129415"><ele>138.0</ele><time>2026-03-29T11:07:55Z</time></trkpt><trkpt lat="43.86760052225955" lon="7.560281841826653"><ele>150.0</ele><time>2026-03-29T11:07:56Z</time></trkpt><trkpt lat="43.86759609039862" lon="7.560396276726641"><ele>162.0</ele><time>2026-03-29T11:07:57Z</time></trkpt><trkpt lat="43.86755672734296" lon="7.5605042771306215"><ele>174.0</ele><time>2026-03-29T11:07:58Z</time></trkpt><trkpt lat="43.86750715740574" lon="7.560638990762769"><ele>174.0</ele><time>2026-03-29T11:07:59Z</time></trkpt><trkpt lat="43.86744322207401" lon="7.56078454862224"><ele>174.0</ele><time>2026-03-29T11:08:00Z</time></trkpt><trkpt lat="43.86737734621941" lon="7.560935929614963"><ele>174.0</ele><time>2026-03-29T11:08:01Z</time></trkpt><trkpt lat="43.867331077418186" lon="7.5610556564952365"><ele>174.0</ele><time>2026-03-29T11:08:02Z</time></trkpt><trkpt lat="43.86730620844365" lon="7.561198986987307"><ele>173.0</ele><time>2026-03-29T11:08:03Z</time></trkpt><trkpt lat="43.867294660947266" lon="7.561352583766859"><ele>172.0</ele><time>2026-03-29T11:08:04Z</time></trkpt><trkpt lat="43.86731044892435" lon="7.561505150581522"><ele>171.0</ele><time>2026-03-29T11:08:05Z</time></trkpt><trkpt lat="43.867358027382274" lon="7.561661637656761"><ele>170.0</ele><time>2026-03-29T11:08:06Z</time></trkpt><trkpt lat="43.867405793991004" lon="7.561787109689786"><ele>169.0</ele><time>2026-03-29T11:08:07Z</time></trkpt><trkpt lat="43.867425570255335" lon="7.561887198838518"><ele>169.0</ele><time>2026-03-29T11:08:08Z</time></trkpt><trkpt lat="43.86739706611007" lon="7.561976574401729"><ele>169.0</ele><time>2026-03-29T11:08:09Z</time></trkpt><trkpt lat="43.867377066485595" lon="7.562135093595684"><ele>169.0</ele><time>2026-03-29T11:08:10Z</time></trkpt><trkpt lat="43.86735757831588" lon="7.562326748228037"><ele>169.0</ele><time>2026-03-29T11:08:11Z</time></trkpt><trkpt lat="43.867342579017766" lon="7.562471391000806"><ele>169.0</ele><time>2026-03-29T11:08:12Z</time></trkpt><trkpt lat="43.867323664961496" lon="7.562573060443967"><ele>167.39999999999998</ele><time>2026-03-29T11:08:13Z</time></trkpt><trkpt lat="43.86729076052533" lon="7.56264917942231"><ele>165.8</ele><time>2026-03-29T11:08:14Z</time></trkpt><trkpt lat="43.86716259693015" lon="7.562669174119192"><ele>164.2</ele><time>2026-03-29T11:08:16Z</time></trkpt><trkpt lat="43.86707295134871" lon="7.562615279788924"><ele>162.60000000000002</ele><time>2026-03-29T11:08:17Z</time></trkpt><trkpt lat="43.86696517628289" lon="7.562559257533196"><ele>161.0</ele><time>2026-03-29T11:08:18Z</time></trkpt><trkpt lat="43.86685558792805" lon="7.562501049106891"><ele>165.60000000000002</ele><time>2026-03-29T11:08:19Z</time></trkpt><trkpt lat="43.86674554562024" lon="7.562455929019642"><ele>170.2</ele><time>2026-03-29T11:08:20Z</time></trkpt><trkpt lat="43.86664926121447" lon="7.562415087224949"><ele>174.8</ele><time>2026-03-29T11:08:21Z</time></trkpt><trkpt lat="43.8665539469497" lon="7.562374097347374"><ele>179.39999999999998</ele><time>2026-03-29T11:08:22Z</time></trkpt><trkpt lat="43.86644960725593" lon="7.562333971276829"><ele>184.0</ele><time>2026-03-29T11:08:23Z</time></trkpt><trkpt lat="43.8663363409372" lon="7.562301997067293"><ele>184.0</ele><time>2026-03-29T11:08:24Z</time></trkpt><trkpt lat="43.86622390779677" lon="7.562271083354105"><ele>184.0</ele><time>2026-03-29T11:08:25Z</time></trkpt><trkpt lat="43.866103541222685" lon="7.5622513784405525"><ele>184.0</ele><time>2026-03-29T11:08:26Z</time></trkpt><trkpt lat="43.8659834712559" lon="7.562223547845741"><ele>184.0</ele><time>2026-03-29T11:08:27Z</time></trkpt><trkpt lat="43.865865918877546" lon="7.56219638850139"><ele>183.75</ele><time>2026-03-29T11:08:28Z</time></trkpt><trkpt lat="43.8657506063278" lon="7.562168713457054"><ele>183.5</ele><time>2026-03-29T11:08:29Z</time></trkpt><trkpt lat="43.86563673766721" lon="7.562136299059389"><ele>183.25</ele><time>2026-03-29T11:08:30Z</time></trkpt><trkpt lat="43.86551825396693" lon="7.562102797976494"><ele>183.0</ele><time>2026-03-29T11:08:31Z</time></trkpt><trkpt lat="43.86540239446929" lon="7.562069559795098"><ele>183.0</ele><time>2026-03-29T11:08:32Z</time></trkpt><trkpt lat="43.86527932554121" lon="7.562048309878773"><ele>183.0</ele><time>2026-03-29T11:08:33Z</time></trkpt><trkpt lat="43.8651491328092" lon="7.5620509637635935"><ele>183.0</ele><time>2026-03-29T11:08:34Z</time></trkpt><trkpt lat="43.865018964802246" lon="7.5620650018656415"><ele>183.0</ele><time>2026-03-29T11:08:35Z</time></trkpt><trkpt lat="43.864897404856855" lon="7.562068493113855"><ele>183.5</ele><time>2026-03-29T11:08:36Z</time></trkpt><trkpt lat="43.86477685952304" lon="7.562058857372713"><ele>184.0</ele><time>2026-03-29T11:08:37Z</time></trkpt><trkpt lat="43.864648526596575" lon="7.562048031524054"><ele>184.5</ele><time>2026-03-29T11:08:38Z</time></trkpt><trkpt lat="43.86451890014651" lon="7.5620356574102034"><ele>185.0</ele><time>2026-03-29T11:08:39Z</time></trkpt><trkpt lat="43.864386277744195" lon="7.562031115698015"><ele>188.0</ele><time>2026-03-29T11:08:40Z</time></trkpt><trkpt lat="43.86424640853865" lon="7.562041330966613"><ele>191.0</ele><time>2026-03-29T11:08:41Z</time></trkpt><trkpt lat="43.86412311337847" lon="7.562047422665656"><ele>194.0</ele><time>2026-03-29T11:08:42Z</time></trkpt><trkpt lat="43.86402074729137" lon="7.562061256837296"><ele>197.0</ele><time>2026-03-29T11:08:43Z</time></trkpt><trkpt lat="43.86390549609222" lon="7.562075129852857"><ele>197.0</ele><time>2026-03-29T11:08:44Z</time></trkpt><trkpt lat="43.86378674272889" lon="7.5620902832284225"><ele>197.0</ele><time>2026-03-29T11:08:45Z</time></trkpt><trkpt lat="43.86366389568268" lon="7.562114357546826"><ele>197.0</ele><time>2026-03-29T11:08:46Z</time></trkpt><trkpt lat="43.86353465377139" lon="7.562159574670815"><ele>197.0</ele><time>2026-03-29T11:08:47Z</time></trkpt><trkpt lat="43.863411328292536" lon="7.562225070173486"><ele>200.75</ele><time>2026-03-29T11:08:48Z</time></trkpt><trkpt lat="43.86329452011308" lon="7.562307048656953"><ele>204.5</ele><time>2026-03-29T11:08:49Z</time></trkpt><trkpt lat="43.86317399347744" lon="7.562397120771316"><ele>208.25</ele><time>2026-03-29T11:08:50Z</time></trkpt><trkpt lat="43.86306079380479" lon="7.562477591094708"><ele>212.0</ele><time>2026-03-29T11:08:51Z</time></trkpt><trkpt lat="43.862952366008535" lon="7.562555169297436"><ele>212.0</ele><time>2026-03-29T11:08:52Z</time></trkpt><trkpt lat="43.862845850089954" lon="7.562630058323048"><ele>212.0</ele><time>2026-03-29T11:08:53Z</time></trkpt><trkpt lat="43.86273558521121" lon="7.562698303148627"><ele>212.0</ele><time>2026-03-29T11:08:54Z</time></trkpt><trkpt lat="43.862623935909646" lon="7.56276819905448"><ele>212.0</ele><time>2026-03-29T11:08:55Z</time></trkpt><trkpt lat="43.8625160564752" lon="7.562842670137536"><ele>213.0</ele><time>2026-03-29T11:08:56Z</time></trkpt><trkpt lat="43.862414541419064" lon="7.562936294696785"><ele>214.0</ele><time>2026-03-29T11:08:57Z</time></trkpt><trkpt lat="43.86232419465881" lon="7.56304920201503"><ele>215.0</ele><time>2026-03-29T11:08:58Z</time></trkpt><trkpt lat="43.862249143081996" lon="7.563170274342438"><ele>216.0</ele><time>2026-03-29T11:08:59.001Z</time></trkpt><trkpt lat="43.86218303917646" lon="7.563303574572633"><ele>216.0</ele><time>2026-03-29T11:09:00.001Z</time></trkpt><trkpt lat="43.862118670434874" lon="7.5634296211583365"><ele>216.00000000000003</ele><time>2026-03-29T11:09:01.001Z</time></trkpt><trkpt lat="43.86206247789503" lon="7.56353118206129"><ele>216.00000000000003</ele><time>2026-03-29T11:09:02.001Z</time></trkpt><trkpt lat="43.862014562597395" lon="7.56361699471576"><ele>216.0</ele><time>2026-03-29T11:09:03.001Z</time></trkpt><trkpt lat="43.86193193827764" lon="7.563713919698218"><ele>216.0</ele><time>2026-03-29T11:09:05.001Z</time></trkpt><trkpt lat="43.86186024864274" lon="7.563661056209787"><ele>216.0</ele><time>2026-03-29T11:09:07.001Z</time></trkpt><trkpt lat="43.86188048506712" lon="7.563527235182251"><ele>216.00000000000003</ele><time>2026-03-29T11:09:09.001Z</time></trkpt><trkpt lat="43.86194624959435" lon="7.563458706683062"><ele>216.00000000000003</ele><time>2026-03-29T11:09:11.001Z</time></trkpt><trkpt lat="43.86202225673772" lon="7.5633794192187125"><ele>216.0</ele><time>2026-03-29T11:09:14.001Z</time></trkpt><trkpt lat="43.86207010661804" lon="7.563310649733623"><ele>216.0</ele><time>2026-03-29T11:09:16.001Z</time></trkpt><trkpt lat="43.86214244967354" lon="7.5631812402766805"><ele>216.0</ele><time>2026-03-29T11:09:19.001Z</time></trkpt><trkpt lat="43.86218039093019" lon="7.563096106657326"><ele>216.0</ele><time>2026-03-29T11:09:20.001Z</time></trkpt><trkpt lat="43.86221153791691" lon="7.563000754534342"><ele>216.0</ele><time>2026-03-29T11:09:21.001Z</time></trkpt><trkpt lat="43.862239050053766" lon="7.562905609466227"><ele>216.0</ele><time>2026-03-29T11:09:22.001Z</time></trkpt><trkpt lat="43.86227656898274" lon="7.56281082670253"><ele>216.0</ele><time>2026-03-29T11:09:23.001Z</time></trkpt><trkpt lat="43.86234944939196" lon="7.562738704686671"><ele>216.0</ele><time>2026-03-29T11:09:24.001Z</time></trkpt><trkpt lat="43.86241504503403" lon="7.562632709385344"><ele>215.20000000000002</ele><time>2026-03-29T11:09:25.001Z</time></trkpt><trkpt lat="43.86249353499198" lon="7.562544760698102"><ele>214.40000000000003</ele><time>2026-03-29T11:09:26.001Z</time></trkpt><trkpt lat="43.8625712263539" lon="7.562452837776829"><ele>213.6</ele><time>2026-03-29T11:09:27.001Z</time></trkpt><trkpt lat="43.8626616252873" lon="7.562377618893448"><ele>212.8</ele><time>2026-03-29T11:09:28.001Z</time></trkpt><trkpt lat="43.86272868687197" lon="7.562271142764462"><ele>212.0</ele><time>2026-03-29T11:09:29.001Z</time></trkpt><trkpt lat="43.86281390618648" lon="7.5621772674927135"><ele>212.0</ele><time>2026-03-29T11:09:30.001Z</time></trkpt><trkpt lat="43.86290215469307" lon="7.562076872842762"><ele>212.0</ele><time>2026-03-29T11:09:31.001Z</time></trkpt><trkpt lat="43.86298841472081" lon="7.561972549269961"><ele>212.0</ele><time>2026-03-29T11:09:32.001Z</time></trkpt><trkpt lat="43.86307550586879" lon="7.5618722021103535"><ele>212.0</ele><time>2026-03-29T11:09:33.001Z</time></trkpt><trkpt lat="43.8631716833536" lon="7.561782863145871"><ele>216.75</ele><time>2026-03-29T11:09:34.001Z</time></trkpt><trkpt lat="43.863280552174686" lon="7.5616972163222345"><ele>221.5</ele><time>2026-03-29T11:09:35Z</time></trkpt><trkpt lat="43.863386831004156" lon="7.56160878952472"><ele>226.25</ele><time>2026-03-29T11:09:36Z</time></trkpt><trkpt lat="43.863482422682594" lon="7.561521347168377"><ele>231.0</ele><time>2026-03-29T11:09:37Z</time></trkpt><trkpt lat="43.86357286495278" lon="7.5614367032652465"><ele>231.0</ele><time>2026-03-29T11:09:38Z</time></trkpt><trkpt lat="43.86366541734665" lon="7.561369312083794"><ele>231.0</ele><time>2026-03-29T11:09:39Z</time></trkpt><trkpt lat="43.86377697173193" lon="7.561348516534681"><ele>231.0</ele><time>2026-03-29T11:09:40Z</time></trkpt><trkpt lat="43.86388841563634" lon="7.56129046117453"><ele>231.0</ele><time>2026-03-29T11:09:41Z</time></trkpt><trkpt lat="43.86400249660148" lon="7.561246561832738"><ele>231.0</ele><time>2026-03-29T11:09:42Z</time></trkpt><trkpt lat="43.864107593853205" lon="7.561202092814403"><ele>231.00000000000003</ele><time>2026-03-29T11:09:43Z</time></trkpt><trkpt lat="43.86421200180779" lon="7.56119557501495"><ele>231.00000000000003</ele><time>2026-03-29T11:09:44Z</time></trkpt><trkpt lat="43.86430804816922" lon="7.561181826022342"><ele>231.0</ele><time>2026-03-29T11:09:45Z</time></trkpt><trkpt lat="43.86441925440619" lon="7.561180831508833"><ele>231.0</ele><time>2026-03-29T11:09:46Z</time></trkpt><trkpt lat="43.864540979707336" lon="7.561167283704505"><ele>230.60000000000002</ele><time>2026-03-29T11:09:47Z</time></trkpt><trkpt lat="43.86465992105015" lon="7.5611760776555155"><ele>230.20000000000002</ele><time>2026-03-29T11:09:48Z</time></trkpt><trkpt lat="43.86476735780657" lon="7.561187253693761"><ele>229.79999999999998</ele><time>2026-03-29T11:09:49Z</time></trkpt><trkpt lat="43.86486539771684" lon="7.5611937738868535"><ele>229.39999999999998</ele><time>2026-03-29T11:09:50Z</time></trkpt><trkpt lat="43.86495258648907" lon="7.5611983186515515"><ele>229.0</ele><time>2026-03-29T11:09:51Z</time></trkpt><trkpt lat="43.865032765019976" lon="7.561200811572592"><ele>228.99999999999997</ele><time>2026-03-29T11:09:52Z</time></trkpt><trkpt lat="43.86510639482327" lon="7.56120358839137"><ele>229.0</ele><time>2026-03-29T11:09:53Z</time></trkpt><trkpt lat="43.86517514897596" lon="7.561212650100443"><ele>229.0</ele><time>2026-03-29T11:09:54Z</time></trkpt><trkpt lat="43.86526190603189" lon="7.5611485183184906"><ele>229.0</ele><time>2026-03-29T11:09:56Z</time></trkpt><trkpt lat="43.865218716679244" lon="7.561000567047029"><ele>228.99999999999997</ele><time>2026-03-29T11:09:58Z</time></trkpt><trkpt lat="43.86515082940388" lon="7.560976515734002"><ele>229.0</ele><time>2026-03-29T11:09:59Z</time></trkpt><trkpt lat="43.86506213207743" lon="7.560985598605117"><ele>238.0</ele><time>2026-03-29T11:10:00Z</time></trkpt><trkpt lat="43.864963734256655" lon="7.560997000011048"><ele>246.99999999999997</ele><time>2026-03-29T11:10:01Z</time></trkpt><trkpt lat="43.864868329181725" lon="7.560995621198509"><ele>255.99999999999997</ele><time>2026-03-29T11:10:02Z</time></trkpt><trkpt lat="43.864766804612856" lon="7.56098477978088"><ele>265.0</ele><time>2026-03-29T11:10:03Z</time></trkpt><trkpt lat="43.864651354016736" lon="7.560955584308087"><ele>274.0</ele><time>2026-03-29T11:10:04Z</time></trkpt><trkpt lat="43.86453439925892" lon="7.560922078055431"><ele>274.0</ele><time>2026-03-29T11:10:05Z</time></trkpt><trkpt lat="43.86441669566717" lon="7.560890413943762"><ele>274.0</ele><time>2026-03-29T11:10:06Z</time></trkpt><trkpt lat="43.86429719291805" lon="7.560868894725149"><ele>274.0</ele><time>2026-03-29T11:10:07Z</time></trkpt><trkpt lat="43.86418297113427" lon="7.560847137146835"><ele>274.0</ele><time>2026-03-29T11:10:08Z</time></trkpt><trkpt lat="43.86407601894641" lon="7.560834204764742"><ele>274.5</ele><time>2026-03-29T11:10:09Z</time></trkpt><trkpt lat="43.8639664931413" lon="7.5608356933171015"><ele>275.0</ele><time>2026-03-29T11:10:10Z</time></trkpt><trkpt lat="43.86384846918979" lon="7.560849045994207"><ele>275.5</ele><time>2026-03-29T11:10:11Z</time></trkpt><trkpt lat="43.86372883546525" lon="7.560868959787461"><ele>276.0</ele><time>2026-03-29T11:10:12Z</time></trkpt><trkpt lat="43.863611352858264" lon="7.56091122347627"><ele>276.0</ele><time>2026-03-29T11:10:13Z</time></trkpt><trkpt lat="43.86349577123901" lon="7.560960730041191"><ele>276.0</ele><time>2026-03-29T11:10:14Z</time></trkpt><trkpt lat="43.863385588429736" lon="7.56101481089136"><ele>276.0</ele><time>2026-03-29T11:10:15Z</time></trkpt><trkpt lat="43.86328283608108" lon="7.561087119937483"><ele>276.0</ele><time>2026-03-29T11:10:16Z</time></trkpt><trkpt lat="43.86317511588256" lon="7.561162269734892"><ele>270.25</ele><time>2026-03-29T11:10:17Z</time></trkpt><trkpt lat="43.86304745026384" lon="7.561210291207509"><ele>264.5</ele><time>2026-03-29T11:10:18Z</time></trkpt><trkpt lat="43.86292209311638" lon="7.561247887089714"><ele>258.75</ele><time>2026-03-29T11:10:19Z</time></trkpt><trkpt lat="43.86280428843178" lon="7.5613020402231"><ele>253.0</ele><time>2026-03-29T11:10:20Z</time></trkpt><trkpt lat="43.86269104699485" lon="7.561346662968133"><ele>261.0</ele><time>2026-03-29T11:10:21Z</time></trkpt><trkpt lat="43.862576591271704" lon="7.5614234099677695"><ele>269.0</ele><time>2026-03-29T11:10:22Z</time></trkpt><trkpt lat="43.862456831026996" lon="7.561508184113333"><ele>277.0</ele><time>2026-03-29T11:10:23Z</time></trkpt><trkpt lat="43.862337445991244" lon="7.56160176183906"><ele>285.0</ele><time>2026-03-29T11:10:24Z</time></trkpt><trkpt lat="43.86222172241474" lon="7.561697619403584"><ele>285.0</ele><time>2026-03-29T11:10:25Z</time></trkpt><trkpt lat="43.86210772887863" lon="7.561788709356044"><ele>285.0</ele><time>2026-03-29T11:10:26Z</time></trkpt><trkpt lat="43.86199992168259" lon="7.561866576281963"><ele>285.0</ele><time>2026-03-29T11:10:27Z</time></trkpt><trkpt lat="43.86189575425714" lon="7.561953694514416"><ele>285.0</ele><time>2026-03-29T11:10:28Z</time></trkpt><trkpt lat="43.86179942059648" lon="7.562074171206986"><ele>287.25</ele><time>2026-03-29T11:10:29Z</time></trkpt><trkpt lat="43.861694353156764" lon="7.562195637021206"><ele>289.5</ele><time>2026-03-29T11:10:30Z</time></trkpt><trkpt lat="43.86160551213106" lon="7.562323907291725"><ele>291.75</ele><time>2026-03-29T11:10:31Z</time></trkpt><trkpt lat="43.861539491073096" lon="7.56246268990447"><ele>294.0</ele><time>2026-03-29T11:10:32Z</time></trkpt><trkpt lat="43.86147105252759" lon="7.562587320545748"><ele>294.0</ele><time>2026-03-29T11:10:33Z</time></trkpt><trkpt lat="43.86139555598595" lon="7.562709307952941"><ele>294.0</ele><time>2026-03-29T11:10:34Z</time></trkpt><trkpt lat="43.86134233956771" lon="7.562857435019997"><ele>294.0</ele><time>2026-03-29T11:10:35Z</time></trkpt><trkpt lat="43.8612413029596" lon="7.562950903141585"><ele>294.0</ele><time>2026-03-29T11:10:36Z</time></trkpt><trkpt lat="43.86113922489383" lon="7.563048391333897"><ele>297.75</ele><time>2026-03-29T11:10:37Z</time></trkpt><trkpt lat="43.86102268590013" lon="7.563153110139345"><ele>301.5</ele><time>2026-03-29T11:10:38Z</time></trkpt><trkpt lat="43.860921292035314" lon="7.563271851479429"><ele>305.25</ele><time>2026-03-29T11:10:39.001Z</time></trkpt><trkpt lat="43.860822616693966" lon="7.5633679819292485"><ele>309.0</ele><time>2026-03-29T11:10:40.001Z</time></trkpt><trkpt lat="43.86073096872744" lon="7.563472340398311"><ele>309.0</ele><time>2026-03-29T11:10:41.001Z</time></trkpt><trkpt lat="43.86064552471833" lon="7.563596643855237"><ele>309.0</ele><time>2026-03-29T11:10:42.001Z</time></trkpt><trkpt lat="43.86055073071992" lon="7.56370603532957"><ele>309.0</ele><time>2026-03-29T11:10:43.001Z</time></trkpt><trkpt lat="43.860497249047874" lon="7.563857472847222"><ele>309.0</ele><time>2026-03-29T11:10:44.001Z</time></trkpt><trkpt lat="43.86042530614655" lon="7.563987245407856"><ele>307.59999999999997</ele><time>2026-03-29T11:10:45.001Z</time></trkpt><trkpt lat="43.86037283546176" lon="7.564120977129836"><ele>306.2</ele><time>2026-03-29T11:10:46.001Z</time></trkpt><trkpt lat="43.86032533205494" lon="7.564237532300859"><ele>304.79999999999995</ele><time>2026-03-29T11:10:47.001Z</time></trkpt><trkpt lat="43.86029463221325" lon="7.564338984421125"><ele>303.4</ele><time>2026-03-29T11:10:48.001Z</time></trkpt><trkpt lat="43.860253556665405" lon="7.564406240608568"><ele>302.0</ele><time>2026-03-29T11:10:50.001Z</time></trkpt><trkpt lat="43.86019109910229" lon="7.564534402620213"><ele>302.0</ele><time>2026-03-29T11:13:54.999Z</time></trkpt><trkpt lat="43.86017941879278" lon="7.564681874579162"><ele>302.0</ele><time>2026-03-29T11:13:56.999Z</time></trkpt><trkpt lat="43.86022985632108" lon="7.564845736148554"><ele>302.0</ele><time>2026-03-29T11:13:59Z</time></trkpt><trkpt lat="43.860266407646684" lon="7.564927081655463"><ele>302.0</ele><time>2026-03-29T11:14:00Z</time></trkpt><trkpt lat="43.8603230983472" lon="7.565026394632017"><ele>302.0</ele><time>2026-03-29T11:14:02Z</time></trkpt><trkpt lat="43.860268312662626" lon="7.565070197868377"><ele>302.0</ele><time>2026-03-29T11:14:05Z</time></trkpt><trkpt lat="43.86023101653289" lon="7.5649986460710466"><ele>302.0</ele><time>2026-03-29T11:14:06Z</time></trkpt><trkpt lat="43.86017166842124" lon="7.5649482666869705"><ele>302.0</ele><time>2026-03-29T11:14:07Z</time></trkpt><trkpt lat="43.860116498329496" lon="7.5648747201666575"><ele>302.0</ele><time>2026-03-29T11:14:08Z</time></trkpt><trkpt lat="43.86005459697671" lon="7.564807489824587"><ele>302.0</ele><time>2026-03-29T11:14:09Z</time></trkpt><trkpt lat="43.86000970041087" lon="7.564710786704355"><ele>302.0</ele><time>2026-03-29T11:14:10Z</time></trkpt><trkpt lat="43.85996579323928" lon="7.5646182237936745"><ele>307.0</ele><time>2026-03-29T11:14:11Z</time></trkpt><trkpt lat="43.85992556248201" lon="7.564546687627036"><ele>312.0</ele><time>2026-03-29T11:14:12Z</time></trkpt><trkpt lat="43.85991493590692" lon="7.564446464817263"><ele>317.0</ele><time>2026-03-29T11:14:13Z</time></trkpt><trkpt lat="43.85992285088393" lon="7.564277700636797"><ele>322.0</ele><time>2026-03-29T11:14:15Z</time></trkpt><trkpt lat="43.859995320947235" lon="7.564113858484694"><ele>327.0</ele><time>2026-03-29T11:14:17Z</time></trkpt><trkpt lat="43.86004479211681" lon="7.563986921847827"><ele>327.0</ele><time>2026-03-29T11:14:18Z</time></trkpt><trkpt lat="43.860086424071014" lon="7.563888509049743"><ele>327.0</ele><time>2026-03-29T11:14:19Z</time></trkpt><trkpt lat="43.86010534445512" lon="7.563798808869631"><ele>327.0</ele><time>2026-03-29T11:14:20Z</time></trkpt><trkpt lat="43.86015145090546" lon="7.563636702626611"><ele>327.0</ele><time>2026-03-29T11:14:22Z</time></trkpt><trkpt lat="43.86017723850515" lon="7.563554893017066"><ele>327.0</ele><time>2026-03-29T11:14:23Z</time></trkpt><trkpt lat="43.86021691375514" lon="7.563422510294541"><ele>327.0</ele><time>2026-03-29T11:14:25Z</time></trkpt><trkpt lat="43.86019351250811" lon="7.563336434843478"><ele>327.0</ele><time>2026-03-29T11:14:27Z</time></trkpt><trkpt lat="43.860116211010826" lon="7.563341007609583"><ele>327.0</ele><time>2026-03-29T11:15:41Z</time></trkpt><trkpt lat="43.860193234904294" lon="7.563368161962757"><ele>327.0</ele><time>2026-03-29T11:25:24Z</time></trkpt><trkpt lat="43.86020826769267" lon="7.563462072003221"><ele>327.0</ele><time>2026-03-29T11:25:26Z</time></trkpt><trkpt lat="43.860175172956374" lon="7.56356674672006"><ele>327.0</ele><time>2026-03-29T11:25:28.001Z</time></trkpt><trkpt lat="43.860130532999634" lon="7.5637077675373785"><ele>327.0</ele><time>2026-03-29T11:25:30.001Z</time></trkpt><trkpt lat="43.86010144489046" lon="7.5637979951542285"><ele>327.0</ele><time>2026-03-29T11:25:31.001Z</time></trkpt><trkpt lat="43.86007432034047" lon="7.563883599856722"><ele>327.0</ele><time>2026-03-29T11:25:32.001Z</time></trkpt><trkpt lat="43.86002727076226" lon="7.5639607643365965"><ele>327.0</ele><time>2026-03-29T11:25:33.001Z</time></trkpt><trkpt lat="43.85999133740036" lon="7.564054265708851"><ele>327.0</ele><time>2026-03-29T11:25:34.001Z</time></trkpt><trkpt lat="43.8599423361847" lon="7.5641418607068225"><ele>327.0</ele><time>2026-03-29T11:25:35.001Z</time></trkpt><trkpt lat="43.85991687577496" lon="7.564239926112681"><ele>327.0</ele><time>2026-03-29T11:25:36.001Z</time></trkpt><trkpt lat="43.85988293002998" lon="7.564316254913752"><ele>327.0</ele><time>2026-03-29T11:25:37.001Z</time></trkpt><trkpt lat="43.85988734238092" lon="7.564489878366755"><ele>328.3333333333333</ele><time>2026-03-29T11:25:39.001Z</time></trkpt><trkpt lat="43.85994790105373" lon="7.564638573321511"><ele>329.6666666666667</ele><time>2026-03-29T11:25:41.001Z</time></trkpt><trkpt lat="43.85998893119743" lon="7.564719707934536"><ele>331.0</ele><time>2026-03-29T11:25:42.001Z</time></trkpt><trkpt lat="43.860024280350956" lon="7.564799453709688"><ele>332.33333333333337</ele><time>2026-03-29T11:25:43.001Z</time></trkpt><trkpt lat="43.860062791347005" lon="7.564872015407006"><ele>333.6666666666667</ele><time>2026-03-29T11:25:44.001Z</time></trkpt><trkpt lat="43.86011049274023" lon="7.564939264487477"><ele>335.0</ele><time>2026-03-29T11:25:45.001Z</time></trkpt><trkpt lat="43.86016467888381" lon="7.564995797889355"><ele>329.5</ele><time>2026-03-29T11:25:46.001Z</time></trkpt><trkpt lat="43.860258468225744" lon="7.565080644854518"><ele>324.0</ele><time>2026-03-29T11:25:48.001Z</time></trkpt><trkpt lat="43.86033710299507" lon="7.565025380097548"><ele>318.5</ele><time>2026-03-29T11:25:51.001Z</time></trkpt><trkpt lat="43.86028320308203" lon="7.56489988942498"><ele>313.0</ele><time>2026-03-29T11:25:53.001Z</time></trkpt><trkpt lat="43.86024799171144" lon="7.564824674834594"><ele>307.5</ele><time>2026-03-29T11:25:54.001Z</time></trkpt><trkpt lat="43.860217664193" lon="7.5647478779500865"><ele>302.0</ele><time>2026-03-29T11:25:55.001Z</time></trkpt><trkpt lat="43.86018735874662" lon="7.564589477626906"><ele>299.5</ele><time>2026-03-29T11:25:57.001Z</time></trkpt><trkpt lat="43.86019636939573" lon="7.564496713479058"><ele>297.0</ele><time>2026-03-29T11:25:58.001Z</time></trkpt><trkpt lat="43.86023005364966" lon="7.564413215166357"><ele>294.5</ele><time>2026-03-29T11:25:59.001Z</time></trkpt><trkpt lat="43.860284832058916" lon="7.564344641035507"><ele>292.0</ele><time>2026-03-29T11:26:00.001Z</time></trkpt><trkpt lat="43.86033896457207" lon="7.564283512248048"><ele>289.5</ele><time>2026-03-29T11:26:01.001Z</time></trkpt><trkpt lat="43.86038231428255" lon="7.564185024444372"><ele>287.0</ele><time>2026-03-29T11:26:02.001Z</time></trkpt><trkpt lat="43.86042861293561" lon="7.564055915494776"><ele>287.0</ele><time>2026-03-29T11:26:03.001Z</time></trkpt><trkpt lat="43.860479885345796" lon="7.563935585267264"><ele>287.0</ele><time>2026-03-29T11:26:04.001Z</time></trkpt><trkpt lat="43.86053439959647" lon="7.563817670389607"><ele>287.0</ele><time>2026-03-29T11:26:05.001Z</time></trkpt><trkpt lat="43.8605869925663" lon="7.563713394802058"><ele>287.0</ele><time>2026-03-29T11:26:06.001Z</time></trkpt><trkpt lat="43.860645481702264" lon="7.5636062291768"><ele>287.0</ele><time>2026-03-29T11:26:07.001Z</time></trkpt><trkpt lat="43.8607197246264" lon="7.563509937715481"><ele>291.4</ele><time>2026-03-29T11:26:08.001Z</time></trkpt><trkpt lat="43.86080886824777" lon="7.563414677128641"><ele>295.79999999999995</ele><time>2026-03-29T11:26:09.001Z</time></trkpt><trkpt lat="43.86089288681006" lon="7.563317347750702"><ele>300.2</ele><time>2026-03-29T11:26:10.001Z</time></trkpt><trkpt lat="43.86097409442969" lon="7.5632381975829635"><ele>304.59999999999997</ele><time>2026-03-29T11:26:11.001Z</time></trkpt><trkpt lat="43.861051362966116" lon="7.563176430488927"><ele>309.0</ele><time>2026-03-29T11:26:12.001Z</time></trkpt><trkpt lat="43.86112820896135" lon="7.563111596227215"><ele>306.0</ele><time>2026-03-29T11:26:13.001Z</time></trkpt><trkpt lat="43.86120205122618" lon="7.563044431185694"><ele>303.0</ele><time>2026-03-29T11:26:14.001Z</time></trkpt><trkpt lat="43.86127849403175" lon="7.562973766703435"><ele>300.0</ele><time>2026-03-29T11:26:15.001Z</time></trkpt><trkpt lat="43.861349964491446" lon="7.5628831871415025"><ele>297.0</ele><time>2026-03-29T11:26:16.001Z</time></trkpt><trkpt lat="43.86141676730716" lon="7.5627780137539915"><ele>294.0</ele><time>2026-03-29T11:26:17.001Z</time></trkpt><trkpt lat="43.861476469737845" lon="7.562655100254092"><ele>294.0</ele><time>2026-03-29T11:26:18.001Z</time></trkpt><trkpt lat="43.86153994534433" lon="7.562531394664975"><ele>294.0</ele><time>2026-03-29T11:26:19.001Z</time></trkpt><trkpt lat="43.86159321455523" lon="7.562414629589031"><ele>294.0</ele><time>2026-03-29T11:26:20.001Z</time></trkpt><trkpt lat="43.861656563870966" lon="7.562315606283064"><ele>294.0</ele><time>2026-03-29T11:26:21.001Z</time></trkpt><trkpt lat="43.8617247553134" lon="7.562223823585948"><ele>294.0</ele><time>2026-03-29T11:26:22.001Z</time></trkpt><trkpt lat="43.861792292648914" lon="7.562132820882872"><ele>292.2</ele><time>2026-03-29T11:26:23.001Z</time></trkpt><trkpt lat="43.861864689090005" lon="7.562034346940406"><ele>290.4</ele><time>2026-03-29T11:26:24.001Z</time></trkpt><trkpt lat="43.86194201293691" lon="7.56193676408254"><ele>288.6</ele><time>2026-03-29T11:26:25.001Z</time></trkpt><trkpt lat="43.86205035460139" lon="7.561858883760994"><ele>286.8</ele><time>2026-03-29T11:26:26.001Z</time></trkpt><trkpt lat="43.86214595836032" lon="7.561789955350933"><ele>285.0</ele><time>2026-03-29T11:26:27.001Z</time></trkpt><trkpt lat="43.86223409904496" lon="7.561732800811"><ele>285.0</ele><time>2026-03-29T11:26:28.001Z</time></trkpt><trkpt lat="43.86231062012272" lon="7.561656815392809"><ele>285.0</ele><time>2026-03-29T11:26:29.001Z</time></trkpt><trkpt lat="43.86239333087377" lon="7.561588903977329"><ele>285.0</ele><time>2026-03-29T11:26:30Z</time></trkpt><trkpt lat="43.86247916592439" lon="7.561527394408439"><ele>285.0</ele><time>2026-03-29T11:26:31Z</time></trkpt><trkpt lat="43.86256786283354" lon="7.5614608636458085"><ele>285.0</ele><time>2026-03-29T11:26:32Z</time></trkpt><trkpt lat="43.862669013598214" lon="7.561398040776093"><ele>288.2</ele><time>2026-03-29T11:26:33Z</time></trkpt><trkpt lat="43.86277862417317" lon="7.561343565584156"><ele>291.4</ele><time>2026-03-29T11:26:34Z</time></trkpt><trkpt lat="43.86289240468763" lon="7.561300917747806"><ele>294.6</ele><time>2026-03-29T11:26:35Z</time></trkpt><trkpt lat="43.86299753569344" lon="7.561264536653931"><ele>297.8</ele><time>2026-03-29T11:26:36Z</time></trkpt><trkpt lat="43.86309844514754" lon="7.5612223253083215"><ele>301.0</ele><time>2026-03-29T11:26:37Z</time></trkpt><trkpt lat="43.86319583633446" lon="7.561178372865834"><ele>301.0</ele><time>2026-03-29T11:26:38Z</time></trkpt><trkpt lat="43.86328833432284" lon="7.5611286404262845"><ele>301.0</ele><time>2026-03-29T11:26:39Z</time></trkpt><trkpt lat="43.8633719931674" lon="7.56106965575357"><ele>301.0</ele><time>2026-03-29T11:26:40Z</time></trkpt><trkpt lat="43.86345523451576" lon="7.561011040410943"><ele>301.0</ele><time>2026-03-29T11:26:41Z</time></trkpt><trkpt lat="43.863548533423824" lon="7.560965068120999"><ele>301.0</ele><time>2026-03-29T11:26:42Z</time></trkpt><trkpt lat="43.863654941118014" lon="7.560937690910426"><ele>296.0</ele><time>2026-03-29T11:26:43Z</time></trkpt><trkpt lat="43.86376092677632" lon="7.560909287237236"><ele>291.0</ele><time>2026-03-29T11:26:44Z</time></trkpt><trkpt lat="43.86386471281291" lon="7.56088702228425"><ele>286.0</ele><time>2026-03-29T11:26:45Z</time></trkpt><trkpt lat="43.86397157007685" lon="7.560880214298213"><ele>281.0</ele><time>2026-03-29T11:26:46Z</time></trkpt><trkpt lat="43.86408635294942" lon="7.560872253737365"><ele>276.0</ele><time>2026-03-29T11:26:47Z</time></trkpt><trkpt lat="43.86420525770084" lon="7.560876645992763"><ele>275.5</ele><time>2026-03-29T11:26:48Z</time></trkpt><trkpt lat="43.86431844615282" lon="7.560898966653865"><ele>275.0</ele><time>2026-03-29T11:26:49Z</time></trkpt><trkpt lat="43.86442913566426" lon="7.560927259568846"><ele>274.5</ele><time>2026-03-29T11:26:50Z</time></trkpt><trkpt lat="43.86454517707882" lon="7.560959039636017"><ele>274.0</ele><time>2026-03-29T11:26:51Z</time></trkpt><trkpt lat="43.86465685119997" lon="7.56098696907549"><ele>274.0</ele><time>2026-03-29T11:26:52Z</time></trkpt><trkpt lat="43.86475976592738" lon="7.561011211848285"><ele>274.0</ele><time>2026-03-29T11:26:53Z</time></trkpt><trkpt lat="43.864856733970896" lon="7.561022985420932"><ele>274.0</ele><time>2026-03-29T11:26:54Z</time></trkpt><trkpt lat="43.86494820039781" lon="7.561028938028735"><ele>274.0</ele><time>2026-03-29T11:26:55Z</time></trkpt><trkpt lat="43.86503327388736" lon="7.5610294649380085"><ele>274.0</ele><time>2026-03-29T11:26:56Z</time></trkpt><trkpt lat="43.865112249416434" lon="7.561029298505077"><ele>274.0</ele><time>2026-03-29T11:26:57Z</time></trkpt><trkpt lat="43.86521423004921" lon="7.561049801424672"><ele>274.0</ele><time>2026-03-29T11:26:59Z</time></trkpt><trkpt lat="43.86522356220871" lon="7.561168449202936"><ele>274.0</ele><time>2026-03-29T11:27:01Z</time></trkpt><trkpt lat="43.86509532194774" lon="7.5611711700817885"><ele>274.0</ele><time>2026-03-29T11:27:03Z</time></trkpt><trkpt lat="43.86501664848654" lon="7.5611764969000586"><ele>274.0</ele><time>2026-03-29T11:27:04Z</time></trkpt><trkpt lat="43.86493611173274" lon="7.561170130181454"><ele>274.0</ele><time>2026-03-29T11:27:05Z</time></trkpt><trkpt lat="43.86484880382452" lon="7.561160667872511"><ele>274.0</ele><time>2026-03-29T11:27:06Z</time></trkpt><trkpt lat="43.86475874144671" lon="7.561161214739309"><ele>274.0</ele><time>2026-03-29T11:27:07Z</time></trkpt><trkpt lat="43.864668863056146" lon="7.5611556521033805"><ele>274.0</ele><time>2026-03-29T11:27:08Z</time></trkpt><trkpt lat="43.86457303463595" lon="7.561146111052755"><ele>274.0</ele><time>2026-03-29T11:27:09Z</time></trkpt><trkpt lat="43.864474172704675" lon="7.561137147100384"><ele>274.0</ele><time>2026-03-29T11:27:10Z</time></trkpt><trkpt lat="43.86437474526185" lon="7.561137319789121"><ele>274.0</ele><time>2026-03-29T11:27:11Z</time></trkpt><trkpt lat="43.86427232113962" lon="7.561143743101242"><ele>274.0</ele><time>2026-03-29T11:27:12Z</time></trkpt><trkpt lat="43.864167387153614" lon="7.56115907026059"><ele>274.0</ele><time>2026-03-29T11:27:13Z</time></trkpt><trkpt lat="43.864060560691875" lon="7.561194208618529"><ele>274.0</ele><time>2026-03-29T11:27:14Z</time></trkpt><trkpt lat="43.86395112796291" lon="7.561238414375429"><ele>265.4</ele><time>2026-03-29T11:27:15Z</time></trkpt><trkpt lat="43.86384240169678" lon="7.561284119570024"><ele>256.79999999999995</ele><time>2026-03-29T11:27:16Z</time></trkpt><trkpt lat="43.86374203139409" lon="7.561321001711348"><ele>248.20000000000002</ele><time>2026-03-29T11:27:17.001Z</time></trkpt><trkpt lat="43.863648256784955" lon="7.561364640167003"><ele>239.60000000000002</ele><time>2026-03-29T11:27:18.001Z</time></trkpt><trkpt lat="43.86355531552958" lon="7.561419131020831"><ele>231.0</ele><time>2026-03-29T11:27:19.001Z</time></trkpt><trkpt lat="43.86346693117206" lon="7.561511344527709"><ele>235.4</ele><time>2026-03-29T11:27:20.001Z</time></trkpt><trkpt lat="43.86337172501311" lon="7.5616069874561465"><ele>239.8</ele><time>2026-03-29T11:27:21.001Z</time></trkpt><trkpt lat="43.86327730259246" lon="7.561687647628671"><ele>244.20000000000002</ele><time>2026-03-29T11:27:22.001Z</time></trkpt><trkpt lat="43.86317992057053" lon="7.561761457321807"><ele>248.60000000000002</ele><time>2026-03-29T11:27:23.001Z</time></trkpt><trkpt lat="43.86308650828429" lon="7.56183600507388"><ele>253.0</ele><time>2026-03-29T11:27:24.001Z</time></trkpt><trkpt lat="43.86299877758494" lon="7.561923269840806"><ele>251.60000000000002</ele><time>2026-03-29T11:27:25.001Z</time></trkpt><trkpt lat="43.862914026019894" lon="7.562034997474846"><ele>250.20000000000002</ele><time>2026-03-29T11:27:26.001Z</time></trkpt><trkpt lat="43.862829826989184" lon="7.56213721482781"><ele>248.8</ele><time>2026-03-29T11:27:27.001Z</time></trkpt><trkpt lat="43.86275030916385" lon="7.562234895633316"><ele>247.4</ele><time>2026-03-29T11:27:28.001Z</time></trkpt><trkpt lat="43.86266873091417" lon="7.562329507588562"><ele>246.0</ele><time>2026-03-29T11:27:29.001Z</time></trkpt><trkpt lat="43.86258409952134" lon="7.562427109865846"><ele>246.0</ele><time>2026-03-29T11:27:30.001Z</time></trkpt><trkpt lat="43.86249955570703" lon="7.562524739353928"><ele>246.00000000000003</ele><time>2026-03-29T11:27:31.001Z</time></trkpt><trkpt lat="43.862416507539116" lon="7.562620778748567"><ele>246.00000000000003</ele><time>2026-03-29T11:27:32.001Z</time></trkpt><trkpt lat="43.86233853026637" lon="7.562706454012057"><ele>246.0</ele><time>2026-03-29T11:27:33.001Z</time></trkpt><trkpt lat="43.86226984929131" lon="7.562790173516316"><ele>246.0</ele><time>2026-03-29T11:27:34.001Z</time></trkpt><trkpt lat="43.86221870963087" lon="7.562895815033624"><ele>240.0</ele><time>2026-03-29T11:27:35.001Z</time></trkpt><trkpt lat="43.8621824003818" lon="7.563010710024187"><ele>234.00000000000003</ele><time>2026-03-29T11:27:36.001Z</time></trkpt><trkpt lat="43.862144414118056" lon="7.563133258098317"><ele>228.00000000000003</ele><time>2026-03-29T11:27:37.001Z</time></trkpt><trkpt lat="43.862086712651916" lon="7.56324614492228"><ele>222.0</ele><time>2026-03-29T11:27:38.001Z</time></trkpt><trkpt lat="43.86201694493595" lon="7.563341240091898"><ele>216.0</ele><time>2026-03-29T11:27:39.001Z</time></trkpt><trkpt lat="43.86195138258605" lon="7.563422189634451"><ele>216.0</ele><time>2026-03-29T11:27:40.001Z</time></trkpt><trkpt lat="43.8618915004635" lon="7.563499594145652"><ele>216.0</ele><time>2026-03-29T11:27:41.001Z</time></trkpt><trkpt lat="43.86185243366882" lon="7.563584151648291"><ele>216.0</ele><time>2026-03-29T11:27:42.001Z</time></trkpt><trkpt lat="43.861836554178545" lon="7.563671519177584"><ele>216.0</ele><time>2026-03-29T11:27:43.001Z</time></trkpt><trkpt lat="43.86192454511245" lon="7.563774348286047"><ele>216.0</ele><time>2026-03-29T11:27:45.001Z</time></trkpt><trkpt lat="43.86199249762246" lon="7.563743127295655"><ele>216.0</ele><time>2026-03-29T11:27:46.001Z</time></trkpt><trkpt lat="43.86204950568869" lon="7.563664816661362"><ele>216.0</ele><time>2026-03-29T11:27:47.001Z</time></trkpt><trkpt lat="43.86209276752542" lon="7.563542881781555"><ele>216.00000000000003</ele><time>2026-03-29T11:27:48.001Z</time></trkpt><trkpt lat="43.86214108537503" lon="7.563421938836673"><ele>216.00000000000003</ele><time>2026-03-29T11:27:49.001Z</time></trkpt><trkpt lat="43.86219123078929" lon="7.563314099488692"><ele>216.0</ele><time>2026-03-29T11:27:50.001Z</time></trkpt><trkpt lat="43.8622477667888" lon="7.563217867751956"><ele>216.0</ele><time>2026-03-29T11:27:51.001Z</time></trkpt><trkpt lat="43.862308821425174" lon="7.563120576920988"><ele>216.0</ele><time>2026-03-29T11:27:52.001Z</time></trkpt><trkpt lat="43.8623758619855" lon="7.563023266370583"><ele>216.00000000000003</ele><time>2026-03-29T11:27:53.001Z</time></trkpt><trkpt lat="43.8624461281118" lon="7.562939241960707"><ele>216.00000000000003</ele><time>2026-03-29T11:27:54.001Z</time></trkpt><trkpt lat="43.86252397011497" lon="7.562869369409322"><ele>216.0</ele><time>2026-03-29T11:27:55.001Z</time></trkpt><trkpt lat="43.8626145201526" lon="7.562812618809977"><ele>216.0</ele><time>2026-03-29T11:27:56.001Z</time></trkpt><trkpt lat="43.86271475178123" lon="7.562758335031098"><ele>215.20000000000002</ele><time>2026-03-29T11:27:57.001Z</time></trkpt><trkpt lat="43.862816912707245" lon="7.562693456916985"><ele>214.40000000000003</ele><time>2026-03-29T11:27:58.001Z</time></trkpt><trkpt lat="43.862912729165494" lon="7.562629621689163"><ele>213.6</ele><time>2026-03-29T11:27:59.001Z</time></trkpt><trkpt lat="43.86300287240979" lon="7.562571054257225"><ele>212.8</ele><time>2026-03-29T11:28:00.001Z</time></trkpt><trkpt lat="43.863087930762006" lon="7.562507601864175"><ele>212.0</ele><time>2026-03-29T11:28:01.001Z</time></trkpt><trkpt lat="43.86317763620132" lon="7.5624342194023635"><ele>212.0</ele><time>2026-03-29T11:28:02.001Z</time></trkpt><trkpt lat="43.86326962675839" lon="7.562365187873203"><ele>212.0</ele><time>2026-03-29T11:28:03.001Z</time></trkpt><trkpt lat="43.86336601854166" lon="7.5623049705626375"><ele>212.0</ele><time>2026-03-29T11:28:04.001Z</time></trkpt><trkpt lat="43.86346135957783" lon="7.562241215199781"><ele>212.0</ele><time>2026-03-29T11:28:05.001Z</time></trkpt><trkpt lat="43.863560808778765" lon="7.562189048916579"><ele>212.0</ele><time>2026-03-29T11:28:06.001Z</time></trkpt><trkpt lat="43.86366276072905" lon="7.562148921625978"><ele>209.0</ele><time>2026-03-29T11:28:07.001Z</time></trkpt><trkpt lat="43.86377178975679" lon="7.562131154304119"><ele>206.0</ele><time>2026-03-29T11:28:08.001Z</time></trkpt><trkpt lat="43.8638855575801" lon="7.562113445910654"><ele>203.0</ele><time>2026-03-29T11:28:09.001Z</time></trkpt><trkpt lat="43.86399944179262" lon="7.562097153368837"><ele>200.0</ele><time>2026-03-29T11:28:10.001Z</time></trkpt><trkpt lat="43.8641040295072" lon="7.562086931870005"><ele>197.0</ele><time>2026-03-29T11:28:11.001Z</time></trkpt><trkpt lat="43.864205788118966" lon="7.562084458112786"><ele>194.6</ele><time>2026-03-29T11:28:12.001Z</time></trkpt><trkpt lat="43.86430423734424" lon="7.562080960684189"><ele>192.2</ele><time>2026-03-29T11:28:13.001Z</time></trkpt><trkpt lat="43.86440730041332" lon="7.562070856096663"><ele>189.8</ele><time>2026-03-29T11:28:14.001Z</time></trkpt><trkpt lat="43.864514884883704" lon="7.562068896008695"><ele>187.4</ele><time>2026-03-29T11:28:15.001Z</time></trkpt><trkpt lat="43.86462816151426" lon="7.5620752722397535"><ele>185.0</ele><time>2026-03-29T11:28:16.001Z</time></trkpt><trkpt lat="43.864744001474605" lon="7.562089720532853"><ele>185.0</ele><time>2026-03-29T11:28:17.001Z</time></trkpt><trkpt lat="43.864855987085924" lon="7.562100709590936"><ele>185.0</ele><time>2026-03-29T11:28:18.001Z</time></trkpt><trkpt lat="43.86496000692844" lon="7.56211212398101"><ele>185.0</ele><time>2026-03-29T11:28:19.001Z</time></trkpt><trkpt lat="43.865063046566235" lon="7.562112094655048"><ele>185.0</ele><time>2026-03-29T11:28:20.001Z</time></trkpt><trkpt lat="43.865169104534175" lon="7.562104244759453"><ele>185.0</ele><time>2026-03-29T11:28:21.001Z</time></trkpt><trkpt lat="43.8652768902672" lon="7.562095623155286"><ele>184.6</ele><time>2026-03-29T11:28:22.001Z</time></trkpt><trkpt lat="43.86538525697081" lon="7.562097839048973"><ele>184.2</ele><time>2026-03-29T11:28:23.001Z</time></trkpt><trkpt lat="43.86549800244476" lon="7.562122085107209"><ele>183.8</ele><time>2026-03-29T11:28:24.001Z</time></trkpt><trkpt lat="43.86561030720958" lon="7.562164476747395"><ele>183.4</ele><time>2026-03-29T11:28:25.001Z</time></trkpt><trkpt lat="43.86571773000129" lon="7.562198777873386"><ele>183.0</ele><time>2026-03-29T11:28:26.001Z</time></trkpt><trkpt lat="43.86582878296172" lon="7.5622236308466055"><ele>183.0</ele><time>2026-03-29T11:28:27.001Z</time></trkpt><trkpt lat="43.86593892896465" lon="7.56224671547979"><ele>183.0</ele><time>2026-03-29T11:28:28.001Z</time></trkpt><trkpt lat="43.866042246301674" lon="7.5622711192190515"><ele>183.0</ele><time>2026-03-29T11:28:29.001Z</time></trkpt><trkpt lat="43.86613980605406" lon="7.562291444145864"><ele>183.0</ele><time>2026-03-29T11:28:30.001Z</time></trkpt><trkpt lat="43.86623212674875" lon="7.562312102995522"><ele>183.0</ele><time>2026-03-29T11:28:31.001Z</time></trkpt><trkpt lat="43.866322302297945" lon="7.562336055634874"><ele>183.2</ele><time>2026-03-29T11:28:32.001Z</time></trkpt><trkpt lat="43.86641966991428" lon="7.5623580722294665"><ele>183.4</ele><time>2026-03-29T11:28:33.001Z</time></trkpt><trkpt lat="43.866522792961774" lon="7.562387433259591"><ele>183.6</ele><time>2026-03-29T11:28:34.001Z</time></trkpt><trkpt lat="43.866621264625834" lon="7.562429243081526"><ele>183.79999999999998</ele><time>2026-03-29T11:28:35.001Z</time></trkpt><trkpt lat="43.8667149314026" lon="7.562477093914154"><ele>184.0</ele><time>2026-03-29T11:28:36.001Z</time></trkpt><trkpt lat="43.86680991671243" lon="7.562521139628689"><ele>180.16666666666669</ele><time>2026-03-29T11:28:37.001Z</time></trkpt><trkpt lat="43.86689749650696" lon="7.562564203034746"><ele>176.33333333333334</ele><time>2026-03-29T11:28:38.001Z</time></trkpt><trkpt lat="43.866982588988506" lon="7.5626045540781615"><ele>172.5</ele><time>2026-03-29T11:28:39.001Z</time></trkpt><trkpt lat="43.86706692525427" lon="7.5626487104191735"><ele>168.66666666666666</ele><time>2026-03-29T11:28:40.001Z</time></trkpt><trkpt lat="43.867152256627556" lon="7.562692121516281"><ele>164.83333333333331</ele><time>2026-03-29T11:28:41.001Z</time></trkpt><trkpt lat="43.8672356215745" lon="7.562705353639234"><ele>161.0</ele><time>2026-03-29T11:28:42Z</time></trkpt><trkpt lat="43.86731106412841" lon="7.562675532686927"><ele>161.0</ele><time>2026-03-29T11:28:43Z</time></trkpt><trkpt lat="43.86735943914335" lon="7.562597796154634"><ele>161.0</ele><time>2026-03-29T11:28:44Z</time></trkpt><trkpt lat="43.86738424682935" lon="7.562487184258277"><ele>161.0</ele><time>2026-03-29T11:28:45Z</time></trkpt><trkpt lat="43.867388022432365" lon="7.562344831021754"><ele>161.0</ele><time>2026-03-29T11:28:46Z</time></trkpt><trkpt lat="43.867401882927844" lon="7.5622034561966585"><ele>161.0</ele><time>2026-03-29T11:28:47Z</time></trkpt><trkpt lat="43.86742090551837" lon="7.5620842116565745"><ele>162.60000000000002</ele><time>2026-03-29T11:28:48Z</time></trkpt><trkpt lat="43.867436362001705" lon="7.561966150369552"><ele>164.2</ele><time>2026-03-29T11:28:49Z</time></trkpt><trkpt lat="43.86744918663936" lon="7.561853713762298"><ele>165.8</ele><time>2026-03-29T11:28:50Z</time></trkpt><trkpt lat="43.86743811495913" lon="7.561739730728566"><ele>167.39999999999998</ele><time>2026-03-29T11:28:51Z</time></trkpt><trkpt lat="43.86738968246883" lon="7.561618659358921"><ele>169.0</ele><time>2026-03-29T11:28:52Z</time></trkpt><trkpt lat="43.867343797346486" lon="7.561492937483886"><ele>169.0</ele><time>2026-03-29T11:28:53Z</time></trkpt><trkpt lat="43.86733295393004" lon="7.561368403449984"><ele>169.0</ele><time>2026-03-29T11:28:54Z</time></trkpt><trkpt lat="43.867333942944896" lon="7.561239378511744"><ele>169.0</ele><time>2026-03-29T11:28:55Z</time></trkpt><trkpt lat="43.86735805037429" lon="7.5611048056196735"><ele>169.0</ele><time>2026-03-29T11:28:56Z</time></trkpt><trkpt lat="43.86740141310941" lon="7.560963664894194"><ele>169.0</ele><time>2026-03-29T11:28:57Z</time></trkpt><trkpt lat="43.86746023873059" lon="7.560825978929463"><ele>170.0</ele><time>2026-03-29T11:28:58Z</time></trkpt><trkpt lat="43.867517834153375" lon="7.560704465917597"><ele>171.0</ele><time>2026-03-29T11:28:59Z</time></trkpt><trkpt lat="43.867568287874754" lon="7.560582290983324"><ele>172.0</ele><time>2026-03-29T11:29:00Z</time></trkpt><trkpt lat="43.86760832742685" lon="7.560462356825503"><ele>173.0</ele><time>2026-03-29T11:29:01Z</time></trkpt><trkpt lat="43.86763723214627" lon="7.560345669318044"><ele>174.0</ele><time>2026-03-29T11:29:02Z</time></trkpt><trkpt lat="43.867642592820594" lon="7.56022525997949"><ele>178.33333333333334</ele><time>2026-03-29T11:29:03Z</time></trkpt><trkpt lat="43.86762147651357" lon="7.560104334223336"><ele>182.66666666666669</ele><time>2026-03-29T11:29:04Z</time></trkpt><trkpt lat="43.867586666485415" lon="7.560003254697376"><ele>187.0</ele><time>2026-03-29T11:29:05Z</time></trkpt><trkpt lat="43.86759344987317" lon="7.559897623936845"><ele>191.33333333333334</ele><time>2026-03-29T11:29:06Z</time></trkpt><trkpt lat="43.86761687800778" lon="7.559780945769841"><ele>195.66666666666669</ele><time>2026-03-29T11:29:07Z</time></trkpt><trkpt lat="43.86766136966759" lon="7.559681583720257"><ele>200.0</ele><time>2026-03-29T11:29:08Z</time></trkpt><trkpt lat="43.86772723788087" lon="7.5595810334590245"><ele>188.00000000000003</ele><time>2026-03-29T11:29:09Z</time></trkpt><trkpt lat="43.867791863823946" lon="7.559495057133178"><ele>176.0</ele><time>2026-03-29T11:29:10Z</time></trkpt><trkpt lat="43.86786083216376" lon="7.559428409681913"><ele>164.0</ele><time>2026-03-29T11:29:11Z</time></trkpt><trkpt lat="43.86792773777793" lon="7.55936149794125"><ele>152.0</ele><time>2026-03-29T11:29:12Z</time></trkpt><trkpt lat="43.86796399084209" lon="7.559252119640344"><ele>140.0</ele><time>2026-03-29T11:29:13Z</time></trkpt><trkpt lat="43.86798214867625" lon="7.559118355242336"><ele>128.0</ele><time>2026-03-29T11:29:14Z</time></trkpt><trkpt lat="43.867986105765915" lon="7.55898675257021"><ele>128.0</ele><time>2026-03-29T11:29:15Z</time></trkpt><trkpt lat="43.86800869525373" lon="7.558867080722427"><ele>128.0</ele><time>2026-03-29T11:29:16Z</time></trkpt><trkpt lat="43.868054689122886" lon="7.558754685439591"><ele>128.0</ele><time>2026-03-29T11:29:17Z</time></trkpt><trkpt lat="43.86812319765851" lon="7.55865779082495"><ele>128.0</ele><time>2026-03-29T11:29:18Z</time></trkpt><trkpt lat="43.868190521843445" lon="7.558554867518211"><ele>128.0</ele><time>2026-03-29T11:29:19Z</time></trkpt><trkpt lat="43.86826488248741" lon="7.558455086673674"><ele>123.4</ele><time>2026-03-29T11:29:20Z</time></trkpt><trkpt lat="43.86834172375467" lon="7.558358964752319"><ele>118.80000000000001</ele><time>2026-03-29T11:29:21Z</time></trkpt><trkpt lat="43.8684140127268" lon="7.558264920193201"><ele>114.2</ele><time>2026-03-29T11:29:22Z</time></trkpt><trkpt lat="43.86848301759562" lon="7.558175194050889"><ele>109.6</ele><time>2026-03-29T11:29:23Z</time></trkpt><trkpt lat="43.86854994910072" lon="7.558087785449248"><ele>105.0</ele><time>2026-03-29T11:29:24Z</time></trkpt><trkpt lat="43.86861746038602" lon="7.557997644146846"><ele>105.0</ele><time>2026-03-29T11:29:25Z</time></trkpt><trkpt lat="43.86868924411355" lon="7.55791472315837"><ele>105.0</ele><time>2026-03-29T11:29:26Z</time></trkpt><trkpt lat="43.86876027142046" lon="7.557838512175931"><ele>105.0</ele><time>2026-03-29T11:29:27Z</time></trkpt><trkpt lat="43.86883155577642" lon="7.557764907296494"><ele>105.0</ele><time>2026-03-29T11:29:28Z</time></trkpt><trkpt lat="43.86890577985541" lon="7.55769103768829"><ele>105.0</ele><time>2026-03-29T11:29:29Z</time></trkpt><trkpt lat="43.86898066069801" lon="7.557618535718723"><ele>109.5</ele><time>2026-03-29T11:29:30Z</time></trkpt><trkpt lat="43.86904890722324" lon="7.557535514228615"><ele>114.0</ele><time>2026-03-29T11:29:31Z</time></trkpt><trkpt lat="43.869108964260064" lon="7.5574355415651775"><ele>118.5</ele><time>2026-03-29T11:29:32Z</time></trkpt><trkpt lat="43.86915322995638" lon="7.557319529955322"><ele>123.0</ele><time>2026-03-29T11:29:33.001Z</time></trkpt><trkpt lat="43.86918443519844" lon="7.557203780642782"><ele>127.5</ele><time>2026-03-29T11:29:34.001Z</time></trkpt><trkpt lat="43.869217067407654" lon="7.557101559609221"><ele>132.0</ele><time>2026-03-29T11:29:35.001Z</time></trkpt><trkpt lat="43.8692730411162" lon="7.557000166111046"><ele>132.0</ele><time>2026-03-29T11:29:37.001Z</time></trkpt><trkpt lat="43.86934969113291" lon="7.5570501025861185"><ele>132.0</ele><time>2026-03-29T11:29:39.001Z</time></trkpt><trkpt lat="43.869311924342135" lon="7.557238043983807"><ele>132.0</ele><time>2026-03-29T11:29:41.001Z</time></trkpt><trkpt lat="43.86924732274206" lon="7.557344101273774"><ele>132.0</ele><time>2026-03-29T11:29:42.001Z</time></trkpt><trkpt lat="43.869193015944596" lon="7.557453870138735"><ele>132.0</ele><time>2026-03-29T11:29:43.001Z</time></trkpt><trkpt lat="43.86914824454056" lon="7.557557037940174"><ele>132.0</ele><time>2026-03-29T11:29:44.001Z</time></trkpt><trkpt lat="43.86910461253819" lon="7.557662964539363"><ele>132.0</ele><time>2026-03-29T11:29:45.001Z</time></trkpt><trkpt lat="43.86905150639328" lon="7.557765477145319"><ele>132.0</ele><time>2026-03-29T11:29:46.001Z</time></trkpt><trkpt lat="43.868987713638816" lon="7.557853393877347"><ele>132.0</ele><time>2026-03-29T11:29:47.001Z</time></trkpt><trkpt lat="43.86891515255043" lon="7.557919661729224"><ele>132.0</ele><time>2026-03-29T11:29:48.001Z</time></trkpt><trkpt lat="43.86884595721181" lon="7.557970871175452"><ele>132.0</ele><time>2026-03-29T11:29:49.001Z</time></trkpt><trkpt lat="43.868794000804975" lon="7.558115071579764"><ele>126.6</ele><time>2026-03-29T11:29:51.001Z</time></trkpt><trkpt lat="43.868878075889384" lon="7.558228006198795"><ele>121.19999999999999</ele><time>2026-03-29T11:29:53.001Z</time></trkpt><trkpt lat="43.86894584416597" lon="7.558206283179588"><ele>115.8</ele><time>2026-03-29T11:29:54.001Z</time></trkpt><trkpt lat="43.869005458044676" lon="7.558144568510965"><ele>110.4</ele><time>2026-03-29T11:29:55.001Z</time></trkpt><trkpt lat="43.86905432543251" lon="7.558032414701918"><ele>105.0</ele><time>2026-03-29T11:29:56.001Z</time></trkpt><trkpt lat="43.86911434715204" lon="7.55792079657161"><ele>103.4</ele><time>2026-03-29T11:29:57.001Z</time></trkpt><trkpt lat="43.86918190849532" lon="7.557817925848248"><ele>101.8</ele><time>2026-03-29T11:29:58.001Z</time></trkpt><trkpt lat="43.8692587603342" lon="7.557712239016266"><ele>100.19999999999999</ele><time>2026-03-29T11:29:59.001Z</time></trkpt><trkpt lat="43.86933613792517" lon="7.557600130915565"><ele>98.6</ele><time>2026-03-29T11:30:00.001Z</time></trkpt><trkpt lat="43.86940736686062" lon="7.557488471075051"><ele>97.0</ele><time>2026-03-29T11:30:01.001Z</time></trkpt><trkpt lat="43.869484127466244" lon="7.557377581926911"><ele>97.0</ele><time>2026-03-29T11:30:02.001Z</time></trkpt><trkpt lat="43.86956404589681" lon="7.557259443907414"><ele>97.0</ele><time>2026-03-29T11:30:03.001Z</time></trkpt><trkpt lat="43.86964562164139" lon="7.557136622188335"><ele>97.0</ele><time>2026-03-29T11:30:04.001Z</time></trkpt><trkpt lat="43.869728062278796" lon="7.557007566295124"><ele>97.0</ele><time>2026-03-29T11:30:05.001Z</time></trkpt><trkpt lat="43.869802807021934" lon="7.556879226880222"><ele>99.6</ele><time>2026-03-29T11:30:06.001Z</time></trkpt><trkpt lat="43.86987287732101" lon="7.556754047384812"><ele>102.19999999999999</ele><time>2026-03-29T11:30:07.001Z</time></trkpt><trkpt lat="43.869932976334994" lon="7.55663242192298"><ele>104.8</ele><time>2026-03-29T11:30:08.001Z</time></trkpt><trkpt lat="43.86998454186077" lon="7.556515534975549"><ele>107.4</ele><time>2026-03-29T11:30:09.001Z</time></trkpt><trkpt lat="43.87002768591765" lon="7.556409179992899"><ele>110.0</ele><time>2026-03-29T11:30:10.001Z</time></trkpt><trkpt lat="43.870064676425585" lon="7.556308002067783"><ele>110.0</ele><time>2026-03-29T11:30:11.001Z</time></trkpt><trkpt lat="43.87007702347479" lon="7.556205067821697"><ele>110.0</ele><time>2026-03-29T11:30:12.001Z</time></trkpt><trkpt lat="43.87005375064952" lon="7.556096753589128"><ele>110.0</ele><time>2026-03-29T11:30:13.001Z</time></trkpt><trkpt lat="43.86999820173104" lon="7.555996662314825"><ele>110.0</ele><time>2026-03-29T11:30:14.001Z</time></trkpt><trkpt lat="43.869896396138664" lon="7.555923753948707"><ele>110.0</ele><time>2026-03-29T11:30:15.001Z</time></trkpt><trkpt lat="43.86980894507675" lon="7.555825037553136"><ele>108.4</ele><time>2026-03-29T11:30:16.001Z</time></trkpt><trkpt lat="43.869732082975666" lon="7.55573163327653"><ele>106.8</ele><time>2026-03-29T11:30:17.001Z</time></trkpt><trkpt lat="43.86965462701219" lon="7.555640650393696"><ele>105.19999999999999</ele><time>2026-03-29T11:30:18.001Z</time></trkpt><trkpt lat="43.86957553529582" lon="7.5555572712437264"><ele>103.6</ele><time>2026-03-29T11:30:19.001Z</time></trkpt><trkpt lat="43.86949563362649" lon="7.55547327552304"><ele>102.0</ele><time>2026-03-29T11:30:20.001Z</time></trkpt><trkpt lat="43.869412802624126" lon="7.5553903700603"><ele>101.83333333333333</ele><time>2026-03-29T11:30:21.001Z</time></trkpt><trkpt lat="43.86933799066279" lon="7.555305586345291"><ele>101.66666666666666</ele><time>2026-03-29T11:30:22.001Z</time></trkpt><trkpt lat="43.86926771077342" lon="7.555219091830662"><ele>101.5</ele><time>2026-03-29T11:30:23.001Z</time></trkpt><trkpt lat="43.86920075647956" lon="7.555136251853155"><ele>101.33333333333333</ele><time>2026-03-29T11:30:24.001Z</time></trkpt><trkpt lat="43.86913428389082" lon="7.555065411188262"><ele>101.16666666666666</ele><time>2026-03-29T11:30:25.001Z</time></trkpt><trkpt lat="43.86906689856883" lon="7.55499690724862"><ele>101.0</ele><time>2026-03-29T11:30:26.001Z</time></trkpt><trkpt lat="43.86900751297081" lon="7.554930353139854"><ele>101.85714285714286</ele><time>2026-03-29T11:30:27.001Z</time></trkpt><trkpt lat="43.868966942728406" lon="7.554851583046821"><ele>102.71428571428571</ele><time>2026-03-29T11:30:28.001Z</time></trkpt><trkpt lat="43.868941904243684" lon="7.554762457660195"><ele>103.57142857142858</ele><time>2026-03-29T11:30:29.001Z</time></trkpt><trkpt lat="43.86893803391331" lon="7.554671414307552"><ele>104.42857142857143</ele><time>2026-03-29T11:30:30.001Z</time></trkpt><trkpt lat="43.86897700214314" lon="7.5545923148995175"><ele>105.28571428571429</ele><time>2026-03-29T11:30:31.001Z</time></trkpt><trkpt lat="43.86900798549076" lon="7.554506344239272"><ele>106.14285714285715</ele><time>2026-03-29T11:30:32.001Z</time></trkpt><trkpt lat="43.86908484359541" lon="7.554462935824413"><ele>107.0</ele><time>2026-03-29T11:30:33.001Z</time></trkpt><trkpt lat="43.869165676512814" lon="7.554481402573886"><ele>108.0</ele><time>2026-03-29T11:30:34.001Z</time></trkpt><trkpt lat="43.86925023057638" lon="7.554492605540869"><ele>108.99999999999999</ele><time>2026-03-29T11:30:35.001Z</time></trkpt><trkpt lat="43.86933519982645" lon="7.55452952645691"><ele>109.99999999999999</ele><time>2026-03-29T11:30:36.001Z</time></trkpt><trkpt lat="43.86942761789141" lon="7.554573468839961"><ele>111.0</ele><time>2026-03-29T11:30:37.001Z</time></trkpt><trkpt lat="43.86952294659912" lon="7.554605348886732"><ele>112.0</ele><time>2026-03-29T11:30:38.001Z</time></trkpt><trkpt lat="43.869613983366115" lon="7.55464212085133"><ele>110.16666666666667</ele><time>2026-03-29T11:30:39.001Z</time></trkpt><trkpt lat="43.86970873797714" lon="7.554661399289439"><ele>108.33333333333334</ele><time>2026-03-29T11:30:40.001Z</time></trkpt><trkpt lat="43.86979272776187" lon="7.554696587584242"><ele>106.5</ele><time>2026-03-29T11:30:41.001Z</time></trkpt><trkpt lat="43.869875539212025" lon="7.554691649952901"><ele>104.66666666666666</ele><time>2026-03-29T11:30:42.001Z</time></trkpt><trkpt lat="43.86994621304159" lon="7.554755163895778"><ele>102.83333333333333</ele><time>2026-03-29T11:30:43.001Z</time></trkpt><trkpt lat="43.87003198930854" lon="7.554805678912198"><ele>101.0</ele><time>2026-03-29T11:30:44.001Z</time></trkpt><trkpt lat="43.87012164587546" lon="7.554881767012634"><ele>107.0</ele><time>2026-03-29T11:30:45.001Z</time></trkpt><trkpt lat="43.87022238869444" lon="7.554960318200888"><ele>113.0</ele><time>2026-03-29T11:30:46.001Z</time></trkpt><trkpt lat="43.87032697244761" lon="7.5550439914125915"><ele>119.0</ele><time>2026-03-29T11:30:47Z</time></trkpt><trkpt lat="43.87043775740894" lon="7.555124182749478"><ele>125.0</ele><time>2026-03-29T11:30:48Z</time></trkpt><trkpt lat="43.87055241918907" lon="7.555188195517145"><ele>125.0</ele><time>2026-03-29T11:30:49Z</time></trkpt><trkpt lat="43.87065119888855" lon="7.555244691458486"><ele>125.0</ele><time>2026-03-29T11:30:50Z</time></trkpt><trkpt lat="43.87073371736313" lon="7.555292519459691"><ele>125.0</ele><time>2026-03-29T11:30:51Z</time></trkpt><trkpt lat="43.870801295649535" lon="7.555333302336377"><ele>125.0</ele><time>2026-03-29T11:30:52Z</time></trkpt><trkpt lat="43.87091112265716" lon="7.555396565341543"><ele>125.0</ele><time>2026-03-29T11:30:54Z</time></trkpt><trkpt lat="43.870979875773386" lon="7.555435920470194"><ele>125.0</ele><time>2026-03-29T11:30:56Z</time></trkpt><trkpt lat="43.87103948945342" lon="7.555396444684751"><ele>125.0</ele><time>2026-03-29T11:31:00Z</time></trkpt><trkpt lat="43.870964517222426" lon="7.555268051189302"><ele>125.0</ele><time>2026-03-29T11:31:04Z</time></trkpt><trkpt lat="43.87086560240111" lon="7.555200816917749"><ele>125.0</ele><time>2026-03-29T11:31:06Z</time></trkpt><trkpt lat="43.870791410232044" lon="7.55517421375438"><ele>125.0</ele><time>2026-03-29T11:31:07Z</time></trkpt><trkpt lat="43.87072268884728" lon="7.555101925484314"><ele>124.99999999999999</ele><time>2026-03-29T11:31:08Z</time></trkpt><trkpt lat="43.87064797918218" lon="7.555050120004948"><ele>125.0</ele><time>2026-03-29T11:31:09Z</time></trkpt><trkpt lat="43.8705535683605" lon="7.555007315143204"><ele>125.0</ele><time>2026-03-29T11:31:10Z</time></trkpt><trkpt lat="43.87047205955896" lon="7.554939180898772"><ele>125.0</ele><time>2026-03-29T11:31:11Z</time></trkpt><trkpt lat="43.870398493043666" lon="7.554887167254367"><ele>124.99999999999999</ele><time>2026-03-29T11:31:12Z</time></trkpt><trkpt lat="43.870327515368594" lon="7.554841830082254"><ele>125.0</ele><time>2026-03-29T11:31:13Z</time></trkpt><trkpt lat="43.870254249238414" lon="7.554799873571831"><ele>124.99999999999999</ele><time>2026-03-29T11:31:14Z</time></trkpt><trkpt lat="43.87021035686492" lon="7.554718626159162"><ele>125.0</ele><time>2026-03-29T11:31:15Z</time></trkpt><trkpt lat="43.870175385213194" lon="7.554636147684799"><ele>125.0</ele><time>2026-03-29T11:31:16Z</time></trkpt><trkpt lat="43.87015514073651" lon="7.554540063530287"><ele>125.0</ele><time>2026-03-29T11:31:17Z</time></trkpt><trkpt lat="43.870122573433676" lon="7.55442837525369"><ele>124.99999999999999</ele><time>2026-03-29T11:31:18Z</time></trkpt><trkpt lat="43.87008845076859" lon="7.554333932534555"><ele>125.0</ele><time>2026-03-29T11:31:19Z</time></trkpt><trkpt lat="43.8699972249515" lon="7.554295134950846"><ele>123.6</ele><time>2026-03-29T11:31:20Z</time></trkpt><trkpt lat="43.86990112690896" lon="7.554279103541749"><ele>122.2</ele><time>2026-03-29T11:31:21Z</time></trkpt><trkpt lat="43.869793941050894" lon="7.554290337826821"><ele>120.80000000000001</ele><time>2026-03-29T11:31:22Z</time></trkpt><trkpt lat="43.86970033524918" lon="7.554302254033337"><ele>119.4</ele><time>2026-03-29T11:31:23Z</time></trkpt><trkpt lat="43.86960677524737" lon="7.554304331340461"><ele>118.0</ele><time>2026-03-29T11:31:24Z</time></trkpt><trkpt lat="43.869514357784055" lon="7.554303283905532"><ele>118.00000000000001</ele><time>2026-03-29T11:31:25Z</time></trkpt><trkpt lat="43.86942813120319" lon="7.554303382122101"><ele>118.0</ele><time>2026-03-29T11:31:26Z</time></trkpt><trkpt lat="43.86936085998623" lon="7.554305938751399"><ele>118.0</ele><time>2026-03-29T11:31:27Z</time></trkpt><trkpt lat="43.869285438737045" lon="7.554290997844713"><ele>118.0</ele><time>2026-03-29T11:31:28Z</time></trkpt><trkpt lat="43.86918509433236" lon="7.554268964559451"><ele>118.00000000000001</ele><time>2026-03-29T11:31:29Z</time></trkpt><trkpt lat="43.86908851256878" lon="7.554198365818406"><ele>118.0</ele><time>2026-03-29T11:31:30Z</time></trkpt><trkpt lat="43.86900017460889" lon="7.5541334880525195"><ele>116.80000000000001</ele><time>2026-03-29T11:31:31Z</time></trkpt><trkpt lat="43.868928447082546" lon="7.554050149867399"><ele>115.60000000000001</ele><time>2026-03-29T11:31:32Z</time></trkpt><trkpt lat="43.86885223334474" lon="7.553951935194886"><ele>114.39999999999999</ele><time>2026-03-29T11:31:33Z</time></trkpt><trkpt lat="43.86875924525084" lon="7.553859605781185"><ele>113.19999999999999</ele><time>2026-03-29T11:31:34Z</time></trkpt><trkpt lat="43.868659463255035" lon="7.5537588293054725"><ele>112.0</ele><time>2026-03-29T11:31:35Z</time></trkpt><trkpt lat="43.86854932234006" lon="7.553685049256013"><ele>113.00000000000001</ele><time>2026-03-29T11:31:36Z</time></trkpt><trkpt lat="43.868458379140264" lon="7.553624364898762"><ele>114.0</ele><time>2026-03-29T11:31:37Z</time></trkpt><trkpt lat="43.86838413270783" lon="7.5535653025308696"><ele>115.0</ele><time>2026-03-29T11:31:38Z</time></trkpt><trkpt lat="43.8683193362739" lon="7.553517644064394"><ele>116.0</ele><time>2026-03-29T11:31:39Z</time></trkpt><trkpt lat="43.868263452307076" lon="7.553473880787324"><ele>117.00000000000001</ele><time>2026-03-29T11:31:40Z</time></trkpt><trkpt lat="43.868185792093975" lon="7.553382562621639"><ele>118.0</ele><time>2026-03-29T11:31:42Z</time></trkpt><trkpt lat="43.86813943100185" lon="7.5533218552596075"><ele>118.00000000000001</ele><time>2026-03-29T11:31:44Z</time></trkpt><trkpt lat="43.86804799165062" lon="7.553317327987936"><ele>118.0</ele><time>2026-03-29T11:31:50Z</time></trkpt><trkpt lat="43.867995380948116" lon="7.55343371381082"><ele>118.0</ele><time>2026-03-29T11:31:52Z</time></trkpt><trkpt lat="43.867946536003004" lon="7.553569976401758"><ele>118.0</ele><time>2026-03-29T11:31:54Z</time></trkpt><trkpt lat="43.86791013844477" lon="7.553657378028397"><ele>118.00000000000001</ele><time>2026-03-29T11:31:55Z</time></trkpt><trkpt lat="43.867875392523736" lon="7.553746219920329"><ele>118.0</ele><time>2026-03-29T11:31:56Z</time></trkpt><trkpt lat="43.86783936341968" lon="7.553848407632019"><ele>118.0</ele><time>2026-03-29T11:31:57Z</time></trkpt><trkpt lat="43.867799162230796" lon="7.55396051902763"><ele>118.00000000000001</ele><time>2026-03-29T11:31:58Z</time></trkpt><trkpt lat="43.86775445217396" lon="7.554083939803454"><ele>118.00000000000001</ele><time>2026-03-29T11:31:59Z</time></trkpt><trkpt lat="43.86770211992051" lon="7.554215934875535"><ele>118.0</ele><time>2026-03-29T11:32:00Z</time></trkpt><trkpt lat="43.86767164518902" lon="7.554334357518095"><ele>118.0</ele><time>2026-03-29T11:32:01Z</time></trkpt><trkpt lat="43.86762436445555" lon="7.554446640285599"><ele>132.2</ele><time>2026-03-29T11:32:02Z</time></trkpt><trkpt lat="43.86757917229075" lon="7.554566825624454"><ele>146.4</ele><time>2026-03-29T11:32:03Z</time></trkpt><trkpt lat="43.86753417556231" lon="7.554686227959883"><ele>160.6</ele><time>2026-03-29T11:32:04.001Z</time></trkpt><trkpt lat="43.86748959932723" lon="7.55480412547358"><ele>174.79999999999998</ele><time>2026-03-29T11:32:05.001Z</time></trkpt><trkpt lat="43.86743563847411" lon="7.554946843930678"><ele>189.0</ele><time>2026-03-29T11:32:06.072Z</time></trkpt><trkpt lat="43.86739093640976" lon="7.555065074258174"><ele>270.0</ele><time>2026-03-29T11:32:07.056Z</time></trkpt><trkpt lat="43.86679745181121" lon="7.556693277010453"><ele>286.5</ele><time>2026-03-29T11:32:11.938Z</time></trkpt><trkpt lat="43.86667245661725" lon="7.557023651014722"><ele>303.0</ele><time>2026-03-29T11:32:12.938Z</time></trkpt><trkpt lat="43.86654619573092" lon="7.557353949119261"><ele>319.5</ele><time>2026-03-29T11:32:13.938Z</time></trkpt><trkpt lat="43.86641980593008" lon="7.557683773630543"><ele>336.0</ele><time>2026-03-29T11:32:14.938Z</time></trkpt><trkpt lat="43.86628144950189" lon="7.558005099573123"><ele>336.0</ele><time>2026-03-29T11:32:15.938Z</time></trkpt><trkpt lat="43.86617271105625" lon="7.558347454302432"><ele>336.0</ele><time>2026-03-29T11:32:16.938Z</time></trkpt><trkpt lat="43.86603383395005" lon="7.558668240837419"><ele>352.0</ele><time>2026-03-29T11:32:17.938Z</time></trkpt><trkpt lat="43.86592374380983" lon="7.559009780896816"><ele>368.0</ele><time>2026-03-29T11:32:18.938Z</time></trkpt><trkpt lat="43.8657990780951" lon="7.559340823062447"><ele>345.5</ele><time>2026-03-29T11:32:19.938Z</time></trkpt><trkpt lat="43.86566019752827" lon="7.559661684840306"><ele>323.0</ele><time>2026-03-29T11:32:20.938Z</time></trkpt><trkpt lat="43.86555088950309" lon="7.560003706517054"><ele>323.0</ele><time>2026-03-29T11:32:21.938Z</time></trkpt><trkpt lat="43.86541180683201" lon="7.560322536710539"><ele>323.0</ele><time>2026-03-29T11:32:22.933Z</time></trkpt><trkpt lat="43.86528599120391" lon="7.560654517977198"><ele>300.5</ele><time>2026-03-29T11:32:23.938Z</time></trkpt><trkpt lat="43.865175450962546" lon="7.56099578918381"><ele>278.0</ele><time>2026-03-29T11:32:24.938Z</time></trkpt><trkpt lat="43.85563305090819" lon="7.574883166886923"><ele>225.0</ele><time>2026-03-29T11:34:24.001Z</time></trkpt><trkpt lat="43.85549008932532" lon="7.574958072555205"><ele>172.0</ele><time>2026-03-29T11:34:25.001Z</time></trkpt><trkpt lat="43.85549880190884" lon="7.57480016409183"><ele>119.0</ele><time>2026-03-29T11:34:26.001Z</time></trkpt><trkpt lat="43.855353338553684" lon="7.574720891576196"><ele>66.0</ele><time>2026-03-29T11:34:27.001Z</time></trkpt><trkpt lat="43.85521527644196" lon="7.574788725004182"><ele>132.5</ele><time>2026-03-29T11:34:28.001Z</time></trkpt><trkpt lat="43.855079314727426" lon="7.574855526376363"><ele>199.0</ele><time>2026-03-29T11:34:29.001Z</time></trkpt><trkpt lat="43.85342015631099" lon="7.57590528124221"><ele>261.0</ele><time>2026-03-29T11:34:37.938Z</time></trkpt><trkpt lat="43.85288504939917" lon="7.5763592588652395"><ele>203.0</ele><time>2026-03-29T11:34:38.934Z</time></trkpt><trkpt lat="43.8523487047602" lon="7.576822492261804"><ele>200.0</ele><time>2026-03-29T11:34:39.938Z</time></trkpt><trkpt lat="43.85181421697228" lon="7.577283330883049"><ele>140.0</ele><time>2026-03-29T11:34:40.938Z</time></trkpt><trkpt lat="43.851279100015276" lon="7.577742662127508"><ele>87.0</ele><time>2026-03-29T11:34:41.938Z</time></trkpt><trkpt lat="43.85074371420562" lon="7.578201558447027"><ele>87.0</ele><time>2026-03-29T11:34:42.938Z</time></trkpt><trkpt lat="43.85036572332292" lon="7.578525544725585"><ele>87.0</ele><time>2026-03-29T11:34:43.933Z</time></trkpt><trkpt lat="43.84976574884741" lon="7.579148364977282"><ele>80.66666666666667</ele><time>2026-03-29T11:35:08Z</time></trkpt><trkpt lat="43.849623049054124" lon="7.579301470147611"><ele>74.33333333333334</ele><time>2026-03-29T11:35:09Z</time></trkpt><trkpt lat="43.84950543758865" lon="7.579440355911874"><ele>68.0</ele><time>2026-03-29T11:35:10Z</time></trkpt><trkpt lat="43.849389520429774" lon="7.579632066500457"><ele>61.0</ele><time>2026-03-29T11:35:11Z</time></trkpt><trkpt lat="43.84928742323444" lon="7.579803047846709"><ele>54.0</ele><time>2026-03-29T11:35:12Z</time></trkpt><trkpt lat="43.84919448716013" lon="7.579966436946097"><ele>47.0</ele><time>2026-03-29T11:35:13Z</time></trkpt><trkpt lat="43.849106583994725" lon="7.580134653089409"><ele>47.0</ele><time>2026-03-29T11:35:14Z</time></trkpt><trkpt lat="43.84902914830318" lon="7.580312295789364"><ele>47.0</ele><time>2026-03-29T11:35:15Z</time></trkpt><trkpt lat="43.848971351001886" lon="7.5805105275030416"><ele>47.0</ele><time>2026-03-29T11:35:16Z</time></trkpt><trkpt lat="43.848926892877756" lon="7.580743964523693"><ele>48.666666666666664</ele><time>2026-03-29T11:35:17Z</time></trkpt><trkpt lat="43.848897375825146" lon="7.580971861167837"><ele>50.33333333333333</ele><time>2026-03-29T11:35:18Z</time></trkpt><trkpt lat="43.84885561956857" lon="7.5811847010937825"><ele>52.0</ele><time>2026-03-29T11:35:19Z</time></trkpt><trkpt lat="43.84882569171477" lon="7.581392074796325"><ele>53.0</ele><time>2026-03-29T11:35:20Z</time></trkpt><trkpt lat="43.84880084351581" lon="7.581567084872897"><ele>54.0</ele><time>2026-03-29T11:35:21Z</time></trkpt><trkpt lat="43.84877320653594" lon="7.5817617367585335"><ele>55.0</ele><time>2026-03-29T11:35:22Z</time></trkpt><trkpt lat="43.84874579387142" lon="7.581954808813342"><ele>56.0</ele><time>2026-03-29T11:35:23Z</time></trkpt><trkpt lat="43.84871862577467" lon="7.582146158317138"><ele>56.5</ele><time>2026-03-29T11:35:24Z</time></trkpt><trkpt lat="43.84869188650847" lon="7.582333771290506"><ele>57.0</ele><time>2026-03-29T11:35:25Z</time></trkpt><trkpt lat="43.848663446429" lon="7.582528949744846"><ele>57.5</ele><time>2026-03-29T11:35:26Z</time></trkpt><trkpt lat="43.84863416002448" lon="7.5827247141255425"><ele>58.0</ele><time>2026-03-29T11:35:27Z</time></trkpt><trkpt lat="43.84861435953619" lon="7.582940728671639"><ele>59.75</ele><time>2026-03-29T11:35:28Z</time></trkpt><trkpt lat="43.848583816405956" lon="7.583128595346407"><ele>61.5</ele><time>2026-03-29T11:35:29Z</time></trkpt><trkpt lat="43.84854928213561" lon="7.583312955948943"><ele>63.25</ele><time>2026-03-29T11:35:30Z</time></trkpt><trkpt lat="43.84850562972037" lon="7.583504789559538"><ele>65.0</ele><time>2026-03-29T11:35:31Z</time></trkpt><trkpt lat="43.84842219910107" lon="7.58367913763688"><ele>61.5</ele><time>2026-03-29T11:35:32Z</time></trkpt><trkpt lat="43.848366923273346" lon="7.583875921103968"><ele>58.0</ele><time>2026-03-29T11:35:33Z</time></trkpt><trkpt lat="43.84829295837047" lon="7.584052023387922"><ele>54.5</ele><time>2026-03-29T11:35:34Z</time></trkpt><trkpt lat="43.848227519177506" lon="7.584224229454334"><ele>51.0</ele><time>2026-03-29T11:35:35Z</time></trkpt><trkpt lat="43.84816304861215" lon="7.584392642376886"><ele>52.0</ele><time>2026-03-29T11:35:36Z</time></trkpt><trkpt lat="43.84809685969234" lon="7.584558564613329"><ele>53.0</ele><time>2026-03-29T11:35:37Z</time></trkpt><trkpt lat="43.84803352792988" lon="7.584724556153269"><ele>54.0</ele><time>2026-03-29T11:35:38Z</time></trkpt><trkpt lat="43.8479717063564" lon="7.584890644354291"><ele>55.0</ele><time>2026-03-29T11:35:39Z</time></trkpt><trkpt lat="43.84790572001954" lon="7.585058841914157"><ele>55.0</ele><time>2026-03-29T11:35:40Z</time></trkpt><trkpt lat="43.84782947608545" lon="7.5852243566771484"><ele>55.0</ele><time>2026-03-29T11:35:41Z</time></trkpt><trkpt lat="43.84777738054056" lon="7.585406092985823"><ele>55.0</ele><time>2026-03-29T11:35:42Z</time></trkpt><trkpt lat="43.84771059895319" lon="7.585577030039973"><ele>55.0</ele><time>2026-03-29T11:35:43Z</time></trkpt><trkpt lat="43.847645469571994" lon="7.585739105218459"><ele>54.25</ele><time>2026-03-29T11:35:44Z</time></trkpt><trkpt lat="43.847579464187724" lon="7.585909399207667"><ele>53.5</ele><time>2026-03-29T11:35:45Z</time></trkpt><trkpt lat="43.847509221062914" lon="7.586090225816744"><ele>52.75</ele><time>2026-03-29T11:35:46Z</time></trkpt><trkpt lat="43.8474402162772" lon="7.586272771996886"><ele>52.0</ele><time>2026-03-29T11:35:47Z</time></trkpt><trkpt lat="43.84737382575759" lon="7.586443948583537"><ele>52.0</ele><time>2026-03-29T11:35:48Z</time></trkpt><trkpt lat="43.8473048323035" lon="7.5866068498652846"><ele>52.0</ele><time>2026-03-29T11:35:49Z</time></trkpt><trkpt lat="43.8472227620176" lon="7.586769494137587"><ele>52.0</ele><time>2026-03-29T11:35:50Z</time></trkpt><trkpt lat="43.84713029945962" lon="7.586927333316567"><ele>52.0</ele><time>2026-03-29T11:35:51Z</time></trkpt><trkpt lat="43.84702934248354" lon="7.587082069032338"><ele>51.75</ele><time>2026-03-29T11:35:52Z</time></trkpt><trkpt lat="43.84692926448065" lon="7.587239437079754"><ele>51.5</ele><time>2026-03-29T11:35:53Z</time></trkpt><trkpt lat="43.84683412018637" lon="7.587380655643963"><ele>51.25</ele><time>2026-03-29T11:35:54Z</time></trkpt><trkpt lat="43.846738226427235" lon="7.587530082690695"><ele>51.0</ele><time>2026-03-29T11:35:55Z</time></trkpt><trkpt lat="43.84664581560915" lon="7.587678114221893"><ele>51.0</ele><time>2026-03-29T11:35:56Z</time></trkpt><trkpt lat="43.846557754178285" lon="7.587815968865835"><ele>51.0</ele><time>2026-03-29T11:35:57Z</time></trkpt><trkpt lat="43.84647305856306" lon="7.5879587690335235"><ele>51.0</ele><time>2026-03-29T11:35:58Z</time></trkpt><trkpt lat="43.846374027368206" lon="7.588083060676948"><ele>51.0</ele><time>2026-03-29T11:35:59Z</time></trkpt><trkpt lat="43.84629439623076" lon="7.588241248968608"><ele>50.75</ele><time>2026-03-29T11:36:00Z</time></trkpt><trkpt lat="43.84619885610177" lon="7.588384964535965"><ele>50.5</ele><time>2026-03-29T11:36:01Z</time></trkpt><trkpt lat="43.84610618232154" lon="7.588520558978115"><ele>50.25</ele><time>2026-03-29T11:36:02Z</time></trkpt><trkpt lat="43.84601425707005" lon="7.588666733584504"><ele>50.0</ele><time>2026-03-29T11:36:03Z</time></trkpt><trkpt lat="43.845918227907326" lon="7.588815278611393"><ele>50.0</ele><time>2026-03-29T11:36:04Z</time></trkpt><trkpt lat="43.845825158525784" lon="7.588954409737281"><ele>50.0</ele><time>2026-03-29T11:36:05Z</time></trkpt><trkpt lat="43.845735018420484" lon="7.589098334340103"><ele>50.0</ele><time>2026-03-29T11:36:06Z</time></trkpt><trkpt lat="43.84564504777279" lon="7.5892398331371345"><ele>50.0</ele><time>2026-03-29T11:36:07Z</time></trkpt><trkpt lat="43.845557890583514" lon="7.589376896378011"><ele>51.5</ele><time>2026-03-29T11:36:08Z</time></trkpt><trkpt lat="43.84546871195601" lon="7.589511024070109"><ele>53.0</ele><time>2026-03-29T11:36:09Z</time></trkpt><trkpt lat="43.84538141623376" lon="7.589649091715876"><ele>54.5</ele><time>2026-03-29T11:36:10Z</time></trkpt><trkpt lat="43.84529400883176" lon="7.589788669674037"><ele>56.0</ele><time>2026-03-29T11:36:11Z</time></trkpt><trkpt lat="43.84520779816655" lon="7.589932989615186"><ele>55.0</ele><time>2026-03-29T11:36:12Z</time></trkpt><trkpt lat="43.84511378817343" lon="7.590078640869084"><ele>54.0</ele><time>2026-03-29T11:36:13Z</time></trkpt><trkpt lat="43.84501461601588" lon="7.590235849944531"><ele>53.0</ele><time>2026-03-29T11:36:14Z</time></trkpt><trkpt lat="43.84492066259331" lon="7.590378390379044"><ele>52.0</ele><time>2026-03-29T11:36:15Z</time></trkpt><trkpt lat="43.844835964121934" lon="7.590510095347616"><ele>52.0</ele><time>2026-03-29T11:36:16Z</time></trkpt><trkpt lat="43.84475474426319" lon="7.5906380199485275"><ele>52.0</ele><time>2026-03-29T11:36:17Z</time></trkpt><trkpt lat="43.84467242510941" lon="7.590772209295974"><ele>52.0</ele><time>2026-03-29T11:36:18Z</time></trkpt><trkpt lat="43.844586131966736" lon="7.590908963771563"><ele>52.0</ele><time>2026-03-29T11:36:19Z</time></trkpt><trkpt lat="43.84449846529678" lon="7.591045424248208"><ele>53.25</ele><time>2026-03-29T11:36:20Z</time></trkpt><trkpt lat="43.84440848714646" lon="7.591185403996526"><ele>54.5</ele><time>2026-03-29T11:36:21Z</time></trkpt><trkpt lat="43.84431847457338" lon="7.591323055869931"><ele>55.75</ele><time>2026-03-29T11:36:22.001Z</time></trkpt><trkpt lat="43.84423107771473" lon="7.59144527588768"><ele>57.0</ele><time>2026-03-29T11:36:23.001Z</time></trkpt><trkpt lat="43.84413336936778" lon="7.591545155223869"><ele>57.0</ele><time>2026-03-29T11:36:24.001Z</time></trkpt><trkpt lat="43.844023445414265" lon="7.591619298611228"><ele>57.0</ele><time>2026-03-29T11:36:25.001Z</time></trkpt><trkpt lat="43.84390784816548" lon="7.5916751520944725"><ele>57.0</ele><time>2026-03-29T11:36:26.001Z</time></trkpt><trkpt lat="43.843788180768215" lon="7.591731387438512"><ele>57.0</ele><time>2026-03-29T11:36:27.001Z</time></trkpt><trkpt lat="43.84366038282022" lon="7.591773753681609"><ele>57.0</ele><time>2026-03-29T11:36:28.001Z</time></trkpt><trkpt lat="43.8435261713441" lon="7.591771642751841"><ele>57.0</ele><time>2026-03-29T11:36:29.001Z</time></trkpt><trkpt lat="43.84339083450459" lon="7.591748011508283"><ele>57.0</ele><time>2026-03-29T11:36:30.001Z</time></trkpt><trkpt lat="43.84326636319644" lon="7.591727696480701"><ele>57.0</ele><time>2026-03-29T11:36:31.001Z</time></trkpt><trkpt lat="43.84314992738841" lon="7.591689499078821"><ele>56.25</ele><time>2026-03-29T11:36:32.001Z</time></trkpt><trkpt lat="43.84302421073267" lon="7.591656896238734"><ele>55.5</ele><time>2026-03-29T11:36:33.001Z</time></trkpt><trkpt lat="43.84290017318514" lon="7.591608005799362"><ele>54.75</ele><time>2026-03-29T11:36:34.001Z</time></trkpt><trkpt lat="43.84277898095168" lon="7.591530969872152"><ele>54.0</ele><time>2026-03-29T11:36:35Z</time></trkpt><trkpt lat="43.84268385470355" lon="7.591395432468842"><ele>53.0</ele><time>2026-03-29T11:36:36Z</time></trkpt><trkpt lat="43.84257549744839" lon="7.591269894019262"><ele>52.0</ele><time>2026-03-29T11:36:37Z</time></trkpt><trkpt lat="43.84249353121094" lon="7.591125265210209"><ele>51.0</ele><time>2026-03-29T11:36:38Z</time></trkpt><trkpt lat="43.84241145700257" lon="7.590972941620733"><ele>50.0</ele><time>2026-03-29T11:36:39Z</time></trkpt><trkpt lat="43.84232944141194" lon="7.5908387577918415"><ele>50.0</ele><time>2026-03-29T11:36:40Z</time></trkpt><trkpt lat="43.84223118450397" lon="7.590728772900077"><ele>50.0</ele><time>2026-03-29T11:36:41Z</time></trkpt><trkpt lat="43.84210586279945" lon="7.590630480119473"><ele>50.0</ele><time>2026-03-29T11:36:42Z</time></trkpt><trkpt lat="43.84198805184138" lon="7.590538098148884"><ele>50.0</ele><time>2026-03-29T11:36:43Z</time></trkpt><trkpt lat="43.841884655679294" lon="7.590447095362052"><ele>50.50000000000001</ele><time>2026-03-29T11:36:44Z</time></trkpt><trkpt lat="43.8417916778094" lon="7.590356577141379"><ele>51.0</ele><time>2026-03-29T11:36:45Z</time></trkpt><trkpt lat="43.841717745232906" lon="7.590276304577886"><ele>51.5</ele><time>2026-03-29T11:36:46Z</time></trkpt><trkpt lat="43.8416644113612" lon="7.590211935697469"><ele>52.0</ele><time>2026-03-29T11:36:47Z</time></trkpt><trkpt lat="43.84159142007053" lon="7.590113475302007"><ele>52.50000000000001</ele><time>2026-03-29T11:36:49Z</time></trkpt><trkpt lat="43.84157886354948" lon="7.590027198741018"><ele>53.0</ele><time>2026-03-29T11:36:53Z</time></trkpt><trkpt lat="43.841610576235475" lon="7.5901037959677815"><ele>53.0</ele><time>2026-03-29T11:36:59Z</time></trkpt><trkpt lat="43.84166629816173" lon="7.590214990288059"><ele>53.0</ele><time>2026-03-29T11:37:19.001Z</time></trkpt><trkpt lat="43.84147710864151" lon="7.5902694282097425"><ele>53.0</ele><time>2026-03-29T11:37:20.001Z</time></trkpt><trkpt lat="43.84150831329071" lon="7.590500855070917"><ele>53.00000000000001</ele><time>2026-03-29T11:37:22.001Z</time></trkpt><trkpt lat="43.84148866166767" lon="7.590651249096521"><ele>53.0</ele><time>2026-03-29T11:37:24.001Z</time></trkpt><trkpt lat="43.84150807679281" lon="7.590739227129265"><ele>53.0</ele><time>2026-03-29T11:37:25.001Z</time></trkpt><trkpt lat="43.84158318543647" lon="7.590799209418683"><ele>53.0</ele><time>2026-03-29T11:37:26.001Z</time></trkpt><trkpt lat="43.841638814612296" lon="7.590845087320827"><ele>53.00000000000001</ele><time>2026-03-29T11:37:27.001Z</time></trkpt><trkpt lat="43.84165780655828" lon="7.590988088120407"><ele>53.0</ele><time>2026-03-29T11:37:29.001Z</time></trkpt><trkpt lat="43.8416150944725" lon="7.5910764055642455"><ele>53.00000000000001</ele><time>2026-03-29T11:37:30.001Z</time></trkpt><trkpt lat="43.841532740679405" lon="7.591126272284349"><ele>53.0</ele><time>2026-03-29T11:37:31.001Z</time></trkpt><trkpt lat="43.84147295231401" lon="7.5911933696714735"><ele>53.0</ele><time>2026-03-29T11:37:32.001Z</time></trkpt><trkpt lat="43.841418567366404" lon="7.591287271073679"><ele>53.0</ele><time>2026-03-29T11:37:33.001Z</time></trkpt><trkpt lat="43.841341273666266" lon="7.591366347006357"><ele>53.00000000000001</ele><time>2026-03-29T11:37:34.001Z</time></trkpt><trkpt lat="43.841274079707524" lon="7.591450153230938"><ele>53.0</ele><time>2026-03-29T11:37:35.001Z</time></trkpt><trkpt lat="43.841219552660725" lon="7.591531529088871"><ele>56.599999999999994</ele><time>2026-03-29T11:37:36.001Z</time></trkpt><trkpt lat="43.84119844300311" lon="7.591634778578064"><ele>60.199999999999996</ele><time>2026-03-29T11:37:37.001Z</time></trkpt><trkpt lat="43.841213146814454" lon="7.591771490974655"><ele>63.8</ele><time>2026-03-29T11:37:38.001Z</time></trkpt><trkpt lat="43.84125844616611" lon="7.591902282953024"><ele>67.39999999999999</ele><time>2026-03-29T11:37:39.001Z</time></trkpt><trkpt lat="43.84129508706118" lon="7.5920282019552285"><ele>71.0</ele><time>2026-03-29T11:37:40.001Z</time></trkpt><trkpt lat="43.84132369711603" lon="7.592146027792025"><ele>73.0</ele><time>2026-03-29T11:37:41.001Z</time></trkpt><trkpt lat="43.84131472247487" lon="7.592264616446589"><ele>75.0</ele><time>2026-03-29T11:37:42.001Z</time></trkpt><trkpt lat="43.841316517328515" lon="7.592385949655092"><ele>77.0</ele><time>2026-03-29T11:37:43.001Z</time></trkpt><trkpt lat="43.841344872923926" lon="7.592505524105594"><ele>79.0</ele><time>2026-03-29T11:37:44.001Z</time></trkpt><trkpt lat="43.84135579472846" lon="7.592609502667366"><ele>81.0</ele><time>2026-03-29T11:37:45.001Z</time></trkpt><trkpt lat="43.841422172438385" lon="7.592716632264224"><ele>83.0</ele><time>2026-03-29T11:37:46.001Z</time></trkpt><trkpt lat="43.84144488098061" lon="7.592820066381038"><ele>85.60000000000001</ele><time>2026-03-29T11:37:47.001Z</time></trkpt><trkpt lat="43.84141706677348" lon="7.592933928643056"><ele>88.2</ele><time>2026-03-29T11:37:48.001Z</time></trkpt><trkpt lat="43.8414001833895" lon="7.59302747759565"><ele>90.8</ele><time>2026-03-29T11:37:49.001Z</time></trkpt><trkpt lat="43.84138877405479" lon="7.593186137423264"><ele>93.4</ele><time>2026-03-29T11:37:51.001Z</time></trkpt><trkpt lat="43.841358578406734" lon="7.593292512534764"><ele>96.0</ele><time>2026-03-29T11:37:53.001Z</time></trkpt><trkpt lat="43.841300491504576" lon="7.593483290230658"><ele>96.0</ele><time>2026-03-29T11:37:55.001Z</time></trkpt><trkpt lat="43.84130662682043" lon="7.593611763610082"><ele>96.0</ele><time>2026-03-29T11:37:56.001Z</time></trkpt><trkpt lat="43.841272389407784" lon="7.593720097373324"><ele>96.0</ele><time>2026-03-29T11:37:57.001Z</time></trkpt><trkpt lat="43.8412365696448" lon="7.5938245346623345"><ele>96.0</ele><time>2026-03-29T11:37:58.001Z</time></trkpt><trkpt lat="43.841215115441315" lon="7.593947224680109"><ele>96.0</ele><time>2026-03-29T11:37:59.001Z</time></trkpt><trkpt lat="43.8411923952135" lon="7.594053859826185"><ele>96.0</ele><time>2026-03-29T11:38:00.001Z</time></trkpt><trkpt lat="43.8412028885974" lon="7.594150359873129"><ele>98.33333333333333</ele><time>2026-03-29T11:38:01.001Z</time></trkpt><trkpt lat="43.84124512715422" lon="7.594254650731593"><ele>100.66666666666666</ele><time>2026-03-29T11:38:02.001Z</time></trkpt><trkpt lat="43.84129722211351" lon="7.594362285315038"><ele>103.0</ele><time>2026-03-29T11:38:03.001Z</time></trkpt><trkpt lat="43.841329114002214" lon="7.594474606719884"><ele>105.33333333333333</ele><time>2026-03-29T11:38:04.001Z</time></trkpt><trkpt lat="43.84135031527733" lon="7.594584063950624"><ele>107.66666666666666</ele><time>2026-03-29T11:38:05.001Z</time></trkpt><trkpt lat="43.84134912159302" lon="7.59469616591615"><ele>110.0</ele><time>2026-03-29T11:38:06.001Z</time></trkpt><trkpt lat="43.84133581597355" lon="7.594810119381033"><ele>111.2</ele><time>2026-03-29T11:38:07.001Z</time></trkpt><trkpt lat="43.84135279056014" lon="7.594928182400296"><ele>112.4</ele><time>2026-03-29T11:38:08.001Z</time></trkpt><trkpt lat="43.84136490704482" lon="7.595051643526666"><ele>113.6</ele><time>2026-03-29T11:38:09.001Z</time></trkpt><trkpt lat="43.84140318319516" lon="7.59518257505328"><ele>114.8</ele><time>2026-03-29T11:38:10.001Z</time></trkpt><trkpt lat="43.841448265185285" lon="7.59530531160184"><ele>116.0</ele><time>2026-03-29T11:38:11.001Z</time></trkpt><trkpt lat="43.84147663485167" lon="7.595415501561339"><ele>116.99999999999999</ele><time>2026-03-29T11:38:12.001Z</time></trkpt><trkpt lat="43.84149559790945" lon="7.595526278587467"><ele>118.0</ele><time>2026-03-29T11:38:13.001Z</time></trkpt><trkpt lat="43.84148770540566" lon="7.595644891630872"><ele>119.0</ele><time>2026-03-29T11:38:14.001Z</time></trkpt><trkpt lat="43.84146121516774" lon="7.595750320377451"><ele>120.0</ele><time>2026-03-29T11:38:15.001Z</time></trkpt><trkpt lat="43.84143854228156" lon="7.595875232141119"><ele>120.99999999999999</ele><time>2026-03-29T11:38:16.001Z</time></trkpt><trkpt lat="43.84142188772579" lon="7.595992746428823"><ele>122.0</ele><time>2026-03-29T11:38:17.001Z</time></trkpt><trkpt lat="43.84139133258483" lon="7.596147757932258"><ele>125.16666666666666</ele><time>2026-03-29T11:38:19.001Z</time></trkpt><trkpt lat="43.84138071141936" lon="7.596239640049003"><ele>128.33333333333331</ele><time>2026-03-29T11:38:20.001Z</time></trkpt><trkpt lat="43.8413544803512" lon="7.59633942410426"><ele>131.5</ele><time>2026-03-29T11:38:21.001Z</time></trkpt><trkpt lat="43.84132934835898" lon="7.596450307795724"><ele>134.66666666666666</ele><time>2026-03-29T11:38:22.001Z</time></trkpt><trkpt lat="43.84131093855614" lon="7.596566414710064"><ele>137.83333333333334</ele><time>2026-03-29T11:38:23.001Z</time></trkpt><trkpt lat="43.841290712615354" lon="7.596668716460545"><ele>141.0</ele><time>2026-03-29T11:38:24.001Z</time></trkpt><trkpt lat="43.84126573298785" lon="7.596752886925039"><ele>141.0</ele><time>2026-03-29T11:38:25.001Z</time></trkpt><trkpt lat="43.84121435280967" lon="7.5968764120260905"><ele>141.0</ele><time>2026-03-29T11:38:27.001Z</time></trkpt><trkpt lat="43.84114876154672" lon="7.596891798664491"><ele>141.0</ele><time>2026-03-29T11:38:28.001Z</time></trkpt><trkpt lat="43.841089043912326" lon="7.596952560655158"><ele>141.0</ele><time>2026-03-29T11:38:29.001Z</time></trkpt><trkpt lat="43.84104494645876" lon="7.597030098041274"><ele>141.0</ele><time>2026-03-29T11:38:30.001Z</time></trkpt><trkpt lat="43.840999495183176" lon="7.597096140775333"><ele>141.0</ele><time>2026-03-29T11:38:31.001Z</time></trkpt><trkpt lat="43.84096925048812" lon="7.597255609677015"><ele>144.0</ele><time>2026-03-29T11:38:33.001Z</time></trkpt><trkpt lat="43.84101723204973" lon="7.597374269942737"><ele>147.0</ele><time>2026-03-29T11:38:35.001Z</time></trkpt><trkpt lat="43.84111534690996" lon="7.597518668811039"><ele>150.0</ele><time>2026-03-29T11:38:37.001Z</time></trkpt><trkpt lat="43.84111428541629" lon="7.597616542365469"><ele>153.0</ele><time>2026-03-29T11:38:40.001Z</time></trkpt><trkpt lat="43.841032810369775" lon="7.597689784539552"><ele>156.0</ele><time>2026-03-29T11:38:42.001Z</time></trkpt><trkpt lat="43.8409672939838" lon="7.597842577737307"><ele>151.33333333333334</ele><time>2026-03-29T11:38:44.001Z</time></trkpt><trkpt lat="43.84096277111909" lon="7.597947550794582"><ele>146.66666666666666</ele><time>2026-03-29T11:38:45.001Z</time></trkpt><trkpt lat="43.84095992332563" lon="7.5980366219407705"><ele>142.0</ele><time>2026-03-29T11:38:46.001Z</time></trkpt><trkpt lat="43.84095745773001" lon="7.59814944618482"><ele>137.33333333333331</ele><time>2026-03-29T11:38:47.001Z</time></trkpt><trkpt lat="43.840941469269936" lon="7.598264733779619"><ele>132.66666666666666</ele><time>2026-03-29T11:38:48.001Z</time></trkpt><trkpt lat="43.840913571045284" lon="7.5983815876128595"><ele>128.0</ele><time>2026-03-29T11:38:49.001Z</time></trkpt><trkpt lat="43.84088852988203" lon="7.598498433380071"><ele>127.99999999999999</ele><time>2026-03-29T11:38:50.001Z</time></trkpt><trkpt lat="43.8408661152446" lon="7.598619477186543"><ele>128.0</ele><time>2026-03-29T11:38:51.001Z</time></trkpt><trkpt lat="43.840848153728366" lon="7.5987324090363275"><ele>128.0</ele><time>2026-03-29T11:38:52.001Z</time></trkpt><trkpt lat="43.84082582308186" lon="7.598846261380641"><ele>128.0</ele><time>2026-03-29T11:38:53.001Z</time></trkpt><trkpt lat="43.84080057792383" lon="7.59897345897855"><ele>127.99999999999999</ele><time>2026-03-29T11:38:54.001Z</time></trkpt><trkpt lat="43.840774783637876" lon="7.599100659469609"><ele>128.0</ele><time>2026-03-29T11:38:55.001Z</time></trkpt><trkpt lat="43.84074432595681" lon="7.59922376460101"><ele>130.5</ele><time>2026-03-29T11:38:56.001Z</time></trkpt><trkpt lat="43.8406819621578" lon="7.599318522625836"><ele>133.0</ele><time>2026-03-29T11:38:57.001Z</time></trkpt><trkpt lat="43.84063594421279" lon="7.5994304419930305"><ele>135.5</ele><time>2026-03-29T11:38:58.001Z</time></trkpt><trkpt lat="43.84058425813278" lon="7.599518268178409"><ele>138.0</ele><time>2026-03-29T11:38:59.001Z</time></trkpt><trkpt lat="43.84055608821749" lon="7.5995973109496235"><ele>140.5</ele><time>2026-03-29T11:39:00.001Z</time></trkpt><trkpt lat="43.84061534493809" lon="7.599684115778267"><ele>143.0</ele><time>2026-03-29T11:39:03.001Z</time></trkpt><trkpt lat="43.84068095003409" lon="7.599572880256706"><ele>143.0</ele><time>2026-03-29T11:39:05.001Z</time></trkpt><trkpt lat="43.84076132153348" lon="7.599491522505183"><ele>143.0</ele><time>2026-03-29T11:39:07.001Z</time></trkpt><trkpt lat="43.84083186927814" lon="7.599407755259311"><ele>143.0</ele><time>2026-03-29T11:39:09.001Z</time></trkpt><trkpt lat="43.84090239323439" lon="7.599425854240821"><ele>143.0</ele><time>2026-03-29T11:39:12.001Z</time></trkpt><trkpt lat="43.84090672778834" lon="7.599529514888006"><ele>143.0</ele><time>2026-03-29T11:39:14.001Z</time></trkpt><trkpt lat="43.84089542586878" lon="7.599621012254918"><ele>143.0</ele><time>2026-03-29T11:39:15.001Z</time></trkpt><trkpt lat="43.84088540443394" lon="7.599777308197842"><ele>144.83333333333331</ele><time>2026-03-29T11:39:17.001Z</time></trkpt><trkpt lat="43.84087299114774" lon="7.599918587691463"><ele>146.66666666666666</ele><time>2026-03-29T11:39:19.001Z</time></trkpt><trkpt lat="43.84088276197122" lon="7.600069366097602"><ele>148.5</ele><time>2026-03-29T11:39:21.001Z</time></trkpt><trkpt lat="43.84089696168268" lon="7.600162309551397"><ele>150.33333333333334</ele><time>2026-03-29T11:39:22.001Z</time></trkpt><trkpt lat="43.84090548774711" lon="7.600262262572752"><ele>152.16666666666669</ele><time>2026-03-29T11:39:23.001Z</time></trkpt><trkpt lat="43.84089395324277" lon="7.600359343625942"><ele>154.0</ele><time>2026-03-29T11:39:24.001Z</time></trkpt><trkpt lat="43.84085693122432" lon="7.600467583564402"><ele>156.0</ele><time>2026-03-29T11:39:25.001Z</time></trkpt><trkpt lat="43.84082628504346" lon="7.600583882767071"><ele>158.0</ele><time>2026-03-29T11:39:26.001Z</time></trkpt><trkpt lat="43.84081314140415" lon="7.600693395334501"><ele>160.0</ele><time>2026-03-29T11:39:27.001Z</time></trkpt><trkpt lat="43.840796124409" lon="7.600795742004405"><ele>162.0</ele><time>2026-03-29T11:39:28.001Z</time></trkpt><trkpt lat="43.840768104009314" lon="7.600916259310231"><ele>164.0</ele><time>2026-03-29T11:39:29.001Z</time></trkpt><trkpt lat="43.84074909093263" lon="7.601038362118582"><ele>166.0</ele><time>2026-03-29T11:39:30.001Z</time></trkpt><trkpt lat="43.84075146111197" lon="7.601161382584699"><ele>167.16666666666669</ele><time>2026-03-29T11:39:31.001Z</time></trkpt><trkpt lat="43.84073719833353" lon="7.601286863494948"><ele>168.33333333333334</ele><time>2026-03-29T11:39:32.001Z</time></trkpt><trkpt lat="43.840723314057435" lon="7.601396805538294"><ele>169.5</ele><time>2026-03-29T11:39:33.001Z</time></trkpt><trkpt lat="43.84069299512541" lon="7.601495800064485"><ele>170.66666666666666</ele><time>2026-03-29T11:39:34.001Z</time></trkpt><trkpt lat="43.84066168917495" lon="7.601599930216962"><ele>171.83333333333331</ele><time>2026-03-29T11:39:35.001Z</time></trkpt><trkpt lat="43.840631603556986" lon="7.601712803975947"><ele>173.0</ele><time>2026-03-29T11:39:36.001Z</time></trkpt><trkpt lat="43.840623982984745" lon="7.601818079053102"><ele>173.0</ele><time>2026-03-29T11:39:37.001Z</time></trkpt><trkpt lat="43.84062805831438" lon="7.6019152432972925"><ele>173.0</ele><time>2026-03-29T11:39:38.001Z</time></trkpt><trkpt lat="43.8407041086274" lon="7.602022041040903"><ele>173.0</ele><time>2026-03-29T11:39:40.001Z</time></trkpt><trkpt lat="43.84079110297655" lon="7.6021059204522725"><ele>173.0</ele><time>2026-03-29T11:39:42.001Z</time></trkpt><trkpt lat="43.840886110399346" lon="7.602109674557739"><ele>173.0</ele><time>2026-03-29T11:39:44.001Z</time></trkpt><trkpt lat="43.84097902615213" lon="7.602123880249015"><ele>177.0</ele><time>2026-03-29T11:39:47.001Z</time></trkpt><trkpt lat="43.841045960942495" lon="7.60213255868292"><ele>181.0</ele><time>2026-03-29T11:39:48.001Z</time></trkpt><trkpt lat="43.84110978146117" lon="7.602149412887589"><ele>185.0</ele><time>2026-03-29T11:39:49.001Z</time></trkpt><trkpt lat="43.84116848226848" lon="7.602258885605472"><ele>189.0</ele><time>2026-03-29T11:39:51.001Z</time></trkpt><trkpt lat="43.84120558242722" lon="7.6024192602826535"><ele>193.00000000000003</ele><time>2026-03-29T11:39:53.001Z</time></trkpt><trkpt lat="43.84125450799958" lon="7.602505362644375"><ele>197.0</ele><time>2026-03-29T11:39:54.001Z</time></trkpt><trkpt lat="43.84130881328634" lon="7.602575875610849"><ele>197.00000000000003</ele><time>2026-03-29T11:39:55.001Z</time></trkpt><trkpt lat="43.84137047932479" lon="7.602626298644853"><ele>197.0</ele><time>2026-03-29T11:39:56.001Z</time></trkpt><trkpt lat="43.84145471238755" lon="7.6026416609298755"><ele>197.0</ele><time>2026-03-29T11:39:57.001Z</time></trkpt><trkpt lat="43.84152701514332" lon="7.602665246579997"><ele>197.0</ele><time>2026-03-29T11:39:58.001Z</time></trkpt><trkpt lat="43.8415966312745" lon="7.60277666706034"><ele>197.00000000000003</ele><time>2026-03-29T11:40:00.001Z</time></trkpt><trkpt lat="43.84160576021722" lon="7.6028837822778295"><ele>197.0</ele><time>2026-03-29T11:40:01.001Z</time></trkpt><trkpt lat="43.841601394129945" lon="7.60300840414253"><ele>198.00000000000003</ele><time>2026-03-29T11:40:02.001Z</time></trkpt><trkpt lat="43.84158756423355" lon="7.603146881156743"><ele>199.0</ele><time>2026-03-29T11:40:03.001Z</time></trkpt><trkpt lat="43.841592155974766" lon="7.603282844226079"><ele>200.0</ele><time>2026-03-29T11:40:04.001Z</time></trkpt><trkpt lat="43.841604682505114" lon="7.60339765497691"><ele>201.0</ele><time>2026-03-29T11:40:05.001Z</time></trkpt><trkpt lat="43.84160788678521" lon="7.6035000527342005"><ele>202.00000000000003</ele><time>2026-03-29T11:40:06.001Z</time></trkpt><trkpt lat="43.841605008433504" lon="7.603596931520392"><ele>203.0</ele><time>2026-03-29T11:40:07.001Z</time></trkpt><trkpt lat="43.84161900944203" lon="7.603719972470951"><ele>203.0</ele><time>2026-03-29T11:40:09.001Z</time></trkpt><trkpt lat="43.84174428333628" lon="7.603598169161927"><ele>203.0</ele><time>2026-03-29T11:40:13.001Z</time></trkpt><trkpt lat="43.84174633081693" lon="7.60347755436008"><ele>203.0</ele><time>2026-03-29T11:40:14.001Z</time></trkpt><trkpt lat="43.84176284256537" lon="7.603375646622417"><ele>203.0</ele><time>2026-03-29T11:40:15.001Z</time></trkpt><trkpt lat="43.841783254432755" lon="7.603267593804606"><ele>203.0</ele><time>2026-03-29T11:40:16.001Z</time></trkpt><trkpt lat="43.841832906948746" lon="7.603170966079031"><ele>209.00000000000003</ele><time>2026-03-29T11:40:17.001Z</time></trkpt><trkpt lat="43.84186907057725" lon="7.60306788407665"><ele>215.0</ele><time>2026-03-29T11:40:18.001Z</time></trkpt><trkpt lat="43.84192713179277" lon="7.60298302774225"><ele>221.0</ele><time>2026-03-29T11:40:19.001Z</time></trkpt><trkpt lat="43.841981086120484" lon="7.602903840216018"><ele>227.0</ele><time>2026-03-29T11:40:20.001Z</time></trkpt><trkpt lat="43.842037024802636" lon="7.602830429800178"><ele>233.00000000000003</ele><time>2026-03-29T11:40:21.001Z</time></trkpt><trkpt lat="43.84208481211798" lon="7.60275443623261"><ele>239.0</ele><time>2026-03-29T11:40:22.001Z</time></trkpt><trkpt lat="43.842133563681465" lon="7.602605409238543"><ele>239.00000000000003</ele><time>2026-03-29T11:40:24.001Z</time></trkpt><trkpt lat="43.842135199403806" lon="7.602495622867685"><ele>239.0</ele><time>2026-03-29T11:40:25.001Z</time></trkpt><trkpt lat="43.84213808704813" lon="7.602384595282354"><ele>239.0</ele><time>2026-03-29T11:40:26.001Z</time></trkpt><trkpt lat="43.84212666666764" lon="7.602272420689116"><ele>239.0</ele><time>2026-03-29T11:40:27.001Z</time></trkpt><trkpt lat="43.842143145052695" lon="7.602164658937423"><ele>239.00000000000003</ele><time>2026-03-29T11:40:28.001Z</time></trkpt><trkpt lat="43.8421457860144" lon="7.602049822551754"><ele>239.0</ele><time>2026-03-29T11:40:29.001Z</time></trkpt><trkpt lat="43.84214826820439" lon="7.601946101901612"><ele>239.00000000000003</ele><time>2026-03-29T11:40:30.001Z</time></trkpt><trkpt lat="43.84215658340122" lon="7.601843478069379"><ele>239.0</ele><time>2026-03-29T11:40:31.001Z</time></trkpt><trkpt lat="43.84216862583216" lon="7.601735363000142"><ele>239.0</ele><time>2026-03-29T11:40:32.001Z</time></trkpt><trkpt lat="43.842186069637755" lon="7.601620768208357"><ele>239.0</ele><time>2026-03-29T11:40:33.001Z</time></trkpt><trkpt lat="43.84219382144905" lon="7.601514900194665"><ele>239.00000000000003</ele><time>2026-03-29T11:40:34.001Z</time></trkpt><trkpt lat="43.84217883611973" lon="7.601417593935439"><ele>239.0</ele><time>2026-03-29T11:40:35.001Z</time></trkpt><trkpt lat="43.84216800158972" lon="7.6013231424507275"><ele>239.00000000000003</ele><time>2026-03-29T11:40:36.001Z</time></trkpt><trkpt lat="43.84214892035778" lon="7.601220647270402"><ele>239.0</ele><time>2026-03-29T11:40:37.001Z</time></trkpt><trkpt lat="43.842121270065505" lon="7.6011139367115454"><ele>239.0</ele><time>2026-03-29T11:40:38.001Z</time></trkpt><trkpt lat="43.84208544068446" lon="7.601017247344381"><ele>239.0</ele><time>2026-03-29T11:40:39.001Z</time></trkpt><trkpt lat="43.84203848574138" lon="7.600897575015949"><ele>239.00000000000003</ele><time>2026-03-29T11:40:41.001Z</time></trkpt><trkpt lat="43.84202060436356" lon="7.600807764531179"><ele>239.0</ele><time>2026-03-29T11:40:43.001Z</time></trkpt><trkpt lat="43.8419923891313" lon="7.600722998167479"><ele>239.16666666666669</ele><time>2026-03-29T11:40:46.001Z</time></trkpt><trkpt lat="43.84199075472085" lon="7.60062984887451"><ele>239.33333333333334</ele><time>2026-03-29T11:40:48.001Z</time></trkpt><trkpt lat="43.841979002027266" lon="7.600501265407469"><ele>239.5</ele><time>2026-03-29T11:40:50.001Z</time></trkpt><trkpt lat="43.84197728150154" lon="7.600396190658321"><ele>239.66666666666669</ele><time>2026-03-29T11:40:53.001Z</time></trkpt><trkpt lat="43.84201097325592" lon="7.600262792998826"><ele>239.83333333333334</ele><time>2026-03-29T11:40:55.001Z</time></trkpt><trkpt lat="43.84208897696881" lon="7.600188173507871"><ele>240.0</ele><time>2026-03-29T11:40:57.001Z</time></trkpt><trkpt lat="43.84216826815197" lon="7.600117711332786"><ele>240.2</ele><time>2026-03-29T11:40:59.001Z</time></trkpt><trkpt lat="43.842232310342446" lon="7.600025417083641"><ele>240.4</ele><time>2026-03-29T11:41:01.001Z</time></trkpt><trkpt lat="43.8423257411643" lon="7.59993417537828"><ele>240.60000000000002</ele><time>2026-03-29T11:41:03.001Z</time></trkpt><trkpt lat="43.84238045139417" lon="7.599794451593023"><ele>240.8</ele><time>2026-03-29T11:41:05.001Z</time></trkpt><trkpt lat="43.84238965855993" lon="7.599634682954798"><ele>241.0</ele><time>2026-03-29T11:41:07.001Z</time></trkpt><trkpt lat="43.84239661275338" lon="7.599473470409747"><ele>240.20000000000002</ele><time>2026-03-29T11:41:09.001Z</time></trkpt><trkpt lat="43.84242132086346" lon="7.59939020732244"><ele>239.40000000000003</ele><time>2026-03-29T11:41:10.001Z</time></trkpt><trkpt lat="43.84243259638383" lon="7.5992231333742755"><ele>238.6</ele><time>2026-03-29T11:41:12.001Z</time></trkpt><trkpt lat="43.84251259438971" lon="7.599123255450588"><ele>237.8</ele><time>2026-03-29T11:41:14.001Z</time></trkpt><trkpt lat="43.84258764500571" lon="7.599042565559248"><ele>237.0</ele><time>2026-03-29T11:41:16.001Z</time></trkpt><trkpt lat="43.84269220547337" lon="7.598984476873215"><ele>244.66666666666666</ele><time>2026-03-29T11:41:18.001Z</time></trkpt><trkpt lat="43.84281615149103" lon="7.598941783840069"><ele>252.33333333333331</ele><time>2026-03-29T11:41:20.001Z</time></trkpt><trkpt lat="43.84287161083078" lon="7.598892368341706"><ele>260.0</ele><time>2026-03-29T11:41:21.001Z</time></trkpt><trkpt lat="43.84293550338321" lon="7.598861539856673"><ele>267.66666666666663</ele><time>2026-03-29T11:41:22.001Z</time></trkpt><trkpt lat="43.84300382987602" lon="7.598794912107866"><ele>275.3333333333333</ele><time>2026-03-29T11:41:24.001Z</time></trkpt><trkpt lat="43.84304093819483" lon="7.59871976676171"><ele>283.0</ele><time>2026-03-29T11:42:44.001Z</time></trkpt><trkpt lat="43.842981255634136" lon="7.598796883038837"><ele>283.0</ele><time>2026-03-29T11:43:12Z</time></trkpt><trkpt lat="43.842928602790636" lon="7.598854645848115"><ele>283.0</ele><time>2026-03-29T11:43:14Z</time></trkpt><trkpt lat="43.842856017759594" lon="7.598898897735594"><ele>283.0</ele><time>2026-03-29T11:43:16Z</time></trkpt><trkpt lat="43.84278738395161" lon="7.598929723959731"><ele>283.0</ele><time>2026-03-29T11:43:18Z</time></trkpt><trkpt lat="43.842711130740604" lon="7.598952895652632"><ele>283.0</ele><time>2026-03-29T11:43:20Z</time></trkpt><trkpt lat="43.842628266171694" lon="7.598984046411139"><ele>283.0</ele><time>2026-03-29T11:43:22Z</time></trkpt><trkpt lat="43.842543678302725" lon="7.599032189457602"><ele>274.6</ele><time>2026-03-29T11:43:25Z</time></trkpt><trkpt lat="43.84247391866617" lon="7.599122274782008"><ele>266.20000000000005</ele><time>2026-03-29T11:43:27Z</time></trkpt><trkpt lat="43.84241595686908" lon="7.5992463237589565"><ele>257.8</ele><time>2026-03-29T11:43:29Z</time></trkpt><trkpt lat="43.842403658427465" lon="7.599391242225104"><ele>249.4</ele><time>2026-03-29T11:43:31Z</time></trkpt><trkpt lat="43.84236945542565" lon="7.599533825245199"><ele>241.0</ele><time>2026-03-29T11:43:33Z</time></trkpt><trkpt lat="43.84235803843533" lon="7.599662674156817"><ele>240.99999999999997</ele><time>2026-03-29T11:43:35Z</time></trkpt><trkpt lat="43.842347009664714" lon="7.599753088599576"><ele>241.0</ele><time>2026-03-29T11:43:37Z</time></trkpt><trkpt lat="43.84232631403681" lon="7.599856651504362"><ele>241.0</ele><time>2026-03-29T11:43:39Z</time></trkpt><trkpt lat="43.842290740011045" lon="7.599964395093977"><ele>241.0</ele><time>2026-03-29T11:43:41Z</time></trkpt><trkpt lat="43.84221543711055" lon="7.600028422051481"><ele>240.99999999999997</ele><time>2026-03-29T11:43:43Z</time></trkpt><trkpt lat="43.84215307820381" lon="7.600091041163033"><ele>241.0</ele><time>2026-03-29T11:43:45Z</time></trkpt><trkpt lat="43.84210219335384" lon="7.600160609611936"><ele>240.99999999999997</ele><time>2026-03-29T11:43:47Z</time></trkpt><trkpt lat="43.84203371683066" lon="7.600236841065388"><ele>241.0</ele><time>2026-03-29T11:43:50Z</time></trkpt><trkpt lat="43.84196876710262" lon="7.60030993676188"><ele>241.0</ele><time>2026-03-29T11:43:53Z</time></trkpt><trkpt lat="43.841963547274595" lon="7.6004060082238345"><ele>241.0</ele><time>2026-03-29T11:43:56Z</time></trkpt><trkpt lat="43.84193256111876" lon="7.600506442075191"><ele>240.99999999999997</ele><time>2026-03-29T11:43:58Z</time></trkpt><trkpt lat="43.84194130273709" lon="7.6006200837471045"><ele>241.0</ele><time>2026-03-29T11:44:00Z</time></trkpt><trkpt lat="43.84198783493133" lon="7.600758060556278"><ele>240.83333333333331</ele><time>2026-03-29T11:44:02Z</time></trkpt><trkpt lat="43.842001819309985" lon="7.600861813896181"><ele>240.66666666666666</ele><time>2026-03-29T11:44:03Z</time></trkpt><trkpt lat="43.84203776662816" lon="7.6009625797068106"><ele>240.5</ele><time>2026-03-29T11:44:04Z</time></trkpt><trkpt lat="43.842075799154564" lon="7.601069190848403"><ele>240.33333333333331</ele><time>2026-03-29T11:44:05Z</time></trkpt><trkpt lat="43.842113538527265" lon="7.601180598000518"><ele>240.16666666666666</ele><time>2026-03-29T11:44:06Z</time></trkpt><trkpt lat="43.842139505120485" lon="7.601290896270117"><ele>240.0</ele><time>2026-03-29T11:44:07Z</time></trkpt><trkpt lat="43.84215615710876" lon="7.601388365837557"><ele>239.83333333333334</ele><time>2026-03-29T11:44:08Z</time></trkpt><trkpt lat="43.842158597720065" lon="7.601548474539596"><ele>239.66666666666669</ele><time>2026-03-29T11:44:10Z</time></trkpt><trkpt lat="43.842149063546586" lon="7.601651552101027"><ele>239.5</ele><time>2026-03-29T11:44:11Z</time></trkpt><trkpt lat="43.842130280919676" lon="7.601771865192097"><ele>239.33333333333334</ele><time>2026-03-29T11:44:12Z</time></trkpt><trkpt lat="43.84211892644572" lon="7.601887600231394"><ele>239.16666666666669</ele><time>2026-03-29T11:44:13Z</time></trkpt><trkpt lat="43.84212669955181" lon="7.601988623517119"><ele>239.0</ele><time>2026-03-29T11:44:14Z</time></trkpt><trkpt lat="43.84212563647938" lon="7.602091677260946"><ele>239.00000000000003</ele><time>2026-03-29T11:44:15Z</time></trkpt><trkpt lat="43.84212550360171" lon="7.60219684124481"><ele>239.0</ele><time>2026-03-29T11:44:16Z</time></trkpt><trkpt lat="43.84210663221883" lon="7.602303653377037"><ele>239.0</ele><time>2026-03-29T11:44:17Z</time></trkpt><trkpt lat="43.84211653831157" lon="7.602400781950297"><ele>239.0</ele><time>2026-03-29T11:44:18Z</time></trkpt><trkpt lat="43.84210960710421" lon="7.602488239343433"><ele>239.00000000000003</ele><time>2026-03-29T11:44:19Z</time></trkpt><trkpt lat="43.84209421720223" lon="7.602645848472921"><ele>239.0</ele><time>2026-03-29T11:44:21Z</time></trkpt><trkpt lat="43.84206717118545" lon="7.602758322685876"><ele>239.50000000000003</ele><time>2026-03-29T11:44:23Z</time></trkpt><trkpt lat="43.84197483131072" lon="7.6028438056302825"><ele>240.0</ele><time>2026-03-29T11:44:25Z</time></trkpt><trkpt lat="43.841924634702266" lon="7.602919260084661"><ele>240.5</ele><time>2026-03-29T11:44:26Z</time></trkpt><trkpt lat="43.841881199911484" lon="7.60298857799073"><ele>241.0</ele><time>2026-03-29T11:44:27Z</time></trkpt><trkpt lat="43.84184195997098" lon="7.603069088997218"><ele>241.50000000000003</ele><time>2026-03-29T11:44:28Z</time></trkpt><trkpt lat="43.84180957073106" lon="7.603148326012543"><ele>242.0</ele><time>2026-03-29T11:44:29Z</time></trkpt><trkpt lat="43.841777642024695" lon="7.603227419065244"><ele>235.0</ele><time>2026-03-29T11:44:30Z</time></trkpt><trkpt lat="43.84172961754653" lon="7.603373160015687"><ele>228.0</ele><time>2026-03-29T11:44:32Z</time></trkpt><trkpt lat="43.84171161006464" lon="7.603494619191293"><ele>221.0</ele><time>2026-03-29T11:44:34Z</time></trkpt><trkpt lat="43.84171094837102" lon="7.603605191215421"><ele>214.0</ele><time>2026-03-29T11:44:36Z</time></trkpt><trkpt lat="43.84166569540731" lon="7.603718706621687"><ele>207.0</ele><time>2026-03-29T11:44:39Z</time></trkpt><trkpt lat="43.84167411949997" lon="7.603891448695339"><ele>207.0</ele><time>2026-03-29T11:44:42Z</time></trkpt><trkpt lat="43.84171777199446" lon="7.60401258538877"><ele>207.0</ele><time>2026-03-29T11:44:43Z</time></trkpt><trkpt lat="43.84177492419982" lon="7.604130185282167"><ele>207.0</ele><time>2026-03-29T11:44:44Z</time></trkpt><trkpt lat="43.841812073875325" lon="7.604226227055976"><ele>207.0</ele><time>2026-03-29T11:44:45Z</time></trkpt><trkpt lat="43.84185305662843" lon="7.604302314225702"><ele>207.0</ele><time>2026-03-29T11:44:46Z</time></trkpt><trkpt lat="43.84192419047492" lon="7.604444258289821"><ele>213.39999999999998</ele><time>2026-03-29T11:44:48Z</time></trkpt><trkpt lat="43.841960291012754" lon="7.6045474965831055"><ele>219.79999999999998</ele><time>2026-03-29T11:44:50Z</time></trkpt><trkpt lat="43.84204240340959" lon="7.604662968587714"><ele>226.2</ele><time>2026-03-29T11:52:54Z</time></trkpt><trkpt lat="43.84207682189005" lon="7.6047659861603885"><ele>232.6</ele><time>2026-03-29T11:52:55Z</time></trkpt><trkpt lat="43.842131630054695" lon="7.6049052842156355"><ele>239.0</ele><time>2026-03-29T11:52:57Z</time></trkpt><trkpt lat="43.84212440472358" lon="7.604998486633298"><ele>239.00000000000003</ele><time>2026-03-29T11:52:59Z</time></trkpt><trkpt lat="43.84215442188224" lon="7.605077340391643"><ele>239.0</ele><time>2026-03-29T11:53:15Z</time></trkpt><trkpt lat="43.84219066288533" lon="7.605162393553191"><ele>239.0</ele><time>2026-03-29T11:53:16Z</time></trkpt><trkpt lat="43.842244168004534" lon="7.605245354355439"><ele>239.0</ele><time>2026-03-29T11:53:17Z</time></trkpt><trkpt lat="43.84230291228228" lon="7.60533418993597"><ele>239.00000000000003</ele><time>2026-03-29T11:53:19Z</time></trkpt><trkpt lat="43.842345145527446" lon="7.6054283660860165"><ele>239.0</ele><time>2026-03-29T11:53:21Z</time></trkpt><trkpt lat="43.842247055834115" lon="7.605487976409605"><ele>239.0</ele><time>2026-03-29T11:53:23Z</time></trkpt><trkpt lat="43.84217378193984" lon="7.605479829905509"><ele>238.99999999999997</ele><time>2026-03-29T11:53:25Z</time></trkpt><trkpt lat="43.842194290804876" lon="7.605566538345047"><ele>238.99999999999997</ele><time>2026-03-29T11:53:32Z</time></trkpt><trkpt lat="43.84229253197451" lon="7.605609329376687"><ele>239.0</ele><time>2026-03-29T11:53:34Z</time></trkpt><trkpt lat="43.8423864240409" lon="7.605667937926476"><ele>239.0</ele><time>2026-03-29T11:53:36Z</time></trkpt><trkpt lat="43.84246416494653" lon="7.605782560799084"><ele>239.0</ele><time>2026-03-29T11:53:38Z</time></trkpt><trkpt lat="43.84246385403151" lon="7.605882342338794"><ele>238.99999999999997</ele><time>2026-03-29T11:53:39Z</time></trkpt><trkpt lat="43.84249943524211" lon="7.6060289781814205"><ele>238.99999999999997</ele><time>2026-03-29T11:53:41Z</time></trkpt><trkpt lat="43.84247989483231" lon="7.606188598476049"><ele>239.0</ele><time>2026-03-29T11:53:43Z</time></trkpt><trkpt lat="43.8424470409079" lon="7.606274630940874"><ele>239.0</ele><time>2026-03-29T11:53:44Z</time></trkpt><trkpt lat="43.84247520194086" lon="7.606386331394773"><ele>242.50000000000003</ele><time>2026-03-29T11:53:46Z</time></trkpt><trkpt lat="43.842540651059636" lon="7.606434552486355"><ele>246.0</ele><time>2026-03-29T11:53:47Z</time></trkpt><trkpt lat="43.84262236562871" lon="7.606480949236159"><ele>249.5</ele><time>2026-03-29T11:53:48Z</time></trkpt><trkpt lat="43.84271236284006" lon="7.606564665062245"><ele>253.0</ele><time>2026-03-29T11:53:50Z</time></trkpt><trkpt lat="43.84277896907785" lon="7.606613213651937"><ele>256.5</ele><time>2026-03-29T11:53:51Z</time></trkpt><trkpt lat="43.84284208280913" lon="7.606646694045978"><ele>260.0</ele><time>2026-03-29T11:53:52Z</time></trkpt><trkpt lat="43.84290455023521" lon="7.60667236760563"><ele>261.33333333333337</ele><time>2026-03-29T11:53:53Z</time></trkpt><trkpt lat="43.84298366510975" lon="7.606671703240431"><ele>262.6666666666667</ele><time>2026-03-29T11:53:54Z</time></trkpt><trkpt lat="43.843052682880305" lon="7.606617281000098"><ele>264.0</ele><time>2026-03-29T11:53:55Z</time></trkpt><trkpt lat="43.84312522422955" lon="7.606604157272189"><ele>265.3333333333333</ele><time>2026-03-29T11:53:56Z</time></trkpt><trkpt lat="43.843208940141785" lon="7.606675836244186"><ele>266.66666666666663</ele><time>2026-03-29T11:53:58Z</time></trkpt><trkpt lat="43.84325663895509" lon="7.606765581031282"><ele>268.0</ele><time>2026-03-29T11:53:59Z</time></trkpt><trkpt lat="43.84332442636628" lon="7.606816746876598"><ele>268.0</ele><time>2026-03-29T11:54:00Z</time></trkpt><trkpt lat="43.843400387759964" lon="7.60681265863286"><ele>268.0</ele><time>2026-03-29T11:54:01Z</time></trkpt><trkpt lat="43.84345890376794" lon="7.606860600497744"><ele>268.0</ele><time>2026-03-29T11:54:02Z</time></trkpt><trkpt lat="43.84350567681007" lon="7.606974106394955"><ele>268.0</ele><time>2026-03-29T11:54:04Z</time></trkpt><trkpt lat="43.84347086709292" lon="7.607107525471118"><ele>268.0</ele><time>2026-03-29T11:54:06Z</time></trkpt><trkpt lat="43.84340184711421" lon="7.60715031910332"><ele>268.0</ele><time>2026-03-29T11:54:08Z</time></trkpt><trkpt lat="43.84332362505674" lon="7.607125905630354"><ele>271.8333333333333</ele><time>2026-03-29T11:54:09Z</time></trkpt><trkpt lat="43.843226272130494" lon="7.607108307585042"><ele>275.66666666666663</ele><time>2026-03-29T11:54:10Z</time></trkpt><trkpt lat="43.84314721541446" lon="7.607066393937351"><ele>279.5</ele><time>2026-03-29T11:54:11Z</time></trkpt><trkpt lat="43.843078477434844" lon="7.60705523351566"><ele>283.3333333333333</ele><time>2026-03-29T11:54:12Z</time></trkpt><trkpt lat="43.84300678964225" lon="7.6070673180518265"><ele>287.1666666666667</ele><time>2026-03-29T11:54:13Z</time></trkpt><trkpt lat="43.842933665216535" lon="7.6070722214834126"><ele>291.0</ele><time>2026-03-29T11:54:14Z</time></trkpt><trkpt lat="43.842827093710696" lon="7.607093433484519"><ele>291.0</ele><time>2026-03-29T11:54:16Z</time></trkpt><trkpt lat="43.842762476972815" lon="7.607134938350376"><ele>291.0</ele><time>2026-03-29T11:54:18Z</time></trkpt><trkpt lat="43.84270313602707" lon="7.607211012087139"><ele>291.0</ele><time>2026-03-29T11:54:20Z</time></trkpt><trkpt lat="43.842658395588934" lon="7.607304436045099"><ele>291.0</ele><time>2026-03-29T11:54:21Z</time></trkpt><trkpt lat="43.84263238687079" lon="7.6074086594631165"><ele>291.0</ele><time>2026-03-29T11:54:22Z</time></trkpt><trkpt lat="43.84258476171062" lon="7.6075091240967305"><ele>291.0</ele><time>2026-03-29T11:54:23Z</time></trkpt><trkpt lat="43.84253725174529" lon="7.607606754597762"><ele>290.5</ele><time>2026-03-29T11:54:24Z</time></trkpt><trkpt lat="43.84250293552214" lon="7.607697580652573"><ele>290.0</ele><time>2026-03-29T11:54:25Z</time></trkpt><trkpt lat="43.842467683124205" lon="7.607784145052443"><ele>289.5</ele><time>2026-03-29T11:54:26Z</time></trkpt><trkpt lat="43.84238274481201" lon="7.607836834168495"><ele>289.0</ele><time>2026-03-29T11:54:28Z</time></trkpt><trkpt lat="43.8422735085494" lon="7.60787765867929"><ele>288.5</ele><time>2026-03-29T11:54:30Z</time></trkpt><trkpt lat="43.84219968870398" lon="7.607835142041044"><ele>288.0</ele><time>2026-03-29T11:54:31Z</time></trkpt><trkpt lat="43.84215136768328" lon="7.60777646230086"><ele>288.0</ele><time>2026-03-29T11:54:32Z</time></trkpt><trkpt lat="43.84211922378666" lon="7.607696780099409"><ele>288.0</ele><time>2026-03-29T11:54:33Z</time></trkpt><trkpt lat="43.84209978989282" lon="7.607593002320389"><ele>288.0</ele><time>2026-03-29T11:54:34Z</time></trkpt><trkpt lat="43.842071781226885" lon="7.607463748406816"><ele>288.0</ele><time>2026-03-29T11:54:35Z</time></trkpt><trkpt lat="43.84201006216761" lon="7.6073494389547855"><ele>288.0</ele><time>2026-03-29T11:54:36Z</time></trkpt><trkpt lat="43.841916656364916" lon="7.607222787409833"><ele>288.0</ele><time>2026-03-29T11:54:37Z</time></trkpt><trkpt lat="43.8418400721895" lon="7.607115348623821"><ele>288.0</ele><time>2026-03-29T11:54:38Z</time></trkpt><trkpt lat="43.8418031696318" lon="7.606998377467349"><ele>288.0</ele><time>2026-03-29T11:54:39Z</time></trkpt><trkpt lat="43.841775748789495" lon="7.606894751564474"><ele>288.0</ele><time>2026-03-29T11:54:40Z</time></trkpt><trkpt lat="43.8417449408313" lon="7.60681804364433"><ele>288.0</ele><time>2026-03-29T11:54:41Z</time></trkpt><trkpt lat="43.84167028051904" lon="7.60672595472301"><ele>288.0</ele><time>2026-03-29T11:54:43Z</time></trkpt><trkpt lat="43.84159622650238" lon="7.606714130186315"><ele>289.8</ele><time>2026-03-29T11:54:44Z</time></trkpt><trkpt lat="43.84152303124412" lon="7.606730727860653"><ele>291.6</ele><time>2026-03-29T11:54:45Z</time></trkpt><trkpt lat="43.84141036182187" lon="7.606709204283518"><ele>293.4</ele><time>2026-03-29T11:54:47Z</time></trkpt><trkpt lat="43.84135590958319" lon="7.606663053646183"><ele>295.2</ele><time>2026-03-29T11:54:48Z</time></trkpt><trkpt lat="43.84127648285207" lon="7.606554163150066"><ele>297.0</ele><time>2026-03-29T11:54:49Z</time></trkpt><trkpt lat="43.84121926177833" lon="7.6064604116034165"><ele>297.0</ele><time>2026-03-29T11:54:50Z</time></trkpt><trkpt lat="43.841178148922886" lon="7.606370250813068"><ele>297.0</ele><time>2026-03-29T11:54:51Z</time></trkpt><trkpt lat="43.841130793865794" lon="7.606280771555015"><ele>297.0</ele><time>2026-03-29T11:54:52Z</time></trkpt><trkpt lat="43.84106456758387" lon="7.60621620177627"><ele>297.0</ele><time>2026-03-29T11:54:53Z</time></trkpt><trkpt lat="43.8409831393143" lon="7.606171371331687"><ele>297.0</ele><time>2026-03-29T11:54:54Z</time></trkpt><trkpt lat="43.84090531501163" lon="7.606135778214717"><ele>297.0</ele><time>2026-03-29T11:54:55Z</time></trkpt><trkpt lat="43.840830419823725" lon="7.606120184345476"><ele>299.1666666666667</ele><time>2026-03-29T11:54:56Z</time></trkpt><trkpt lat="43.84076055865322" lon="7.6061221743343985"><ele>301.3333333333333</ele><time>2026-03-29T11:54:57Z</time></trkpt><trkpt lat="43.840698482531764" lon="7.606093118762936"><ele>303.5</ele><time>2026-03-29T11:54:58Z</time></trkpt><trkpt lat="43.840658790294825" lon="7.606016755229745"><ele>305.66666666666663</ele><time>2026-03-29T11:54:59Z</time></trkpt><trkpt lat="43.84059842324068" lon="7.605973642582693"><ele>307.8333333333333</ele><time>2026-03-29T11:55:00Z</time></trkpt><trkpt lat="43.840512457985994" lon="7.605923479112602"><ele>310.0</ele><time>2026-03-29T11:55:02Z</time></trkpt><trkpt lat="43.840455486583394" lon="7.606023491109676"><ele>310.0</ele><time>2026-03-29T11:55:04Z</time></trkpt><trkpt lat="43.840461777878886" lon="7.6061278779592625"><ele>310.0</ele><time>2026-03-29T11:55:05Z</time></trkpt><trkpt lat="43.840472133989735" lon="7.6062431648859485"><ele>310.0</ele><time>2026-03-29T11:55:06Z</time></trkpt><trkpt lat="43.840467235762624" lon="7.606333714777413"><ele>310.0</ele><time>2026-03-29T11:55:07Z</time></trkpt><trkpt lat="43.840451827087826" lon="7.60649273044792"><ele>310.0</ele><time>2026-03-29T11:55:09Z</time></trkpt><trkpt lat="43.84046296697399" lon="7.606660276832905"><ele>314.0</ele><time>2026-03-29T11:55:11Z</time></trkpt><trkpt lat="43.84044986808726" lon="7.606750063200145"><ele>318.0</ele><time>2026-03-29T11:55:12Z</time></trkpt><trkpt lat="43.84045038355982" lon="7.606873284372288"><ele>322.0</ele><time>2026-03-29T11:55:14Z</time></trkpt><trkpt lat="43.84046063040689" lon="7.606995466780808"><ele>326.0</ele><time>2026-03-29T11:55:16Z</time></trkpt><trkpt lat="43.840440258367856" lon="7.607166136976397"><ele>330.0</ele><time>2026-03-29T11:55:18Z</time></trkpt><trkpt lat="43.840412774447536" lon="7.607262823754956"><ele>334.0</ele><time>2026-03-29T11:55:19Z</time></trkpt><trkpt lat="43.84040163352352" lon="7.60737620778174"><ele>334.8333333333333</ele><time>2026-03-29T11:55:20Z</time></trkpt><trkpt lat="43.84036185263088" lon="7.607468886427242"><ele>335.66666666666663</ele><time>2026-03-29T11:55:21Z</time></trkpt><trkpt lat="43.84031220646689" lon="7.607549247273076"><ele>336.5</ele><time>2026-03-29T11:55:22Z</time></trkpt><trkpt lat="43.840259755235365" lon="7.607616354790423"><ele>337.3333333333333</ele><time>2026-03-29T11:55:23Z</time></trkpt><trkpt lat="43.840209682574375" lon="7.607676011507218"><ele>338.1666666666667</ele><time>2026-03-29T11:55:24Z</time></trkpt><trkpt lat="43.84014921660874" lon="7.607720222310223"><ele>339.0</ele><time>2026-03-29T11:55:25.001Z</time></trkpt><trkpt lat="43.840051869590035" lon="7.6078115894585885"><ele>339.0</ele><time>2026-03-29T11:55:27.001Z</time></trkpt><trkpt lat="43.8399288724899" lon="7.607821423137284"><ele>339.0</ele><time>2026-03-29T11:55:29Z</time></trkpt><trkpt lat="43.83984982119855" lon="7.607787794986645"><ele>339.0</ele><time>2026-03-29T11:55:30Z</time></trkpt><trkpt lat="43.839777423076676" lon="7.60777874529509"><ele>339.0</ele><time>2026-03-29T11:55:31Z</time></trkpt><trkpt lat="43.83967424965452" lon="7.607717601924293"><ele>339.0</ele><time>2026-03-29T11:55:33Z</time></trkpt><trkpt lat="43.83961289447441" lon="7.60768541391132"><ele>339.0</ele><time>2026-03-29T11:55:34Z</time></trkpt><trkpt lat="43.8395627586844" lon="7.607610389823291"><ele>339.0</ele><time>2026-03-29T11:55:35Z</time></trkpt><trkpt lat="43.83947860270004" lon="7.607502471234023"><ele>339.0</ele><time>2026-03-29T11:55:37Z</time></trkpt><trkpt lat="43.83940591304615" lon="7.6073973824869885"><ele>339.0</ele><time>2026-03-29T11:55:39Z</time></trkpt><trkpt lat="43.83933469289859" lon="7.607343429780998"><ele>339.0</ele><time>2026-03-29T11:55:41Z</time></trkpt><trkpt lat="43.839274538632104" lon="7.607305113411789"><ele>339.0</ele><time>2026-03-29T11:55:43Z</time></trkpt><trkpt lat="43.83920479952572" lon="7.607387545361641"><ele>339.0</ele><time>2026-03-29T11:55:46Z</time></trkpt><trkpt lat="43.83928448939644" lon="7.607531482869895"><ele>339.0</ele><time>2026-03-29T11:55:48Z</time></trkpt><trkpt lat="43.83939412404931" lon="7.607599454276953"><ele>339.0</ele><time>2026-03-29T11:55:50Z</time></trkpt><trkpt lat="43.83944706049517" lon="7.607674151793372"><ele>339.0</ele><time>2026-03-29T11:55:51Z</time></trkpt><trkpt lat="43.839548100220625" lon="7.607779300857529"><ele>339.0</ele><time>2026-03-29T11:55:53Z</time></trkpt><trkpt lat="43.83962207013115" lon="7.6078114829567545"><ele>339.0</ele><time>2026-03-29T11:55:54Z</time></trkpt><trkpt lat="43.839689997787275" lon="7.607815113165244"><ele>339.0</ele><time>2026-03-29T11:55:55Z</time></trkpt><trkpt lat="43.83975226108646" lon="7.607839679015164"><ele>339.0</ele><time>2026-03-29T11:55:56Z</time></trkpt><trkpt lat="43.83982576459579" lon="7.607867599670307"><ele>339.0</ele><time>2026-03-29T11:55:57Z</time></trkpt><trkpt lat="43.83990001618469" lon="7.607938684695962"><ele>339.0</ele><time>2026-03-29T11:55:58Z</time></trkpt><trkpt lat="43.839980269459495" lon="7.607989190011945"><ele>344.1666666666667</ele><time>2026-03-29T11:55:59Z</time></trkpt><trkpt lat="43.8400437517381" lon="7.608019670740436"><ele>349.3333333333333</ele><time>2026-03-29T11:56:00Z</time></trkpt><trkpt lat="43.84015476614859" lon="7.608015203154897"><ele>354.5</ele><time>2026-03-29T11:56:02Z</time></trkpt><trkpt lat="43.84022069866196" lon="7.6079882566975074"><ele>359.66666666666663</ele><time>2026-03-29T11:56:03Z</time></trkpt><trkpt lat="43.84030452784291" lon="7.6079546495885095"><ele>364.8333333333333</ele><time>2026-03-29T11:56:04Z</time></trkpt><trkpt lat="43.8403726703067" lon="7.607916118000775"><ele>370.0</ele><time>2026-03-29T11:56:05Z</time></trkpt><trkpt lat="43.84044844411399" lon="7.6078848000581445"><ele>371.5</ele><time>2026-03-29T11:56:06Z</time></trkpt><trkpt lat="43.84052600781873" lon="7.60783536047339"><ele>373.0</ele><time>2026-03-29T11:56:07Z</time></trkpt><trkpt lat="43.84058834817771" lon="7.607782177431868"><ele>374.5</ele><time>2026-03-29T11:56:08Z</time></trkpt><trkpt lat="43.840640156587604" lon="7.607683137840775"><ele>376.0</ele><time>2026-03-29T11:56:10Z</time></trkpt><trkpt lat="43.840694887278204" lon="7.607572579099695"><ele>377.5</ele><time>2026-03-29T11:56:13Z</time></trkpt><trkpt lat="43.84074115774588" lon="7.607640746082203"><ele>379.0</ele><time>2026-03-29T11:56:17Z</time></trkpt><trkpt lat="43.840699997584444" lon="7.607752785085522"><ele>379.0</ele><time>2026-03-29T11:56:18Z</time></trkpt><trkpt lat="43.840644544170345" lon="7.607862893257226"><ele>379.0</ele><time>2026-03-29T11:56:19Z</time></trkpt><trkpt lat="43.84058812337757" lon="7.607938274572934"><ele>379.0</ele><time>2026-03-29T11:56:20Z</time></trkpt><trkpt lat="43.84053401692173" lon="7.607997090911865"><ele>379.0</ele><time>2026-03-29T11:56:21Z</time></trkpt><trkpt lat="43.84043410971368" lon="7.608107779665398"><ele>379.0</ele><time>2026-03-29T11:56:23Z</time></trkpt><trkpt lat="43.840374614421584" lon="7.608145385993956"><ele>379.0</ele><time>2026-03-29T11:56:24Z</time></trkpt><trkpt lat="43.84032414582608" lon="7.608199496652196"><ele>379.0</ele><time>2026-03-29T11:56:25Z</time></trkpt><trkpt lat="43.84027309507413" lon="7.60825178291464"><ele>379.0</ele><time>2026-03-29T11:56:26Z</time></trkpt><trkpt lat="43.840210221185345" lon="7.608398108212422"><ele>379.0</ele><time>2026-03-29T11:56:28Z</time></trkpt><trkpt lat="43.840152722416015" lon="7.6084364747579585"><ele>379.0</ele><time>2026-03-29T11:56:29Z</time></trkpt><trkpt lat="43.840028728427896" lon="7.608448925507979"><ele>379.0</ele><time>2026-03-29T11:56:31Z</time></trkpt><trkpt lat="43.83996200683623" lon="7.608356673348411"><ele>377.5</ele><time>2026-03-29T11:56:32Z</time></trkpt><trkpt lat="43.8398897521639" lon="7.608320244163419"><ele>376.0</ele><time>2026-03-29T11:56:33Z</time></trkpt><trkpt lat="43.839821397425794" lon="7.608285006265808"><ele>374.5</ele><time>2026-03-29T11:56:34Z</time></trkpt><trkpt lat="43.83975003727213" lon="7.608260560516365"><ele>373.0</ele><time>2026-03-29T11:56:35Z</time></trkpt><trkpt lat="43.83968113831801" lon="7.608249317409513"><ele>371.5</ele><time>2026-03-29T11:56:36Z</time></trkpt><trkpt lat="43.839600531845086" lon="7.608243291525647"><ele>370.0</ele><time>2026-03-29T11:56:37Z</time></trkpt><trkpt lat="43.83951772679712" lon="7.608226760088652"><ele>370.0</ele><time>2026-03-29T11:56:38Z</time></trkpt><trkpt lat="43.83940474431341" lon="7.6082386933261335"><ele>370.0</ele><time>2026-03-29T11:56:40Z</time></trkpt><trkpt lat="43.83934515158298" lon="7.608311997775632"><ele>370.0</ele><time>2026-03-29T11:56:41Z</time></trkpt><trkpt lat="43.83927141758764" lon="7.608408102652319"><ele>370.0</ele><time>2026-03-29T11:56:42Z</time></trkpt><trkpt lat="43.83919158221014" lon="7.60850058423822"><ele>370.0</ele><time>2026-03-29T11:56:43Z</time></trkpt><trkpt lat="43.83912005853987" lon="7.6085664679876155"><ele>369.3333333333333</ele><time>2026-03-29T11:56:44Z</time></trkpt><trkpt lat="43.83905523464318" lon="7.608626598552224"><ele>368.66666666666663</ele><time>2026-03-29T11:56:45Z</time></trkpt><trkpt lat="43.83900070240997" lon="7.608700715491672"><ele>368.0</ele><time>2026-03-29T11:56:46Z</time></trkpt><trkpt lat="43.83892800858259" lon="7.608750269800918"><ele>367.3333333333333</ele><time>2026-03-29T11:56:47Z</time></trkpt><trkpt lat="43.838862659061085" lon="7.608816080614683"><ele>366.6666666666667</ele><time>2026-03-29T11:56:48Z</time></trkpt><trkpt lat="43.838791758623294" lon="7.608883342589336"><ele>366.0</ele><time>2026-03-29T11:56:49Z</time></trkpt><trkpt lat="43.83871858900772" lon="7.608944702563988"><ele>370.8</ele><time>2026-03-29T11:56:50Z</time></trkpt><trkpt lat="43.83864409869185" lon="7.609004398599704"><ele>375.6</ele><time>2026-03-29T11:56:51Z</time></trkpt><trkpt lat="43.83855228159911" lon="7.60903888201602"><ele>380.4</ele><time>2026-03-29T11:56:52Z</time></trkpt><trkpt lat="43.83844525766324" lon="7.609038313806612"><ele>385.2</ele><time>2026-03-29T11:56:53Z</time></trkpt><trkpt lat="43.838327095423324" lon="7.608999204146875"><ele>390.0</ele><time>2026-03-29T11:56:54Z</time></trkpt><trkpt lat="43.838218691896024" lon="7.608910438851998"><ele>390.0</ele><time>2026-03-29T11:56:55Z</time></trkpt><trkpt lat="43.83813855493592" lon="7.608851737450493"><ele>390.0</ele><time>2026-03-29T11:56:56Z</time></trkpt><trkpt lat="43.838083232804884" lon="7.608799130677421"><ele>390.0</ele><time>2026-03-29T11:56:57Z</time></trkpt><trkpt lat="43.83796831999344" lon="7.608815593485575"><ele>390.0</ele><time>2026-03-29T11:56:59Z</time></trkpt><trkpt lat="43.83789394542751" lon="7.608860356767618"><ele>390.0</ele><time>2026-03-29T11:57:00Z</time></trkpt><trkpt lat="43.837819023820984" lon="7.608951919238862"><ele>390.0</ele><time>2026-03-29T11:57:01Z</time></trkpt><trkpt lat="43.83771943298875" lon="7.609030207914261"><ele>390.0</ele><time>2026-03-29T11:57:02Z</time></trkpt><trkpt lat="43.83764723479516" lon="7.609101641452847"><ele>390.0</ele><time>2026-03-29T11:57:03Z</time></trkpt><trkpt lat="43.83759918511467" lon="7.60916556448652"><ele>390.0</ele><time>2026-03-29T11:57:04Z</time></trkpt><trkpt lat="43.837549203641416" lon="7.609227205335584"><ele>390.0</ele><time>2026-03-29T11:57:05Z</time></trkpt><trkpt lat="43.8375090587875" lon="7.60933935571342"><ele>390.0</ele><time>2026-03-29T11:57:06Z</time></trkpt><trkpt lat="43.837462016811784" lon="7.609489583768858"><ele>392.6</ele><time>2026-03-29T11:57:07Z</time></trkpt><trkpt lat="43.83738953199858" lon="7.609592984393881"><ele>395.2</ele><time>2026-03-29T11:57:08Z</time></trkpt><trkpt lat="43.83732813984188" lon="7.609720536375312"><ele>397.79999999999995</ele><time>2026-03-29T11:57:09Z</time></trkpt><trkpt lat="43.83725406236325" lon="7.609812512818464"><ele>400.4</ele><time>2026-03-29T11:57:10Z</time></trkpt><trkpt lat="43.8371960554431" lon="7.609875937684214"><ele>403.0</ele><time>2026-03-29T11:57:11Z</time></trkpt><trkpt lat="43.83711205235316" lon="7.6099618543097165"><ele>403.00000000000006</ele><time>2026-03-29T11:57:13Z</time></trkpt><trkpt lat="43.837030476266975" lon="7.610055681677352"><ele>403.0</ele><time>2026-03-29T11:57:15Z</time></trkpt><trkpt lat="43.83699905395212" lon="7.610160032854604"><ele>403.0</ele><time>2026-03-29T11:57:17Z</time></trkpt><trkpt lat="43.83698724158741" lon="7.61024890439895"><ele>403.0</ele><time>2026-03-29T11:57:18.001Z</time></trkpt><trkpt lat="43.83698958799385" lon="7.610371394121653"><ele>403.00000000000006</ele><time>2026-03-29T11:57:19.001Z</time></trkpt><trkpt lat="43.8370213314343" lon="7.610500837522292"><ele>403.0</ele><time>2026-03-29T11:57:20.001Z</time></trkpt><trkpt lat="43.8370649927075" lon="7.610625866953046"><ele>402.59999999999997</ele><time>2026-03-29T11:57:21.001Z</time></trkpt><trkpt lat="43.83709701555991" lon="7.610737373570768"><ele>402.2</ele><time>2026-03-29T11:57:22.001Z</time></trkpt><trkpt lat="43.83713706498918" lon="7.610839748524694"><ele>401.8</ele><time>2026-03-29T11:57:23.001Z</time></trkpt><trkpt lat="43.83719454214212" lon="7.610937108030096"><ele>401.4</ele><time>2026-03-29T11:57:24.001Z</time></trkpt><trkpt lat="43.83725564973736" lon="7.611035503180105"><ele>401.0</ele><time>2026-03-29T11:57:25.001Z</time></trkpt><trkpt lat="43.83731518918847" lon="7.611139198215187"><ele>398.20000000000005</ele><time>2026-03-29T11:57:26.001Z</time></trkpt><trkpt lat="43.837371513363145" lon="7.611243493917255"><ele>395.40000000000003</ele><time>2026-03-29T11:57:27.001Z</time></trkpt><trkpt lat="43.837426228059684" lon="7.611348811896563"><ele>392.6</ele><time>2026-03-29T11:57:28.001Z</time></trkpt><trkpt lat="43.83747243947844" lon="7.611464719886363"><ele>389.8</ele><time>2026-03-29T11:57:29.001Z</time></trkpt><trkpt lat="43.83748481189676" lon="7.611592963154387"><ele>387.0</ele><time>2026-03-29T11:57:30.001Z</time></trkpt><trkpt lat="43.83751469713339" lon="7.611717123121088"><ele>387.0</ele><time>2026-03-29T11:57:31.001Z</time></trkpt><trkpt lat="43.83754308651751" lon="7.611838656718606"><ele>387.0</ele><time>2026-03-29T11:57:32.001Z</time></trkpt><trkpt lat="43.83758624556933" lon="7.6119509492919795"><ele>387.0</ele><time>2026-03-29T11:57:33.001Z</time></trkpt><trkpt lat="43.83762165733198" lon="7.612057408788002"><ele>387.0</ele><time>2026-03-29T11:57:34Z</time></trkpt><trkpt lat="43.837643727862435" lon="7.6121776916468455"><ele>387.0</ele><time>2026-03-29T11:57:35Z</time></trkpt><trkpt lat="43.837656687091275" lon="7.612301269877227"><ele>387.0</ele><time>2026-03-29T11:57:36Z</time></trkpt><trkpt lat="43.83766716914944" lon="7.6124220723952645"><ele>387.6666666666667</ele><time>2026-03-29T11:57:37Z</time></trkpt><trkpt lat="43.837682403718986" lon="7.612537742169295"><ele>388.33333333333337</ele><time>2026-03-29T11:57:38Z</time></trkpt><trkpt lat="43.83769879060666" lon="7.612649623741856"><ele>389.0</ele><time>2026-03-29T11:57:39Z</time></trkpt><trkpt lat="43.83770933132421" lon="7.612747423492782"><ele>389.6666666666667</ele><time>2026-03-29T11:57:40Z</time></trkpt><trkpt lat="43.837714386637316" lon="7.612905756436793"><ele>390.33333333333337</ele><time>2026-03-29T11:57:42Z</time></trkpt><trkpt lat="43.83771968616976" lon="7.613024333131538"><ele>391.0</ele><time>2026-03-29T11:57:44Z</time></trkpt><trkpt lat="43.837691801448095" lon="7.613120190755431"><ele>391.00000000000006</ele><time>2026-03-29T11:57:48Z</time></trkpt><trkpt lat="43.837654143198165" lon="7.6129980113235165"><ele>391.0</ele><time>2026-03-29T11:57:52Z</time></trkpt><trkpt lat="43.83762385033311" lon="7.612872808217663"><ele>391.0</ele><time>2026-03-29T11:57:54Z</time></trkpt><trkpt lat="43.83757307302722" lon="7.612748444372902"><ele>391.0</ele><time>2026-03-29T11:57:56Z</time></trkpt><trkpt lat="43.83753727698489" lon="7.612675242896659"><ele>391.00000000000006</ele><time>2026-03-29T11:57:57Z</time></trkpt><trkpt lat="43.837513201410516" lon="7.612556911030191"><ele>391.0</ele><time>2026-03-29T11:57:58Z</time></trkpt><trkpt lat="43.837473267906205" lon="7.612460288447979"><ele>390.33333333333337</ele><time>2026-03-29T11:57:59Z</time></trkpt><trkpt lat="43.83742056634123" lon="7.612374824286724"><ele>389.6666666666667</ele><time>2026-03-29T11:58:00Z</time></trkpt><trkpt lat="43.83737026285304" lon="7.612256170535797"><ele>389.0</ele><time>2026-03-29T11:58:01Z</time></trkpt><trkpt lat="43.83731933293455" lon="7.612157743973544"><ele>388.33333333333337</ele><time>2026-03-29T11:58:02Z</time></trkpt><trkpt lat="43.83726208164478" lon="7.612075650639017"><ele>387.6666666666667</ele><time>2026-03-29T11:58:03Z</time></trkpt><trkpt lat="43.83719262616899" lon="7.612004686340073"><ele>387.0</ele><time>2026-03-29T11:58:04Z</time></trkpt><trkpt lat="43.83712078546039" lon="7.611949695272778"><ele>387.0</ele><time>2026-03-29T11:58:05Z</time></trkpt><trkpt lat="43.83704842534653" lon="7.611905607551761"><ele>387.0</ele><time>2026-03-29T11:58:06Z</time></trkpt><trkpt lat="43.83698149988557" lon="7.6118684821388465"><ele>387.0</ele><time>2026-03-29T11:58:07Z</time></trkpt><trkpt lat="43.83687669251312" lon="7.611813745474925"><ele>387.0</ele><time>2026-03-29T11:58:09Z</time></trkpt><trkpt lat="43.836796317882914" lon="7.611771628161637"><ele>387.0</ele><time>2026-03-29T11:58:11Z</time></trkpt><trkpt lat="43.836715983028576" lon="7.6117312996715905"><ele>387.0</ele><time>2026-03-29T11:58:13Z</time></trkpt><trkpt lat="43.83663697236369" lon="7.611690788593891"><ele>383.8</ele><time>2026-03-29T11:58:14Z</time></trkpt><trkpt lat="43.83653839860488" lon="7.611651804147353"><ele>380.6</ele><time>2026-03-29T11:58:15Z</time></trkpt><trkpt lat="43.836437312279976" lon="7.611613732606462"><ele>377.40000000000003</ele><time>2026-03-29T11:58:16Z</time></trkpt><trkpt lat="43.83633704561385" lon="7.611579047460086"><ele>374.20000000000005</ele><time>2026-03-29T11:58:17Z</time></trkpt><trkpt lat="43.83624034360685" lon="7.611542628319885"><ele>371.0</ele><time>2026-03-29T11:58:18Z</time></trkpt><trkpt lat="43.83614721697848" lon="7.6115041591610915"><ele>371.0</ele><time>2026-03-29T11:58:19Z</time></trkpt><trkpt lat="43.83606278743506" lon="7.611472585208141"><ele>371.0</ele><time>2026-03-29T11:58:20Z</time></trkpt><trkpt lat="43.835985363945376" lon="7.611402630262036"><ele>371.0</ele><time>2026-03-29T11:58:21Z</time></trkpt><trkpt lat="43.835906094358094" lon="7.611335469434178"><ele>371.0</ele><time>2026-03-29T11:58:22Z</time></trkpt><trkpt lat="43.83581536276692" lon="7.611254994368607"><ele>371.0</ele><time>2026-03-29T11:58:23Z</time></trkpt><trkpt lat="43.83572109171058" lon="7.611169468012293"><ele>371.8</ele><time>2026-03-29T11:58:24Z</time></trkpt><trkpt lat="43.83562060050572" lon="7.611080420407271"><ele>372.6</ele><time>2026-03-29T11:58:25Z</time></trkpt><trkpt lat="43.83551832628479" lon="7.611008660311242"><ele>373.4</ele><time>2026-03-29T11:58:26Z</time></trkpt><trkpt lat="43.83543464832578" lon="7.610935531195174"><ele>374.2</ele><time>2026-03-29T11:58:27Z</time></trkpt><trkpt lat="43.83535842408986" lon="7.6108701817002125"><ele>375.0</ele><time>2026-03-29T11:58:28Z</time></trkpt><trkpt lat="43.83528761737092" lon="7.610810147183234"><ele>375.0</ele><time>2026-03-29T11:58:29Z</time></trkpt><trkpt lat="43.83521992193419" lon="7.610759802048824"><ele>375.0</ele><time>2026-03-29T11:58:30Z</time></trkpt><trkpt lat="43.835142702500455" lon="7.610731126109397"><ele>375.0</ele><time>2026-03-29T11:58:31Z</time></trkpt><trkpt lat="43.835054729997466" lon="7.6107280495504215"><ele>375.0</ele><time>2026-03-29T11:58:32Z</time></trkpt><trkpt lat="43.834957700613444" lon="7.610749211220169"><ele>375.0</ele><time>2026-03-29T11:58:33Z</time></trkpt><trkpt lat="43.83484196072913" lon="7.610786557310759"><ele>373.8</ele><time>2026-03-29T11:58:34Z</time></trkpt><trkpt lat="43.83474342944404" lon="7.610804646359548"><ele>372.6</ele><time>2026-03-29T11:58:35Z</time></trkpt><trkpt lat="43.834655377906714" lon="7.610831963313523"><ele>371.4</ele><time>2026-03-29T11:58:36Z</time></trkpt><trkpt lat="43.83457535777531" lon="7.610876738798135"><ele>370.2</ele><time>2026-03-29T11:58:37Z</time></trkpt><trkpt lat="43.834495314779836" lon="7.6109501399591215"><ele>369.0</ele><time>2026-03-29T11:58:38Z</time></trkpt><trkpt lat="43.83441058219607" lon="7.611046557653831"><ele>369.0</ele><time>2026-03-29T11:58:39Z</time></trkpt><trkpt lat="43.83433258359176" lon="7.611125625364802"><ele>369.0</ele><time>2026-03-29T11:58:40Z</time></trkpt><trkpt lat="43.83425280799045" lon="7.611190037861347"><ele>369.0</ele><time>2026-03-29T11:58:41Z</time></trkpt><trkpt lat="43.83418005124501" lon="7.611259464462174"><ele>369.0</ele><time>2026-03-29T11:58:42Z</time></trkpt><trkpt lat="43.83410023797425" lon="7.611279213289935"><ele>369.0</ele><time>2026-03-29T11:58:43Z</time></trkpt><trkpt lat="43.83401160134309" lon="7.6113021657206215"><ele>369.0</ele><time>2026-03-29T11:58:44Z</time></trkpt><trkpt lat="43.833928849128405" lon="7.611352868891791"><ele>366.6</ele><time>2026-03-29T11:58:45Z</time></trkpt><trkpt lat="43.83385983293392" lon="7.611405084923523"><ele>364.2</ele><time>2026-03-29T11:58:46Z</time></trkpt><trkpt lat="43.833813302140335" lon="7.611503620711139"><ele>361.8</ele><time>2026-03-29T11:58:47Z</time></trkpt><trkpt lat="43.83378754355151" lon="7.611632362211365"><ele>359.40000000000003</ele><time>2026-03-29T11:58:48Z</time></trkpt><trkpt lat="43.83376469425386" lon="7.611783889308593"><ele>357.0</ele><time>2026-03-29T11:58:49Z</time></trkpt><trkpt lat="43.83372384443814" lon="7.611886641795831"><ele>354.40000000000003</ele><time>2026-03-29T11:58:50Z</time></trkpt><trkpt lat="43.83370149765059" lon="7.612009876320496"><ele>351.8</ele><time>2026-03-29T11:58:51Z</time></trkpt><trkpt lat="43.83368121212808" lon="7.612142114289224"><ele>349.2</ele><time>2026-03-29T11:58:52Z</time></trkpt><trkpt lat="43.83366666730605" lon="7.612286085433021"><ele>346.6</ele><time>2026-03-29T11:58:53Z</time></trkpt><trkpt lat="43.83365874280993" lon="7.612427264627373"><ele>344.0</ele><time>2026-03-29T11:58:54Z</time></trkpt><trkpt lat="43.83363932822589" lon="7.612571536651782"><ele>344.0</ele><time>2026-03-29T11:58:55Z</time></trkpt><trkpt lat="43.833604126172176" lon="7.612704131497439"><ele>344.0</ele><time>2026-03-29T11:58:56Z</time></trkpt><trkpt lat="43.833551138787044" lon="7.612866893684406"><ele>344.0</ele><time>2026-03-29T11:58:57Z</time></trkpt><trkpt lat="43.83349093884749" lon="7.613028095256306"><ele>344.0</ele><time>2026-03-29T11:58:58Z</time></trkpt><trkpt lat="43.83344008851786" lon="7.613169434740494"><ele>344.75</ele><time>2026-03-29T11:58:59Z</time></trkpt><trkpt lat="43.833400529074254" lon="7.61331312074072"><ele>345.5</ele><time>2026-03-29T11:59:00Z</time></trkpt><trkpt lat="43.83337856339389" lon="7.613480895825248"><ele>346.25</ele><time>2026-03-29T11:59:01Z</time></trkpt><trkpt lat="43.833368397595585" lon="7.613663344279539"><ele>347.0</ele><time>2026-03-29T11:59:02Z</time></trkpt><trkpt lat="43.8333599194201" lon="7.613822311400345"><ele>347.0</ele><time>2026-03-29T11:59:03Z</time></trkpt><trkpt lat="43.83335307357698" lon="7.613970616750697"><ele>347.0</ele><time>2026-03-29T11:59:04Z</time></trkpt><trkpt lat="43.833347640574985" lon="7.614109062232964"><ele>347.0</ele><time>2026-03-29T11:59:05Z</time></trkpt><trkpt lat="43.83334261743913" lon="7.614240994444562"><ele>347.0</ele><time>2026-03-29T11:59:06Z</time></trkpt><trkpt lat="43.83333177804708" lon="7.614371281420572"><ele>347.0</ele><time>2026-03-29T11:59:07Z</time></trkpt><trkpt lat="43.83330967326334" lon="7.614494951702744"><ele>343.8</ele><time>2026-03-29T11:59:08Z</time></trkpt><trkpt lat="43.833270183796905" lon="7.614601896036164"><ele>340.6</ele><time>2026-03-29T11:59:09Z</time></trkpt><trkpt lat="43.83319310636251" lon="7.614657491289029"><ele>337.40000000000003</ele><time>2026-03-29T11:59:10.001Z</time></trkpt><trkpt lat="43.83309489088961" lon="7.614662798546722"><ele>334.20000000000005</ele><time>2026-03-29T11:59:11.001Z</time></trkpt><trkpt lat="43.83300147811547" lon="7.614585010773395"><ele>331.0</ele><time>2026-03-29T11:59:12.001Z</time></trkpt><trkpt lat="43.83290574722803" lon="7.6145450942435415"><ele>331.0</ele><time>2026-03-29T11:59:13.001Z</time></trkpt><trkpt lat="43.83282958418839" lon="7.6145046412631565"><ele>331.0</ele><time>2026-03-29T11:59:14.001Z</time></trkpt><trkpt lat="43.83275583191736" lon="7.6144657537284015"><ele>331.0</ele><time>2026-03-29T11:59:15.001Z</time></trkpt><trkpt lat="43.832680615120466" lon="7.614444764623809"><ele>331.0</ele><time>2026-03-29T11:59:16.001Z</time></trkpt><trkpt lat="43.832609683982156" lon="7.614479522788422"><ele>331.0</ele><time>2026-03-29T11:59:17.001Z</time></trkpt><trkpt lat="43.83256532022496" lon="7.614573390066585"><ele>331.0</ele><time>2026-03-29T11:59:18.001Z</time></trkpt><trkpt lat="43.832533365114294" lon="7.614664039336058"><ele>334.0</ele><time>2026-03-29T11:59:19.001Z</time></trkpt><trkpt lat="43.83248693064905" lon="7.614747727188866"><ele>337.0</ele><time>2026-03-29T11:59:20.001Z</time></trkpt><trkpt lat="43.832410259662" lon="7.614810607668358"><ele>340.0</ele><time>2026-03-29T11:59:21.001Z</time></trkpt><trkpt lat="43.83234489546806" lon="7.614865171196319"><ele>343.0</ele><time>2026-03-29T11:59:22.001Z</time></trkpt><trkpt lat="43.832318752459145" lon="7.615031352451423"><ele>346.0</ele><time>2026-03-29T11:59:24.001Z</time></trkpt><trkpt lat="43.832352666880816" lon="7.615115897332787"><ele>349.0</ele><time>2026-03-29T11:59:25.001Z</time></trkpt><trkpt lat="43.83240973810713" lon="7.615178042160291"><ele>349.0</ele><time>2026-03-29T11:59:26.001Z</time></trkpt><trkpt lat="43.83245611227098" lon="7.615252793705379"><ele>349.0</ele><time>2026-03-29T11:59:27.001Z</time></trkpt><trkpt lat="43.832476294642476" lon="7.615410958584924"><ele>349.0</ele><time>2026-03-29T11:59:29.001Z</time></trkpt><trkpt lat="43.83245099742049" lon="7.615501940810423"><ele>349.0</ele><time>2026-03-29T11:59:30.001Z</time></trkpt><trkpt lat="43.83241580082408" lon="7.615593923149105"><ele>349.0</ele><time>2026-03-29T11:59:31.001Z</time></trkpt><trkpt lat="43.83235620399758" lon="7.615692739954688"><ele>349.0</ele><time>2026-03-29T11:59:32.001Z</time></trkpt><trkpt lat="43.83228716705364" lon="7.615770997938099"><ele>346.8333333333333</ele><time>2026-03-29T11:59:33.001Z</time></trkpt><trkpt lat="43.8322112949099" lon="7.615847428013751"><ele>344.66666666666663</ele><time>2026-03-29T11:59:34.001Z</time></trkpt><trkpt lat="43.83214680348702" lon="7.615916815005702"><ele>342.5</ele><time>2026-03-29T11:59:35.001Z</time></trkpt><trkpt lat="43.832114853045226" lon="7.6160111237409"><ele>340.3333333333333</ele><time>2026-03-29T11:59:36.001Z</time></trkpt><trkpt lat="43.83208426936581" lon="7.616098376768719"><ele>338.1666666666667</ele><time>2026-03-29T11:59:37.001Z</time></trkpt><trkpt lat="43.83203961042663" lon="7.61616206390706"><ele>336.0</ele><time>2026-03-29T11:59:38.001Z</time></trkpt><trkpt lat="43.83197787354375" lon="7.616204105274338"><ele>335.1666666666667</ele><time>2026-03-29T11:59:39.001Z</time></trkpt><trkpt lat="43.83190355324359" lon="7.61621603925309"><ele>334.3333333333333</ele><time>2026-03-29T11:59:40Z</time></trkpt><trkpt lat="43.83181028139063" lon="7.616177734802603"><ele>333.5</ele><time>2026-03-29T11:59:41Z</time></trkpt><trkpt lat="43.83172666986938" lon="7.616206154533952"><ele>332.66666666666663</ele><time>2026-03-29T11:59:42Z</time></trkpt><trkpt lat="43.83164616291857" lon="7.616263344262714"><ele>331.8333333333333</ele><time>2026-03-29T11:59:43Z</time></trkpt><trkpt lat="43.83156124262101" lon="7.616302793004006"><ele>331.0</ele><time>2026-03-29T11:59:44Z</time></trkpt><trkpt lat="43.831481360851846" lon="7.61632905536072"><ele>331.0</ele><time>2026-03-29T11:59:45Z</time></trkpt><trkpt lat="43.831398546862545" lon="7.616324585100306"><ele>331.0</ele><time>2026-03-29T11:59:46Z</time></trkpt><trkpt lat="43.831298756635306" lon="7.6163097995960225"><ele>331.0</ele><time>2026-03-29T11:59:47Z</time></trkpt><trkpt lat="43.831193293362695" lon="7.616327595617014"><ele>331.0</ele><time>2026-03-29T11:59:48Z</time></trkpt><trkpt lat="43.831105919433" lon="7.616365622456936"><ele>331.0</ele><time>2026-03-29T11:59:49Z</time></trkpt><trkpt lat="43.83102404174136" lon="7.6164433062917825"><ele>336.20000000000005</ele><time>2026-03-29T11:59:50Z</time></trkpt><trkpt lat="43.83093375628733" lon="7.61649372360083"><ele>341.40000000000003</ele><time>2026-03-29T11:59:51Z</time></trkpt><trkpt lat="43.83086542219444" lon="7.6165686784615065"><ele>346.6</ele><time>2026-03-29T11:59:52Z</time></trkpt><trkpt lat="43.830791412800146" lon="7.6166335507137894"><ele>351.8</ele><time>2026-03-29T11:59:53Z</time></trkpt><trkpt lat="43.83072704176585" lon="7.61672815641278"><ele>357.0</ele><time>2026-03-29T11:59:54Z</time></trkpt><trkpt lat="43.830666584411915" lon="7.616846167554006"><ele>357.0</ele><time>2026-03-29T11:59:55Z</time></trkpt><trkpt lat="43.830582534289036" lon="7.6169392254692445"><ele>357.0</ele><time>2026-03-29T11:59:56Z</time></trkpt><trkpt lat="43.83050101285565" lon="7.617032479772002"><ele>357.0</ele><time>2026-03-29T11:59:57Z</time></trkpt><trkpt lat="43.83042636885007" lon="7.617143772631053"><ele>357.0</ele><time>2026-03-29T11:59:58Z</time></trkpt><trkpt lat="43.83034349619745" lon="7.617243118484442"><ele>357.0</ele><time>2026-03-29T11:59:59Z</time></trkpt><trkpt lat="43.83026418313525" lon="7.617320544134392"><ele>357.0</ele><time>2026-03-29T12:00:00Z</time></trkpt><trkpt lat="43.83021237542644" lon="7.61742010162237"><ele>357.0</ele><time>2026-03-29T12:00:01Z</time></trkpt><trkpt lat="43.83013715086009" lon="7.617479942435572"><ele>357.0</ele><time>2026-03-29T12:00:02Z</time></trkpt><trkpt lat="43.83006454841806" lon="7.617543895839554"><ele>357.0</ele><time>2026-03-29T12:00:03Z</time></trkpt><trkpt lat="43.82999146288666" lon="7.6175988779820045"><ele>357.0</ele><time>2026-03-29T12:00:04Z</time></trkpt><trkpt lat="43.82989530220521" lon="7.617661798164962"><ele>357.0</ele><time>2026-03-29T12:00:06Z</time></trkpt><trkpt lat="43.82983795879541" lon="7.617709653373955"><ele>357.0</ele><time>2026-03-29T12:00:08Z</time></trkpt><trkpt lat="43.82977675977885" lon="7.617738167733301"><ele>357.0</ele><time>2026-03-29T12:00:28Z</time></trkpt><trkpt lat="43.8296996360169" lon="7.617735313487326"><ele>357.0</ele><time>2026-03-29T12:00:30Z</time></trkpt><trkpt lat="43.829615003688524" lon="7.6177664888835395"><ele>357.0</ele><time>2026-03-29T12:00:32Z</time></trkpt><trkpt lat="43.82953478894296" lon="7.617762731532703"><ele>357.0</ele><time>2026-03-29T12:00:35Z</time></trkpt><trkpt lat="43.829458495921045" lon="7.617750066236827"><ele>357.0</ele><time>2026-03-29T12:00:37Z</time></trkpt><trkpt lat="43.82938504225407" lon="7.617748541830178"><ele>357.0</ele><time>2026-03-29T12:00:38Z</time></trkpt><trkpt lat="43.829286535623766" lon="7.6177397669610505"><ele>357.0</ele><time>2026-03-29T12:00:39Z</time></trkpt><trkpt lat="43.82920170026357" lon="7.617675303286351"><ele>357.0</ele><time>2026-03-29T12:00:40Z</time></trkpt><trkpt lat="43.829115107409095" lon="7.617648253721392"><ele>357.0</ele><time>2026-03-29T12:00:41Z</time></trkpt><trkpt lat="43.82902798961231" lon="7.617621104192114"><ele>357.0</ele><time>2026-03-29T12:00:42Z</time></trkpt><trkpt lat="43.82894152961538" lon="7.6176168814581064"><ele>356.8333333333333</ele><time>2026-03-29T12:00:43Z</time></trkpt><trkpt lat="43.828868869886286" lon="7.61756963114822"><ele>356.6666666666667</ele><time>2026-03-29T12:00:44Z</time></trkpt><trkpt lat="43.82879220186954" lon="7.617539560861352"><ele>356.5</ele><time>2026-03-29T12:00:45Z</time></trkpt><trkpt lat="43.8287206123394" lon="7.617494344186374"><ele>356.33333333333337</ele><time>2026-03-29T12:00:46Z</time></trkpt><trkpt lat="43.828654113514865" lon="7.617443970868587"><ele>356.1666666666667</ele><time>2026-03-29T12:00:47Z</time></trkpt><trkpt lat="43.82856821934846" lon="7.6173791169414615"><ele>356.0</ele><time>2026-03-29T12:00:49Z</time></trkpt><trkpt lat="43.828556638350186" lon="7.6172539982969605"><ele>356.0</ele><time>2026-03-29T12:00:51Z</time></trkpt><trkpt lat="43.8285600460667" lon="7.617165683011324"><ele>356.0</ele><time>2026-03-29T12:00:52Z</time></trkpt><trkpt lat="43.82858646919357" lon="7.617082158073055"><ele>356.0</ele><time>2026-03-29T12:00:53Z</time></trkpt><trkpt lat="43.82864486775988" lon="7.617020832497571"><ele>356.0</ele><time>2026-03-29T12:00:54Z</time></trkpt><trkpt lat="43.82871904418464" lon="7.616963026314293"><ele>356.0</ele><time>2026-03-29T12:00:55Z</time></trkpt><trkpt lat="43.82880762430407" lon="7.616882871684801"><ele>356.0</ele><time>2026-03-29T12:00:56Z</time></trkpt><trkpt lat="43.82888801214416" lon="7.616808261949381"><ele>356.83333333333337</ele><time>2026-03-29T12:00:57Z</time></trkpt><trkpt lat="43.82896155532106" lon="7.616743092606986"><ele>357.6666666666667</ele><time>2026-03-29T12:00:58Z</time></trkpt><trkpt lat="43.829025570585564" lon="7.616687624961533"><ele>358.5</ele><time>2026-03-29T12:00:59Z</time></trkpt><trkpt lat="43.82908710102771" lon="7.616629639350913"><ele>359.3333333333333</ele><time>2026-03-29T12:01:00Z</time></trkpt><trkpt lat="43.82912048664392" lon="7.616541000311377"><ele>360.16666666666663</ele><time>2026-03-29T12:01:01Z</time></trkpt><trkpt lat="43.82916064284371" lon="7.616468124294352"><ele>361.0</ele><time>2026-03-29T12:01:02Z</time></trkpt><trkpt lat="43.82916991128402" lon="7.6163556740935325"><ele>361.0</ele><time>2026-03-29T12:01:03Z</time></trkpt><trkpt lat="43.82916007964327" lon="7.6162438137253305"><ele>361.0</ele><time>2026-03-29T12:01:04Z</time></trkpt><trkpt lat="43.829150839736236" lon="7.616126328427271"><ele>361.0</ele><time>2026-03-29T12:01:05Z</time></trkpt><trkpt lat="43.82910989386631" lon="7.6160260058857245"><ele>361.0</ele><time>2026-03-29T12:01:06Z</time></trkpt><trkpt lat="43.829056876177475" lon="7.615949180356319"><ele>361.0</ele><time>2026-03-29T12:01:07Z</time></trkpt><trkpt lat="43.82898936923572" lon="7.615909858299099"><ele>361.0</ele><time>2026-03-29T12:01:08Z</time></trkpt><trkpt lat="43.828910684325955" lon="7.615902982273166"><ele>362.16666666666663</ele><time>2026-03-29T12:01:09Z</time></trkpt><trkpt lat="43.82880992195564" lon="7.615930323577618"><ele>363.3333333333333</ele><time>2026-03-29T12:01:10Z</time></trkpt><trkpt lat="43.82870102580439" lon="7.615939786047458"><ele>364.5</ele><time>2026-03-29T12:01:11Z</time></trkpt><trkpt lat="43.82861795719706" lon="7.615953572974205"><ele>365.6666666666667</ele><time>2026-03-29T12:01:12Z</time></trkpt><trkpt lat="43.8285549500635" lon="7.615942907623131"><ele>366.83333333333337</ele><time>2026-03-29T12:01:13Z</time></trkpt><trkpt lat="43.82849259644738" lon="7.615897165721284"><ele>368.0</ele><time>2026-03-29T12:01:14Z</time></trkpt><trkpt lat="43.828411761319195" lon="7.6158178854578535"><ele>364.5</ele><time>2026-03-29T12:01:15Z</time></trkpt><trkpt lat="43.82831865630981" lon="7.615725407115513"><ele>361.0</ele><time>2026-03-29T12:01:16Z</time></trkpt><trkpt lat="43.828208844741845" lon="7.615646871278935"><ele>357.5</ele><time>2026-03-29T12:01:17Z</time></trkpt><trkpt lat="43.828100427098725" lon="7.615563620640018"><ele>354.0</ele><time>2026-03-29T12:01:18Z</time></trkpt><trkpt lat="43.8279879845454" lon="7.615498325583652"><ele>354.0</ele><time>2026-03-29T12:01:19Z</time></trkpt><trkpt lat="43.827878373420866" lon="7.61541625702029"><ele>354.0</ele><time>2026-03-29T12:01:20Z</time></trkpt><trkpt lat="43.827779036379205" lon="7.6153588065018045"><ele>354.0</ele><time>2026-03-29T12:01:21Z</time></trkpt><trkpt lat="43.82768774574193" lon="7.615294863421942"><ele>354.0</ele><time>2026-03-29T12:01:22Z</time></trkpt><trkpt lat="43.827605732715426" lon="7.615224228168927"><ele>354.0</ele><time>2026-03-29T12:01:23Z</time></trkpt><trkpt lat="43.827508215471106" lon="7.6151736405580746"><ele>354.0</ele><time>2026-03-29T12:01:24Z</time></trkpt><trkpt lat="43.82742505403636" lon="7.6151039838477645"><ele>354.0</ele><time>2026-03-29T12:01:25Z</time></trkpt><trkpt lat="43.827356661535816" lon="7.6150454877669445"><ele>354.0</ele><time>2026-03-29T12:01:26Z</time></trkpt><trkpt lat="43.827325175502615" lon="7.614955655246353"><ele>354.0</ele><time>2026-03-29T12:01:27.001Z</time></trkpt><trkpt lat="43.82730512968023" lon="7.614867294154677"><ele>354.0</ele><time>2026-03-29T12:01:28.001Z</time></trkpt><trkpt lat="43.827302481724345" lon="7.614772321389123"><ele>354.0</ele><time>2026-03-29T12:01:29.001Z</time></trkpt><trkpt lat="43.82730015377631" lon="7.614658313142082"><ele>354.0</ele><time>2026-03-29T12:01:30.001Z</time></trkpt><trkpt lat="43.827296093281134" lon="7.614528314560444"><ele>354.0</ele><time>2026-03-29T12:01:31.001Z</time></trkpt><trkpt lat="43.82728772447408" lon="7.614398074097339"><ele>354.0</ele><time>2026-03-29T12:01:32.001Z</time></trkpt><trkpt lat="43.82725197931311" lon="7.614297982337717"><ele>354.0</ele><time>2026-03-29T12:01:33.001Z</time></trkpt><trkpt lat="43.8272130173941" lon="7.614202681963634"><ele>354.0</ele><time>2026-03-29T12:01:34.001Z</time></trkpt><trkpt lat="43.82716205144418" lon="7.614124178186022"><ele>354.0</ele><time>2026-03-29T12:01:35.001Z</time></trkpt><trkpt lat="43.82710351003783" lon="7.6140710183909475"><ele>355.3333333333333</ele><time>2026-03-29T12:01:36.001Z</time></trkpt><trkpt lat="43.82703203639558" lon="7.614058510970201"><ele>356.6666666666667</ele><time>2026-03-29T12:01:37.001Z</time></trkpt><trkpt lat="43.82694531275533" lon="7.61409149541918"><ele>358.0</ele><time>2026-03-29T12:01:38.001Z</time></trkpt><trkpt lat="43.8268605541514" lon="7.614147924850711"><ele>359.33333333333337</ele><time>2026-03-29T12:01:39.001Z</time></trkpt><trkpt lat="43.82678464779612" lon="7.614211193997119"><ele>360.6666666666667</ele><time>2026-03-29T12:01:40.001Z</time></trkpt><trkpt lat="43.826705519528225" lon="7.614287525731307"><ele>362.0</ele><time>2026-03-29T12:01:41.001Z</time></trkpt><trkpt lat="43.826633677066525" lon="7.614379768171722"><ele>362.0</ele><time>2026-03-29T12:01:42.001Z</time></trkpt><trkpt lat="43.82656985739913" lon="7.614448073117733"><ele>362.0</ele><time>2026-03-29T12:01:43.001Z</time></trkpt><trkpt lat="43.826506898031326" lon="7.614518677075019"><ele>362.0</ele><time>2026-03-29T12:01:44.001Z</time></trkpt><trkpt lat="43.82644799584312" lon="7.614571441416313"><ele>362.0</ele><time>2026-03-29T12:01:45.001Z</time></trkpt><trkpt lat="43.82638716880563" lon="7.614599054937266"><ele>362.0</ele><time>2026-03-29T12:01:46Z</time></trkpt><trkpt lat="43.82632036665205" lon="7.614591927389377"><ele>362.0</ele><time>2026-03-29T12:01:47Z</time></trkpt><trkpt lat="43.826252339439414" lon="7.614546365620445"><ele>362.0</ele><time>2026-03-29T12:01:48Z</time></trkpt><trkpt lat="43.82618563053831" lon="7.614473361121406"><ele>362.0</ele><time>2026-03-29T12:01:49Z</time></trkpt><trkpt lat="43.826124443366616" lon="7.61441505471835"><ele>362.0</ele><time>2026-03-29T12:01:50Z</time></trkpt><trkpt lat="43.82605744973943" lon="7.614410307271914"><ele>362.0</ele><time>2026-03-29T12:01:51Z</time></trkpt><trkpt lat="43.8259862515212" lon="7.61445784874321"><ele>362.0</ele><time>2026-03-29T12:01:52Z</time></trkpt><trkpt lat="43.825883823980185" lon="7.614509724636382"><ele>362.0</ele><time>2026-03-29T12:01:54Z</time></trkpt><trkpt lat="43.82579189414037" lon="7.614537678354003"><ele>362.0</ele><time>2026-03-29T12:01:56Z</time></trkpt><trkpt lat="43.82571734735231" lon="7.614534898789038"><ele>360.7142857142857</ele><time>2026-03-29T12:01:58Z</time></trkpt><trkpt lat="43.82564838736291" lon="7.614499309646292"><ele>359.42857142857144</ele><time>2026-03-29T12:02:00Z</time></trkpt><trkpt lat="43.82559413787273" lon="7.614438856780749"><ele>358.1428571428571</ele><time>2026-03-29T12:02:02Z</time></trkpt><trkpt lat="43.82556006730129" lon="7.6143566335250705"><ele>356.8571428571429</ele><time>2026-03-29T12:02:04Z</time></trkpt><trkpt lat="43.82552716203742" lon="7.614268573799698"><ele>355.5714285714286</ele><time>2026-03-29T12:02:06Z</time></trkpt><trkpt lat="43.82549929057115" lon="7.614178070308004"><ele>354.2857142857143</ele><time>2026-03-29T12:02:08Z</time></trkpt><trkpt lat="43.825471811091305" lon="7.614083094902075"><ele>353.0</ele><time>2026-03-29T12:02:10Z</time></trkpt><trkpt lat="43.8254302370757" lon="7.613923595786942"><ele>353.0</ele><time>2026-03-29T12:02:12Z</time></trkpt><trkpt lat="43.82541295667408" lon="7.613837976257613"><ele>353.0</ele><time>2026-03-29T12:02:13Z</time></trkpt><trkpt lat="43.82539275001476" lon="7.613752993325391"><ele>353.0</ele><time>2026-03-29T12:02:14Z</time></trkpt><trkpt lat="43.82531610422635" lon="7.61365319724789"><ele>353.0</ele><time>2026-03-29T12:02:16Z</time></trkpt><trkpt lat="43.825236650073165" lon="7.613629674733942"><ele>353.0</ele><time>2026-03-29T12:02:17Z</time></trkpt><trkpt lat="43.82514899704093" lon="7.613652216668573"><ele>353.0</ele><time>2026-03-29T12:02:18Z</time></trkpt><trkpt lat="43.825066594599434" lon="7.6136625446787445"><ele>350.1666666666667</ele><time>2026-03-29T12:02:19Z</time></trkpt><trkpt lat="43.82499317126623" lon="7.6137170560083645"><ele>347.33333333333337</ele><time>2026-03-29T12:02:20Z</time></trkpt><trkpt lat="43.82491962772468" lon="7.61377798237138"><ele>344.5</ele><time>2026-03-29T12:02:21Z</time></trkpt><trkpt lat="43.824838719730515" lon="7.61383042480967"><ele>341.6666666666667</ele><time>2026-03-29T12:02:22Z</time></trkpt><trkpt lat="43.824776800012856" lon="7.613916376065306"><ele>338.8333333333333</ele><time>2026-03-29T12:02:23Z</time></trkpt><trkpt lat="43.82470669943285" lon="7.613989647104811"><ele>336.0</ele><time>2026-03-29T12:02:24Z</time></trkpt><trkpt lat="43.82464207077973" lon="7.614069504946428"><ele>336.0</ele><time>2026-03-29T12:02:25Z</time></trkpt><trkpt lat="43.82458501877598" lon="7.6141475432497305"><ele>336.0</ele><time>2026-03-29T12:02:26Z</time></trkpt><trkpt lat="43.82452768618256" lon="7.61422246048669"><ele>336.0</ele><time>2026-03-29T12:02:27Z</time></trkpt><trkpt lat="43.82447228418751" lon="7.614310691774149"><ele>336.0</ele><time>2026-03-29T12:02:28Z</time></trkpt><trkpt lat="43.82442572547057" lon="7.614424329396914"><ele>336.0</ele><time>2026-03-29T12:02:29Z</time></trkpt><trkpt lat="43.82438183292938" lon="7.614537300700544"><ele>336.0</ele><time>2026-03-29T12:02:30Z</time></trkpt><trkpt lat="43.82433921914849" lon="7.614630284189485"><ele>333.0</ele><time>2026-03-29T12:02:31Z</time></trkpt><trkpt lat="43.824302441095455" lon="7.614722507570442"><ele>330.0</ele><time>2026-03-29T12:02:32Z</time></trkpt><trkpt lat="43.824252163970336" lon="7.614791888706562"><ele>327.0</ele><time>2026-03-29T12:02:33Z</time></trkpt><trkpt lat="43.82420794520985" lon="7.614861697584315"><ele>324.0</ele><time>2026-03-29T12:02:34Z</time></trkpt><trkpt lat="43.82416251178772" lon="7.614924241610088"><ele>321.0</ele><time>2026-03-29T12:02:35Z</time></trkpt><trkpt lat="43.82405693905882" lon="7.614977240343592"><ele>318.0</ele><time>2026-03-29T12:02:37Z</time></trkpt><trkpt lat="43.82398779433813" lon="7.6149480256118345"><ele>318.0</ele><time>2026-03-29T12:02:38Z</time></trkpt><trkpt lat="43.82389599564118" lon="7.6149482957211"><ele>318.0</ele><time>2026-03-29T12:02:39Z</time></trkpt><trkpt lat="43.823818114149965" lon="7.614963369041211"><ele>318.0</ele><time>2026-03-29T12:02:40Z</time></trkpt><trkpt lat="43.823726137197156" lon="7.615000276834289"><ele>318.0</ele><time>2026-03-29T12:02:41Z</time></trkpt><trkpt lat="43.82363594917068" lon="7.615031253589874"><ele>318.0</ele><time>2026-03-29T12:02:42Z</time></trkpt><trkpt lat="43.82355463897049" lon="7.615050720705033"><ele>318.0</ele><time>2026-03-29T12:02:43Z</time></trkpt><trkpt lat="43.8234855055853" lon="7.6150624047971345"><ele>320.0</ele><time>2026-03-29T12:02:44Z</time></trkpt><trkpt lat="43.82341638715248" lon="7.615079202087058"><ele>322.0</ele><time>2026-03-29T12:02:45Z</time></trkpt><trkpt lat="43.82334232928964" lon="7.6151449236646895"><ele>324.0</ele><time>2026-03-29T12:02:46Z</time></trkpt><trkpt lat="43.82325651230206" lon="7.615170110043484"><ele>326.0</ele><time>2026-03-29T12:02:47Z</time></trkpt><trkpt lat="43.82318735777234" lon="7.615200743509674"><ele>328.0</ele><time>2026-03-29T12:02:48Z</time></trkpt><trkpt lat="43.82310718781088" lon="7.615203886532976"><ele>330.0</ele><time>2026-03-29T12:02:49Z</time></trkpt><trkpt lat="43.823010704457374" lon="7.6151971416440025"><ele>330.0</ele><time>2026-03-29T12:02:50Z</time></trkpt><trkpt lat="43.82291806534213" lon="7.615218057569638"><ele>330.0</ele><time>2026-03-29T12:02:51Z</time></trkpt><trkpt lat="43.822815109470696" lon="7.615260565934255"><ele>330.0</ele><time>2026-03-29T12:02:52Z</time></trkpt><trkpt lat="43.82271462320558" lon="7.615302292633848"><ele>330.0</ele><time>2026-03-29T12:02:53Z</time></trkpt><trkpt lat="43.82262009079385" lon="7.615340740155729"><ele>330.0</ele><time>2026-03-29T12:02:54Z</time></trkpt><trkpt lat="43.82253483150676" lon="7.61538009754432"><ele>325.0</ele><time>2026-03-29T12:02:55Z</time></trkpt><trkpt lat="43.82246630698835" lon="7.615458224610229"><ele>320.0</ele><time>2026-03-29T12:02:56Z</time></trkpt><trkpt lat="43.822395635900975" lon="7.615533962160042"><ele>315.0</ele><time>2026-03-29T12:02:57Z</time></trkpt><trkpt lat="43.82232994527445" lon="7.615625373606904"><ele>310.0</ele><time>2026-03-29T12:02:58Z</time></trkpt><trkpt lat="43.822251071489575" lon="7.615672648087545"><ele>305.0</ele><time>2026-03-29T12:02:59Z</time></trkpt><trkpt lat="43.8221786633326" lon="7.615718445586681"><ele>300.0</ele><time>2026-03-29T12:03:00Z</time></trkpt><trkpt lat="43.82208862046384" lon="7.615744906551456"><ele>300.0</ele><time>2026-03-29T12:03:01Z</time></trkpt><trkpt lat="43.821982000789255" lon="7.615767802088981"><ele>300.0</ele><time>2026-03-29T12:03:02Z</time></trkpt><trkpt lat="43.82188554488836" lon="7.615818609072582"><ele>300.0</ele><time>2026-03-29T12:03:03Z</time></trkpt><trkpt lat="43.82179943811713" lon="7.615861666406366"><ele>300.0</ele><time>2026-03-29T12:03:04Z</time></trkpt><trkpt lat="43.821717767376725" lon="7.6159132301294905"><ele>300.0</ele><time>2026-03-29T12:03:05Z</time></trkpt><trkpt lat="43.821636683288965" lon="7.615948000044883"><ele>302.8333333333333</ele><time>2026-03-29T12:03:06Z</time></trkpt><trkpt lat="43.8215500865394" lon="7.615922108828568"><ele>305.6666666666667</ele><time>2026-03-29T12:03:07Z</time></trkpt><trkpt lat="43.82145170564678" lon="7.6159180043795995"><ele>308.5</ele><time>2026-03-29T12:03:08Z</time></trkpt><trkpt lat="43.82136539209411" lon="7.615948123354371"><ele>311.33333333333337</ele><time>2026-03-29T12:03:09Z</time></trkpt><trkpt lat="43.82129199863816" lon="7.615986821576983"><ele>314.1666666666667</ele><time>2026-03-29T12:03:10Z</time></trkpt><trkpt lat="43.821221950392214" lon="7.616066573119004"><ele>317.0</ele><time>2026-03-29T12:03:11Z</time></trkpt><trkpt lat="43.821164543235064" lon="7.616167117759399"><ele>316.1666666666667</ele><time>2026-03-29T12:03:12Z</time></trkpt><trkpt lat="43.82113049304423" lon="7.616263430283343"><ele>315.33333333333337</ele><time>2026-03-29T12:03:13Z</time></trkpt><trkpt lat="43.82109610344459" lon="7.616362749340133"><ele>314.5</ele><time>2026-03-29T12:03:14Z</time></trkpt><trkpt lat="43.821048682325404" lon="7.616432097893239"><ele>313.6666666666667</ele><time>2026-03-29T12:03:15Z</time></trkpt><trkpt lat="43.82097723459616" lon="7.616489575459979"><ele>312.8333333333333</ele><time>2026-03-29T12:03:16Z</time></trkpt><trkpt lat="43.82088427269625" lon="7.6165568968858866"><ele>312.0</ele><time>2026-03-29T12:03:17Z</time></trkpt><trkpt lat="43.820807804370126" lon="7.616625990815462"><ele>312.0</ele><time>2026-03-29T12:03:18Z</time></trkpt><trkpt lat="43.82074582134829" lon="7.616703422535572"><ele>312.0</ele><time>2026-03-29T12:03:19Z</time></trkpt><trkpt lat="43.820693997970885" lon="7.616799056185666"><ele>312.0</ele><time>2026-03-29T12:03:20Z</time></trkpt><trkpt lat="43.82065803152062" lon="7.61690453757911"><ele>312.0</ele><time>2026-03-29T12:03:21Z</time></trkpt><trkpt lat="43.82061356234269" lon="7.616989571022649"><ele>312.0</ele><time>2026-03-29T12:03:22Z</time></trkpt><trkpt lat="43.820537379504096" lon="7.617072400942671"><ele>312.0</ele><time>2026-03-29T12:03:23Z</time></trkpt><trkpt lat="43.820444927245106" lon="7.617142857486369"><ele>312.3333333333333</ele><time>2026-03-29T12:03:24Z</time></trkpt><trkpt lat="43.820363463239495" lon="7.617215296923044"><ele>312.6666666666667</ele><time>2026-03-29T12:03:25Z</time></trkpt><trkpt lat="43.82029482407726" lon="7.61728412560547"><ele>313.0</ele><time>2026-03-29T12:03:26Z</time></trkpt><trkpt lat="43.820237352270674" lon="7.617362966921059"><ele>313.33333333333337</ele><time>2026-03-29T12:03:27Z</time></trkpt><trkpt lat="43.82019770068374" lon="7.617468178784154"><ele>313.6666666666667</ele><time>2026-03-29T12:03:28Z</time></trkpt><trkpt lat="43.820165718350545" lon="7.617591923965784"><ele>314.0</ele><time>2026-03-29T12:03:29Z</time></trkpt><trkpt lat="43.820135721863885" lon="7.617739372965727"><ele>310.8</ele><time>2026-03-29T12:03:30Z</time></trkpt><trkpt lat="43.82012229009293" lon="7.617883012666399"><ele>307.59999999999997</ele><time>2026-03-29T12:03:31Z</time></trkpt><trkpt lat="43.820123615173166" lon="7.618019312128416"><ele>304.4</ele><time>2026-03-29T12:03:32Z</time></trkpt><trkpt lat="43.82014006143207" lon="7.6181572438063405"><ele>301.2</ele><time>2026-03-29T12:03:33Z</time></trkpt><trkpt lat="43.820176197909184" lon="7.618274404313532"><ele>298.0</ele><time>2026-03-29T12:03:34Z</time></trkpt><trkpt lat="43.82021126789108" lon="7.618385369250076"><ele>289.6</ele><time>2026-03-29T12:03:35Z</time></trkpt><trkpt lat="43.8202439566579" lon="7.618492152193661"><ele>281.20000000000005</ele><time>2026-03-29T12:03:36Z</time></trkpt><trkpt lat="43.82024932881028" lon="7.618601403823858"><ele>272.8</ele><time>2026-03-29T12:03:37Z</time></trkpt><trkpt lat="43.820250150428095" lon="7.618712308361006"><ele>264.40000000000003</ele><time>2026-03-29T12:03:38Z</time></trkpt><trkpt lat="43.82023105427908" lon="7.618843893973575"><ele>256.0</ele><time>2026-03-29T12:03:39Z</time></trkpt><trkpt lat="43.82022681448219" lon="7.619007425973768"><ele>254.33333333333331</ele><time>2026-03-29T12:03:40Z</time></trkpt><trkpt lat="43.82021721769436" lon="7.619149811822728"><ele>252.66666666666666</ele><time>2026-03-29T12:03:41Z</time></trkpt><trkpt lat="43.82022065261418" lon="7.619280600971907"><ele>251.0</ele><time>2026-03-29T12:03:42Z</time></trkpt><trkpt lat="43.82022291736924" lon="7.619404155192949"><ele>249.33333333333331</ele><time>2026-03-29T12:03:43Z</time></trkpt><trkpt lat="43.82022030974339" lon="7.619514961342435"><ele>247.66666666666666</ele><time>2026-03-29T12:03:44Z</time></trkpt><trkpt lat="43.82020160006086" lon="7.619610563300932"><ele>246.0</ele><time>2026-03-29T12:03:45Z</time></trkpt><trkpt lat="43.820158339347266" lon="7.619689638983267"><ele>249.5714285714286</ele><time>2026-03-29T12:03:46Z</time></trkpt><trkpt lat="43.820081356773265" lon="7.619713512563118"><ele>253.14285714285717</ele><time>2026-03-29T12:03:47Z</time></trkpt><trkpt lat="43.820015849950906" lon="7.619712191641864"><ele>256.7142857142857</ele><time>2026-03-29T12:03:48Z</time></trkpt><trkpt lat="43.81994720570137" lon="7.619691638648713"><ele>260.28571428571433</ele><time>2026-03-29T12:03:49Z</time></trkpt><trkpt lat="43.81987660931437" lon="7.6196458930793165"><ele>263.8571428571429</ele><time>2026-03-29T12:03:50Z</time></trkpt><trkpt lat="43.81980457461444" lon="7.61959636841476"><ele>267.42857142857144</ele><time>2026-03-29T12:03:51Z</time></trkpt><trkpt lat="43.819747599174036" lon="7.6195443759494905"><ele>271.0</ele><time>2026-03-29T12:03:52Z</time></trkpt><trkpt lat="43.819659648167274" lon="7.619413208350914"><ele>274.3333333333333</ele><time>2026-03-29T12:03:54Z</time></trkpt><trkpt lat="43.819627963060356" lon="7.61933167708321"><ele>277.66666666666663</ele><time>2026-03-29T12:03:55Z</time></trkpt><trkpt lat="43.81960209172992" lon="7.619240279561217"><ele>281.0</ele><time>2026-03-29T12:03:56Z</time></trkpt><trkpt lat="43.81959543224371" lon="7.6191488850562346"><ele>284.3333333333333</ele><time>2026-03-29T12:03:57Z</time></trkpt><trkpt lat="43.81957492145591" lon="7.618994921048479"><ele>287.6666666666667</ele><time>2026-03-29T12:03:59Z</time></trkpt><trkpt lat="43.819560253999654" lon="7.618901150197887"><ele>291.0</ele><time>2026-03-29T12:04:00Z</time></trkpt><trkpt lat="43.81953689178487" lon="7.618788684601384"><ele>291.0</ele><time>2026-03-29T12:04:01Z</time></trkpt><trkpt lat="43.819508918638974" lon="7.618692890833231"><ele>291.0</ele><time>2026-03-29T12:04:02Z</time></trkpt><trkpt lat="43.819462599692585" lon="7.6186100354153865"><ele>291.0</ele><time>2026-03-29T12:04:03Z</time></trkpt><trkpt lat="43.81941201686519" lon="7.6185411083886185"><ele>291.0</ele><time>2026-03-29T12:04:04Z</time></trkpt><trkpt lat="43.81935877753815" lon="7.618475402105884"><ele>291.0</ele><time>2026-03-29T12:04:05Z</time></trkpt><trkpt lat="43.819294703911275" lon="7.6184090287661075"><ele>291.0</ele><time>2026-03-29T12:04:06Z</time></trkpt><trkpt lat="43.81922631956995" lon="7.618340266887097"><ele>291.6666666666667</ele><time>2026-03-29T12:04:07Z</time></trkpt><trkpt lat="43.81914907466011" lon="7.618281712281401"><ele>292.3333333333333</ele><time>2026-03-29T12:04:08Z</time></trkpt><trkpt lat="43.819104573360676" lon="7.6181886276561"><ele>293.0</ele><time>2026-03-29T12:04:09Z</time></trkpt><trkpt lat="43.819056219232955" lon="7.618100842322865"><ele>293.66666666666663</ele><time>2026-03-29T12:04:10Z</time></trkpt><trkpt lat="43.819013409412655" lon="7.618020330979741"><ele>294.3333333333333</ele><time>2026-03-29T12:04:11Z</time></trkpt><trkpt lat="43.81897656422923" lon="7.617946158292622"><ele>295.0</ele><time>2026-03-29T12:04:12Z</time></trkpt><trkpt lat="43.81892521165548" lon="7.617807848512059"><ele>295.0</ele><time>2026-03-29T12:04:14Z</time></trkpt><trkpt lat="43.818864660161374" lon="7.617660447122733"><ele>295.0</ele><time>2026-03-29T12:04:16Z</time></trkpt><trkpt lat="43.81883897892116" lon="7.617569531780356"><ele>295.0</ele><time>2026-03-29T12:04:17Z</time></trkpt><trkpt lat="43.81879876960483" lon="7.617484890810615"><ele>295.0</ele><time>2026-03-29T12:04:18Z</time></trkpt><trkpt lat="43.81875407615251" lon="7.617391382362486"><ele>295.0</ele><time>2026-03-29T12:04:19Z</time></trkpt><trkpt lat="43.81870191689413" lon="7.617301656855176"><ele>295.0</ele><time>2026-03-29T12:04:20Z</time></trkpt><trkpt lat="43.81865591027567" lon="7.617199596002088"><ele>295.0</ele><time>2026-03-29T12:04:21Z</time></trkpt><trkpt lat="43.81861308776679" lon="7.617096794719611"><ele>295.0</ele><time>2026-03-29T12:04:22Z</time></trkpt><trkpt lat="43.81857853498539" lon="7.616988320427141"><ele>295.0</ele><time>2026-03-29T12:04:23Z</time></trkpt><trkpt lat="43.81857329035608" lon="7.616859979399677"><ele>295.0</ele><time>2026-03-29T12:04:24Z</time></trkpt><trkpt lat="43.81857887260231" lon="7.616736406209416"><ele>295.0</ele><time>2026-03-29T12:04:25Z</time></trkpt><trkpt lat="43.81858839406601" lon="7.616607768451405"><ele>295.0</ele><time>2026-03-29T12:04:26Z</time></trkpt><trkpt lat="43.81860686878361" lon="7.616503367009384"><ele>295.6</ele><time>2026-03-29T12:04:27Z</time></trkpt><trkpt lat="43.81863116459654" lon="7.616401178785763"><ele>296.2</ele><time>2026-03-29T12:04:28Z</time></trkpt><trkpt lat="43.818681162553226" lon="7.61629107643102"><ele>296.8</ele><time>2026-03-29T12:04:29Z</time></trkpt><trkpt lat="43.81874461037399" lon="7.6161538034030185"><ele>297.4</ele><time>2026-03-29T12:04:30Z</time></trkpt><trkpt lat="43.81880474726183" lon="7.61602294841572"><ele>298.0</ele><time>2026-03-29T12:04:31Z</time></trkpt><trkpt lat="43.818858481042284" lon="7.6159054560229675"><ele>295.8333333333333</ele><time>2026-03-29T12:04:32Z</time></trkpt><trkpt lat="43.818911048530076" lon="7.61579051364792"><ele>293.66666666666663</ele><time>2026-03-29T12:04:33Z</time></trkpt><trkpt lat="43.81896026569998" lon="7.615683969835149"><ele>291.5</ele><time>2026-03-29T12:04:34Z</time></trkpt><trkpt lat="43.819005072507906" lon="7.615592497689111"><ele>289.3333333333333</ele><time>2026-03-29T12:04:35Z</time></trkpt><trkpt lat="43.819053265456446" lon="7.615512713681833"><ele>287.1666666666667</ele><time>2026-03-29T12:04:36Z</time></trkpt><trkpt lat="43.819116602130286" lon="7.6154430982554935"><ele>285.0</ele><time>2026-03-29T12:04:37Z</time></trkpt><trkpt lat="43.81918537926767" lon="7.615368725767594"><ele>283.6</ele><time>2026-03-29T12:04:38Z</time></trkpt><trkpt lat="43.81925504896416" lon="7.6153101725118315"><ele>282.2</ele><time>2026-03-29T12:04:39Z</time></trkpt><trkpt lat="43.819344476404474" lon="7.61526591825009"><ele>280.8</ele><time>2026-03-29T12:04:40Z</time></trkpt><trkpt lat="43.81945262567394" lon="7.615221043353546"><ele>279.4</ele><time>2026-03-29T12:04:41Z</time></trkpt><trkpt lat="43.81954797173979" lon="7.615190217538806"><ele>278.0</ele><time>2026-03-29T12:04:42Z</time></trkpt><trkpt lat="43.81964013162573" lon="7.615156709027004"><ele>278.0</ele><time>2026-03-29T12:04:43Z</time></trkpt><trkpt lat="43.81974708811436" lon="7.615117820608465"><ele>278.0</ele><time>2026-03-29T12:04:44Z</time></trkpt><trkpt lat="43.81986898763422" lon="7.615064293653019"><ele>278.0</ele><time>2026-03-29T12:04:45Z</time></trkpt><trkpt lat="43.8199722623834" lon="7.615018452010603"><ele>278.0</ele><time>2026-03-29T12:04:46Z</time></trkpt><trkpt lat="43.82005813686659" lon="7.614974378201007"><ele>278.0</ele><time>2026-03-29T12:04:47Z</time></trkpt><trkpt lat="43.8201279200555" lon="7.614895431481023"><ele>277.8</ele><time>2026-03-29T12:04:48Z</time></trkpt><trkpt lat="43.820200143102944" lon="7.614823461968041"><ele>277.6</ele><time>2026-03-29T12:04:49Z</time></trkpt><trkpt lat="43.820277586089375" lon="7.614730299263571"><ele>277.4</ele><time>2026-03-29T12:04:50Z</time></trkpt><trkpt lat="43.82037362454022" lon="7.614643546577786"><ele>277.2</ele><time>2026-03-29T12:04:51Z</time></trkpt><trkpt lat="43.82045841223358" lon="7.614544661569359"><ele>277.0</ele><time>2026-03-29T12:04:52Z</time></trkpt><trkpt lat="43.82051908878053" lon="7.614447633565596"><ele>277.0</ele><time>2026-03-29T12:04:53Z</time></trkpt><trkpt lat="43.820587541725985" lon="7.614370707162712"><ele>277.0</ele><time>2026-03-29T12:04:54Z</time></trkpt><trkpt lat="43.820656877951116" lon="7.614282471880721"><ele>277.0</ele><time>2026-03-29T12:04:55Z</time></trkpt><trkpt lat="43.82074158516311" lon="7.614213078973417"><ele>277.0</ele><time>2026-03-29T12:04:56Z</time></trkpt><trkpt lat="43.820818947008945" lon="7.6141256137490565"><ele>277.0</ele><time>2026-03-29T12:04:57Z</time></trkpt><trkpt lat="43.820905353402274" lon="7.614040298007329"><ele>283.2</ele><time>2026-03-29T12:04:58Z</time></trkpt><trkpt lat="43.82098984218884" lon="7.613960402118254"><ele>289.4</ele><time>2026-03-29T12:04:59Z</time></trkpt><trkpt lat="43.82107549933508" lon="7.613872796753733"><ele>295.6</ele><time>2026-03-29T12:05:00Z</time></trkpt><trkpt lat="43.82115617952209" lon="7.613800656410936"><ele>301.8</ele><time>2026-03-29T12:05:01Z</time></trkpt><trkpt lat="43.82122866451562" lon="7.613749093615427"><ele>308.0</ele><time>2026-03-29T12:05:02Z</time></trkpt><trkpt lat="43.821310695841994" lon="7.613716551120595"><ele>308.0</ele><time>2026-03-29T12:05:03Z</time></trkpt><trkpt lat="43.82141278935165" lon="7.613678227487848"><ele>308.0</ele><time>2026-03-29T12:05:04Z</time></trkpt><trkpt lat="43.821510268461665" lon="7.613640023672237"><ele>308.0</ele><time>2026-03-29T12:05:05Z</time></trkpt><trkpt lat="43.82160159349916" lon="7.613590649360393"><ele>308.0</ele><time>2026-03-29T12:05:06Z</time></trkpt><trkpt lat="43.82168686096927" lon="7.613514816241854"><ele>308.0</ele><time>2026-03-29T12:05:07Z</time></trkpt><trkpt lat="43.82178674235348" lon="7.613426743291359"><ele>306.5</ele><time>2026-03-29T12:05:08Z</time></trkpt><trkpt lat="43.821886708957564" lon="7.613353585065653"><ele>305.0</ele><time>2026-03-29T12:05:09Z</time></trkpt><trkpt lat="43.82199240859629" lon="7.613280301466815"><ele>303.5</ele><time>2026-03-29T12:05:10Z</time></trkpt><trkpt lat="43.822114199611896" lon="7.613195121472445"><ele>302.0</ele><time>2026-03-29T12:05:11Z</time></trkpt><trkpt lat="43.82224878601669" lon="7.613103109900012"><ele>302.0</ele><time>2026-03-29T12:05:12Z</time></trkpt><trkpt lat="43.82237503595689" lon="7.613015792541013"><ele>302.0</ele><time>2026-03-29T12:05:13Z</time></trkpt><trkpt lat="43.822482348199" lon="7.61294408776014"><ele>302.0</ele><time>2026-03-29T12:05:14Z</time></trkpt><trkpt lat="43.82256718932001" lon="7.612881443252857"><ele>302.0</ele><time>2026-03-29T12:05:15Z</time></trkpt><trkpt lat="43.822655058978484" lon="7.6128181175849035"><ele>303.5</ele><time>2026-03-29T12:05:16Z</time></trkpt><trkpt lat="43.822738496961335" lon="7.612729920566161"><ele>305.0</ele><time>2026-03-29T12:05:17Z</time></trkpt><trkpt lat="43.82282558178861" lon="7.612626164785711"><ele>306.5</ele><time>2026-03-29T12:05:18Z</time></trkpt><trkpt lat="43.82291333425024" lon="7.612523734107949"><ele>308.0</ele><time>2026-03-29T12:05:19Z</time></trkpt><trkpt lat="43.82300452580504" lon="7.612420489991904"><ele>308.0</ele><time>2026-03-29T12:05:20Z</time></trkpt><trkpt lat="43.823106739370886" lon="7.612309911850676"><ele>308.0</ele><time>2026-03-29T12:05:21Z</time></trkpt><trkpt lat="43.82321203485459" lon="7.612197050144546"><ele>308.0</ele><time>2026-03-29T12:05:22Z</time></trkpt><trkpt lat="43.823316023898315" lon="7.612086437307063"><ele>308.0</ele><time>2026-03-29T12:05:23Z</time></trkpt><trkpt lat="43.82341979398086" lon="7.611975842575062"><ele>310.0</ele><time>2026-03-29T12:05:24Z</time></trkpt><trkpt lat="43.823534889646325" lon="7.611852815882736"><ele>312.0</ele><time>2026-03-29T12:05:25Z</time></trkpt><trkpt lat="43.82363629920951" lon="7.611743621241542"><ele>314.0</ele><time>2026-03-29T12:05:26Z</time></trkpt><trkpt lat="43.82371965167167" lon="7.611650539140943"><ele>316.0</ele><time>2026-03-29T12:05:27Z</time></trkpt><trkpt lat="43.8237969880582" lon="7.611563119104288"><ele>316.0</ele><time>2026-03-29T12:05:28Z</time></trkpt><trkpt lat="43.82386630808328" lon="7.61148399068983"><ele>316.0</ele><time>2026-03-29T12:05:29Z</time></trkpt><trkpt lat="43.82394535300796" lon="7.611399726388415"><ele>316.0</ele><time>2026-03-29T12:05:30Z</time></trkpt><trkpt lat="43.8240254467039" lon="7.6113019561811806"><ele>316.0</ele><time>2026-03-29T12:05:31Z</time></trkpt><trkpt lat="43.82407738606832" lon="7.611192697751064"><ele>316.0</ele><time>2026-03-29T12:05:32Z</time></trkpt><trkpt lat="43.824121520223684" lon="7.611073977596028"><ele>319.20000000000005</ele><time>2026-03-29T12:05:33Z</time></trkpt><trkpt lat="43.82416607172302" lon="7.610942672766087"><ele>322.40000000000003</ele><time>2026-03-29T12:05:34Z</time></trkpt><trkpt lat="43.824207216510466" lon="7.61084436821461"><ele>325.6</ele><time>2026-03-29T12:05:35Z</time></trkpt><trkpt lat="43.82425536293505" lon="7.610756127481433"><ele>328.8</ele><time>2026-03-29T12:05:36Z</time></trkpt><trkpt lat="43.8243243099053" lon="7.6106583343725855"><ele>332.0</ele><time>2026-03-29T12:05:37Z</time></trkpt><trkpt lat="43.82440470859226" lon="7.610550895582343"><ele>332.0</ele><time>2026-03-29T12:05:38Z</time></trkpt><trkpt lat="43.824489807371485" lon="7.6104305728991015"><ele>332.0</ele><time>2026-03-29T12:05:39Z</time></trkpt><trkpt lat="43.82456205789764" lon="7.610328619281405"><ele>332.0</ele><time>2026-03-29T12:05:40Z</time></trkpt><trkpt lat="43.82462280390252" lon="7.610243562458361"><ele>332.0</ele><time>2026-03-29T12:05:41Z</time></trkpt><trkpt lat="43.82468983642762" lon="7.610150967875904"><ele>332.0</ele><time>2026-03-29T12:05:42Z</time></trkpt><trkpt lat="43.824759687341945" lon="7.610045855597657"><ele>329.20000000000005</ele><time>2026-03-29T12:05:43Z</time></trkpt><trkpt lat="43.82482335702411" lon="7.609950044872336"><ele>326.40000000000003</ele><time>2026-03-29T12:05:44Z</time></trkpt><trkpt lat="43.82488972278354" lon="7.6098553579768815"><ele>323.6</ele><time>2026-03-29T12:05:45Z</time></trkpt><trkpt lat="43.8249481004297" lon="7.609772781201322"><ele>320.8</ele><time>2026-03-29T12:05:46Z</time></trkpt><trkpt lat="43.824993176098076" lon="7.6097093953939074"><ele>318.0</ele><time>2026-03-29T12:05:47Z</time></trkpt><trkpt lat="43.82503068314235" lon="7.6095395166103925"><ele>318.0</ele><time>2026-03-29T12:05:49Z</time></trkpt><trkpt lat="43.825000209321075" lon="7.60945028788906"><ele>318.0</ele><time>2026-03-29T12:05:50Z</time></trkpt><trkpt lat="43.824920522828" lon="7.609411418599449"><ele>318.0</ele><time>2026-03-29T12:05:51Z</time></trkpt><trkpt lat="43.82485245951094" lon="7.609377744387427"><ele>318.0</ele><time>2026-03-29T12:05:52Z</time></trkpt><trkpt lat="43.824785482566085" lon="7.609353215441583"><ele>318.0</ele><time>2026-03-29T12:05:53Z</time></trkpt><trkpt lat="43.824708005961135" lon="7.609298913008201"><ele>318.0</ele><time>2026-03-29T12:05:55Z</time></trkpt><trkpt lat="43.82463525904093" lon="7.609262865270688"><ele>318.0</ele><time>2026-03-29T12:05:57Z</time></trkpt><trkpt lat="43.82456382910956" lon="7.60924924919486"><ele>318.0</ele><time>2026-03-29T12:05:58Z</time></trkpt><trkpt lat="43.82449971372991" lon="7.609209826202982"><ele>318.0</ele><time>2026-03-29T12:05:59Z</time></trkpt><trkpt lat="43.824428497910134" lon="7.609178631067551"><ele>318.0</ele><time>2026-03-29T12:06:00Z</time></trkpt><trkpt lat="43.82435923835829" lon="7.609157655714257"><ele>318.0</ele><time>2026-03-29T12:06:01Z</time></trkpt><trkpt lat="43.824289813347455" lon="7.609147240326333"><ele>318.0</ele><time>2026-03-29T12:06:02Z</time></trkpt><trkpt lat="43.82421395646766" lon="7.609133091424128"><ele>318.0</ele><time>2026-03-29T12:06:03Z</time></trkpt><trkpt lat="43.824138300337026" lon="7.609123149243781"><ele>316.0</ele><time>2026-03-29T12:06:04Z</time></trkpt><trkpt lat="43.82405462168124" lon="7.6091198404061675"><ele>314.0</ele><time>2026-03-29T12:06:05Z</time></trkpt><trkpt lat="43.82396506514268" lon="7.60907326812711"><ele>312.0</ele><time>2026-03-29T12:06:06Z</time></trkpt><trkpt lat="43.82386690487593" lon="7.609036095750124"><ele>310.0</ele><time>2026-03-29T12:06:07Z</time></trkpt><trkpt lat="43.82378422028811" lon="7.609005602464559"><ele>308.0</ele><time>2026-03-29T12:06:08Z</time></trkpt><trkpt lat="43.82369612886553" lon="7.608973450779735"><ele>308.0</ele><time>2026-03-29T12:06:09Z</time></trkpt><trkpt lat="43.823592806508415" lon="7.608956169477977"><ele>308.0</ele><time>2026-03-29T12:06:10Z</time></trkpt><trkpt lat="43.82348610946966" lon="7.608916344402191"><ele>308.0</ele><time>2026-03-29T12:06:11Z</time></trkpt><trkpt lat="43.82339271428708" lon="7.608877776550179"><ele>308.0</ele><time>2026-03-29T12:06:12Z</time></trkpt><trkpt lat="43.82330654689737" lon="7.6088401978160345"><ele>308.0</ele><time>2026-03-29T12:06:13Z</time></trkpt><trkpt lat="43.8232164236567" lon="7.608805556325577"><ele>307.0</ele><time>2026-03-29T12:06:14Z</time></trkpt><trkpt lat="43.8231148993299" lon="7.608789574502394"><ele>306.0</ele><time>2026-03-29T12:06:15Z</time></trkpt><trkpt lat="43.82301967135313" lon="7.608793386595096"><ele>305.0</ele><time>2026-03-29T12:06:16Z</time></trkpt><trkpt lat="43.822938902246364" lon="7.608808317177868"><ele>304.0</ele><time>2026-03-29T12:06:17Z</time></trkpt><trkpt lat="43.822865040498066" lon="7.6088471282435295"><ele>303.0</ele><time>2026-03-29T12:06:18Z</time></trkpt><trkpt lat="43.822790163185594" lon="7.608936704309329"><ele>303.0</ele><time>2026-03-29T12:06:19Z</time></trkpt><trkpt lat="43.82271302574911" lon="7.609029940950997"><ele>303.0</ele><time>2026-03-29T12:06:20Z</time></trkpt><trkpt lat="43.82264221545686" lon="7.609102819238809"><ele>303.0</ele><time>2026-03-29T12:06:21Z</time></trkpt><trkpt lat="43.82257655349046" lon="7.609160191660947"><ele>303.0</ele><time>2026-03-29T12:06:22Z</time></trkpt><trkpt lat="43.82249134510255" lon="7.609174420011611"><ele>303.0</ele><time>2026-03-29T12:06:23Z</time></trkpt><trkpt lat="43.82238826236562" lon="7.609213687435128"><ele>305.2</ele><time>2026-03-29T12:06:24Z</time></trkpt><trkpt lat="43.82227659041221" lon="7.609239713843564"><ele>307.4</ele><time>2026-03-29T12:06:25Z</time></trkpt><trkpt lat="43.822176068227485" lon="7.609267297434304"><ele>309.59999999999997</ele><time>2026-03-29T12:06:26Z</time></trkpt><trkpt lat="43.82208227727019" lon="7.609251699676461"><ele>311.8</ele><time>2026-03-29T12:06:27Z</time></trkpt><trkpt lat="43.821982377580106" lon="7.609248194425189"><ele>314.0</ele><time>2026-03-29T12:06:28Z</time></trkpt><trkpt lat="43.82190319163635" lon="7.609245415945593"><ele>314.0</ele><time>2026-03-29T12:06:29Z</time></trkpt><trkpt lat="43.82182088292936" lon="7.60923580438495"><ele>314.0</ele><time>2026-03-29T12:06:30Z</time></trkpt><trkpt lat="43.821717609095245" lon="7.609245636379974"><ele>314.0</ele><time>2026-03-29T12:06:31Z</time></trkpt><trkpt lat="43.82160549124346" lon="7.609269272743807"><ele>314.0</ele><time>2026-03-29T12:06:32Z</time></trkpt><trkpt lat="43.821493504578655" lon="7.609317258716868"><ele>314.0</ele><time>2026-03-29T12:06:33Z</time></trkpt><trkpt lat="43.82138643648145" lon="7.6093358590558715"><ele>315.5</ele><time>2026-03-29T12:06:34Z</time></trkpt><trkpt lat="43.82130044610817" lon="7.609350219709612"><ele>317.0</ele><time>2026-03-29T12:06:35Z</time></trkpt><trkpt lat="43.82121804221785" lon="7.609383128628623"><ele>318.5</ele><time>2026-03-29T12:06:36Z</time></trkpt><trkpt lat="43.82114482865209" lon="7.609457709395542"><ele>320.0</ele><time>2026-03-29T12:06:37Z</time></trkpt><trkpt lat="43.82106949274988" lon="7.609530132109869"><ele>321.5</ele><time>2026-03-29T12:06:38Z</time></trkpt><trkpt lat="43.82098135427435" lon="7.609573936925468"><ele>323.0</ele><time>2026-03-29T12:06:39Z</time></trkpt><trkpt lat="43.82090776370134" lon="7.609616424353457"><ele>321.33333333333337</ele><time>2026-03-29T12:06:40Z</time></trkpt><trkpt lat="43.8208507683839" lon="7.609654999915769"><ele>319.6666666666667</ele><time>2026-03-29T12:06:41Z</time></trkpt><trkpt lat="43.82075874377423" lon="7.609584586383996"><ele>318.0</ele><time>2026-03-29T12:06:43Z</time></trkpt><trkpt lat="43.82077208388058" lon="7.609469321318839"><ele>316.3333333333333</ele><time>2026-03-29T12:06:44Z</time></trkpt><trkpt lat="43.82076178173316" lon="7.609336554659935"><ele>314.66666666666663</ele><time>2026-03-29T12:06:45Z</time></trkpt><trkpt lat="43.8207665212383" lon="7.609226171671776"><ele>313.0</ele><time>2026-03-29T12:06:46Z</time></trkpt><trkpt lat="43.820772957065955" lon="7.609100894697355"><ele>313.0</ele><time>2026-03-29T12:06:47Z</time></trkpt><trkpt lat="43.82078852970399" lon="7.608960402565507"><ele>313.0</ele><time>2026-03-29T12:06:48Z</time></trkpt><trkpt lat="43.82080744877591" lon="7.608825811164925"><ele>313.0</ele><time>2026-03-29T12:06:49Z</time></trkpt><trkpt lat="43.82082310388985" lon="7.608707876734257"><ele>313.0</ele><time>2026-03-29T12:06:50Z</time></trkpt><trkpt lat="43.820829353266134" lon="7.608588462159797"><ele>313.0</ele><time>2026-03-29T12:06:51Z</time></trkpt><trkpt lat="43.82080249156508" lon="7.608480787651807"><ele>315.6</ele><time>2026-03-29T12:06:52Z</time></trkpt><trkpt lat="43.82075814629345" lon="7.608379576569806"><ele>318.20000000000005</ele><time>2026-03-29T12:06:53Z</time></trkpt><trkpt lat="43.820693313216935" lon="7.608316643969548"><ele>320.8</ele><time>2026-03-29T12:06:54Z</time></trkpt><trkpt lat="43.82060807120954" lon="7.608268600606423"><ele>323.40000000000003</ele><time>2026-03-29T12:06:55Z</time></trkpt><trkpt lat="43.8204877323638" lon="7.608256722505717"><ele>326.0</ele><time>2026-03-29T12:06:56Z</time></trkpt><trkpt lat="43.82039098826685" lon="7.60825410101148"><ele>326.0</ele><time>2026-03-29T12:06:57Z</time></trkpt><trkpt lat="43.82032297441997" lon="7.608176646309005"><ele>326.0</ele><time>2026-03-29T12:06:58Z</time></trkpt><trkpt lat="43.82023554541504" lon="7.608125224066618"><ele>326.0</ele><time>2026-03-29T12:06:59Z</time></trkpt><trkpt lat="43.82016300392664" lon="7.60805548570867"><ele>326.0</ele><time>2026-03-29T12:07:00Z</time></trkpt><trkpt lat="43.82009466700646" lon="7.608010478947458"><ele>326.0</ele><time>2026-03-29T12:07:01Z</time></trkpt><trkpt lat="43.82003123389453" lon="7.608003512418742"><ele>326.0</ele><time>2026-03-29T12:07:02Z</time></trkpt><trkpt lat="43.819967930631535" lon="7.608056006601225"><ele>324.0</ele><time>2026-03-29T12:07:03Z</time></trkpt><trkpt lat="43.81989553150805" lon="7.608153587765524"><ele>322.0</ele><time>2026-03-29T12:07:04Z</time></trkpt><trkpt lat="43.81982358396058" lon="7.60823221761208"><ele>320.0</ele><time>2026-03-29T12:07:05Z</time></trkpt><trkpt lat="43.81973996332101" lon="7.60828645682521"><ele>318.0</ele><time>2026-03-29T12:07:06Z</time></trkpt><trkpt lat="43.81966001321466" lon="7.608381099529236"><ele>316.0</ele><time>2026-03-29T12:07:07Z</time></trkpt><trkpt lat="43.81954893768001" lon="7.608449854034299"><ele>316.0</ele><time>2026-03-29T12:07:08Z</time></trkpt><trkpt lat="43.819441820538785" lon="7.6085082949239755"><ele>316.0</ele><time>2026-03-29T12:07:09Z</time></trkpt><trkpt lat="43.819358837068386" lon="7.608569744236189"><ele>316.0</ele><time>2026-03-29T12:07:10Z</time></trkpt><trkpt lat="43.819259759367945" lon="7.608607707333875"><ele>316.0</ele><time>2026-03-29T12:07:11Z</time></trkpt><trkpt lat="43.81916476882304" lon="7.60866963269525"><ele>316.0</ele><time>2026-03-29T12:07:12Z</time></trkpt><trkpt lat="43.81909278922964" lon="7.608763587144589"><ele>314.2</ele><time>2026-03-29T12:07:13Z</time></trkpt><trkpt lat="43.819021823454115" lon="7.608851478571252"><ele>312.40000000000003</ele><time>2026-03-29T12:07:14Z</time></trkpt><trkpt lat="43.818941872503174" lon="7.608952084286727"><ele>310.6</ele><time>2026-03-29T12:07:15Z</time></trkpt><trkpt lat="43.8188654027111" lon="7.609050881701258"><ele>308.8</ele><time>2026-03-29T12:07:16Z</time></trkpt><trkpt lat="43.81878507013001" lon="7.609139420681261"><ele>307.0</ele><time>2026-03-29T12:07:17Z</time></trkpt><trkpt lat="43.81869991660309" lon="7.609247196817565"><ele>307.0</ele><time>2026-03-29T12:07:18Z</time></trkpt><trkpt lat="43.818613996922224" lon="7.609358496876685"><ele>307.0</ele><time>2026-03-29T12:07:19Z</time></trkpt><trkpt lat="43.81854107376899" lon="7.609441454914161"><ele>307.0</ele><time>2026-03-29T12:07:20Z</time></trkpt><trkpt lat="43.81846960411168" lon="7.609524156718319"><ele>307.0</ele><time>2026-03-29T12:07:21Z</time></trkpt><trkpt lat="43.81840222015747" lon="7.609628308221794"><ele>307.0</ele><time>2026-03-29T12:07:22Z</time></trkpt><trkpt lat="43.81833779979772" lon="7.609722600321801"><ele>308.4</ele><time>2026-03-29T12:07:23Z</time></trkpt><trkpt lat="43.818272778070515" lon="7.609812039452939"><ele>309.79999999999995</ele><time>2026-03-29T12:07:24Z</time></trkpt><trkpt lat="43.81820026302946" lon="7.609897057309152"><ele>311.2</ele><time>2026-03-29T12:07:25Z</time></trkpt><trkpt lat="43.81811175229796" lon="7.609988081163397"><ele>312.59999999999997</ele><time>2026-03-29T12:07:26Z</time></trkpt><trkpt lat="43.81802190309045" lon="7.610075951188424"><ele>314.0</ele><time>2026-03-29T12:07:27Z</time></trkpt><trkpt lat="43.817933747382554" lon="7.610169699411456"><ele>314.0</ele><time>2026-03-29T12:07:28Z</time></trkpt><trkpt lat="43.817847712658825" lon="7.610265387787783"><ele>314.0</ele><time>2026-03-29T12:07:29Z</time></trkpt><trkpt lat="43.81775092942666" lon="7.610355103651432"><ele>314.0</ele><time>2026-03-29T12:07:30Z</time></trkpt><trkpt lat="43.81766401959973" lon="7.610424079349276"><ele>314.0</ele><time>2026-03-29T12:07:31Z</time></trkpt><trkpt lat="43.81759289381066" lon="7.610492829203738"><ele>314.0</ele><time>2026-03-29T12:07:32Z</time></trkpt><trkpt lat="43.81753590290502" lon="7.610556257095018"><ele>311.59999999999997</ele><time>2026-03-29T12:07:33Z</time></trkpt><trkpt lat="43.81748381093226" lon="7.610609577002234"><ele>309.2</ele><time>2026-03-29T12:07:34Z</time></trkpt><trkpt lat="43.81735613505866" lon="7.610689508546848"><ele>306.79999999999995</ele><time>2026-03-29T12:07:36Z</time></trkpt><trkpt lat="43.81725730199044" lon="7.610720269069456"><ele>304.4</ele><time>2026-03-29T12:07:37Z</time></trkpt><trkpt lat="43.81717732791274" lon="7.6107654978324835"><ele>302.0</ele><time>2026-03-29T12:07:38Z</time></trkpt><trkpt lat="43.817107123128196" lon="7.610807642824654"><ele>302.0</ele><time>2026-03-29T12:07:39Z</time></trkpt><trkpt lat="43.817021525568386" lon="7.610862092675131"><ele>302.0</ele><time>2026-03-29T12:07:40Z</time></trkpt><trkpt lat="43.81694108437701" lon="7.610906799759876"><ele>302.0</ele><time>2026-03-29T12:07:41Z</time></trkpt><trkpt lat="43.81686568110545" lon="7.610948181758506"><ele>302.0</ele><time>2026-03-29T12:07:42Z</time></trkpt><trkpt lat="43.81679792829968" lon="7.610984112788359"><ele>302.0</ele><time>2026-03-29T12:07:43Z</time></trkpt><trkpt lat="43.816727863163784" lon="7.611007894808896"><ele>302.0</ele><time>2026-03-29T12:07:44Z</time></trkpt><trkpt lat="43.816638548789506" lon="7.6109814449236515"><ele>306.6</ele><time>2026-03-29T12:07:45Z</time></trkpt><trkpt lat="43.81653370890121" lon="7.610984428012765"><ele>311.2</ele><time>2026-03-29T12:07:46Z</time></trkpt><trkpt lat="43.81643881960578" lon="7.610970714468988"><ele>315.8</ele><time>2026-03-29T12:07:47Z</time></trkpt><trkpt lat="43.81633735156803" lon="7.6109940880933555"><ele>320.4</ele><time>2026-03-29T12:07:48Z</time></trkpt><trkpt lat="43.816229474589754" lon="7.61104746634577"><ele>325.0</ele><time>2026-03-29T12:07:49Z</time></trkpt><trkpt lat="43.816135354391825" lon="7.6110967804564895"><ele>325.0</ele><time>2026-03-29T12:07:50Z</time></trkpt><trkpt lat="43.81605722652036" lon="7.611134434817869"><ele>325.0</ele><time>2026-03-29T12:07:51Z</time></trkpt><trkpt lat="43.815985354590865" lon="7.611202845491349"><ele>325.0</ele><time>2026-03-29T12:07:52Z</time></trkpt><trkpt lat="43.81590635239704" lon="7.611287535542186"><ele>325.0</ele><time>2026-03-29T12:07:53Z</time></trkpt><trkpt lat="43.81582583821621" lon="7.6113712397106825"><ele>325.0</ele><time>2026-03-29T12:07:54Z</time></trkpt><trkpt lat="43.815752260927304" lon="7.611461640895891"><ele>322.5</ele><time>2026-03-29T12:07:55Z</time></trkpt><trkpt lat="43.81569246472108" lon="7.611543446813037"><ele>320.0</ele><time>2026-03-29T12:07:56Z</time></trkpt><trkpt lat="43.81563927713005" lon="7.611626246673623"><ele>317.5</ele><time>2026-03-29T12:07:57Z</time></trkpt><trkpt lat="43.8155898656633" lon="7.6116973671667765"><ele>315.0</ele><time>2026-03-29T12:07:58Z</time></trkpt><trkpt lat="43.81553701064557" lon="7.611751749879934"><ele>312.5</ele><time>2026-03-29T12:07:59Z</time></trkpt><trkpt lat="43.815452737933384" lon="7.6117541112719636"><ele>310.0</ele><time>2026-03-29T12:08:00Z</time></trkpt><trkpt lat="43.81535058749015" lon="7.611765815961748"><ele>310.0</ele><time>2026-03-29T12:08:01Z</time></trkpt><trkpt lat="43.81524645274345" lon="7.611801064757928"><ele>310.0</ele><time>2026-03-29T12:08:02Z</time></trkpt><trkpt lat="43.81515777473302" lon="7.611818615655527"><ele>310.0</ele><time>2026-03-29T12:08:03Z</time></trkpt><trkpt lat="43.815080834912116" lon="7.6118320785336016"><ele>310.0</ele><time>2026-03-29T12:08:04Z</time></trkpt><trkpt lat="43.815000891408054" lon="7.611820440761199"><ele>310.0</ele><time>2026-03-29T12:08:05Z</time></trkpt><trkpt lat="43.81491746428827" lon="7.611809038128489"><ele>310.0</ele><time>2026-03-29T12:08:06Z</time></trkpt><trkpt lat="43.8148328289655" lon="7.611756489511542"><ele>312.3333333333333</ele><time>2026-03-29T12:08:07Z</time></trkpt><trkpt lat="43.81473946703118" lon="7.61170638056948"><ele>314.66666666666663</ele><time>2026-03-29T12:08:08Z</time></trkpt><trkpt lat="43.8146581328706" lon="7.6116938804840455"><ele>317.0</ele><time>2026-03-29T12:08:09Z</time></trkpt><trkpt lat="43.81458354967089" lon="7.611688200342477"><ele>319.3333333333333</ele><time>2026-03-29T12:08:10Z</time></trkpt><trkpt lat="43.8145181161992" lon="7.611724702352473"><ele>321.6666666666667</ele><time>2026-03-29T12:08:11Z</time></trkpt><trkpt lat="43.814467017510154" lon="7.6117875553699275"><ele>324.0</ele><time>2026-03-29T12:08:12Z</time></trkpt><trkpt lat="43.81437103302093" lon="7.611834736957043"><ele>324.1666666666667</ele><time>2026-03-29T12:08:14Z</time></trkpt><trkpt lat="43.81430460775677" lon="7.611883681407676"><ele>324.3333333333333</ele><time>2026-03-29T12:08:15Z</time></trkpt><trkpt lat="43.81423533177089" lon="7.61194868990024"><ele>324.5</ele><time>2026-03-29T12:08:16Z</time></trkpt><trkpt lat="43.81414936577636" lon="7.61195722670003"><ele>324.66666666666663</ele><time>2026-03-29T12:08:17Z</time></trkpt><trkpt lat="43.81408315077911" lon="7.611981675641629"><ele>324.8333333333333</ele><time>2026-03-29T12:08:18Z</time></trkpt><trkpt lat="43.814029107146204" lon="7.611908464385083"><ele>325.0</ele><time>2026-03-29T12:08:19Z</time></trkpt><trkpt lat="43.81398137555334" lon="7.611831547587313"><ele>325.0</ele><time>2026-03-29T12:08:20Z</time></trkpt><trkpt lat="43.81393989613128" lon="7.611735218169576"><ele>325.0</ele><time>2026-03-29T12:08:21Z</time></trkpt><trkpt lat="43.81387735998294" lon="7.611658091276431"><ele>325.0</ele><time>2026-03-29T12:08:22Z</time></trkpt><trkpt lat="43.81383182640665" lon="7.611576815753265"><ele>325.0</ele><time>2026-03-29T12:08:23Z</time></trkpt><trkpt lat="43.813807659613495" lon="7.611481653220703"><ele>325.0</ele><time>2026-03-29T12:08:24Z</time></trkpt><trkpt lat="43.81378518931109" lon="7.611385668359745"><ele>325.0</ele><time>2026-03-29T12:08:25Z</time></trkpt><trkpt lat="43.813792449524314" lon="7.611282430620799"><ele>325.0</ele><time>2026-03-29T12:08:26Z</time></trkpt><trkpt lat="43.813813473928" lon="7.611171679141929"><ele>325.0</ele><time>2026-03-29T12:08:27Z</time></trkpt><trkpt lat="43.813850268059134" lon="7.611085411845097"><ele>325.0</ele><time>2026-03-29T12:08:28Z</time></trkpt><trkpt lat="43.81390502009596" lon="7.61100579202808"><ele>325.0</ele><time>2026-03-29T12:08:29Z</time></trkpt><trkpt lat="43.81396829434467" lon="7.6109506449099"><ele>325.0</ele><time>2026-03-29T12:08:30Z</time></trkpt><trkpt lat="43.814061766619986" lon="7.6109108630106626"><ele>325.0</ele><time>2026-03-29T12:08:31Z</time></trkpt><trkpt lat="43.81416719015684" lon="7.610835894945047"><ele>325.4</ele><time>2026-03-29T12:08:32Z</time></trkpt><trkpt lat="43.81425292076016" lon="7.6107563119593165"><ele>325.8</ele><time>2026-03-29T12:08:33Z</time></trkpt><trkpt lat="43.81434000112634" lon="7.610662388829972"><ele>326.20000000000005</ele><time>2026-03-29T12:08:34Z</time></trkpt><trkpt lat="43.814417630967" lon="7.610580122680548"><ele>326.6</ele><time>2026-03-29T12:08:35Z</time></trkpt><trkpt lat="43.814493160881945" lon="7.61052306018871"><ele>327.0</ele><time>2026-03-29T12:08:36Z</time></trkpt><trkpt lat="43.81457560038147" lon="7.610455540272717"><ele>330.20000000000005</ele><time>2026-03-29T12:08:37Z</time></trkpt><trkpt lat="43.8146498397943" lon="7.610388083124935"><ele>333.4</ele><time>2026-03-29T12:08:38Z</time></trkpt><trkpt lat="43.81472488289213" lon="7.610311172192129"><ele>336.6</ele><time>2026-03-29T12:08:39Z</time></trkpt><trkpt lat="43.81479414736294" lon="7.610237636393252"><ele>339.79999999999995</ele><time>2026-03-29T12:08:40Z</time></trkpt><trkpt lat="43.814853665218806" lon="7.610120211295582"><ele>343.0</ele><time>2026-03-29T12:08:41Z</time></trkpt><trkpt lat="43.81492480739218" lon="7.610040686523701"><ele>343.0</ele><time>2026-03-29T12:08:42Z</time></trkpt><trkpt lat="43.81499127309689" lon="7.609969438425296"><ele>343.0</ele><time>2026-03-29T12:08:43Z</time></trkpt><trkpt lat="43.81505462175016" lon="7.6099006324258465"><ele>343.0</ele><time>2026-03-29T12:08:44Z</time></trkpt><trkpt lat="43.81513352988426" lon="7.609861729962185"><ele>343.0</ele><time>2026-03-29T12:08:45Z</time></trkpt><trkpt lat="43.81518862270462" lon="7.609789517134131"><ele>343.0</ele><time>2026-03-29T12:08:46Z</time></trkpt><trkpt lat="43.815237787597574" lon="7.609720255831626"><ele>343.0</ele><time>2026-03-29T12:08:47Z</time></trkpt><trkpt lat="43.81528354047695" lon="7.609648573209949"><ele>343.0</ele><time>2026-03-29T12:08:48Z</time></trkpt><trkpt lat="43.81531643126861" lon="7.609570770215447"><ele>343.0</ele><time>2026-03-29T12:08:49Z</time></trkpt><trkpt lat="43.815299923276015" lon="7.609480193807766"><ele>343.0</ele><time>2026-03-29T12:08:50Z</time></trkpt><trkpt lat="43.81522951269714" lon="7.609429733824125"><ele>343.0</ele><time>2026-03-29T12:08:51Z</time></trkpt><trkpt lat="43.815162357051186" lon="7.609413372217184"><ele>343.0</ele><time>2026-03-29T12:08:52Z</time></trkpt><trkpt lat="43.815078653182965" lon="7.609451495143959"><ele>343.0</ele><time>2026-03-29T12:08:53Z</time></trkpt><trkpt lat="43.814993989568045" lon="7.6095082161084235"><ele>343.0</ele><time>2026-03-29T12:08:54Z</time></trkpt><trkpt lat="43.81493743052842" lon="7.609552630876924"><ele>343.0</ele><time>2026-03-29T12:08:55Z</time></trkpt><trkpt lat="43.81485714746801" lon="7.609543761365334"><ele>343.0</ele><time>2026-03-29T12:08:56Z</time></trkpt><trkpt lat="43.814765755550646" lon="7.609564697631903"><ele>343.0</ele><time>2026-03-29T12:08:57Z</time></trkpt><trkpt lat="43.814657280984754" lon="7.609550093688977"><ele>343.0</ele><time>2026-03-29T12:08:58Z</time></trkpt><trkpt lat="43.81453794487624" lon="7.609542623241386"><ele>343.0</ele><time>2026-03-29T12:08:59Z</time></trkpt><trkpt lat="43.81442562337245" lon="7.609523467883117"><ele>343.0</ele><time>2026-03-29T12:09:00Z</time></trkpt><trkpt lat="43.81432126276141" lon="7.609504963458713"><ele>343.0</ele><time>2026-03-29T12:09:01Z</time></trkpt><trkpt lat="43.81422185182997" lon="7.609493336134844"><ele>343.0</ele><time>2026-03-29T12:09:02Z</time></trkpt><trkpt lat="43.81411896547266" lon="7.609510758185614"><ele>343.0</ele><time>2026-03-29T12:09:03Z</time></trkpt><trkpt lat="43.81401231366678" lon="7.609539247384246"><ele>339.59999999999997</ele><time>2026-03-29T12:09:04Z</time></trkpt><trkpt lat="43.813894978384226" lon="7.609564164892673"><ele>336.2</ele><time>2026-03-29T12:09:05Z</time></trkpt><trkpt lat="43.813785649747764" lon="7.609578796930932"><ele>332.8</ele><time>2026-03-29T12:09:06Z</time></trkpt><trkpt lat="43.813688147666234" lon="7.60959369956159"><ele>329.4</ele><time>2026-03-29T12:09:07Z</time></trkpt><trkpt lat="43.813585373641715" lon="7.609601852825142"><ele>326.0</ele><time>2026-03-29T12:09:08Z</time></trkpt><trkpt lat="43.813466979262806" lon="7.609605816093705"><ele>326.0</ele><time>2026-03-29T12:09:09Z</time></trkpt><trkpt lat="43.81334759555914" lon="7.609590489366507"><ele>326.0</ele><time>2026-03-29T12:09:10Z</time></trkpt><trkpt lat="43.81323491180601" lon="7.609588073325295"><ele>326.0</ele><time>2026-03-29T12:09:11Z</time></trkpt><trkpt lat="43.81311366631534" lon="7.60955752466977"><ele>326.0</ele><time>2026-03-29T12:09:12Z</time></trkpt><trkpt lat="43.813006216302085" lon="7.609525708707568"><ele>326.0</ele><time>2026-03-29T12:09:13Z</time></trkpt><trkpt lat="43.81291087164388" lon="7.609505059353769"><ele>326.0</ele><time>2026-03-29T12:09:14Z</time></trkpt><trkpt lat="43.8128308443503" lon="7.60948568807235"><ele>326.0</ele><time>2026-03-29T12:09:15Z</time></trkpt><trkpt lat="43.81275547655466" lon="7.609465408275535"><ele>326.0</ele><time>2026-03-29T12:09:16Z</time></trkpt><trkpt lat="43.81267654778078" lon="7.609443574031125"><ele>326.0</ele><time>2026-03-29T12:09:17Z</time></trkpt><trkpt lat="43.812595311696676" lon="7.609403109719763"><ele>326.0</ele><time>2026-03-29T12:09:18Z</time></trkpt><trkpt lat="43.81252203779945" lon="7.60934803891559"><ele>328.6</ele><time>2026-03-29T12:09:19Z</time></trkpt><trkpt lat="43.812464047656356" lon="7.6092779842137945"><ele>331.20000000000005</ele><time>2026-03-29T12:09:20Z</time></trkpt><trkpt lat="43.812421089496944" lon="7.6091994082501815"><ele>333.79999999999995</ele><time>2026-03-29T12:09:21Z</time></trkpt><trkpt lat="43.812425062459226" lon="7.609081319166978"><ele>336.4</ele><time>2026-03-29T12:09:22Z</time></trkpt><trkpt lat="43.81240849555613" lon="7.6089199239366145"><ele>339.0</ele><time>2026-03-29T12:09:23Z</time></trkpt><trkpt lat="43.81239963113647" lon="7.608767686444587"><ele>341.0</ele><time>2026-03-29T12:09:24Z</time></trkpt><trkpt lat="43.812390579859326" lon="7.60865027794174"><ele>343.0</ele><time>2026-03-29T12:09:25Z</time></trkpt><trkpt lat="43.81238337861342" lon="7.608558425667104"><ele>345.0</ele><time>2026-03-29T12:09:26Z</time></trkpt><trkpt lat="43.81240594643345" lon="7.6083934132429505"><ele>347.0</ele><time>2026-03-29T12:09:28Z</time></trkpt><trkpt lat="43.81246399516284" lon="7.608302025683998"><ele>349.0</ele><time>2026-03-29T12:09:29Z</time></trkpt><trkpt lat="43.81250531012123" lon="7.608194890620554"><ele>351.0</ele><time>2026-03-29T12:09:30Z</time></trkpt><trkpt lat="43.812488785211535" lon="7.608087911477877"><ele>351.0</ele><time>2026-03-29T12:09:31Z</time></trkpt><trkpt lat="43.81246057699449" lon="7.607996950004377"><ele>351.0</ele><time>2026-03-29T12:09:32Z</time></trkpt><trkpt lat="43.812402081092316" lon="7.607944399721304"><ele>351.0</ele><time>2026-03-29T12:09:33Z</time></trkpt><trkpt lat="43.81233190568182" lon="7.60793383492521"><ele>351.0</ele><time>2026-03-29T12:09:34Z</time></trkpt><trkpt lat="43.812267347860185" lon="7.607994070814593"><ele>351.0</ele><time>2026-03-29T12:09:35Z</time></trkpt><trkpt lat="43.81220039953996" lon="7.608062384761082"><ele>351.0</ele><time>2026-03-29T12:09:36Z</time></trkpt><trkpt lat="43.812123077092636" lon="7.6081418267247445"><ele>351.0</ele><time>2026-03-29T12:09:37Z</time></trkpt><trkpt lat="43.8120427527585" lon="7.60819614220752"><ele>351.0</ele><time>2026-03-29T12:09:38Z</time></trkpt><trkpt lat="43.811963065944155" lon="7.608234324128134"><ele>351.0</ele><time>2026-03-29T12:09:39Z</time></trkpt><trkpt lat="43.811875673747245" lon="7.608270166188597"><ele>351.0</ele><time>2026-03-29T12:09:40Z</time></trkpt><trkpt lat="43.811794372615026" lon="7.608311840215323"><ele>351.0</ele><time>2026-03-29T12:09:41Z</time></trkpt><trkpt lat="43.81172702448612" lon="7.608364712972517"><ele>351.0</ele><time>2026-03-29T12:09:42Z</time></trkpt><trkpt lat="43.811665214913" lon="7.608425127195393"><ele>350.5</ele><time>2026-03-29T12:09:43Z</time></trkpt><trkpt lat="43.8115962312056" lon="7.608484155432623"><ele>350.0</ele><time>2026-03-29T12:09:44Z</time></trkpt><trkpt lat="43.81152688786711" lon="7.608536809089201"><ele>349.5</ele><time>2026-03-29T12:09:45Z</time></trkpt><trkpt lat="43.81146225588065" lon="7.608580968291275"><ele>349.0</ele><time>2026-03-29T12:09:46Z</time></trkpt><trkpt lat="43.81139853588981" lon="7.608628563838391"><ele>348.5</ele><time>2026-03-29T12:09:47Z</time></trkpt><trkpt lat="43.81132530696374" lon="7.608665803478144"><ele>348.0</ele><time>2026-03-29T12:09:48Z</time></trkpt><trkpt lat="43.81122867640661" lon="7.608678417772979"><ele>344.0</ele><time>2026-03-29T12:09:49Z</time></trkpt><trkpt lat="43.81112770989788" lon="7.608699400182655"><ele>340.0</ele><time>2026-03-29T12:09:50Z</time></trkpt><trkpt lat="43.81103762815672" lon="7.608727946384829"><ele>336.0</ele><time>2026-03-29T12:09:51Z</time></trkpt><trkpt lat="43.810952456728685" lon="7.6087377271751375"><ele>332.0</ele><time>2026-03-29T12:09:52Z</time></trkpt><trkpt lat="43.81086876055829" lon="7.608734275763179"><ele>328.0</ele><time>2026-03-29T12:09:53Z</time></trkpt><trkpt lat="43.81078959729596" lon="7.608732128629037"><ele>324.0</ele><time>2026-03-29T12:09:54Z</time></trkpt><trkpt lat="43.81071463665631" lon="7.60873180099485"><ele>324.0</ele><time>2026-03-29T12:09:55Z</time></trkpt><trkpt lat="43.8106442865901" lon="7.608719136891137"><ele>324.0</ele><time>2026-03-29T12:09:56Z</time></trkpt><trkpt lat="43.810589625182914" lon="7.608642825759839"><ele>324.0</ele><time>2026-03-29T12:09:57Z</time></trkpt><trkpt lat="43.81052408869759" lon="7.608564035283298"><ele>324.0</ele><time>2026-03-29T12:09:58Z</time></trkpt><trkpt lat="43.81044793602658" lon="7.608493615252503"><ele>324.0</ele><time>2026-03-29T12:09:59Z</time></trkpt><trkpt lat="43.81038591594802" lon="7.6084206094146944"><ele>324.0</ele><time>2026-03-29T12:10:00Z</time></trkpt><trkpt lat="43.81032155028072" lon="7.608362518134909"><ele>324.3333333333333</ele><time>2026-03-29T12:10:01Z</time></trkpt><trkpt lat="43.81025588546791" lon="7.608313830830023"><ele>324.6666666666667</ele><time>2026-03-29T12:10:02Z</time></trkpt><trkpt lat="43.81018540079682" lon="7.6082618917219484"><ele>325.0</ele><time>2026-03-29T12:10:03Z</time></trkpt><trkpt lat="43.810113541871864" lon="7.6082052017588575"><ele>325.33333333333337</ele><time>2026-03-29T12:10:04Z</time></trkpt><trkpt lat="43.81004591931062" lon="7.60814725908281"><ele>325.6666666666667</ele><time>2026-03-29T12:10:05Z</time></trkpt><trkpt lat="43.80998199934784" lon="7.608096402092514"><ele>326.0</ele><time>2026-03-29T12:10:06Z</time></trkpt><trkpt lat="43.80992214400203" lon="7.608050734477826"><ele>326.0</ele><time>2026-03-29T12:10:07Z</time></trkpt><trkpt lat="43.80982513713736" lon="7.60797369245808"><ele>326.0</ele><time>2026-03-29T12:10:09Z</time></trkpt><trkpt lat="43.8097286514443" lon="7.6079064385027175"><ele>326.0</ele><time>2026-03-29T12:10:11Z</time></trkpt><trkpt lat="43.80959699384926" lon="7.607933431285097"><ele>326.0</ele><time>2026-03-29T12:10:13Z</time></trkpt><trkpt lat="43.80954266777006" lon="7.608015767243273"><ele>326.0</ele><time>2026-03-29T12:10:14Z</time></trkpt><trkpt lat="43.80948631509452" lon="7.608104632209234"><ele>326.0</ele><time>2026-03-29T12:10:15Z</time></trkpt><trkpt lat="43.80942238549412" lon="7.6081899720371835"><ele>326.0</ele><time>2026-03-29T12:10:16Z</time></trkpt><trkpt lat="43.80935241081679" lon="7.608281032671056"><ele>326.0</ele><time>2026-03-29T12:10:17Z</time></trkpt><trkpt lat="43.80928701980944" lon="7.608362227303639"><ele>326.0</ele><time>2026-03-29T12:10:18Z</time></trkpt><trkpt lat="43.8092173360648" lon="7.608443643746922"><ele>326.0</ele><time>2026-03-29T12:10:19Z</time></trkpt><trkpt lat="43.80915226519797" lon="7.608540895172492"><ele>323.6666666666667</ele><time>2026-03-29T12:10:20Z</time></trkpt><trkpt lat="43.80909760351292" lon="7.608620385354158"><ele>321.33333333333337</ele><time>2026-03-29T12:10:21Z</time></trkpt><trkpt lat="43.80906041993487" lon="7.608729352928275"><ele>319.0</ele><time>2026-03-29T12:10:22Z</time></trkpt><trkpt lat="43.80902021287101" lon="7.608830238607316"><ele>316.6666666666667</ele><time>2026-03-29T12:10:23Z</time></trkpt><trkpt lat="43.80896844999892" lon="7.608915898490161"><ele>314.3333333333333</ele><time>2026-03-29T12:10:24Z</time></trkpt><trkpt lat="43.808901617106" lon="7.608993977248637"><ele>312.0</ele><time>2026-03-29T12:10:25Z</time></trkpt><trkpt lat="43.808819509511046" lon="7.609075210930098"><ele>310.8</ele><time>2026-03-29T12:10:26Z</time></trkpt><trkpt lat="43.808727605948654" lon="7.609146873165623"><ele>309.6</ele><time>2026-03-29T12:10:27Z</time></trkpt><trkpt lat="43.80865055040389" lon="7.609211186421008"><ele>308.40000000000003</ele><time>2026-03-29T12:10:28Z</time></trkpt><trkpt lat="43.808588459507035" lon="7.609299053162463"><ele>307.2</ele><time>2026-03-29T12:10:29Z</time></trkpt><trkpt lat="43.80853412977594" lon="7.609376530402889"><ele>306.0</ele><time>2026-03-29T12:10:30Z</time></trkpt><trkpt lat="43.80847244067759" lon="7.609463178292616"><ele>303.6666666666667</ele><time>2026-03-29T12:10:31Z</time></trkpt><trkpt lat="43.80839738493728" lon="7.6095131417284945"><ele>301.3333333333333</ele><time>2026-03-29T12:10:32Z</time></trkpt><trkpt lat="43.80831951995974" lon="7.609568449747664"><ele>299.0</ele><time>2026-03-29T12:10:33Z</time></trkpt><trkpt lat="43.80824587475702" lon="7.6096252860263265"><ele>296.66666666666663</ele><time>2026-03-29T12:10:34Z</time></trkpt><trkpt lat="43.80816211179558" lon="7.609635657764574"><ele>294.3333333333333</ele><time>2026-03-29T12:10:35Z</time></trkpt><trkpt lat="43.80807606386005" lon="7.609668280778831"><ele>292.0</ele><time>2026-03-29T12:10:36Z</time></trkpt><trkpt lat="43.80799096317373" lon="7.609686798990504"><ele>292.0</ele><time>2026-03-29T12:10:37Z</time></trkpt><trkpt lat="43.80790767952729" lon="7.609732781716054"><ele>292.0</ele><time>2026-03-29T12:10:38Z</time></trkpt><trkpt lat="43.80781927029555" lon="7.609833170114572"><ele>292.0</ele><time>2026-03-29T12:10:39Z</time></trkpt><trkpt lat="43.807722476765235" lon="7.609935074630092"><ele>292.0</ele><time>2026-03-29T12:10:40Z</time></trkpt><trkpt lat="43.80762958781771" lon="7.61001968292242"><ele>292.0</ele><time>2026-03-29T12:10:41Z</time></trkpt><trkpt lat="43.80754515071588" lon="7.610106817746836"><ele>291.8</ele><time>2026-03-29T12:10:42Z</time></trkpt><trkpt lat="43.80746758785474" lon="7.610187530057268"><ele>291.6</ele><time>2026-03-29T12:10:43Z</time></trkpt><trkpt lat="43.80739074079394" lon="7.610274290555275"><ele>291.40000000000003</ele><time>2026-03-29T12:10:44Z</time></trkpt><trkpt lat="43.80730885937346" lon="7.6103784413697815"><ele>291.2</ele><time>2026-03-29T12:10:45Z</time></trkpt><trkpt lat="43.807228701469654" lon="7.61048798906983"><ele>291.0</ele><time>2026-03-29T12:10:46Z</time></trkpt><trkpt lat="43.80714470966431" lon="7.610615149174048"><ele>289.0</ele><time>2026-03-29T12:10:47Z</time></trkpt><trkpt lat="43.807051599341456" lon="7.610751421771206"><ele>287.0</ele><time>2026-03-29T12:10:48Z</time></trkpt><trkpt lat="43.806961885987135" lon="7.610877688883124"><ele>285.0</ele><time>2026-03-29T12:10:49Z</time></trkpt><trkpt lat="43.80688080441168" lon="7.610988880266943"><ele>283.0</ele><time>2026-03-29T12:10:50Z</time></trkpt><trkpt lat="43.8068075510298" lon="7.6111072150112715"><ele>280.4</ele><time>2026-03-29T12:10:51Z</time></trkpt><trkpt lat="43.80673418297547" lon="7.61121436095266"><ele>277.8</ele><time>2026-03-29T12:10:52Z</time></trkpt><trkpt lat="43.80667108044862" lon="7.611321181163514"><ele>275.2</ele><time>2026-03-29T12:10:53Z</time></trkpt><trkpt lat="43.806614210281836" lon="7.61143786497393"><ele>272.6</ele><time>2026-03-29T12:10:54Z</time></trkpt><trkpt lat="43.80656578760733" lon="7.611533401890759"><ele>270.0</ele><time>2026-03-29T12:10:55Z</time></trkpt><trkpt lat="43.80651451076587" lon="7.611630307131896"><ele>270.0</ele><time>2026-03-29T12:10:56Z</time></trkpt><trkpt lat="43.806462224941995" lon="7.611710737223691"><ele>270.0</ele><time>2026-03-29T12:10:57Z</time></trkpt><trkpt lat="43.80640161622102" lon="7.611763732997247"><ele>270.0</ele><time>2026-03-29T12:10:58Z</time></trkpt><trkpt lat="43.80630821392532" lon="7.611769618446905"><ele>270.0</ele><time>2026-03-29T12:10:59Z</time></trkpt><trkpt lat="43.806191472123395" lon="7.611825783214295"><ele>270.0</ele><time>2026-03-29T12:11:00Z</time></trkpt><trkpt lat="43.806099336006234" lon="7.61189777732148"><ele>270.0</ele><time>2026-03-29T12:11:01Z</time></trkpt><trkpt lat="43.80600963399751" lon="7.6119795651108655"><ele>270.0</ele><time>2026-03-29T12:11:02Z</time></trkpt><trkpt lat="43.805935177098554" lon="7.612087652752138"><ele>270.0</ele><time>2026-03-29T12:11:03Z</time></trkpt><trkpt lat="43.80586424277175" lon="7.612201253384054"><ele>270.0</ele><time>2026-03-29T12:11:04Z</time></trkpt><trkpt lat="43.805797868956546" lon="7.612294796597231"><ele>270.0</ele><time>2026-03-29T12:11:05Z</time></trkpt><trkpt lat="43.80573654754261" lon="7.612367892188867"><ele>268.6</ele><time>2026-03-29T12:11:06Z</time></trkpt><trkpt lat="43.80566280143231" lon="7.612410826847553"><ele>267.2</ele><time>2026-03-29T12:11:07Z</time></trkpt><trkpt lat="43.805570471785096" lon="7.612452078989735"><ele>265.8</ele><time>2026-03-29T12:11:08Z</time></trkpt><trkpt lat="43.805475837479804" lon="7.61250998323643"><ele>264.4</ele><time>2026-03-29T12:11:09Z</time></trkpt><trkpt lat="43.80538320375228" lon="7.612543034027167"><ele>263.0</ele><time>2026-03-29T12:11:10Z</time></trkpt><trkpt lat="43.80529848421137" lon="7.612612033513024"><ele>263.0</ele><time>2026-03-29T12:11:11Z</time></trkpt><trkpt lat="43.805211268030405" lon="7.612700247416748"><ele>263.0</ele><time>2026-03-29T12:11:12Z</time></trkpt><trkpt lat="43.80513006428235" lon="7.612781471738205"><ele>263.0</ele><time>2026-03-29T12:11:13Z</time></trkpt><trkpt lat="43.805062469851" lon="7.6128633629493345"><ele>263.0</ele><time>2026-03-29T12:11:14Z</time></trkpt><trkpt lat="43.80500777775904" lon="7.612968754609145"><ele>263.0</ele><time>2026-03-29T12:11:15Z</time></trkpt><trkpt lat="43.804966751380604" lon="7.6130781347886245"><ele>262.5</ele><time>2026-03-29T12:11:16Z</time></trkpt><trkpt lat="43.80492458387393" lon="7.613174976840601"><ele>262.0</ele><time>2026-03-29T12:11:17Z</time></trkpt><trkpt lat="43.804879079662996" lon="7.613251490644243"><ele>261.5</ele><time>2026-03-29T12:11:18Z</time></trkpt><trkpt lat="43.80480679599648" lon="7.613280594788213"><ele>261.0</ele><time>2026-03-29T12:11:19Z</time></trkpt><trkpt lat="43.80472373054288" lon="7.61328271975358"><ele>260.5</ele><time>2026-03-29T12:11:20Z</time></trkpt><trkpt lat="43.80461287833224" lon="7.61333190970573"><ele>260.0</ele><time>2026-03-29T12:11:21Z</time></trkpt><trkpt lat="43.80449773462359" lon="7.613368480646861"><ele>260.0</ele><time>2026-03-29T12:11:22Z</time></trkpt><trkpt lat="43.80437549037461" lon="7.613419316734475"><ele>260.0</ele><time>2026-03-29T12:11:23Z</time></trkpt><trkpt lat="43.80424741963079" lon="7.613472614207864"><ele>260.0</ele><time>2026-03-29T12:11:24Z</time></trkpt><trkpt lat="43.804130214076885" lon="7.61351822080979"><ele>260.0</ele><time>2026-03-29T12:11:25Z</time></trkpt><trkpt lat="43.8040292658977" lon="7.613559156905177"><ele>264.25</ele><time>2026-03-29T12:11:26Z</time></trkpt><trkpt lat="43.80393092953048" lon="7.61360974450645"><ele>268.5</ele><time>2026-03-29T12:11:27Z</time></trkpt><trkpt lat="43.80382350539743" lon="7.613703377954707"><ele>272.75</ele><time>2026-03-29T12:11:28Z</time></trkpt><trkpt lat="43.803712675666034" lon="7.613791261160588"><ele>277.0</ele><time>2026-03-29T12:11:29Z</time></trkpt><trkpt lat="43.803618191559494" lon="7.613864729772081"><ele>275.4</ele><time>2026-03-29T12:11:30Z</time></trkpt><trkpt lat="43.80353380966459" lon="7.61394092271003"><ele>273.79999999999995</ele><time>2026-03-29T12:11:31Z</time></trkpt><trkpt lat="43.80345570216911" lon="7.614000423796797"><ele>272.2</ele><time>2026-03-29T12:11:32Z</time></trkpt><trkpt lat="43.80336594944659" lon="7.614031320773073"><ele>270.59999999999997</ele><time>2026-03-29T12:11:33Z</time></trkpt><trkpt lat="43.803268178702666" lon="7.614089720668393"><ele>269.0</ele><time>2026-03-29T12:11:34Z</time></trkpt><trkpt lat="43.80317158950004" lon="7.614124253661766"><ele>269.0</ele><time>2026-03-29T12:11:35Z</time></trkpt><trkpt lat="43.803085134405634" lon="7.614194800261157"><ele>269.0</ele><time>2026-03-29T12:11:36Z</time></trkpt><trkpt lat="43.80299814556637" lon="7.6143180294610575"><ele>269.0</ele><time>2026-03-29T12:11:37Z</time></trkpt><trkpt lat="43.80290071154193" lon="7.6144230902435535"><ele>269.0</ele><time>2026-03-29T12:11:38Z</time></trkpt><trkpt lat="43.802814733125594" lon="7.61451551200229"><ele>269.33333333333337</ele><time>2026-03-29T12:11:39Z</time></trkpt><trkpt lat="43.802742945839746" lon="7.614596943187889"><ele>269.6666666666667</ele><time>2026-03-29T12:11:40Z</time></trkpt><trkpt lat="43.80268192600471" lon="7.614665263615456"><ele>270.0</ele><time>2026-03-29T12:11:41Z</time></trkpt><trkpt lat="43.802624648084056" lon="7.614746544839369"><ele>270.3333333333333</ele><time>2026-03-29T12:11:42Z</time></trkpt><trkpt lat="43.80258843214733" lon="7.61485189261612"><ele>270.66666666666663</ele><time>2026-03-29T12:11:43Z</time></trkpt><trkpt lat="43.802573715837596" lon="7.615001235508903"><ele>271.0</ele><time>2026-03-29T12:11:44Z</time></trkpt><trkpt lat="43.802561604724126" lon="7.615145860764842"><ele>271.0</ele><time>2026-03-29T12:11:45Z</time></trkpt><trkpt lat="43.80256711334684" lon="7.615281906043577"><ele>271.0</ele><time>2026-03-29T12:11:46Z</time></trkpt><trkpt lat="43.802611500459875" lon="7.615431543806533"><ele>271.0</ele><time>2026-03-29T12:11:47Z</time></trkpt><trkpt lat="43.80267037756989" lon="7.615605699678543"><ele>271.0</ele><time>2026-03-29T12:11:48Z</time></trkpt><trkpt lat="43.80271813922764" lon="7.615787401826536"><ele>262.40000000000003</ele><time>2026-03-29T12:11:49Z</time></trkpt><trkpt lat="43.80276861739996" lon="7.615950308699318"><ele>253.8</ele><time>2026-03-29T12:11:50Z</time></trkpt><trkpt lat="43.80282596199506" lon="7.616078402011467"><ele>245.20000000000002</ele><time>2026-03-29T12:11:51Z</time></trkpt><trkpt lat="43.80289458005193" lon="7.616178669244918"><ele>236.60000000000002</ele><time>2026-03-29T12:11:52Z</time></trkpt><trkpt lat="43.8029581496844" lon="7.616264194831504"><ele>228.0</ele><time>2026-03-29T12:11:53Z</time></trkpt><trkpt lat="43.80298299411902" lon="7.616353754393166"><ele>226.66666666666666</ele><time>2026-03-29T12:11:54Z</time></trkpt><trkpt lat="43.803022758872245" lon="7.616477154144288"><ele>225.33333333333331</ele><time>2026-03-29T12:11:56Z</time></trkpt><trkpt lat="43.8029758415158" lon="7.616609704345122"><ele>224.0</ele><time>2026-03-29T12:11:58Z</time></trkpt><trkpt lat="43.802918767338724" lon="7.616656176246971"><ele>222.66666666666666</ele><time>2026-03-29T12:11:59Z</time></trkpt><trkpt lat="43.80286027713787" lon="7.616718855281365"><ele>221.33333333333331</ele><time>2026-03-29T12:12:00Z</time></trkpt><trkpt lat="43.802791479489606" lon="7.616759084569498"><ele>220.0</ele><time>2026-03-29T12:12:01Z</time></trkpt><trkpt lat="43.802718930164424" lon="7.616779818106342"><ele>226.6</ele><time>2026-03-29T12:12:02Z</time></trkpt><trkpt lat="43.80263085770965" lon="7.616738924756293"><ele>233.2</ele><time>2026-03-29T12:12:03Z</time></trkpt><trkpt lat="43.80252188802231" lon="7.616743753552991"><ele>239.8</ele><time>2026-03-29T12:12:04Z</time></trkpt><trkpt lat="43.80242872543499" lon="7.616729754169335"><ele>246.4</ele><time>2026-03-29T12:12:05Z</time></trkpt><trkpt lat="43.80234535027778" lon="7.616718968945362"><ele>253.0</ele><time>2026-03-29T12:12:06Z</time></trkpt><trkpt lat="43.802260067618484" lon="7.616710410229146"><ele>253.0</ele><time>2026-03-29T12:12:07Z</time></trkpt><trkpt lat="43.802174664582495" lon="7.61672745301892"><ele>253.0</ele><time>2026-03-29T12:12:08Z</time></trkpt><trkpt lat="43.802074994934266" lon="7.616787285645845"><ele>253.0</ele><time>2026-03-29T12:12:09Z</time></trkpt><trkpt lat="43.80194943615937" lon="7.616884074734509"><ele>253.0</ele><time>2026-03-29T12:12:10Z</time></trkpt><trkpt lat="43.80181825837212" lon="7.616968767796774"><ele>251.0</ele><time>2026-03-29T12:12:11Z</time></trkpt><trkpt lat="43.80171168371338" lon="7.617045940836323"><ele>249.0</ele><time>2026-03-29T12:12:12Z</time></trkpt><trkpt lat="43.80162230231923" lon="7.617100794311576"><ele>247.0</ele><time>2026-03-29T12:12:13Z</time></trkpt><trkpt lat="43.801557756076186" lon="7.617146056876186"><ele>245.0</ele><time>2026-03-29T12:12:14Z</time></trkpt><trkpt lat="43.80151020706244" lon="7.617215427440516"><ele>243.0</ele><time>2026-03-29T12:12:15Z</time></trkpt><trkpt lat="43.801472539079946" lon="7.617331249792775"><ele>243.0</ele><time>2026-03-29T12:12:16Z</time></trkpt><trkpt lat="43.801442006099236" lon="7.617475542305464"><ele>243.0</ele><time>2026-03-29T12:12:17Z</time></trkpt><trkpt lat="43.80141570559458" lon="7.617632430848601"><ele>243.0</ele><time>2026-03-29T12:12:18Z</time></trkpt><trkpt lat="43.80138287992565" lon="7.617778176156844"><ele>243.0</ele><time>2026-03-29T12:12:19Z</time></trkpt><trkpt lat="43.80134897080946" lon="7.617905791549512"><ele>243.0</ele><time>2026-03-29T12:12:20Z</time></trkpt><trkpt lat="43.80132058371839" lon="7.6180198525696605"><ele>241.0</ele><time>2026-03-29T12:12:21Z</time></trkpt><trkpt lat="43.80129684457007" lon="7.618132905673609"><ele>239.0</ele><time>2026-03-29T12:12:22Z</time></trkpt><trkpt lat="43.80127437919748" lon="7.618237847947657"><ele>237.0</ele><time>2026-03-29T12:12:23Z</time></trkpt><trkpt lat="43.801239897312904" lon="7.618323164095077"><ele>235.0</ele><time>2026-03-29T12:12:24Z</time></trkpt><trkpt lat="43.80117399202267" lon="7.618360897850921"><ele>233.0</ele><time>2026-03-29T12:12:25Z</time></trkpt><trkpt lat="43.80110182588079" lon="7.618419024325682"><ele>231.0</ele><time>2026-03-29T12:12:26Z</time></trkpt><trkpt lat="43.80101309286763" lon="7.618462752229524"><ele>232.85714285714286</ele><time>2026-03-29T12:12:27Z</time></trkpt><trkpt lat="43.80093955808364" lon="7.618508648939706"><ele>234.71428571428572</ele><time>2026-03-29T12:12:28Z</time></trkpt><trkpt lat="43.80087445691809" lon="7.61855380812031"><ele>236.57142857142856</ele><time>2026-03-29T12:12:29Z</time></trkpt><trkpt lat="43.8008076189602" lon="7.6185925206482805"><ele>238.42857142857142</ele><time>2026-03-29T12:12:30Z</time></trkpt><trkpt lat="43.80074407096996" lon="7.6186171275546"><ele>240.28571428571428</ele><time>2026-03-29T12:12:31Z</time></trkpt><trkpt lat="43.800679783337294" lon="7.61863616800802"><ele>242.1428571428571</ele><time>2026-03-29T12:12:32Z</time></trkpt><trkpt lat="43.800606897941314" lon="7.618627928157448"><ele>243.99999999999997</ele><time>2026-03-29T12:12:33Z</time></trkpt><trkpt lat="43.800515714656235" lon="7.618602121128027"><ele>243.99999999999997</ele><time>2026-03-29T12:12:34Z</time></trkpt><trkpt lat="43.80042179398702" lon="7.618584159623591"><ele>244.0</ele><time>2026-03-29T12:12:35Z</time></trkpt><trkpt lat="43.80033944489935" lon="7.618577773438528"><ele>244.0</ele><time>2026-03-29T12:12:36Z</time></trkpt><trkpt lat="43.80026579800408" lon="7.618572028269928"><ele>244.0</ele><time>2026-03-29T12:12:37Z</time></trkpt><trkpt lat="43.80019476644557" lon="7.618567626800739"><ele>243.99999999999997</ele><time>2026-03-29T12:12:38Z</time></trkpt><trkpt lat="43.80011914490184" lon="7.618581958640858"><ele>244.0</ele><time>2026-03-29T12:12:39Z</time></trkpt><trkpt lat="43.80004912802262" lon="7.618651820559875"><ele>242.0</ele><time>2026-03-29T12:12:40Z</time></trkpt><trkpt lat="43.79997037190159" lon="7.618770133111461"><ele>239.99999999999997</ele><time>2026-03-29T12:12:41Z</time></trkpt><trkpt lat="43.7998939657743" lon="7.618864904609543"><ele>237.99999999999997</ele><time>2026-03-29T12:12:42Z</time></trkpt><trkpt lat="43.799817253314046" lon="7.618947152448213"><ele>236.0</ele><time>2026-03-29T12:12:43Z</time></trkpt><trkpt lat="43.79974837626623" lon="7.619027301133678"><ele>234.0</ele><time>2026-03-29T12:12:44Z</time></trkpt><trkpt lat="43.79968445668183" lon="7.619115058211158"><ele>234.0</ele><time>2026-03-29T12:12:45Z</time></trkpt><trkpt lat="43.79962090640854" lon="7.619204415186717"><ele>234.0</ele><time>2026-03-29T12:12:46Z</time></trkpt><trkpt lat="43.79956155746577" lon="7.619290371965032"><ele>234.0</ele><time>2026-03-29T12:12:47Z</time></trkpt><trkpt lat="43.79950436925348" lon="7.6193751054276255"><ele>234.0</ele><time>2026-03-29T12:12:48Z</time></trkpt><trkpt lat="43.79945037713902" lon="7.619441663878368"><ele>234.0</ele><time>2026-03-29T12:12:49Z</time></trkpt><trkpt lat="43.79937201205007" lon="7.619532614091789"><ele>234.0</ele><time>2026-03-29T12:12:51Z</time></trkpt><trkpt lat="43.79932023174798" lon="7.619593823134377"><ele>232.16666666666666</ele><time>2026-03-29T12:12:53Z</time></trkpt><trkpt lat="43.79926732623954" lon="7.619675774615125"><ele>230.33333333333331</ele><time>2026-03-29T12:12:56Z</time></trkpt><trkpt lat="43.79920535762946" lon="7.619763963912959"><ele>228.5</ele><time>2026-03-29T12:13:04Z</time></trkpt><trkpt lat="43.79915241554168" lon="7.619834681795155"><ele>226.66666666666666</ele><time>2026-03-29T12:13:05Z</time></trkpt><trkpt lat="43.799083597972256" lon="7.619911191965464"><ele>224.83333333333331</ele><time>2026-03-29T12:13:06Z</time></trkpt><trkpt lat="43.799012039628934" lon="7.619980278203985"><ele>223.0</ele><time>2026-03-29T12:13:07Z</time></trkpt><trkpt lat="43.798927852334316" lon="7.620053643667893"><ele>223.0</ele><time>2026-03-29T12:13:08Z</time></trkpt><trkpt lat="43.79883638770844" lon="7.620134310787037"><ele>223.0</ele><time>2026-03-29T12:13:09Z</time></trkpt><trkpt lat="43.79875831125381" lon="7.620214537558228"><ele>223.0</ele><time>2026-03-29T12:13:10Z</time></trkpt><trkpt lat="43.798685115813676" lon="7.620287510806691"><ele>223.0</ele><time>2026-03-29T12:13:11Z</time></trkpt><trkpt lat="43.79860972809377" lon="7.620358086021239"><ele>223.0</ele><time>2026-03-29T12:13:12Z</time></trkpt><trkpt lat="43.79853462480512" lon="7.620426192593314"><ele>220.16666666666666</ele><time>2026-03-29T12:13:13Z</time></trkpt><trkpt lat="43.79846329048966" lon="7.62049006521613"><ele>217.33333333333331</ele><time>2026-03-29T12:13:14Z</time></trkpt><trkpt lat="43.79838695093054" lon="7.620546159452218"><ele>214.5</ele><time>2026-03-29T12:13:15Z</time></trkpt><trkpt lat="43.79830652700543" lon="7.620591266863688"><ele>211.66666666666669</ele><time>2026-03-29T12:13:16Z</time></trkpt><trkpt lat="43.798213695420266" lon="7.620609088873229"><ele>208.83333333333334</ele><time>2026-03-29T12:13:17Z</time></trkpt><trkpt lat="43.798132486734666" lon="7.620658239932731"><ele>206.0</ele><time>2026-03-29T12:13:18Z</time></trkpt><trkpt lat="43.79803739086483" lon="7.620690949696476"><ele>206.00000000000003</ele><time>2026-03-29T12:13:19Z</time></trkpt><trkpt lat="43.797948475257876" lon="7.620708567390742"><ele>206.0</ele><time>2026-03-29T12:13:20Z</time></trkpt><trkpt lat="43.797865963928096" lon="7.620713803925074"><ele>206.0</ele><time>2026-03-29T12:13:21Z</time></trkpt><trkpt lat="43.79779355800054" lon="7.620688098946079"><ele>206.0</ele><time>2026-03-29T12:13:22Z</time></trkpt><trkpt lat="43.79771884926081" lon="7.6207125000717735"><ele>206.00000000000003</ele><time>2026-03-29T12:13:23Z</time></trkpt><trkpt lat="43.79766082801906" lon="7.620748836543195"><ele>206.0</ele><time>2026-03-29T12:13:24Z</time></trkpt><trkpt lat="43.79763276291696" lon="7.6208826461258"><ele>206.00000000000003</ele><time>2026-03-29T12:13:26Z</time></trkpt><trkpt lat="43.79770824579969" lon="7.621009248567633"><ele>206.0</ele><time>2026-03-29T12:13:28Z</time></trkpt><trkpt lat="43.79777854355829" lon="7.621013451245225"><ele>206.0</ele><time>2026-03-29T12:13:29Z</time></trkpt><trkpt lat="43.79784354447956" lon="7.620978941664653"><ele>206.0</ele><time>2026-03-29T12:13:30Z</time></trkpt><trkpt lat="43.79789912080163" lon="7.620937113926762"><ele>206.00000000000003</ele><time>2026-03-29T12:13:31Z</time></trkpt><trkpt lat="43.79796877384237" lon="7.62094172164456"><ele>206.0</ele><time>2026-03-29T12:13:32Z</time></trkpt><trkpt lat="43.79804596061166" lon="7.620920902259158"><ele>206.00000000000003</ele><time>2026-03-29T12:13:33Z</time></trkpt><trkpt lat="43.79813043960263" lon="7.620878378362961"><ele>206.0</ele><time>2026-03-29T12:13:34Z</time></trkpt><trkpt lat="43.79821043738471" lon="7.620881979064165"><ele>206.0</ele><time>2026-03-29T12:13:35Z</time></trkpt><trkpt lat="43.7982791564366" lon="7.620841920353767"><ele>206.0</ele><time>2026-03-29T12:13:36Z</time></trkpt><trkpt lat="43.79834590026275" lon="7.6208250985875345"><ele>206.00000000000003</ele><time>2026-03-29T12:13:37Z</time></trkpt><trkpt lat="43.79841756245266" lon="7.620808997578128"><ele>206.0</ele><time>2026-03-29T12:13:38Z</time></trkpt><trkpt lat="43.79848752539621" lon="7.620817679311279"><ele>207.0</ele><time>2026-03-29T12:13:39Z</time></trkpt><trkpt lat="43.79860168363952" lon="7.62086014204921"><ele>208.0</ele><time>2026-03-29T12:13:41Z</time></trkpt><trkpt lat="43.79862350350611" lon="7.620969690807656"><ele>209.0</ele><time>2026-03-29T12:13:42Z</time></trkpt><trkpt lat="43.79859551252223" lon="7.621084796169685"><ele>210.0</ele><time>2026-03-29T12:13:43Z</time></trkpt><trkpt lat="43.79856670490158" lon="7.621204367556158"><ele>211.0</ele><time>2026-03-29T12:13:44Z</time></trkpt><trkpt lat="43.79851801622968" lon="7.621316338766391"><ele>207.16666666666666</ele><time>2026-03-29T12:13:45Z</time></trkpt><trkpt lat="43.79847018374305" lon="7.621415389199487"><ele>203.33333333333331</ele><time>2026-03-29T12:13:46Z</time></trkpt><trkpt lat="43.79842963381974" lon="7.6215090833515795"><ele>199.5</ele><time>2026-03-29T12:13:47Z</time></trkpt><trkpt lat="43.79842987793989" lon="7.621613054595499"><ele>195.66666666666666</ele><time>2026-03-29T12:13:48Z</time></trkpt><trkpt lat="43.798471873069566" lon="7.621688903227347"><ele>191.83333333333331</ele><time>2026-03-29T12:13:49Z</time></trkpt><trkpt lat="43.79855332460988" lon="7.621698816158733"><ele>188.0</ele><time>2026-03-29T12:13:50Z</time></trkpt><trkpt lat="43.79865081647616" lon="7.6216934792682665"><ele>188.0</ele><time>2026-03-29T12:13:51Z</time></trkpt><trkpt lat="43.798764533974" lon="7.6216988453355246"><ele>188.0</ele><time>2026-03-29T12:13:52Z</time></trkpt><trkpt lat="43.79884546957102" lon="7.621732618948791"><ele>188.0</ele><time>2026-03-29T12:13:53Z</time></trkpt><trkpt lat="43.79891154549321" lon="7.621768108629896"><ele>188.0</ele><time>2026-03-29T12:13:54Z</time></trkpt><trkpt lat="43.79904546794068" lon="7.621770522210233"><ele>188.0</ele><time>2026-03-29T12:13:56Z</time></trkpt><trkpt lat="43.799115407351195" lon="7.621732828269549"><ele>188.0</ele><time>2026-03-29T12:13:57Z</time></trkpt><trkpt lat="43.79918758896053" lon="7.621700998312619"><ele>188.0</ele><time>2026-03-29T12:13:58Z</time></trkpt><trkpt lat="43.79926062231994" lon="7.621701955828697"><ele>188.0</ele><time>2026-03-29T12:13:59Z</time></trkpt><trkpt lat="43.79936601133576" lon="7.621683802275554"><ele>188.0</ele><time>2026-03-29T12:14:01Z</time></trkpt><trkpt lat="43.79947184447519" lon="7.621687029516327"><ele>188.0</ele><time>2026-03-29T12:14:03Z</time></trkpt><trkpt lat="43.79953999297694" lon="7.6216678061029395"><ele>188.0</ele><time>2026-03-29T12:14:04Z</time></trkpt><trkpt lat="43.79961031313514" lon="7.62163347903603"><ele>184.2</ele><time>2026-03-29T12:14:05Z</time></trkpt><trkpt lat="43.79970952011714" lon="7.621543329921813"><ele>180.4</ele><time>2026-03-29T12:14:07Z</time></trkpt><trkpt lat="43.799787999971876" lon="7.621485260790456"><ele>176.6</ele><time>2026-03-29T12:14:09Z</time></trkpt><trkpt lat="43.79984337135062" lon="7.621393284843163"><ele>172.79999999999998</ele><time>2026-03-29T12:14:11Z</time></trkpt><trkpt lat="43.79990343968599" lon="7.621304879796048"><ele>169.0</ele><time>2026-03-29T12:14:13Z</time></trkpt><trkpt lat="43.799951069906655" lon="7.621233983568686"><ele>169.0</ele><time>2026-03-29T12:14:14Z</time></trkpt><trkpt lat="43.80000586343518" lon="7.6211496760102175"><ele>169.0</ele><time>2026-03-29T12:14:15Z</time></trkpt><trkpt lat="43.80005679590964" lon="7.6210695565024835"><ele>169.0</ele><time>2026-03-29T12:14:16Z</time></trkpt><trkpt lat="43.80010812030557" lon="7.620989570927837"><ele>169.0</ele><time>2026-03-29T12:14:17Z</time></trkpt><trkpt lat="43.800156115815106" lon="7.620915839480959"><ele>169.0</ele><time>2026-03-29T12:14:18Z</time></trkpt><trkpt lat="43.80021460969139" lon="7.620825980287105"><ele>169.0</ele><time>2026-03-29T12:14:19Z</time></trkpt><trkpt lat="43.80027053957736" lon="7.620739667646374"><ele>166.39999999999998</ele><time>2026-03-29T12:14:20Z</time></trkpt><trkpt lat="43.800332188244994" lon="7.6206397130084484"><ele>163.79999999999998</ele><time>2026-03-29T12:14:21Z</time></trkpt><trkpt lat="43.80039573745609" lon="7.620538352745997"><ele>161.2</ele><time>2026-03-29T12:14:22Z</time></trkpt><trkpt lat="43.80045914293194" lon="7.620446686415617"><ele>158.6</ele><time>2026-03-29T12:14:23Z</time></trkpt><trkpt lat="43.80052752529433" lon="7.620368567741404"><ele>156.0</ele><time>2026-03-29T12:14:24Z</time></trkpt><trkpt lat="43.80059744086933" lon="7.620289477938513"><ele>158.4</ele><time>2026-03-29T12:14:25Z</time></trkpt><trkpt lat="43.80067210593547" lon="7.620204179243505"><ele>160.8</ele><time>2026-03-29T12:14:26Z</time></trkpt><trkpt lat="43.80075849977804" lon="7.620118740645285"><ele>163.20000000000002</ele><time>2026-03-29T12:14:27Z</time></trkpt><trkpt lat="43.80084966557284" lon="7.620046194686431"><ele>165.6</ele><time>2026-03-29T12:14:28Z</time></trkpt><trkpt lat="43.80095148180891" lon="7.619990820206187"><ele>168.0</ele><time>2026-03-29T12:14:29Z</time></trkpt><trkpt lat="43.80105689029733" lon="7.61996814885334"><ele>168.0</ele><time>2026-03-29T12:14:30Z</time></trkpt><trkpt lat="43.80116328573008" lon="7.619947399127487"><ele>168.0</ele><time>2026-03-29T12:14:31Z</time></trkpt><trkpt lat="43.80126256540637" lon="7.619909331546444"><ele>168.0</ele><time>2026-03-29T12:14:32Z</time></trkpt><trkpt lat="43.80137864677963" lon="7.619885160548976"><ele>168.0</ele><time>2026-03-29T12:14:33Z</time></trkpt><trkpt lat="43.80148616600858" lon="7.619855271660831"><ele>168.0</ele><time>2026-03-29T12:14:34Z</time></trkpt><trkpt lat="43.80158683848494" lon="7.619842903584154"><ele>168.0</ele><time>2026-03-29T12:14:35Z</time></trkpt><trkpt lat="43.801694584587885" lon="7.619858769745367"><ele>168.0</ele><time>2026-03-29T12:14:36Z</time></trkpt><trkpt lat="43.80181302716759" lon="7.619901372740432"><ele>168.0</ele><time>2026-03-29T12:14:37Z</time></trkpt><trkpt lat="43.80192874939064" lon="7.6199180511356595"><ele>168.0</ele><time>2026-03-29T12:14:38Z</time></trkpt><trkpt lat="43.802044798015615" lon="7.619910996036844"><ele>166.0</ele><time>2026-03-29T12:14:39Z</time></trkpt><trkpt lat="43.80215885675288" lon="7.619904013543634"><ele>164.0</ele><time>2026-03-29T12:14:40Z</time></trkpt><trkpt lat="43.80226698530355" lon="7.619905974726974"><ele>162.0</ele><time>2026-03-29T12:14:41Z</time></trkpt><trkpt lat="43.80236683441637" lon="7.6199488808435145"><ele>160.0</ele><time>2026-03-29T12:14:42Z</time></trkpt><trkpt lat="43.80248472434932" lon="7.619969845308106"><ele>158.0</ele><time>2026-03-29T12:14:43Z</time></trkpt><trkpt lat="43.802603353933364" lon="7.62003608288909"><ele>154.20000000000002</ele><time>2026-03-29T12:14:44Z</time></trkpt><trkpt lat="43.8027078258745" lon="7.620085216364255"><ele>150.4</ele><time>2026-03-29T12:14:45Z</time></trkpt><trkpt lat="43.802800685943126" lon="7.620114425379575"><ele>146.60000000000002</ele><time>2026-03-29T12:14:46Z</time></trkpt><trkpt lat="43.80288106860186" lon="7.620135363008644"><ele>142.8</ele><time>2026-03-29T12:14:47Z</time></trkpt><trkpt lat="43.80295487709688" lon="7.62006858794664"><ele>139.0</ele><time>2026-03-29T12:14:48Z</time></trkpt><trkpt lat="43.80301863570913" lon="7.619927160382212"><ele>139.0</ele><time>2026-03-29T12:14:49Z</time></trkpt><trkpt lat="43.803095825992756" lon="7.619832543269298"><ele>139.0</ele><time>2026-03-29T12:14:50Z</time></trkpt><trkpt lat="43.80314331343222" lon="7.619724090627527"><ele>139.0</ele><time>2026-03-29T12:14:51Z</time></trkpt><trkpt lat="43.803165565034014" lon="7.619609073333744"><ele>139.0</ele><time>2026-03-29T12:14:52Z</time></trkpt><trkpt lat="43.803150777706406" lon="7.61946955096829"><ele>139.0</ele><time>2026-03-29T12:14:53Z</time></trkpt><trkpt lat="43.803108384801554" lon="7.619317052500588"><ele>140.33333333333334</ele><time>2026-03-29T12:14:54Z</time></trkpt><trkpt lat="43.8030647363812" lon="7.619174847867102"><ele>141.66666666666669</ele><time>2026-03-29T12:14:55Z</time></trkpt><trkpt lat="43.80305457744337" lon="7.6190470630723155"><ele>143.0</ele><time>2026-03-29T12:14:56Z</time></trkpt><trkpt lat="43.80303362863355" lon="7.618933736807291"><ele>144.33333333333334</ele><time>2026-03-29T12:14:57Z</time></trkpt><trkpt lat="43.803021372129635" lon="7.618824859021181"><ele>145.66666666666666</ele><time>2026-03-29T12:14:58Z</time></trkpt><trkpt lat="43.80302025002324" lon="7.618728261219184"><ele>147.0</ele><time>2026-03-29T12:14:59Z</time></trkpt><trkpt lat="43.803027350008854" lon="7.618633003353889"><ele>149.0</ele><time>2026-03-29T12:15:00Z</time></trkpt><trkpt lat="43.803053874059124" lon="7.618550105560206"><ele>151.0</ele><time>2026-03-29T12:15:01.001Z</time></trkpt><trkpt lat="43.803112309804355" lon="7.618514752223448"><ele>153.0</ele><time>2026-03-29T12:15:02.001Z</time></trkpt><trkpt lat="43.80318092745434" lon="7.618509206932118"><ele>155.0</ele><time>2026-03-29T12:15:03.001Z</time></trkpt><trkpt lat="43.80326046960974" lon="7.61852403777746"><ele>157.0</ele><time>2026-03-29T12:15:04.001Z</time></trkpt><trkpt lat="43.80336221606791" lon="7.618528121998254"><ele>159.0</ele><time>2026-03-29T12:15:05.001Z</time></trkpt><trkpt lat="43.80346592416754" lon="7.618522017286602"><ele>152.8</ele><time>2026-03-29T12:15:06.001Z</time></trkpt><trkpt lat="43.80358081243647" lon="7.618492674973897"><ele>146.60000000000002</ele><time>2026-03-29T12:15:07.001Z</time></trkpt><trkpt lat="43.80368040801351" lon="7.6184581374600615"><ele>140.4</ele><time>2026-03-29T12:15:08.001Z</time></trkpt><trkpt lat="43.80376429758613" lon="7.618421645116562"><ele>134.20000000000002</ele><time>2026-03-29T12:15:09.001Z</time></trkpt><trkpt lat="43.803836972675576" lon="7.618383192481655"><ele>128.0</ele><time>2026-03-29T12:15:10.001Z</time></trkpt><trkpt lat="43.80391320905221" lon="7.6183359098494625"><ele>128.0</ele><time>2026-03-29T12:15:11.001Z</time></trkpt><trkpt lat="43.80398054046073" lon="7.618242333572053"><ele>128.0</ele><time>2026-03-29T12:15:12.001Z</time></trkpt><trkpt lat="43.80398911362028" lon="7.618069899632482"><ele>128.0</ele><time>2026-03-29T12:15:13.001Z</time></trkpt><trkpt lat="43.8039927209101" lon="7.617956394721737"><ele>128.0</ele><time>2026-03-29T12:15:14.001Z</time></trkpt><trkpt lat="43.80403369929937" lon="7.617796307527376"><ele>128.0</ele><time>2026-03-29T12:15:16.001Z</time></trkpt><trkpt lat="43.804107584055295" lon="7.617720980191933"><ele>124.0</ele><time>2026-03-29T12:15:17.001Z</time></trkpt><trkpt lat="43.8041983896711" lon="7.617600789570365"><ele>120.00000000000001</ele><time>2026-03-29T12:15:18.001Z</time></trkpt><trkpt lat="43.80425232199169" lon="7.6174794386002596"><ele>116.00000000000001</ele><time>2026-03-29T12:15:19.001Z</time></trkpt><trkpt lat="43.80430404340861" lon="7.6173440064810585"><ele>112.0</ele><time>2026-03-29T12:15:20.001Z</time></trkpt><trkpt lat="43.80434527146451" lon="7.617235668106701"><ele>108.0</ele><time>2026-03-29T12:15:21.001Z</time></trkpt><trkpt lat="43.804396446072" lon="7.617116796844129"><ele>108.0</ele><time>2026-03-29T12:15:22.001Z</time></trkpt><trkpt lat="43.80445135163535" lon="7.617032517016676"><ele>108.0</ele><time>2026-03-29T12:15:23.001Z</time></trkpt><trkpt lat="43.80452711813995" lon="7.616984483728609"><ele>108.0</ele><time>2026-03-29T12:15:24.001Z</time></trkpt><trkpt lat="43.80459072513768" lon="7.616900503079094"><ele>108.0</ele><time>2026-03-29T12:15:25.001Z</time></trkpt><trkpt lat="43.80465416579927" lon="7.616844161425103"><ele>108.0</ele><time>2026-03-29T12:15:26.001Z</time></trkpt><trkpt lat="43.80470054182764" lon="7.616760723743182"><ele>108.0</ele><time>2026-03-29T12:15:27.001Z</time></trkpt><trkpt lat="43.804661255085456" lon="7.616618375425089"><ele>110.16666666666667</ele><time>2026-03-29T12:15:28.001Z</time></trkpt><trkpt lat="43.804605965113076" lon="7.616500263619096"><ele>112.33333333333334</ele><time>2026-03-29T12:15:29.001Z</time></trkpt><trkpt lat="43.80458634221663" lon="7.616391770029309"><ele>114.5</ele><time>2026-03-29T12:15:30.001Z</time></trkpt><trkpt lat="43.80458295280812" lon="7.616302413317344"><ele>116.66666666666667</ele><time>2026-03-29T12:15:31.001Z</time></trkpt><trkpt lat="43.80463129473459" lon="7.616203616987068"><ele>118.83333333333334</ele><time>2026-03-29T12:15:32.001Z</time></trkpt><trkpt lat="43.80468372950957" lon="7.616113982857338"><ele>121.0</ele><time>2026-03-29T12:15:33.001Z</time></trkpt><trkpt lat="43.804747988672766" lon="7.616045787997073"><ele>121.8</ele><time>2026-03-29T12:15:34.001Z</time></trkpt><trkpt lat="43.804823190682384" lon="7.616028013262069"><ele>122.6</ele><time>2026-03-29T12:15:35.001Z</time></trkpt><trkpt lat="43.80491668356908" lon="7.616049952774004"><ele>123.4</ele><time>2026-03-29T12:15:36.001Z</time></trkpt><trkpt lat="43.80502493612146" lon="7.616053586090707"><ele>124.2</ele><time>2026-03-29T12:15:37.001Z</time></trkpt><trkpt lat="43.80511731600778" lon="7.6160405814769"><ele>125.0</ele><time>2026-03-29T12:15:38.001Z</time></trkpt><trkpt lat="43.8051987342007" lon="7.615967612305253"><ele>125.0</ele><time>2026-03-29T12:15:39.001Z</time></trkpt><trkpt lat="43.80526961363841" lon="7.615824883537182"><ele>125.0</ele><time>2026-03-29T12:15:40.001Z</time></trkpt><trkpt lat="43.805338946755725" lon="7.615728910136071"><ele>125.0</ele><time>2026-03-29T12:15:41.001Z</time></trkpt><trkpt lat="43.8054140727684" lon="7.615681003137587"><ele>125.0</ele><time>2026-03-29T12:15:42.001Z</time></trkpt><trkpt lat="43.80552508113452" lon="7.615622561726331"><ele>125.0</ele><time>2026-03-29T12:15:43.001Z</time></trkpt><trkpt lat="43.80560867371943" lon="7.615549126549381"><ele>124.99999999999999</ele><time>2026-03-29T12:15:44.001Z</time></trkpt><trkpt lat="43.80567911985055" lon="7.615457900147102"><ele>125.0</ele><time>2026-03-29T12:15:45.001Z</time></trkpt><trkpt lat="43.805757159785685" lon="7.615386570155574"><ele>125.0</ele><time>2026-03-29T12:15:46.001Z</time></trkpt><trkpt lat="43.80583534299784" lon="7.615331781941382"><ele>125.0</ele><time>2026-03-29T12:15:47.001Z</time></trkpt><trkpt lat="43.805905518942446" lon="7.615282249214747"><ele>124.99999999999999</ele><time>2026-03-29T12:15:48.001Z</time></trkpt><trkpt lat="43.80597875573213" lon="7.6152294291810545"><ele>125.0</ele><time>2026-03-29T12:15:49.001Z</time></trkpt><trkpt lat="43.806044824246385" lon="7.615180686248273"><ele>130.6</ele><time>2026-03-29T12:15:50.001Z</time></trkpt><trkpt lat="43.80610902247529" lon="7.6151387460979425"><ele>136.2</ele><time>2026-03-29T12:15:51.001Z</time></trkpt><trkpt lat="43.806224096814375" lon="7.6152005505351505"><ele>141.8</ele><time>2026-03-29T12:15:53.001Z</time></trkpt><trkpt lat="43.806249956468" lon="7.615306383929075"><ele>147.4</ele><time>2026-03-29T12:15:54.001Z</time></trkpt><trkpt lat="43.806223956965376" lon="7.61542338530732"><ele>153.0</ele><time>2026-03-29T12:15:55.001Z</time></trkpt><trkpt lat="43.806179867778226" lon="7.615531464511441"><ele>153.66666666666666</ele><time>2026-03-29T12:15:56.001Z</time></trkpt><trkpt lat="43.80612911808061" lon="7.615635235649128"><ele>154.33333333333334</ele><time>2026-03-29T12:15:57.001Z</time></trkpt><trkpt lat="43.80607021900202" lon="7.615717202324318"><ele>155.0</ele><time>2026-03-29T12:15:58.001Z</time></trkpt><trkpt lat="43.805993666467444" lon="7.615792646943367"><ele>155.66666666666669</ele><time>2026-03-29T12:15:59.001Z</time></trkpt><trkpt lat="43.80593314295776" lon="7.615884036450625"><ele>156.33333333333334</ele><time>2026-03-29T12:16:00.001Z</time></trkpt><trkpt lat="43.80588819228702" lon="7.615990247442074"><ele>157.0</ele><time>2026-03-29T12:16:01.001Z</time></trkpt><trkpt lat="43.805849086378636" lon="7.616091292049353"><ele>150.83333333333334</ele><time>2026-03-29T12:16:02.001Z</time></trkpt><trkpt lat="43.805806997475706" lon="7.616193128617572"><ele>144.66666666666669</ele><time>2026-03-29T12:16:03.001Z</time></trkpt><trkpt lat="43.805769547220706" lon="7.616288598123668"><ele>138.5</ele><time>2026-03-29T12:16:04.001Z</time></trkpt><trkpt lat="43.805726799946804" lon="7.61638781241499"><ele>132.33333333333334</ele><time>2026-03-29T12:16:05.001Z</time></trkpt><trkpt lat="43.805684533300266" lon="7.616485366762811"><ele>126.16666666666667</ele><time>2026-03-29T12:16:06.001Z</time></trkpt><trkpt lat="43.80564556552535" lon="7.616583436488126"><ele>120.0</ele><time>2026-03-29T12:16:07.001Z</time></trkpt><trkpt lat="43.805622248055606" lon="7.6167008553505156"><ele>120.0</ele><time>2026-03-29T12:16:08.001Z</time></trkpt><trkpt lat="43.80563141469229" lon="7.616839348189811"><ele>120.0</ele><time>2026-03-29T12:16:09.001Z</time></trkpt><trkpt lat="43.80566049636765" lon="7.616985961258999"><ele>120.0</ele><time>2026-03-29T12:16:10.001Z</time></trkpt><trkpt lat="43.80564149085051" lon="7.617115234510116"><ele>120.0</ele><time>2026-03-29T12:16:11.001Z</time></trkpt><trkpt lat="43.80559943836101" lon="7.617246599792237"><ele>120.0</ele><time>2026-03-29T12:16:12.001Z</time></trkpt><trkpt lat="43.80556545936894" lon="7.617391055798788"><ele>120.8</ele><time>2026-03-29T12:16:13.001Z</time></trkpt><trkpt lat="43.805528998520266" lon="7.617521107229854"><ele>121.6</ele><time>2026-03-29T12:16:14.001Z</time></trkpt><trkpt lat="43.80549764496949" lon="7.617647928552429"><ele>122.4</ele><time>2026-03-29T12:16:15.001Z</time></trkpt><trkpt lat="43.8054679933989" lon="7.617763544669124"><ele>123.2</ele><time>2026-03-29T12:16:16.001Z</time></trkpt><trkpt lat="43.80543831010147" lon="7.617892610285562"><ele>124.0</ele><time>2026-03-29T12:16:17.001Z</time></trkpt><trkpt lat="43.805403669980905" lon="7.618023968072999"><ele>124.80000000000001</ele><time>2026-03-29T12:16:18.001Z</time></trkpt><trkpt lat="43.8053650679308" lon="7.618162794847435"><ele>125.60000000000001</ele><time>2026-03-29T12:16:19.001Z</time></trkpt><trkpt lat="43.80533473769354" lon="7.6183092165663515"><ele>126.4</ele><time>2026-03-29T12:16:20.001Z</time></trkpt><trkpt lat="43.80531465305387" lon="7.618464466380121"><ele>127.2</ele><time>2026-03-29T12:16:21.001Z</time></trkpt><trkpt lat="43.80531930570186" lon="7.618613911185117"><ele>128.0</ele><time>2026-03-29T12:16:22.001Z</time></trkpt><trkpt lat="43.805338869134125" lon="7.61876108273421"><ele>126.0</ele><time>2026-03-29T12:16:23.001Z</time></trkpt><trkpt lat="43.80537471790031" lon="7.618899894875652"><ele>124.00000000000001</ele><time>2026-03-29T12:16:24.001Z</time></trkpt><trkpt lat="43.80541403737804" lon="7.619044746357845"><ele>122.00000000000001</ele><time>2026-03-29T12:16:25.001Z</time></trkpt><trkpt lat="43.80545331840818" lon="7.619201733319266"><ele>120.0</ele><time>2026-03-29T12:16:26.001Z</time></trkpt><trkpt lat="43.80547521613357" lon="7.619349029923548"><ele>118.0</ele><time>2026-03-29T12:16:27.001Z</time></trkpt><trkpt lat="43.805471064544044" lon="7.619499487547554"><ele>114.4</ele><time>2026-03-29T12:16:28.001Z</time></trkpt><trkpt lat="43.805441291906085" lon="7.61963889849678"><ele>110.80000000000001</ele><time>2026-03-29T12:16:29.001Z</time></trkpt><trkpt lat="43.805432530055555" lon="7.61977772503432"><ele>107.2</ele><time>2026-03-29T12:16:30.001Z</time></trkpt><trkpt lat="43.805472567626175" lon="7.619909040731468"><ele>103.6</ele><time>2026-03-29T12:16:31.001Z</time></trkpt><trkpt lat="43.80552533676267" lon="7.620022151032321"><ele>100.0</ele><time>2026-03-29T12:16:32.001Z</time></trkpt><trkpt lat="43.80553474046358" lon="7.620141873027218"><ele>100.00000000000001</ele><time>2026-03-29T12:16:33.001Z</time></trkpt><trkpt lat="43.8054685946266" lon="7.620221284408411"><ele>100.0</ele><time>2026-03-29T12:16:34.001Z</time></trkpt><trkpt lat="43.80542313647878" lon="7.620309935007103"><ele>100.0</ele><time>2026-03-29T12:16:35.001Z</time></trkpt><trkpt lat="43.80536606812843" lon="7.6203960680211065"><ele>100.0</ele><time>2026-03-29T12:16:36.001Z</time></trkpt><trkpt lat="43.80533781179318" lon="7.620518672352183"><ele>100.00000000000001</ele><time>2026-03-29T12:16:37.001Z</time></trkpt><trkpt lat="43.80532020140296" lon="7.620663447986045"><ele>100.0</ele><time>2026-03-29T12:16:38.001Z</time></trkpt><trkpt lat="43.80531833814104" lon="7.620809887781856"><ele>99.8</ele><time>2026-03-29T12:16:39.001Z</time></trkpt><trkpt lat="43.805335917388604" lon="7.620941357615833"><ele>99.6</ele><time>2026-03-29T12:16:40.001Z</time></trkpt><trkpt lat="43.80534855762506" lon="7.62106787957386"><ele>99.4</ele><time>2026-03-29T12:16:41.001Z</time></trkpt><trkpt lat="43.805358369897604" lon="7.6212070859226975"><ele>99.2</ele><time>2026-03-29T12:16:42.001Z</time></trkpt><trkpt lat="43.805365974246996" lon="7.621358341189275"><ele>99.0</ele><time>2026-03-29T12:16:43.001Z</time></trkpt><trkpt lat="43.8053780457979" lon="7.621518665773309"><ele>98.0</ele><time>2026-03-29T12:16:44.001Z</time></trkpt><trkpt lat="43.80537799848201" lon="7.6216889011804145"><ele>97.0</ele><time>2026-03-29T12:16:45.001Z</time></trkpt><trkpt lat="43.80539426869083" lon="7.621858334993984"><ele>96.0</ele><time>2026-03-29T12:16:46.001Z</time></trkpt><trkpt lat="43.80540418312331" lon="7.622022017547732"><ele>95.0</ele><time>2026-03-29T12:16:47.001Z</time></trkpt><trkpt lat="43.80541539358479" lon="7.622179445321179"><ele>94.0</ele><time>2026-03-29T12:16:48.001Z</time></trkpt><trkpt lat="43.80542746236041" lon="7.622328560827408"><ele>93.0</ele><time>2026-03-29T12:16:49.001Z</time></trkpt><trkpt lat="43.80543646812787" lon="7.622479136750667"><ele>92.0</ele><time>2026-03-29T12:16:50.001Z</time></trkpt><trkpt lat="43.80544536817498" lon="7.622631185835894"><ele>91.0</ele><time>2026-03-29T12:16:51.001Z</time></trkpt><trkpt lat="43.80545393295675" lon="7.622785941705377"><ele>90.0</ele><time>2026-03-29T12:16:52.001Z</time></trkpt><trkpt lat="43.805465533307526" lon="7.6229372301942835"><ele>85.75</ele><time>2026-03-29T12:16:53.001Z</time></trkpt><trkpt lat="43.805464376187516" lon="7.623101717507675"><ele>81.5</ele><time>2026-03-29T12:16:54.001Z</time></trkpt><trkpt lat="43.805464585202756" lon="7.62327823670272"><ele>77.25</ele><time>2026-03-29T12:16:55.001Z</time></trkpt><trkpt lat="43.805464972404486" lon="7.623452729949215"><ele>73.0</ele><time>2026-03-29T12:16:56.001Z</time></trkpt><trkpt lat="43.80546995999105" lon="7.62361581100865"><ele>69.0</ele><time>2026-03-29T12:16:57.001Z</time></trkpt><trkpt lat="43.80548681018685" lon="7.623769274617585"><ele>65.0</ele><time>2026-03-29T12:16:58.001Z</time></trkpt><trkpt lat="43.80551332193182" lon="7.623912923784772"><ele>61.0</ele><time>2026-03-29T12:16:59.001Z</time></trkpt><trkpt lat="43.805548353166024" lon="7.6240499286430214"><ele>57.0</ele><time>2026-03-29T12:17:00.001Z</time></trkpt><trkpt lat="43.80560033273598" lon="7.624170534665881"><ele>53.0</ele><time>2026-03-29T12:17:01.001Z</time></trkpt><trkpt lat="43.80567456331531" lon="7.624261860552577"><ele>53.0</ele><time>2026-03-29T12:17:02.001Z</time></trkpt><trkpt lat="43.80575937941459" lon="7.624318557348248"><ele>53.0</ele><time>2026-03-29T12:17:03.001Z</time></trkpt><trkpt lat="43.805849626549815" lon="7.624332977017346"><ele>53.0</ele><time>2026-03-29T12:17:04.001Z</time></trkpt><trkpt lat="43.80594006568179" lon="7.624317924314177"><ele>53.0</ele><time>2026-03-29T12:17:05.001Z</time></trkpt><trkpt lat="43.80604083517978" lon="7.624325661459385"><ele>53.0</ele><time>2026-03-29T12:17:06.001Z</time></trkpt><trkpt lat="43.80614405985888" lon="7.624325395316689"><ele>54.0</ele><time>2026-03-29T12:17:07.001Z</time></trkpt><trkpt lat="43.80625976138696" lon="7.624324262389186"><ele>55.0</ele><time>2026-03-29T12:17:08.001Z</time></trkpt><trkpt lat="43.80637064324412" lon="7.624309246195599"><ele>56.0</ele><time>2026-03-29T12:17:09.001Z</time></trkpt><trkpt lat="43.80648440464186" lon="7.624336002163924"><ele>57.0</ele><time>2026-03-29T12:17:10.001Z</time></trkpt><trkpt lat="43.80660511646185" lon="7.624316443685184"><ele>57.0</ele><time>2026-03-29T12:17:11.001Z</time></trkpt><trkpt lat="43.806716731991884" lon="7.6243283950006475"><ele>57.0</ele><time>2026-03-29T12:17:12.001Z</time></trkpt><trkpt lat="43.8068258992242" lon="7.624329084247126"><ele>57.0</ele><time>2026-03-29T12:17:13.001Z</time></trkpt><trkpt lat="43.80693115496241" lon="7.624327588309366"><ele>57.0</ele><time>2026-03-29T12:17:14.001Z</time></trkpt><trkpt lat="43.8070329446579" lon="7.624310932455856"><ele>57.0</ele><time>2026-03-29T12:17:15.001Z</time></trkpt><trkpt lat="43.80713296523654" lon="7.624289493649342"><ele>55.2</ele><time>2026-03-29T12:17:16.001Z</time></trkpt><trkpt lat="43.807227860016646" lon="7.624261377100604"><ele>53.400000000000006</ele><time>2026-03-29T12:17:17.001Z</time></trkpt><trkpt lat="43.807318465346796" lon="7.62423343952549"><ele>51.599999999999994</ele><time>2026-03-29T12:17:18.001Z</time></trkpt><trkpt lat="43.80741216772093" lon="7.62427731625993"><ele>49.8</ele><time>2026-03-29T12:17:19.001Z</time></trkpt><trkpt lat="43.80752300057114" lon="7.624286080615615"><ele>48.0</ele><time>2026-03-29T12:17:20.001Z</time></trkpt><trkpt lat="43.80762075514976" lon="7.624309864039858"><ele>46.8</ele><time>2026-03-29T12:17:21.001Z</time></trkpt><trkpt lat="43.80771797838017" lon="7.62432461780013"><ele>45.599999999999994</ele><time>2026-03-29T12:17:22.001Z</time></trkpt><trkpt lat="43.807816337499744" lon="7.624320186901499"><ele>44.400000000000006</ele><time>2026-03-29T12:17:23.001Z</time></trkpt><trkpt lat="43.80791021450465" lon="7.624306781668115"><ele>43.2</ele><time>2026-03-29T12:17:24.001Z</time></trkpt><trkpt lat="43.80800571255315" lon="7.624300224871051"><ele>42.0</ele><time>2026-03-29T12:17:25.001Z</time></trkpt><trkpt lat="43.80810223579828" lon="7.624299747554383"><ele>42.0</ele><time>2026-03-29T12:17:26.001Z</time></trkpt><trkpt lat="43.80820407687828" lon="7.624291917774854"><ele>42.0</ele><time>2026-03-29T12:17:27.001Z</time></trkpt><trkpt lat="43.8083053843434" lon="7.6242833716188425"><ele>42.0</ele><time>2026-03-29T12:17:28.001Z</time></trkpt><trkpt lat="43.80840470219148" lon="7.624276506783055"><ele>42.0</ele><time>2026-03-29T12:17:29.001Z</time></trkpt><trkpt lat="43.80850311755788" lon="7.624276576280959"><ele>42.0</ele><time>2026-03-29T12:17:30.001Z</time></trkpt><trkpt lat="43.80859739464736" lon="7.624285268365096"><ele>40.5</ele><time>2026-03-29T12:17:31.001Z</time></trkpt><trkpt lat="43.80867789281406" lon="7.62430102655415"><ele>39.0</ele><time>2026-03-29T12:17:32.001Z</time></trkpt><trkpt lat="43.808749692810515" lon="7.624320897829151"><ele>37.5</ele><time>2026-03-29T12:17:33.001Z</time></trkpt><trkpt lat="43.808817174829215" lon="7.6243550553243224"><ele>36.0</ele><time>2026-03-29T12:17:34.001Z</time></trkpt><trkpt lat="43.80888321105812" lon="7.624405608318022"><ele>34.5</ele><time>2026-03-29T12:17:35.001Z</time></trkpt><trkpt lat="43.808948736128066" lon="7.624482383540576"><ele>33.0</ele><time>2026-03-29T12:17:36.001Z</time></trkpt><trkpt lat="43.8090071126086" lon="7.624586731555043"><ele>30.2</ele><time>2026-03-29T12:17:37.001Z</time></trkpt><trkpt lat="43.809046656872184" lon="7.624721804001041"><ele>27.4</ele><time>2026-03-29T12:17:38.001Z</time></trkpt><trkpt lat="43.809063164836346" lon="7.624850780927363"><ele>24.599999999999998</ele><time>2026-03-29T12:17:39.001Z</time></trkpt><trkpt lat="43.809065996822994" lon="7.624972923621945"><ele>21.799999999999997</ele><time>2026-03-29T12:17:40.001Z</time></trkpt><trkpt lat="43.80905463051812" lon="7.625090580521759"><ele>19.0</ele><time>2026-03-29T12:17:41.001Z</time></trkpt><trkpt lat="43.80905096137643" lon="7.625202639431539"><ele>19.0</ele><time>2026-03-29T12:17:42.001Z</time></trkpt><trkpt lat="43.809048531576984" lon="7.62530272885373"><ele>19.0</ele><time>2026-03-29T12:17:43.001Z</time></trkpt><trkpt lat="43.8090457593017" lon="7.625398002028092"><ele>19.0</ele><time>2026-03-29T12:17:44.001Z</time></trkpt><trkpt lat="43.80904352936828" lon="7.625485423387302"><ele>19.0</ele><time>2026-03-29T12:17:45.001Z</time></trkpt><trkpt lat="43.80902742941311" lon="7.625645107763375"><ele>19.0</ele><time>2026-03-29T12:17:47.001Z</time></trkpt><trkpt lat="43.809004667183665" lon="7.625765847927673"><ele>19.0</ele><time>2026-03-29T12:17:49.001Z</time></trkpt><trkpt lat="43.80898619086944" lon="7.6258517383665705"><ele>18.8</ele><time>2026-03-29T12:17:52.001Z</time></trkpt><trkpt lat="43.80895646344879" lon="7.625975964374902"><ele>18.599999999999998</ele><time>2026-03-29T12:18:25.001Z</time></trkpt><trkpt lat="43.80904754435374" lon="7.626086859242969"><ele>18.4</ele><time>2026-03-29T12:18:27.001Z</time></trkpt><trkpt lat="43.809115610886934" lon="7.626141981137406"><ele>18.2</ele><time>2026-03-29T12:18:28.001Z</time></trkpt><trkpt lat="43.80917684932263" lon="7.62619850886839"><ele>18.0</ele><time>2026-03-29T12:18:29.001Z</time></trkpt><trkpt lat="43.809267227381426" lon="7.626283225839658"><ele>18.2</ele><time>2026-03-29T12:18:31.001Z</time></trkpt><trkpt lat="43.80937501272924" lon="7.626390318246237"><ele>18.4</ele><time>2026-03-29T12:18:33.001Z</time></trkpt><trkpt lat="43.80946378904236" lon="7.626471335227196"><ele>18.599999999999998</ele><time>2026-03-29T12:18:34.001Z</time></trkpt><trkpt lat="43.80953886656823" lon="7.62654527870699"><ele>18.8</ele><time>2026-03-29T12:18:35.001Z</time></trkpt><trkpt lat="43.80961477302683" lon="7.626623756472114"><ele>19.0</ele><time>2026-03-29T12:18:36.001Z</time></trkpt><trkpt lat="43.80969550912918" lon="7.626704687806034"><ele>19.0</ele><time>2026-03-29T12:18:37.001Z</time></trkpt><trkpt lat="43.80978589899189" lon="7.626797054962216"><ele>19.0</ele><time>2026-03-29T12:18:38.001Z</time></trkpt><trkpt lat="43.80988153970054" lon="7.626890766671911"><ele>19.0</ele><time>2026-03-29T12:18:39.001Z</time></trkpt><trkpt lat="43.809965030907684" lon="7.626978305019712"><ele>19.0</ele><time>2026-03-29T12:18:40.001Z</time></trkpt><trkpt lat="43.81003946938016" lon="7.627055004561786"><ele>19.0</ele><time>2026-03-29T12:18:41.001Z</time></trkpt><trkpt lat="43.81012076585758" lon="7.6271273387445255"><ele>18.8</ele><time>2026-03-29T12:18:42.001Z</time></trkpt><trkpt lat="43.8101958972296" lon="7.627198319195743"><ele>18.599999999999998</ele><time>2026-03-29T12:18:43.001Z</time></trkpt><trkpt lat="43.81027271184124" lon="7.6272724024756835"><ele>18.4</ele><time>2026-03-29T12:18:44.001Z</time></trkpt><trkpt lat="43.81034693017384" lon="7.627350831885773"><ele>18.2</ele><time>2026-03-29T12:18:45.001Z</time></trkpt><trkpt lat="43.81042868953724" lon="7.627436182834271"><ele>18.0</ele><time>2026-03-29T12:18:46.001Z</time></trkpt><trkpt lat="43.81051707063312" lon="7.627522022774784"><ele>18.0</ele><time>2026-03-29T12:18:47.001Z</time></trkpt><trkpt lat="43.81059689373136" lon="7.627596993539333"><ele>18.0</ele><time>2026-03-29T12:18:48.001Z</time></trkpt><trkpt lat="43.81066690229862" lon="7.627658689797148"><ele>18.0</ele><time>2026-03-29T12:18:49.001Z</time></trkpt><trkpt lat="43.81073060318427" lon="7.627712009077523"><ele>18.0</ele><time>2026-03-29T12:18:50.001Z</time></trkpt><trkpt lat="43.81083119870731" lon="7.6277869344949805"><ele>18.0</ele><time>2026-03-29T12:18:52.001Z</time></trkpt><trkpt lat="43.81088881116643" lon="7.627869907362164"><ele>18.4</ele><time>2026-03-29T12:18:54.001Z</time></trkpt><trkpt lat="43.81086362342516" lon="7.628051399524955"><ele>18.8</ele><time>2026-03-29T12:18:56.001Z</time></trkpt><trkpt lat="43.81082605549249" lon="7.6281548576035805"><ele>19.2</ele><time>2026-03-29T12:18:57.001Z</time></trkpt><trkpt lat="43.81079444788919" lon="7.628283513148452"><ele>19.6</ele><time>2026-03-29T12:18:58.001Z</time></trkpt><trkpt lat="43.81077127919329" lon="7.628417707325537"><ele>20.0</ele><time>2026-03-29T12:18:59.001Z</time></trkpt><trkpt lat="43.81075444649453" lon="7.628552891846358"><ele>19.25</ele><time>2026-03-29T12:19:00.001Z</time></trkpt><trkpt lat="43.810745775551304" lon="7.628690459585411"><ele>18.5</ele><time>2026-03-29T12:19:01.001Z</time></trkpt><trkpt lat="43.810767557943095" lon="7.6288342019793385"><ele>17.75</ele><time>2026-03-29T12:19:02.001Z</time></trkpt><trkpt lat="43.810833557029234" lon="7.628972660486915"><ele>17.0</ele><time>2026-03-29T12:19:03.001Z</time></trkpt><trkpt lat="43.810919229770015" lon="7.6291015570669884"><ele>17.4</ele><time>2026-03-29T12:19:04.001Z</time></trkpt><trkpt lat="43.810993812780964" lon="7.629223659864994"><ele>17.799999999999997</ele><time>2026-03-29T12:19:05.001Z</time></trkpt><trkpt lat="43.8110514915749" lon="7.629334813707736"><ele>18.2</ele><time>2026-03-29T12:19:06.001Z</time></trkpt><trkpt lat="43.811110529736574" lon="7.629428618700778"><ele>18.599999999999998</ele><time>2026-03-29T12:19:07.001Z</time></trkpt><trkpt lat="43.81116195069481" lon="7.629516090215052"><ele>19.0</ele><time>2026-03-29T12:19:08.001Z</time></trkpt><trkpt lat="43.81120993151248" lon="7.629618668873641"><ele>19.0</ele><time>2026-03-29T12:19:09.001Z</time></trkpt><trkpt lat="43.8112642753867" lon="7.629734247662351"><ele>19.0</ele><time>2026-03-29T12:19:10.001Z</time></trkpt><trkpt lat="43.811327910330405" lon="7.629855379795268"><ele>19.0</ele><time>2026-03-29T12:19:11.001Z</time></trkpt><trkpt lat="43.81139064864562" lon="7.629989811914126"><ele>19.0</ele><time>2026-03-29T12:19:12.001Z</time></trkpt><trkpt lat="43.811457247498915" lon="7.63013123300122"><ele>19.0</ele><time>2026-03-29T12:19:13.001Z</time></trkpt><trkpt lat="43.811525912938734" lon="7.630274167025312"><ele>18.8</ele><time>2026-03-29T12:19:14.001Z</time></trkpt><trkpt lat="43.81159130152939" lon="7.630403703266513"><ele>18.599999999999998</ele><time>2026-03-29T12:19:15.001Z</time></trkpt><trkpt lat="43.81165308555572" lon="7.630528097641552"><ele>18.4</ele><time>2026-03-29T12:19:16.001Z</time></trkpt><trkpt lat="43.81171630572019" lon="7.630654858981397"><ele>18.2</ele><time>2026-03-29T12:19:17.001Z</time></trkpt><trkpt lat="43.81177662899185" lon="7.630773703152429"><ele>18.0</ele><time>2026-03-29T12:19:18.001Z</time></trkpt><trkpt lat="43.811834177608375" lon="7.630873199504438"><ele>18.5</ele><time>2026-03-29T12:19:19.001Z</time></trkpt><trkpt lat="43.81189544843289" lon="7.630975067893087"><ele>19.0</ele><time>2026-03-29T12:19:20.001Z</time></trkpt><trkpt lat="43.811973519467315" lon="7.631111901103949"><ele>19.5</ele><time>2026-03-29T12:19:21.001Z</time></trkpt><trkpt lat="43.8120577421029" lon="7.631273398284605"><ele>20.0</ele><time>2026-03-29T12:19:22.001Z</time></trkpt><trkpt lat="43.8121346657803" lon="7.631408541409335"><ele>20.0</ele><time>2026-03-29T12:19:23.001Z</time></trkpt><trkpt lat="43.812215656535464" lon="7.631530397985765"><ele>20.0</ele><time>2026-03-29T12:19:24.001Z</time></trkpt><trkpt lat="43.81228853157234" lon="7.631650936420939"><ele>20.0</ele><time>2026-03-29T12:19:25.001Z</time></trkpt><trkpt lat="43.812364174383006" lon="7.631774485164277"><ele>20.0</ele><time>2026-03-29T12:19:26.001Z</time></trkpt><trkpt lat="43.81246941577268" lon="7.6318865541405945"><ele>20.0</ele><time>2026-03-29T12:19:27.001Z</time></trkpt><trkpt lat="43.81260334585477" lon="7.631984091482111"><ele>20.0</ele><time>2026-03-29T12:19:28.001Z</time></trkpt><trkpt lat="43.812725933837264" lon="7.632077904338187"><ele>20.0</ele><time>2026-03-29T12:19:29.001Z</time></trkpt><trkpt lat="43.81282804194085" lon="7.632164386570915"><ele>20.0</ele><time>2026-03-29T12:19:30.001Z</time></trkpt><trkpt lat="43.81293023152026" lon="7.632242913387904"><ele>20.0</ele><time>2026-03-29T12:19:31.001Z</time></trkpt><trkpt lat="43.81304373475933" lon="7.632319761252024"><ele>20.0</ele><time>2026-03-29T12:19:32.001Z</time></trkpt><trkpt lat="43.81315909949208" lon="7.632396935548814"><ele>20.0</ele><time>2026-03-29T12:19:33.001Z</time></trkpt><trkpt lat="43.813263750272554" lon="7.632463806374586"><ele>20.0</ele><time>2026-03-29T12:19:34.001Z</time></trkpt><trkpt lat="43.81336553748031" lon="7.632515209063431"><ele>20.0</ele><time>2026-03-29T12:19:35.001Z</time></trkpt><trkpt lat="43.81346297406546" lon="7.632552586233371"><ele>20.0</ele><time>2026-03-29T12:19:36.001Z</time></trkpt><trkpt lat="43.813557726988044" lon="7.632581900970597"><ele>20.0</ele><time>2026-03-29T12:19:37.001Z</time></trkpt><trkpt lat="43.81364451993252" lon="7.632599672264218"><ele>20.0</ele><time>2026-03-29T12:19:38.001Z</time></trkpt><trkpt lat="43.81373814246992" lon="7.632604739502347"><ele>20.0</ele><time>2026-03-29T12:19:39.001Z</time></trkpt><trkpt lat="43.813837595661866" lon="7.632602363767097"><ele>20.0</ele><time>2026-03-29T12:19:40.001Z</time></trkpt><trkpt lat="43.81393070136883" lon="7.632591782281678"><ele>20.0</ele><time>2026-03-29T12:19:41.001Z</time></trkpt><trkpt lat="43.81400842309736" lon="7.632579497091007"><ele>20.0</ele><time>2026-03-29T12:19:42.001Z</time></trkpt><trkpt lat="43.81411183779674" lon="7.632559139634137"><ele>20.0</ele><time>2026-03-29T12:19:44.001Z</time></trkpt><trkpt lat="43.81419349700946" lon="7.632534098370955"><ele>20.0</ele><time>2026-03-29T12:19:46.001Z</time></trkpt><trkpt lat="43.81429742774444" lon="7.632447117422801"><ele>20.2</ele><time>2026-03-29T12:19:48.001Z</time></trkpt><trkpt lat="43.81440273164375" lon="7.6324980792755746"><ele>20.4</ele><time>2026-03-29T12:19:49.001Z</time></trkpt><trkpt lat="43.81449864825509" lon="7.632490331038099"><ele>20.6</ele><time>2026-03-29T12:19:50.001Z</time></trkpt><trkpt lat="43.81460586577109" lon="7.632483037923953"><ele>20.8</ele><time>2026-03-29T12:19:51.001Z</time></trkpt><trkpt lat="43.81471678629213" lon="7.632471075845284"><ele>21.0</ele><time>2026-03-29T12:19:52.001Z</time></trkpt><trkpt lat="43.81481901880092" lon="7.63245976682295"><ele>21.0</ele><time>2026-03-29T12:19:53.001Z</time></trkpt><trkpt lat="43.81491638712556" lon="7.632454793041502"><ele>21.0</ele><time>2026-03-29T12:19:54.001Z</time></trkpt><trkpt lat="43.81500112778591" lon="7.632458951486487"><ele>21.0</ele><time>2026-03-29T12:19:55.001Z</time></trkpt><trkpt lat="43.81506961079516" lon="7.632456671654675"><ele>21.0</ele><time>2026-03-29T12:19:56.001Z</time></trkpt><trkpt lat="43.81513547357402" lon="7.632444694765898"><ele>21.0</ele><time>2026-03-29T12:19:57.001Z</time></trkpt><trkpt lat="43.815231861307055" lon="7.6324302643699875"><ele>21.0</ele><time>2026-03-29T12:19:59.001Z</time></trkpt><trkpt lat="43.81531448842301" lon="7.632468657647491"><ele>21.0</ele><time>2026-03-29T12:20:03.001Z</time></trkpt><trkpt lat="43.81538090171893" lon="7.632447295688177"><ele>21.0</ele><time>2026-03-29T12:20:07.001Z</time></trkpt><trkpt lat="43.81531392270481" lon="7.632428275769177"><ele>21.0</ele><time>2026-03-29T12:20:18.001Z</time></trkpt><trkpt lat="43.81523664191739" lon="7.632440603517981"><ele>21.0</ele><time>2026-03-29T12:20:20.001Z</time></trkpt><trkpt lat="43.81515842058942" lon="7.6324693673175945"><ele>21.0</ele><time>2026-03-29T12:20:22.001Z</time></trkpt><trkpt lat="43.815074309085375" lon="7.632462246093203"><ele>21.0</ele><time>2026-03-29T12:20:24.001Z</time></trkpt><trkpt lat="43.81495865788684" lon="7.632450828933325"><ele>21.0</ele><time>2026-03-29T12:20:26.001Z</time></trkpt><trkpt lat="43.81483721867409" lon="7.632449620954877"><ele>21.0</ele><time>2026-03-29T12:20:28.001Z</time></trkpt><trkpt lat="43.81471498635154" lon="7.6324709685422345"><ele>21.0</ele><time>2026-03-29T12:20:30.001Z</time></trkpt><trkpt lat="43.814608205379926" lon="7.632477908592325"><ele>21.0</ele><time>2026-03-29T12:20:32.001Z</time></trkpt><trkpt lat="43.814543329318234" lon="7.63248445185839"><ele>21.0</ele><time>2026-03-29T12:20:33.001Z</time></trkpt><trkpt lat="43.814465387549504" lon="7.6324958364882605"><ele>21.0</ele><time>2026-03-29T12:20:34.001Z</time></trkpt><trkpt lat="43.814390689214676" lon="7.632503394363108"><ele>21.0</ele><time>2026-03-29T12:20:35.001Z</time></trkpt><trkpt lat="43.81428500176325" lon="7.6325122962325525"><ele>21.0</ele><time>2026-03-29T12:20:37.001Z</time></trkpt><trkpt lat="43.81421077132917" lon="7.632523807397549"><ele>21.0</ele><time>2026-03-29T12:20:39.001Z</time></trkpt><trkpt lat="43.81411681472727" lon="7.632539748372222"><ele>21.0</ele><time>2026-03-29T12:20:42.001Z</time></trkpt><trkpt lat="43.81400868813306" lon="7.632572667311447"><ele>20.833333333333332</ele><time>2026-03-29T12:20:45.001Z</time></trkpt><trkpt lat="43.81393125456274" lon="7.632583778955798"><ele>20.666666666666668</ele><time>2026-03-29T12:20:46.001Z</time></trkpt><trkpt lat="43.81383361276849" lon="7.632585651610646"><ele>20.5</ele><time>2026-03-29T12:20:47.001Z</time></trkpt><trkpt lat="43.81374441182237" lon="7.632581556603647"><ele>20.333333333333336</ele><time>2026-03-29T12:20:48.001Z</time></trkpt><trkpt lat="43.813672244636045" lon="7.632573186533728"><ele>20.166666666666668</ele><time>2026-03-29T12:20:49.001Z</time></trkpt><trkpt lat="43.81357326752488" lon="7.632541183829964"><ele>20.0</ele><time>2026-03-29T12:20:51.001Z</time></trkpt><trkpt lat="43.81354857335883" lon="7.632374803606605"><ele>20.0</ele><time>2026-03-29T12:20:55.001Z</time></trkpt><trkpt lat="43.81357736032772" lon="7.632258361164647"><ele>20.0</ele><time>2026-03-29T12:20:56.001Z</time></trkpt><trkpt lat="43.813634505825" lon="7.632125695709318"><ele>20.0</ele><time>2026-03-29T12:20:57.001Z</time></trkpt><trkpt lat="43.8136873469988" lon="7.632000557022641"><ele>20.0</ele><time>2026-03-29T12:20:58.001Z</time></trkpt><trkpt lat="43.81373902130137" lon="7.63188241816884"><ele>20.0</ele><time>2026-03-29T12:20:59.001Z</time></trkpt><trkpt lat="43.81378428677382" lon="7.63178524383884"><ele>20.166666666666668</ele><time>2026-03-29T12:21:00.001Z</time></trkpt><trkpt lat="43.8138260545178" lon="7.631699953707226"><ele>20.333333333333336</ele><time>2026-03-29T12:21:01.001Z</time></trkpt><trkpt lat="43.81387089688494" lon="7.631599729730947"><ele>20.5</ele><time>2026-03-29T12:21:02.001Z</time></trkpt><trkpt lat="43.81392925763004" lon="7.63147865022502"><ele>20.666666666666668</ele><time>2026-03-29T12:21:03.001Z</time></trkpt><trkpt lat="43.81398709845913" lon="7.631365423820206"><ele>20.833333333333332</ele><time>2026-03-29T12:21:04Z</time></trkpt><trkpt lat="43.81403318978416" lon="7.631267873915458"><ele>21.0</ele><time>2026-03-29T12:21:05Z</time></trkpt><trkpt lat="43.81407159986175" lon="7.631173626232505"><ele>21.0</ele><time>2026-03-29T12:21:06Z</time></trkpt><trkpt lat="43.81410374705172" lon="7.631091908936017"><ele>21.0</ele><time>2026-03-29T12:21:07Z</time></trkpt><trkpt lat="43.81417682999656" lon="7.630984732980361"><ele>21.0</ele><time>2026-03-29T12:21:09Z</time></trkpt><trkpt lat="43.81430469851328" lon="7.631047693068888"><ele>21.0</ele><time>2026-03-29T12:21:11Z</time></trkpt><trkpt lat="43.81439716648663" lon="7.631141891421685"><ele>21.0</ele><time>2026-03-29T12:21:12Z</time></trkpt><trkpt lat="43.81448983762032" lon="7.631215290902077"><ele>21.25</ele><time>2026-03-29T12:21:13Z</time></trkpt><trkpt lat="43.81459376261003" lon="7.631297137022655"><ele>21.5</ele><time>2026-03-29T12:21:14Z</time></trkpt><trkpt lat="43.81469467207018" lon="7.631385117011791"><ele>21.75</ele><time>2026-03-29T12:21:15Z</time></trkpt><trkpt lat="43.81481238261252" lon="7.631484614975612"><ele>22.0</ele><time>2026-03-29T12:21:16Z</time></trkpt><trkpt lat="43.81492054314312" lon="7.631570632081931"><ele>22.0</ele><time>2026-03-29T12:21:17Z</time></trkpt><trkpt lat="43.81501349535332" lon="7.631653168169915"><ele>22.0</ele><time>2026-03-29T12:21:18Z</time></trkpt><trkpt lat="43.81509109515658" lon="7.631730120252886"><ele>22.0</ele><time>2026-03-29T12:21:19Z</time></trkpt><trkpt lat="43.81516769660319" lon="7.631812490613911"><ele>22.0</ele><time>2026-03-29T12:21:20Z</time></trkpt><trkpt lat="43.81524276977214" lon="7.631917519669511"><ele>22.0</ele><time>2026-03-29T12:21:21Z</time></trkpt><trkpt lat="43.81530918971245" lon="7.6320480008588225"><ele>21.833333333333332</ele><time>2026-03-29T12:21:22Z</time></trkpt><trkpt lat="43.81536698599671" lon="7.6321656427765685"><ele>21.666666666666664</ele><time>2026-03-29T12:21:23Z</time></trkpt><trkpt lat="43.815420299774175" lon="7.6322636807027315"><ele>21.5</ele><time>2026-03-29T12:21:24Z</time></trkpt><trkpt lat="43.81546619180907" lon="7.632344695173006"><ele>21.333333333333332</ele><time>2026-03-29T12:21:25Z</time></trkpt><trkpt lat="43.815537047608494" lon="7.632441529172492"><ele>21.166666666666668</ele><time>2026-03-29T12:21:27Z</time></trkpt><trkpt lat="43.81561364586324" lon="7.632487771935715"><ele>21.0</ele><time>2026-03-29T12:21:29Z</time></trkpt><trkpt lat="43.815694549211806" lon="7.6325077370536505"><ele>21.0</ele><time>2026-03-29T12:21:32Z</time></trkpt><trkpt lat="43.81578689696305" lon="7.6325107283540685"><ele>21.0</ele><time>2026-03-29T12:21:34Z</time></trkpt><trkpt lat="43.815866815008015" lon="7.63249490638619"><ele>21.0</ele><time>2026-03-29T12:21:35Z</time></trkpt><trkpt lat="43.81595505009786" lon="7.632502630949415"><ele>21.0</ele><time>2026-03-29T12:21:36Z</time></trkpt><trkpt lat="43.81602734821226" lon="7.632506735517356"><ele>21.0</ele><time>2026-03-29T12:21:37Z</time></trkpt><trkpt lat="43.81609768818889" lon="7.632531744483188"><ele>21.0</ele><time>2026-03-29T12:21:38Z</time></trkpt><trkpt lat="43.81618169620344" lon="7.632535401464415"><ele>21.6</ele><time>2026-03-29T12:21:39Z</time></trkpt><trkpt lat="43.81628710458985" lon="7.632518244982563"><ele>22.200000000000003</ele><time>2026-03-29T12:21:40Z</time></trkpt><trkpt lat="43.81639796437185" lon="7.632528362063843"><ele>22.799999999999997</ele><time>2026-03-29T12:21:41Z</time></trkpt><trkpt lat="43.81651019522631" lon="7.632536156919425"><ele>23.4</ele><time>2026-03-29T12:21:42Z</time></trkpt><trkpt lat="43.81662736504487" lon="7.632542782815101"><ele>24.0</ele><time>2026-03-29T12:21:43Z</time></trkpt><trkpt lat="43.81674882788279" lon="7.632551449463743"><ele>24.0</ele><time>2026-03-29T12:21:44Z</time></trkpt><trkpt lat="43.816877525256295" lon="7.632561686196295"><ele>24.0</ele><time>2026-03-29T12:21:45Z</time></trkpt><trkpt lat="43.817010008545815" lon="7.632579615185818"><ele>24.0</ele><time>2026-03-29T12:21:46Z</time></trkpt><trkpt lat="43.8171451087965" lon="7.6325820698561415"><ele>24.0</ele><time>2026-03-29T12:21:47Z</time></trkpt><trkpt lat="43.81727206351605" lon="7.6325852456620815"><ele>24.0</ele><time>2026-03-29T12:21:48Z</time></trkpt><trkpt lat="43.81738986012518" lon="7.6325946491245515"><ele>24.0</ele><time>2026-03-29T12:21:49Z</time></trkpt><trkpt lat="43.81751240288541" lon="7.632604352741952"><ele>24.0</ele><time>2026-03-29T12:21:50Z</time></trkpt><trkpt lat="43.81765587502043" lon="7.632609623204924"><ele>24.0</ele><time>2026-03-29T12:21:51Z</time></trkpt><trkpt lat="43.817797240245014" lon="7.63261482165334"><ele>24.25</ele><time>2026-03-29T12:21:52Z</time></trkpt><trkpt lat="43.81792351451039" lon="7.632618452203582"><ele>24.5</ele><time>2026-03-29T12:21:53Z</time></trkpt><trkpt lat="43.8180398641597" lon="7.632619398395629"><ele>24.75</ele><time>2026-03-29T12:21:54Z</time></trkpt><trkpt lat="43.81816061767314" lon="7.632620607333269"><ele>25.0</ele><time>2026-03-29T12:21:55Z</time></trkpt><trkpt lat="43.81828558384379" lon="7.632620600566587"><ele>25.0</ele><time>2026-03-29T12:21:56Z</time></trkpt><trkpt lat="43.818417610776144" lon="7.632612048267929"><ele>25.0</ele><time>2026-03-29T12:21:57Z</time></trkpt><trkpt lat="43.818548704000605" lon="7.632635994029074"><ele>25.0</ele><time>2026-03-29T12:21:58Z</time></trkpt><trkpt lat="43.81867190745992" lon="7.632622006566522"><ele>25.0</ele><time>2026-03-29T12:21:59Z</time></trkpt><trkpt lat="43.8187833039816" lon="7.632558862862483"><ele>25.0</ele><time>2026-03-29T12:22:00Z</time></trkpt><trkpt lat="43.8189036079206" lon="7.63252732350128"><ele>25.0</ele><time>2026-03-29T12:22:01Z</time></trkpt><trkpt lat="43.81902365055831" lon="7.632512680622159"><ele>25.0</ele><time>2026-03-29T12:22:02Z</time></trkpt><trkpt lat="43.81913376838671" lon="7.63250701535672"><ele>25.0</ele><time>2026-03-29T12:22:03Z</time></trkpt><trkpt lat="43.819231743779454" lon="7.632492684768209"><ele>25.0</ele><time>2026-03-29T12:22:04Z</time></trkpt><trkpt lat="43.81931718867199" lon="7.632469545055218"><ele>25.0</ele><time>2026-03-29T12:22:05Z</time></trkpt><trkpt lat="43.819387462753674" lon="7.632434359876935"><ele>25.0</ele><time>2026-03-29T12:22:06Z</time></trkpt><trkpt lat="43.81948752654917" lon="7.6323623988272455"><ele>25.0</ele><time>2026-03-29T12:22:08Z</time></trkpt><trkpt lat="43.81959319158201" lon="7.632282713978235"><ele>25.0</ele><time>2026-03-29T12:22:10Z</time></trkpt><trkpt lat="43.819648067992894" lon="7.632225644674686"><ele>25.166666666666668</ele><time>2026-03-29T12:22:11Z</time></trkpt><trkpt lat="43.81972283575645" lon="7.632151631926844"><ele>25.333333333333336</ele><time>2026-03-29T12:22:13Z</time></trkpt><trkpt lat="43.81979055083516" lon="7.6321040450577255"><ele>25.5</ele><time>2026-03-29T12:22:17Z</time></trkpt><trkpt lat="43.81972647796286" lon="7.632169032694837"><ele>25.666666666666664</ele><time>2026-03-29T12:23:33Z</time></trkpt><trkpt lat="43.81964647115258" lon="7.632246323169176"><ele>25.833333333333332</ele><time>2026-03-29T12:23:35Z</time></trkpt><trkpt lat="43.81962333102544" lon="7.63233064306918"><ele>26.0</ele><time>2026-03-29T12:23:40Z</time></trkpt><trkpt lat="43.81963602439412" lon="7.632442986045429"><ele>25.999999999999996</ele><time>2026-03-29T12:24:54Z</time></trkpt><trkpt lat="43.81957126253246" lon="7.632494113392627"><ele>26.0</ele><time>2026-03-29T12:24:57Z</time></trkpt><trkpt lat="43.819509881026825" lon="7.632412655807497"><ele>26.0</ele><time>2026-03-29T12:24:59Z</time></trkpt><trkpt lat="43.81943679405024" lon="7.6323779651290495"><ele>26.0</ele><time>2026-03-29T12:25:03Z</time></trkpt><trkpt lat="43.819375836927435" lon="7.632429538456435"><ele>25.999999999999996</ele><time>2026-03-29T12:25:04Z</time></trkpt><trkpt lat="43.81928667373529" lon="7.632484438373006"><ele>26.0</ele><time>2026-03-29T12:25:05Z</time></trkpt><trkpt lat="43.81917002338049" lon="7.63248318900479"><ele>25.75</ele><time>2026-03-29T12:25:06Z</time></trkpt><trkpt lat="43.81905778552767" lon="7.632492154068266"><ele>25.5</ele><time>2026-03-29T12:25:07Z</time></trkpt><trkpt lat="43.81894347111052" lon="7.632499317785235"><ele>25.25</ele><time>2026-03-29T12:25:08Z</time></trkpt><trkpt lat="43.8188205324864" lon="7.632528673287521"><ele>25.0</ele><time>2026-03-29T12:25:09Z</time></trkpt><trkpt lat="43.8186855780192" lon="7.63255285551596"><ele>25.0</ele><time>2026-03-29T12:25:10Z</time></trkpt><trkpt lat="43.81856838624857" lon="7.632593262500777"><ele>25.0</ele><time>2026-03-29T12:25:11Z</time></trkpt><trkpt lat="43.81845887054265" lon="7.63259000415675"><ele>25.0</ele><time>2026-03-29T12:25:12Z</time></trkpt><trkpt lat="43.818339104063085" lon="7.632599355649651"><ele>25.0</ele><time>2026-03-29T12:25:13Z</time></trkpt><trkpt lat="43.818192891122024" lon="7.632588075270818"><ele>25.0</ele><time>2026-03-29T12:25:14Z</time></trkpt><trkpt lat="43.81805976836267" lon="7.632599854619366"><ele>25.0</ele><time>2026-03-29T12:25:15Z</time></trkpt><trkpt lat="43.817931184844824" lon="7.632603662492183"><ele>25.0</ele><time>2026-03-29T12:25:16Z</time></trkpt><trkpt lat="43.817790660663064" lon="7.63259119758583"><ele>25.0</ele><time>2026-03-29T12:25:17Z</time></trkpt><trkpt lat="43.81762479603413" lon="7.632582437620831"><ele>24.75</ele><time>2026-03-29T12:25:18Z</time></trkpt><trkpt lat="43.81746654098929" lon="7.6325725648177905"><ele>24.5</ele><time>2026-03-29T12:25:19Z</time></trkpt><trkpt lat="43.817329943657526" lon="7.632565688110695"><ele>24.25</ele><time>2026-03-29T12:25:20Z</time></trkpt><trkpt lat="43.81720886520974" lon="7.632558516256042"><ele>24.0</ele><time>2026-03-29T12:25:21Z</time></trkpt><trkpt lat="43.81708881949943" lon="7.6325541070462775"><ele>24.0</ele><time>2026-03-29T12:25:22Z</time></trkpt><trkpt lat="43.816967476535204" lon="7.63254922880603"><ele>24.0</ele><time>2026-03-29T12:25:23Z</time></trkpt><trkpt lat="43.81684179150238" lon="7.632540757086746"><ele>24.0</ele><time>2026-03-29T12:25:24Z</time></trkpt><trkpt lat="43.81671115631977" lon="7.632535523149306"><ele>24.0</ele><time>2026-03-29T12:25:25Z</time></trkpt><trkpt lat="43.816585133089035" lon="7.6325176047615235"><ele>24.0</ele><time>2026-03-29T12:25:26Z</time></trkpt><trkpt lat="43.81647022316731" lon="7.63250956853238"><ele>24.0</ele><time>2026-03-29T12:25:27Z</time></trkpt><trkpt lat="43.81636258128314" lon="7.632506976373362"><ele>24.0</ele><time>2026-03-29T12:25:28Z</time></trkpt><trkpt lat="43.816253536679675" lon="7.6325009172894065"><ele>24.0</ele><time>2026-03-29T12:25:29Z</time></trkpt><trkpt lat="43.8161423829209" lon="7.632488597358909"><ele>24.0</ele><time>2026-03-29T12:25:30Z</time></trkpt><trkpt lat="43.8160301465397" lon="7.632477641805599"><ele>23.4</ele><time>2026-03-29T12:25:31Z</time></trkpt><trkpt lat="43.81592273832951" lon="7.63247321273579"><ele>22.799999999999997</ele><time>2026-03-29T12:25:32Z</time></trkpt><trkpt lat="43.81582730949689" lon="7.632470916241705"><ele>22.200000000000003</ele><time>2026-03-29T12:25:33Z</time></trkpt><trkpt lat="43.815740411671776" lon="7.6324638259787045"><ele>21.6</ele><time>2026-03-29T12:25:34Z</time></trkpt><trkpt lat="43.815660777100064" lon="7.63244770279479"><ele>21.0</ele><time>2026-03-29T12:25:35Z</time></trkpt><trkpt lat="43.81558373319339" lon="7.63241296163994"><ele>21.0</ele><time>2026-03-29T12:25:36Z</time></trkpt><trkpt lat="43.81550365434311" lon="7.632338990931358"><ele>21.0</ele><time>2026-03-29T12:25:37Z</time></trkpt><trkpt lat="43.8154259591196" lon="7.632225173275905"><ele>21.0</ele><time>2026-03-29T12:25:38Z</time></trkpt><trkpt lat="43.81535329495044" lon="7.632080802458233"><ele>21.0</ele><time>2026-03-29T12:25:39Z</time></trkpt><trkpt lat="43.81529507852811" lon="7.6319593263684355"><ele>21.0</ele><time>2026-03-29T12:25:40Z</time></trkpt><trkpt lat="43.81523607703867" lon="7.631858353556384"><ele>21.25</ele><time>2026-03-29T12:25:41Z</time></trkpt><trkpt lat="43.81516075971392" lon="7.631764408499779"><ele>21.5</ele><time>2026-03-29T12:25:42Z</time></trkpt><trkpt lat="43.81506809944032" lon="7.631667195017511"><ele>21.75</ele><time>2026-03-29T12:25:43Z</time></trkpt><trkpt lat="43.81495916729657" lon="7.631577151278726"><ele>22.0</ele><time>2026-03-29T12:25:44Z</time></trkpt><trkpt lat="43.81484995287064" lon="7.6314909253720495"><ele>22.0</ele><time>2026-03-29T12:25:45Z</time></trkpt><trkpt lat="43.814736378897024" lon="7.63139531668018"><ele>22.0</ele><time>2026-03-29T12:25:46Z</time></trkpt><trkpt lat="43.814636352334" lon="7.6313105177589104"><ele>22.0</ele><time>2026-03-29T12:25:47Z</time></trkpt><trkpt lat="43.81454937291398" lon="7.631234891319793"><ele>22.0</ele><time>2026-03-29T12:25:48Z</time></trkpt><trkpt lat="43.81446376244754" lon="7.6311714310420715"><ele>22.0</ele><time>2026-03-29T12:25:49Z</time></trkpt><trkpt lat="43.8143863380941" lon="7.631105332241881"><ele>22.0</ele><time>2026-03-29T12:25:50Z</time></trkpt><trkpt lat="43.81431720603979" lon="7.631049119541753"><ele>22.0</ele><time>2026-03-29T12:25:51Z</time></trkpt><trkpt lat="43.81425236925531" lon="7.6310048106345105"><ele>22.0</ele><time>2026-03-29T12:25:52Z</time></trkpt><trkpt lat="43.81418141595061" lon="7.630960137908812"><ele>22.0</ele><time>2026-03-29T12:25:54Z</time></trkpt><trkpt lat="43.814105567325804" lon="7.631022649488724"><ele>22.0</ele><time>2026-03-29T12:25:58Z</time></trkpt><trkpt lat="43.814057208660195" lon="7.63115370627729"><ele>21.8</ele><time>2026-03-29T12:26:00Z</time></trkpt><trkpt lat="43.81400612562701" lon="7.631266923006237"><ele>21.6</ele><time>2026-03-29T12:26:02Z</time></trkpt><trkpt lat="43.813948935050234" lon="7.631394076692797"><ele>21.400000000000002</ele><time>2026-03-29T12:26:03Z</time></trkpt><trkpt lat="43.81389678323542" lon="7.631505825462927"><ele>21.200000000000003</ele><time>2026-03-29T12:26:04Z</time></trkpt><trkpt lat="43.8138395545236" lon="7.631628309642087"><ele>21.0</ele><time>2026-03-29T12:26:05Z</time></trkpt><trkpt lat="43.81378735636872" lon="7.631743676576523"><ele>21.0</ele><time>2026-03-29T12:26:06Z</time></trkpt><trkpt lat="43.813736252572795" lon="7.631859496744726"><ele>21.0</ele><time>2026-03-29T12:26:07Z</time></trkpt><trkpt lat="43.81368756651599" lon="7.631974126021817"><ele>21.0</ele><time>2026-03-29T12:26:08Z</time></trkpt><trkpt lat="43.813640413522194" lon="7.63208598213891"><ele>21.0</ele><time>2026-03-29T12:26:09Z</time></trkpt><trkpt lat="43.81359803573555" lon="7.63219701030372"><ele>21.0</ele><time>2026-03-29T12:26:10Z</time></trkpt><trkpt lat="43.81356447264014" lon="7.63229492319"><ele>20.8</ele><time>2026-03-29T12:26:11Z</time></trkpt><trkpt lat="43.81353400487699" lon="7.632380437592826"><ele>20.6</ele><time>2026-03-29T12:26:12Z</time></trkpt><trkpt lat="43.813500306102426" lon="7.63245908319671"><ele>20.4</ele><time>2026-03-29T12:26:13Z</time></trkpt><trkpt lat="43.81338937849" lon="7.632518773926219"><ele>20.2</ele><time>2026-03-29T12:26:15Z</time></trkpt><trkpt lat="43.81330107618982" lon="7.632447951830022"><ele>20.0</ele><time>2026-03-29T12:26:16Z</time></trkpt><trkpt lat="43.81318221420028" lon="7.632390401754029"><ele>20.0</ele><time>2026-03-29T12:26:17Z</time></trkpt><trkpt lat="43.813075811573235" lon="7.632319266287203"><ele>20.0</ele><time>2026-03-29T12:26:18Z</time></trkpt><trkpt lat="43.812974067326515" lon="7.632252249910893"><ele>20.0</ele><time>2026-03-29T12:26:19Z</time></trkpt><trkpt lat="43.812851394394926" lon="7.632155400489828"><ele>20.0</ele><time>2026-03-29T12:26:20Z</time></trkpt><trkpt lat="43.81273268361182" lon="7.632057241598505"><ele>20.0</ele><time>2026-03-29T12:26:21Z</time></trkpt><trkpt lat="43.81262870369641" lon="7.6319746098158765"><ele>20.0</ele><time>2026-03-29T12:26:22Z</time></trkpt><trkpt lat="43.81253515267784" lon="7.631897194744758"><ele>20.0</ele><time>2026-03-29T12:26:23Z</time></trkpt><trkpt lat="43.812448225564" lon="7.631818465676241"><ele>20.0</ele><time>2026-03-29T12:26:24Z</time></trkpt><trkpt lat="43.81236462623629" lon="7.6317295229063715"><ele>20.0</ele><time>2026-03-29T12:26:25Z</time></trkpt><trkpt lat="43.81230233450154" lon="7.631601148067255"><ele>20.0</ele><time>2026-03-29T12:26:26Z</time></trkpt><trkpt lat="43.81221888281307" lon="7.631477428436777"><ele>20.0</ele><time>2026-03-29T12:26:27Z</time></trkpt><trkpt lat="43.81215138749863" lon="7.631347138522216"><ele>20.0</ele><time>2026-03-29T12:26:28Z</time></trkpt><trkpt lat="43.81208399119544" lon="7.631246648659372"><ele>20.0</ele><time>2026-03-29T12:26:29Z</time></trkpt><trkpt lat="43.81201268777412" lon="7.6311465614360525"><ele>20.0</ele><time>2026-03-29T12:26:30Z</time></trkpt><trkpt lat="43.811939116539165" lon="7.631025866593991"><ele>20.0</ele><time>2026-03-29T12:26:31Z</time></trkpt><trkpt lat="43.81186693666845" lon="7.630878895424132"><ele>20.0</ele><time>2026-03-29T12:26:32Z</time></trkpt><trkpt lat="43.811799810848115" lon="7.630729880218177"><ele>20.0</ele><time>2026-03-29T12:26:33Z</time></trkpt><trkpt lat="43.81173241275125" lon="7.630606487043434"><ele>20.0</ele><time>2026-03-29T12:26:34Z</time></trkpt><trkpt lat="43.81166113123355" lon="7.630489119111878"><ele>19.8</ele><time>2026-03-29T12:26:35Z</time></trkpt><trkpt lat="43.81160056875586" lon="7.630374756405892"><ele>19.6</ele><time>2026-03-29T12:26:36Z</time></trkpt><trkpt lat="43.81155089426659" lon="7.630251498624544"><ele>19.4</ele><time>2026-03-29T12:26:37Z</time></trkpt><trkpt lat="43.81149214538754" lon="7.630120145057954"><ele>19.2</ele><time>2026-03-29T12:26:38Z</time></trkpt><trkpt lat="43.81142104274923" lon="7.629980529869811"><ele>19.0</ele><time>2026-03-29T12:26:39Z</time></trkpt><trkpt lat="43.81135282523015" lon="7.629842664614119"><ele>19.0</ele><time>2026-03-29T12:26:40Z</time></trkpt><trkpt lat="43.81128912112741" lon="7.62971514349096"><ele>19.0</ele><time>2026-03-29T12:26:41Z</time></trkpt><trkpt lat="43.81122397619971" lon="7.629589468326883"><ele>19.0</ele><time>2026-03-29T12:26:42Z</time></trkpt><trkpt lat="43.811158433731975" lon="7.62946539364576"><ele>19.0</ele><time>2026-03-29T12:26:43Z</time></trkpt><trkpt lat="43.811089216122554" lon="7.629349612981984"><ele>19.0</ele><time>2026-03-29T12:26:44Z</time></trkpt><trkpt lat="43.811022447425565" lon="7.629226400087319"><ele>18.599999999999998</ele><time>2026-03-29T12:26:45Z</time></trkpt><trkpt lat="43.810960628818286" lon="7.6291090525957195"><ele>18.2</ele><time>2026-03-29T12:26:46Z</time></trkpt><trkpt lat="43.81090581551824" lon="7.629005169253113"><ele>17.799999999999997</ele><time>2026-03-29T12:26:47Z</time></trkpt><trkpt lat="43.81085661938156" lon="7.628915490249843"><ele>17.4</ele><time>2026-03-29T12:26:48Z</time></trkpt><trkpt lat="43.81081446292794" lon="7.628821619217874"><ele>17.0</ele><time>2026-03-29T12:26:49Z</time></trkpt><trkpt lat="43.810788455203244" lon="7.628699972578093"><ele>17.6</ele><time>2026-03-29T12:26:50Z</time></trkpt><trkpt lat="43.8108053497443" lon="7.628548367888476"><ele>18.2</ele><time>2026-03-29T12:26:51Z</time></trkpt><trkpt lat="43.810813156541236" lon="7.628381778833762"><ele>18.8</ele><time>2026-03-29T12:26:52Z</time></trkpt><trkpt lat="43.81083668432703" lon="7.628253473791547"><ele>19.4</ele><time>2026-03-29T12:26:53Z</time></trkpt><trkpt lat="43.810855641452456" lon="7.628146624792576"><ele>20.0</ele><time>2026-03-29T12:26:54Z</time></trkpt><trkpt lat="43.81090044703374" lon="7.628002458110495"><ele>20.0</ele><time>2026-03-29T12:26:56Z</time></trkpt><trkpt lat="43.81092856675914" lon="7.62789988966524"><ele>20.0</ele><time>2026-03-29T12:26:58Z</time></trkpt><trkpt lat="43.810956234315405" lon="7.627806072066708"><ele>20.0</ele><time>2026-03-29T12:27:03Z</time></trkpt><trkpt lat="43.81085726239635" lon="7.627737806421047"><ele>20.0</ele><time>2026-03-29T12:27:04Z</time></trkpt><trkpt lat="43.8107761428757" lon="7.627675030338872"><ele>20.0</ele><time>2026-03-29T12:27:06Z</time></trkpt><trkpt lat="43.81070110835145" lon="7.627605233676052"><ele>20.0</ele><time>2026-03-29T12:27:08Z</time></trkpt><trkpt lat="43.8106419634313" lon="7.627559351844778"><ele>19.6</ele><time>2026-03-29T12:27:09Z</time></trkpt><trkpt lat="43.81057769944399" lon="7.627493299392865"><ele>19.2</ele><time>2026-03-29T12:27:10Z</time></trkpt><trkpt lat="43.81050771235747" lon="7.62743052126504"><ele>18.8</ele><time>2026-03-29T12:27:11Z</time></trkpt><trkpt lat="43.810433606585676" lon="7.627365862534087"><ele>18.4</ele><time>2026-03-29T12:27:12Z</time></trkpt><trkpt lat="43.81035633458279" lon="7.62728791621393"><ele>18.0</ele><time>2026-03-29T12:27:13Z</time></trkpt><trkpt lat="43.81026929982004" lon="7.627204555984104"><ele>18.0</ele><time>2026-03-29T12:27:14Z</time></trkpt><trkpt lat="43.81017955549689" lon="7.627111884916765"><ele>18.0</ele><time>2026-03-29T12:27:15Z</time></trkpt><trkpt lat="43.81008935378775" lon="7.627021553760782"><ele>18.0</ele><time>2026-03-29T12:27:16Z</time></trkpt><trkpt lat="43.810002985569554" lon="7.6269404109481735"><ele>18.0</ele><time>2026-03-29T12:27:17Z</time></trkpt><trkpt lat="43.809921830047415" lon="7.626866854656462"><ele>18.0</ele><time>2026-03-29T12:27:18Z</time></trkpt><trkpt lat="43.8098378381485" lon="7.626786933159487"><ele>18.25</ele><time>2026-03-29T12:27:19Z</time></trkpt><trkpt lat="43.80974447763114" lon="7.6267009252015425"><ele>18.5</ele><time>2026-03-29T12:27:20Z</time></trkpt><trkpt lat="43.80964327476817" lon="7.626607228191433"><ele>18.75</ele><time>2026-03-29T12:27:21Z</time></trkpt><trkpt lat="43.80951661271123" lon="7.626483183087523"><ele>19.0</ele><time>2026-03-29T12:27:22Z</time></trkpt><trkpt lat="43.80940149472958" lon="7.62636515808364"><ele>18.8</ele><time>2026-03-29T12:27:23Z</time></trkpt><trkpt lat="43.8093046217999" lon="7.626267391547513"><ele>18.599999999999998</ele><time>2026-03-29T12:27:24Z</time></trkpt><trkpt lat="43.809211473254884" lon="7.626181119853693"><ele>18.4</ele><time>2026-03-29T12:27:25Z</time></trkpt><trkpt lat="43.80912256288066" lon="7.626096816974235"><ele>18.2</ele><time>2026-03-29T12:27:26Z</time></trkpt><trkpt lat="43.80903988420385" lon="7.6260085074448805"><ele>18.0</ele><time>2026-03-29T12:27:27Z</time></trkpt><trkpt lat="43.808958997149475" lon="7.625921271883697"><ele>18.0</ele><time>2026-03-29T12:27:28Z</time></trkpt><trkpt lat="43.808878285449715" lon="7.625837116518412"><ele>18.0</ele><time>2026-03-29T12:27:29Z</time></trkpt><trkpt lat="43.80879936154619" lon="7.625765296105654"><ele>18.0</ele><time>2026-03-29T12:27:30Z</time></trkpt><trkpt lat="43.80872213849981" lon="7.625701717902881"><ele>18.0</ele><time>2026-03-29T12:27:31Z</time></trkpt><trkpt lat="43.80865744702794" lon="7.625644742742887"><ele>18.0</ele><time>2026-03-29T12:27:32Z</time></trkpt><trkpt lat="43.80859258210898" lon="7.625578134850118"><ele>18.0</ele><time>2026-03-29T12:27:33Z</time></trkpt><trkpt lat="43.80852245608036" lon="7.6255259746163855"><ele>18.2</ele><time>2026-03-29T12:27:34Z</time></trkpt><trkpt lat="43.80845093945994" lon="7.625476849014541"><ele>18.4</ele><time>2026-03-29T12:27:35Z</time></trkpt><trkpt lat="43.8083744740585" lon="7.62541595064348"><ele>18.599999999999998</ele><time>2026-03-29T12:27:36Z</time></trkpt><trkpt lat="43.80827365979666" lon="7.6253431496445625"><ele>18.8</ele><time>2026-03-29T12:27:37Z</time></trkpt><trkpt lat="43.8081510995107" lon="7.625269825528375"><ele>19.0</ele><time>2026-03-29T12:27:38Z</time></trkpt><trkpt lat="43.808022932076234" lon="7.625210695773497"><ele>19.0</ele><time>2026-03-29T12:27:39Z</time></trkpt><trkpt lat="43.8078967663758" lon="7.625156697105633"><ele>19.0</ele><time>2026-03-29T12:27:40Z</time></trkpt><trkpt lat="43.80775709904162" lon="7.62510201631044"><ele>19.0</ele><time>2026-03-29T12:27:41Z</time></trkpt><trkpt lat="43.80762311703429" lon="7.625058678904508"><ele>19.0</ele><time>2026-03-29T12:27:42Z</time></trkpt><trkpt lat="43.80749595699211" lon="7.625018783701573"><ele>20.0</ele><time>2026-03-29T12:27:43Z</time></trkpt><trkpt lat="43.80735946707903" lon="7.624982293911905"><ele>21.0</ele><time>2026-03-29T12:27:44Z</time></trkpt><trkpt lat="43.80720546553096" lon="7.62495957196557"><ele>22.0</ele><time>2026-03-29T12:27:45Z</time></trkpt><trkpt lat="43.80704087647363" lon="7.624944114554591"><ele>22.0</ele><time>2026-03-29T12:27:46Z</time></trkpt><trkpt lat="43.8068828790973" lon="7.624925781678601"><ele>22.0</ele><time>2026-03-29T12:27:47Z</time></trkpt><trkpt lat="43.806726724293" lon="7.6249114628649"><ele>22.0</ele><time>2026-03-29T12:27:48Z</time></trkpt><trkpt lat="43.8065736879925" lon="7.62489897595808"><ele>23.333333333333332</ele><time>2026-03-29T12:27:49Z</time></trkpt><trkpt lat="43.80640901972593" lon="7.624891846774414"><ele>24.666666666666664</ele><time>2026-03-29T12:27:50Z</time></trkpt><trkpt lat="43.80623547482063" lon="7.624874884347303"><ele>26.0</ele><time>2026-03-29T12:27:51Z</time></trkpt><trkpt lat="43.80608323075424" lon="7.624857476087037"><ele>25.75</ele><time>2026-03-29T12:27:52Z</time></trkpt><trkpt lat="43.80594775653682" lon="7.6248450038488755"><ele>25.5</ele><time>2026-03-29T12:27:53Z</time></trkpt><trkpt lat="43.80581886678736" lon="7.624836075598964"><ele>25.25</ele><time>2026-03-29T12:27:54Z</time></trkpt><trkpt lat="43.8056990980153" lon="7.624828212052697"><ele>25.0</ele><time>2026-03-29T12:27:55Z</time></trkpt><trkpt lat="43.805587136376815" lon="7.624821407526618"><ele>25.0</ele><time>2026-03-29T12:27:56Z</time></trkpt><trkpt lat="43.805478578071394" lon="7.62482234051854"><ele>25.0</ele><time>2026-03-29T12:27:57Z</time></trkpt><trkpt lat="43.80537189482505" lon="7.624824192551779"><ele>25.0</ele><time>2026-03-29T12:27:58Z</time></trkpt><trkpt lat="43.80526874909148" lon="7.624826124350732"><ele>25.0</ele><time>2026-03-29T12:27:59Z</time></trkpt><trkpt lat="43.80517802136914" lon="7.624829010131063"><ele>25.0</ele><time>2026-03-29T12:28:00Z</time></trkpt><trkpt lat="43.80509508612882" lon="7.624821716764863"><ele>23.833333333333336</ele><time>2026-03-29T12:28:01Z</time></trkpt><trkpt lat="43.80502065591152" lon="7.62482431270804"><ele>22.666666666666668</ele><time>2026-03-29T12:28:02Z</time></trkpt><trkpt lat="43.804961997883844" lon="7.624866801402564"><ele>21.5</ele><time>2026-03-29T12:28:03Z</time></trkpt><trkpt lat="43.80493654295855" lon="7.624957230356811"><ele>20.333333333333336</ele><time>2026-03-29T12:28:04Z</time></trkpt><trkpt lat="43.80494584096803" lon="7.625066828119523"><ele>19.166666666666668</ele><time>2026-03-29T12:28:05Z</time></trkpt><trkpt lat="43.80499051967057" lon="7.62517269668892"><ele>18.0</ele><time>2026-03-29T12:28:06Z</time></trkpt><trkpt lat="43.80496406551504" lon="7.625323426647025"><ele>16.5</ele><time>2026-03-29T12:28:07Z</time></trkpt><trkpt lat="43.804939494902094" lon="7.625479985988111"><ele>15.0</ele><time>2026-03-29T12:28:08Z</time></trkpt><trkpt lat="43.804919085044304" lon="7.625652618621098"><ele>13.5</ele><time>2026-03-29T12:28:09Z</time></trkpt><trkpt lat="43.804889789611146" lon="7.625872135995051"><ele>12.0</ele><time>2026-03-29T12:28:10Z</time></trkpt><trkpt lat="43.80485856706307" lon="7.62608857284531"><ele>12.25</ele><time>2026-03-29T12:28:11Z</time></trkpt><trkpt lat="43.80483105352051" lon="7.626294438058167"><ele>12.5</ele><time>2026-03-29T12:28:12Z</time></trkpt><trkpt lat="43.80480920758626" lon="7.62647547015835"><ele>12.75</ele><time>2026-03-29T12:28:13Z</time></trkpt><trkpt lat="43.8047873814353" lon="7.626646677694347"><ele>13.0</ele><time>2026-03-29T12:28:14Z</time></trkpt><trkpt lat="43.804763408617006" lon="7.626802743618254"><ele>13.0</ele><time>2026-03-29T12:28:15Z</time></trkpt><trkpt lat="43.80473992101741" lon="7.626950656838099"><ele>13.0</ele><time>2026-03-29T12:28:16Z</time></trkpt><trkpt lat="43.80471574435025" lon="7.627090628063014"><ele>13.0</ele><time>2026-03-29T12:28:17Z</time></trkpt><trkpt lat="43.80468920297959" lon="7.627226629313885"><ele>13.0</ele><time>2026-03-29T12:28:18Z</time></trkpt><trkpt lat="43.8046643398035" lon="7.627354751948278"><ele>13.0</ele><time>2026-03-29T12:28:19Z</time></trkpt><trkpt lat="43.804643352721264" lon="7.627480098490867"><ele>13.600000000000001</ele><time>2026-03-29T12:28:20Z</time></trkpt><trkpt lat="43.804618891217" lon="7.627603644458672"><ele>14.200000000000001</ele><time>2026-03-29T12:28:21Z</time></trkpt><trkpt lat="43.80458936312121" lon="7.627736443312521"><ele>14.8</ele><time>2026-03-29T12:28:22Z</time></trkpt><trkpt lat="43.80455292382826" lon="7.6278712977667595"><ele>15.4</ele><time>2026-03-29T12:28:23Z</time></trkpt><trkpt lat="43.804510103007026" lon="7.628005704476858"><ele>16.0</ele><time>2026-03-29T12:28:24Z</time></trkpt><trkpt lat="43.80445982978736" lon="7.628126165449883"><ele>15.999999999999998</ele><time>2026-03-29T12:28:25Z</time></trkpt><trkpt lat="43.80440749101096" lon="7.6282265592094145"><ele>16.0</ele><time>2026-03-29T12:28:26Z</time></trkpt><trkpt lat="43.8043438720136" lon="7.628301058157728"><ele>16.0</ele><time>2026-03-29T12:28:27Z</time></trkpt><trkpt lat="43.80426050729281" lon="7.628330794006304"><ele>16.0</ele><time>2026-03-29T12:28:28Z</time></trkpt><trkpt lat="43.804169055236436" lon="7.628334048180181"><ele>15.999999999999998</ele><time>2026-03-29T12:28:29Z</time></trkpt><trkpt lat="43.80408793967856" lon="7.628320158866675"><ele>16.0</ele><time>2026-03-29T12:28:30Z</time></trkpt><trkpt lat="43.80402253625735" lon="7.628312085829619"><ele>15.8</ele><time>2026-03-29T12:28:31Z</time></trkpt><trkpt lat="43.803939849329964" lon="7.62829468814357"><ele>15.600000000000001</ele><time>2026-03-29T12:28:33Z</time></trkpt><trkpt lat="43.80397878174291" lon="7.628200596699214"><ele>15.4</ele><time>2026-03-29T12:28:38Z</time></trkpt><trkpt lat="43.80410584816776" lon="7.628234338952338"><ele>15.2</ele><time>2026-03-29T12:28:40Z</time></trkpt><trkpt lat="43.80417784944057" lon="7.6282184490058205"><ele>15.0</ele><time>2026-03-29T12:28:42Z</time></trkpt><trkpt lat="43.80426881283475" lon="7.628198997181692"><ele>15.0</ele><time>2026-03-29T12:28:44Z</time></trkpt><trkpt lat="43.804309664797515" lon="7.628125175885974"><ele>15.0</ele><time>2026-03-29T12:28:46Z</time></trkpt><trkpt lat="43.80436516546001" lon="7.62807760673236"><ele>15.0</ele><time>2026-03-29T12:28:48Z</time></trkpt><trkpt lat="43.804413820967916" lon="7.627978454643901"><ele>15.0</ele><time>2026-03-29T12:28:51Z</time></trkpt><trkpt lat="43.804404550372446" lon="7.627851034683479"><ele>15.0</ele><time>2026-03-29T12:28:53Z</time></trkpt><trkpt lat="43.80440455037384" lon="7.6277485670730165"><ele>15.0</ele><time>2026-03-29T12:28:55Z</time></trkpt><trkpt lat="43.80428364697202" lon="7.627505036507944"><ele>15.0</ele><time>2026-03-29T12:28:57Z</time></trkpt><trkpt lat="43.80440487048196" lon="7.627777877024017"><ele>15.0</ele><time>2026-03-29T12:28:58Z</time></trkpt><trkpt lat="43.8038281203266" lon="7.627912683003366"><ele>15.0</ele><time>2026-03-29T12:29:19.433Z</time></trkpt></trkseg></trk></gpx>